<?xml version="1.0" encoding="UTF-8" standalone="no" ?>
<gpx xmlns="http://www.topografix.com/GPX/1/1" xmlns:xsi="http://www.w3.org/2001/XMLSchema-instance" xsi:schemaLocation="http://www.topografix.com/GPX/1/1 http://www.topografix.com/GPX/1/1/gpx.xsd" version="1.1" creator="VisuGPX - https://www.visugpx.com">
  <metadata>
    <name>j7 Camp-d-Argent--Sospel</name>
    <desc><![CDATA[De Camp d'Argent jusqu'à Sospel par le GR 52, les Cabanes Vieilles, la Baisse de la Déa, Mongialo, la Baisse de la Linère. Hébergement au camping du Mas Fleuri.]]></desc>
  </metadata>
  <trk>
    <name><![CDATA[20180623164348-1Hobk]]></name>
    <trkseg>
      <trkpt lat="43.9887" lon="7.40137">
        <ele>1744</ele>
        <time>2018-06-18T05:56:30Z</time>
      </trkpt>
      <trkpt lat="43.98868" lon="7.4014">
        <ele>1744</ele>
        <time>2018-06-18T05:56:37Z</time>
      </trkpt>
      <trkpt lat="43.98868" lon="7.4014">
        <ele>1744</ele>
        <time>2018-06-18T05:56:40Z</time>
      </trkpt>
      <trkpt lat="43.98868" lon="7.40141">
        <ele>1744</ele>
        <time>2018-06-18T05:56:41Z</time>
      </trkpt>
      <trkpt lat="43.9887" lon="7.40142">
        <ele>1744</ele>
        <time>2018-06-18T05:56:45Z</time>
      </trkpt>
      <trkpt lat="43.9887" lon="7.40143">
        <ele>1744</ele>
        <time>2018-06-18T05:56:49Z</time>
      </trkpt>
      <trkpt lat="43.9887" lon="7.40144">
        <ele>1744</ele>
        <time>2018-06-18T05:56:52Z</time>
      </trkpt>
      <trkpt lat="43.9887" lon="7.40145">
        <ele>1744</ele>
        <time>2018-06-18T05:56:56Z</time>
      </trkpt>
      <trkpt lat="43.9887" lon="7.40145">
        <ele>1744</ele>
        <time>2018-06-18T05:56:57Z</time>
      </trkpt>
      <trkpt lat="43.9887" lon="7.40145">
        <ele>1744</ele>
        <time>2018-06-18T05:57:01Z</time>
      </trkpt>
      <trkpt lat="43.98871" lon="7.40145">
        <ele>1744</ele>
        <time>2018-06-18T05:57:06Z</time>
      </trkpt>
      <trkpt lat="43.98871" lon="7.40145">
        <ele>1744</ele>
        <time>2018-06-18T05:57:08Z</time>
      </trkpt>
      <trkpt lat="43.9887" lon="7.40145">
        <ele>1744</ele>
        <time>2018-06-18T05:57:13Z</time>
      </trkpt>
      <trkpt lat="43.9887" lon="7.40146">
        <ele>1744</ele>
        <time>2018-06-18T05:57:20Z</time>
      </trkpt>
      <trkpt lat="43.9887" lon="7.40145">
        <ele>1744</ele>
        <time>2018-06-18T05:57:30Z</time>
      </trkpt>
      <trkpt lat="43.9887" lon="7.40145">
        <ele>1744</ele>
        <time>2018-06-18T05:57:31Z</time>
      </trkpt>
      <trkpt lat="43.9887" lon="7.40144">
        <ele>1744</ele>
        <time>2018-06-18T05:57:46Z</time>
      </trkpt>
      <trkpt lat="43.9887" lon="7.40144">
        <ele>1744</ele>
        <time>2018-06-18T05:58:15Z</time>
      </trkpt>
      <trkpt lat="43.9887" lon="7.40144">
        <ele>1744</ele>
        <time>2018-06-18T05:58:53Z</time>
      </trkpt>
      <trkpt lat="43.9887" lon="7.40144">
        <ele>1744</ele>
        <time>2018-06-18T05:58:55Z</time>
      </trkpt>
      <trkpt lat="43.9887" lon="7.40144">
        <ele>1744</ele>
        <time>2018-06-18T05:59:38Z</time>
      </trkpt>
      <trkpt lat="43.9887" lon="7.40144">
        <ele>1744</ele>
        <time>2018-06-18T05:59:41Z</time>
      </trkpt>
      <trkpt lat="43.98873" lon="7.40143">
        <ele>1744</ele>
        <time>2018-06-18T05:59:55Z</time>
      </trkpt>
      <trkpt lat="43.98873" lon="7.40142">
        <ele>1744</ele>
        <time>2018-06-18T06:00:34Z</time>
      </trkpt>
      <trkpt lat="43.98874" lon="7.40145">
        <ele>1744</ele>
        <time>2018-06-18T06:01:10Z</time>
      </trkpt>
      <trkpt lat="43.98874" lon="7.40144">
        <ele>1744</ele>
        <time>2018-06-18T06:01:27Z</time>
      </trkpt>
      <trkpt lat="43.98877" lon="7.40142">
        <ele>1744</ele>
        <time>2018-06-18T06:01:30Z</time>
      </trkpt>
      <trkpt lat="43.98876" lon="7.40134">
        <ele>1744</ele>
        <time>2018-06-18T06:01:34Z</time>
      </trkpt>
      <trkpt lat="43.98863" lon="7.40106">
        <ele>1743</ele>
        <time>2018-06-18T06:01:51Z</time>
      </trkpt>
      <trkpt lat="43.98849" lon="7.40082">
        <ele>1740</ele>
        <time>2018-06-18T06:02:07Z</time>
      </trkpt>
      <trkpt lat="43.98834" lon="7.40064">
        <ele>1739</ele>
        <time>2018-06-18T06:02:21Z</time>
      </trkpt>
      <trkpt lat="43.9883" lon="7.4006">
        <ele>1735</ele>
        <time>2018-06-18T06:02:26Z</time>
      </trkpt>
      <trkpt lat="43.98813" lon="7.40042">
        <ele>1734</ele>
        <time>2018-06-18T06:02:43Z</time>
      </trkpt>
      <trkpt lat="43.98809" lon="7.40038">
        <ele>1734</ele>
        <time>2018-06-18T06:02:47Z</time>
      </trkpt>
      <trkpt lat="43.98797" lon="7.40022">
        <ele>1733</ele>
        <time>2018-06-18T06:03:02Z</time>
      </trkpt>
      <trkpt lat="43.98794" lon="7.40021">
        <ele>1733</ele>
        <time>2018-06-18T06:03:16Z</time>
      </trkpt>
      <trkpt lat="43.98796" lon="7.40033">
        <ele>1733</ele>
        <time>2018-06-18T06:03:30Z</time>
      </trkpt>
      <trkpt lat="43.988" lon="7.40041">
        <ele>1733</ele>
        <time>2018-06-18T06:03:40Z</time>
      </trkpt>
      <trkpt lat="43.98809" lon="7.40056">
        <ele>1733</ele>
        <time>2018-06-18T06:03:50Z</time>
      </trkpt>
      <trkpt lat="43.98812" lon="7.40062">
        <ele>1734</ele>
        <time>2018-06-18T06:03:54Z</time>
      </trkpt>
      <trkpt lat="43.98817" lon="7.40082">
        <ele>1735</ele>
        <time>2018-06-18T06:04:06Z</time>
      </trkpt>
      <trkpt lat="43.98818" lon="7.40083">
        <ele>1735</ele>
        <time>2018-06-18T06:04:07Z</time>
      </trkpt>
      <trkpt lat="43.98821" lon="7.40089">
        <ele>1733</ele>
        <time>2018-06-18T06:04:11Z</time>
      </trkpt>
      <trkpt lat="43.98823" lon="7.40097">
        <ele>1732</ele>
        <time>2018-06-18T06:04:16Z</time>
      </trkpt>
      <trkpt lat="43.98826" lon="7.4011">
        <ele>1731</ele>
        <time>2018-06-18T06:04:23Z</time>
      </trkpt>
      <trkpt lat="43.98831" lon="7.40129">
        <ele>1730</ele>
        <time>2018-06-18T06:04:35Z</time>
      </trkpt>
      <trkpt lat="43.98828" lon="7.40149">
        <ele>1732</ele>
        <time>2018-06-18T06:04:46Z</time>
      </trkpt>
      <trkpt lat="43.9883" lon="7.40171">
        <ele>1736</ele>
        <time>2018-06-18T06:04:57Z</time>
      </trkpt>
      <trkpt lat="43.98829" lon="7.4018">
        <ele>1734</ele>
        <time>2018-06-18T06:05:02Z</time>
      </trkpt>
      <trkpt lat="43.98826" lon="7.40189">
        <ele>1732</ele>
        <time>2018-06-18T06:05:07Z</time>
      </trkpt>
      <trkpt lat="43.98825" lon="7.40194">
        <ele>1732</ele>
        <time>2018-06-18T06:05:10Z</time>
      </trkpt>
      <trkpt lat="43.98816" lon="7.40211">
        <ele>1731</ele>
        <time>2018-06-18T06:05:22Z</time>
      </trkpt>
      <trkpt lat="43.98807" lon="7.40227">
        <ele>1732</ele>
        <time>2018-06-18T06:05:32Z</time>
      </trkpt>
      <trkpt lat="43.98806" lon="7.40231">
        <ele>1732</ele>
        <time>2018-06-18T06:05:34Z</time>
      </trkpt>
      <trkpt lat="43.98805" lon="7.40237">
        <ele>1732</ele>
        <time>2018-06-18T06:05:39Z</time>
      </trkpt>
      <trkpt lat="43.98801" lon="7.4024">
        <ele>1731</ele>
        <time>2018-06-18T06:05:43Z</time>
      </trkpt>
      <trkpt lat="43.98793" lon="7.40247">
        <ele>1729</ele>
        <time>2018-06-18T06:05:51Z</time>
      </trkpt>
      <trkpt lat="43.98786" lon="7.40254">
        <ele>1736</ele>
        <time>2018-06-18T06:05:56Z</time>
      </trkpt>
      <trkpt lat="43.98778" lon="7.40262">
        <ele>1734</ele>
        <time>2018-06-18T06:06:02Z</time>
      </trkpt>
      <trkpt lat="43.98774" lon="7.40267">
        <ele>1734</ele>
        <time>2018-06-18T06:06:06Z</time>
      </trkpt>
      <trkpt lat="43.9876" lon="7.4028">
        <ele>1734</ele>
        <time>2018-06-18T06:06:20Z</time>
      </trkpt>
      <trkpt lat="43.9875" lon="7.40285">
        <ele>1734</ele>
        <time>2018-06-18T06:06:28Z</time>
      </trkpt>
      <trkpt lat="43.98747" lon="7.40287">
        <ele>1712</ele>
        <time>2018-06-18T06:06:30Z</time>
      </trkpt>
      <trkpt lat="43.98734" lon="7.40295">
        <ele>1711</ele>
        <time>2018-06-18T06:06:40Z</time>
      </trkpt>
      <trkpt lat="43.98731" lon="7.40298">
        <ele>1711</ele>
        <time>2018-06-18T06:06:43Z</time>
      </trkpt>
      <trkpt lat="43.98718" lon="7.40312">
        <ele>1709</ele>
        <time>2018-06-18T06:06:54Z</time>
      </trkpt>
      <trkpt lat="43.98714" lon="7.40319">
        <ele>1709</ele>
        <time>2018-06-18T06:06:59Z</time>
      </trkpt>
      <trkpt lat="43.98713" lon="7.40323">
        <ele>1709</ele>
        <time>2018-06-18T06:07:02Z</time>
      </trkpt>
      <trkpt lat="43.98708" lon="7.40341">
        <ele>1715</ele>
        <time>2018-06-18T06:07:13Z</time>
      </trkpt>
      <trkpt lat="43.9871" lon="7.4036">
        <ele>1716</ele>
        <time>2018-06-18T06:07:27Z</time>
      </trkpt>
      <trkpt lat="43.9871" lon="7.40366">
        <ele>1716</ele>
        <time>2018-06-18T06:07:31Z</time>
      </trkpt>
      <trkpt lat="43.9871" lon="7.40387">
        <ele>1717</ele>
        <time>2018-06-18T06:07:43Z</time>
      </trkpt>
      <trkpt lat="43.98711" lon="7.40394">
        <ele>1718</ele>
        <time>2018-06-18T06:07:47Z</time>
      </trkpt>
      <trkpt lat="43.98709" lon="7.40404">
        <ele>1717</ele>
        <time>2018-06-18T06:07:53Z</time>
      </trkpt>
      <trkpt lat="43.98707" lon="7.40411">
        <ele>1717</ele>
        <time>2018-06-18T06:07:58Z</time>
      </trkpt>
      <trkpt lat="43.987" lon="7.40427">
        <ele>1719</ele>
        <time>2018-06-18T06:08:09Z</time>
      </trkpt>
      <trkpt lat="43.98696" lon="7.40442">
        <ele>1719</ele>
        <time>2018-06-18T06:08:18Z</time>
      </trkpt>
      <trkpt lat="43.98696" lon="7.40453">
        <ele>1720</ele>
        <time>2018-06-18T06:08:25Z</time>
      </trkpt>
      <trkpt lat="43.98697" lon="7.40458">
        <ele>1720</ele>
        <time>2018-06-18T06:08:28Z</time>
      </trkpt>
      <trkpt lat="43.98698" lon="7.40473">
        <ele>1721</ele>
        <time>2018-06-18T06:08:37Z</time>
      </trkpt>
      <trkpt lat="43.98699" lon="7.40484">
        <ele>1722</ele>
        <time>2018-06-18T06:08:45Z</time>
      </trkpt>
      <trkpt lat="43.987" lon="7.40509">
        <ele>1729</ele>
        <time>2018-06-18T06:09:00Z</time>
      </trkpt>
      <trkpt lat="43.987" lon="7.40511">
        <ele>1729</ele>
        <time>2018-06-18T06:09:01Z</time>
      </trkpt>
      <trkpt lat="43.98693" lon="7.40531">
        <ele>1729</ele>
        <time>2018-06-18T06:09:15Z</time>
      </trkpt>
      <trkpt lat="43.98692" lon="7.40532">
        <ele>1729</ele>
        <time>2018-06-18T06:09:16Z</time>
      </trkpt>
      <trkpt lat="43.98681" lon="7.40546">
        <ele>1729</ele>
        <time>2018-06-18T06:09:28Z</time>
      </trkpt>
      <trkpt lat="43.98673" lon="7.40558">
        <ele>1728</ele>
        <time>2018-06-18T06:09:39Z</time>
      </trkpt>
      <trkpt lat="43.98663" lon="7.40575">
        <ele>1712</ele>
        <time>2018-06-18T06:09:53Z</time>
      </trkpt>
      <trkpt lat="43.98663" lon="7.40578">
        <ele>1714</ele>
        <time>2018-06-18T06:09:55Z</time>
      </trkpt>
      <trkpt lat="43.98659" lon="7.40587">
        <ele>1717</ele>
        <time>2018-06-18T06:10:01Z</time>
      </trkpt>
      <trkpt lat="43.9865" lon="7.40605">
        <ele>1712</ele>
        <time>2018-06-18T06:10:15Z</time>
      </trkpt>
      <trkpt lat="43.98642" lon="7.40616">
        <ele>1710</ele>
        <time>2018-06-18T06:10:28Z</time>
      </trkpt>
      <trkpt lat="43.98641" lon="7.40617">
        <ele>1710</ele>
        <time>2018-06-18T06:10:29Z</time>
      </trkpt>
      <trkpt lat="43.98639" lon="7.4062">
        <ele>1710</ele>
        <time>2018-06-18T06:10:32Z</time>
      </trkpt>
      <trkpt lat="43.98637" lon="7.40623">
        <ele>1710</ele>
        <time>2018-06-18T06:10:34Z</time>
      </trkpt>
      <trkpt lat="43.98631" lon="7.40637">
        <ele>1709</ele>
        <time>2018-06-18T06:10:45Z</time>
      </trkpt>
      <trkpt lat="43.98634" lon="7.40652">
        <ele>1711</ele>
        <time>2018-06-18T06:10:58Z</time>
      </trkpt>
      <trkpt lat="43.98639" lon="7.40655">
        <ele>1713</ele>
        <time>2018-06-18T06:11:09Z</time>
      </trkpt>
      <trkpt lat="43.98647" lon="7.40659">
        <ele>1715</ele>
        <time>2018-06-18T06:11:21Z</time>
      </trkpt>
      <trkpt lat="43.98649" lon="7.40662">
        <ele>1716</ele>
        <time>2018-06-18T06:11:25Z</time>
      </trkpt>
      <trkpt lat="43.98654" lon="7.40667">
        <ele>1716</ele>
        <time>2018-06-18T06:11:36Z</time>
      </trkpt>
      <trkpt lat="43.98657" lon="7.40672">
        <ele>1717</ele>
        <time>2018-06-18T06:11:40Z</time>
      </trkpt>
      <trkpt lat="43.98663" lon="7.4068">
        <ele>1715</ele>
        <time>2018-06-18T06:11:49Z</time>
      </trkpt>
      <trkpt lat="43.98669" lon="7.40687">
        <ele>1725</ele>
        <time>2018-06-18T06:11:58Z</time>
      </trkpt>
      <trkpt lat="43.98674" lon="7.4069">
        <ele>1725</ele>
        <time>2018-06-18T06:12:01Z</time>
      </trkpt>
      <trkpt lat="43.98677" lon="7.40692">
        <ele>1724</ele>
        <time>2018-06-18T06:12:04Z</time>
      </trkpt>
      <trkpt lat="43.98681" lon="7.40694">
        <ele>1725</ele>
        <time>2018-06-18T06:12:07Z</time>
      </trkpt>
      <trkpt lat="43.98687" lon="7.40701">
        <ele>1724</ele>
        <time>2018-06-18T06:12:18Z</time>
      </trkpt>
      <trkpt lat="43.987" lon="7.4071">
        <ele>1724</ele>
        <time>2018-06-18T06:12:31Z</time>
      </trkpt>
      <trkpt lat="43.98702" lon="7.40711">
        <ele>1724</ele>
        <time>2018-06-18T06:12:34Z</time>
      </trkpt>
      <trkpt lat="43.98705" lon="7.40712">
        <ele>1724</ele>
        <time>2018-06-18T06:12:37Z</time>
      </trkpt>
      <trkpt lat="43.98708" lon="7.40714">
        <ele>1724</ele>
        <time>2018-06-18T06:12:40Z</time>
      </trkpt>
      <trkpt lat="43.98711" lon="7.40719">
        <ele>1724</ele>
        <time>2018-06-18T06:12:46Z</time>
      </trkpt>
      <trkpt lat="43.98716" lon="7.40726">
        <ele>1724</ele>
        <time>2018-06-18T06:12:53Z</time>
      </trkpt>
      <trkpt lat="43.9872" lon="7.40734">
        <ele>1723</ele>
        <time>2018-06-18T06:12:59Z</time>
      </trkpt>
      <trkpt lat="43.98728" lon="7.40741">
        <ele>1724</ele>
        <time>2018-06-18T06:13:11Z</time>
      </trkpt>
      <trkpt lat="43.98734" lon="7.40747">
        <ele>1724</ele>
        <time>2018-06-18T06:13:20Z</time>
      </trkpt>
      <trkpt lat="43.98745" lon="7.40749">
        <ele>1724</ele>
        <time>2018-06-18T06:13:33Z</time>
      </trkpt>
      <trkpt lat="43.98753" lon="7.40754">
        <ele>1724</ele>
        <time>2018-06-18T06:13:40Z</time>
      </trkpt>
      <trkpt lat="43.98756" lon="7.40755">
        <ele>1725</ele>
        <time>2018-06-18T06:13:43Z</time>
      </trkpt>
      <trkpt lat="43.98765" lon="7.40758">
        <ele>1726</ele>
        <time>2018-06-18T06:13:53Z</time>
      </trkpt>
      <trkpt lat="43.98774" lon="7.40761">
        <ele>1727</ele>
        <time>2018-06-18T06:14:04Z</time>
      </trkpt>
      <trkpt lat="43.98784" lon="7.4077">
        <ele>1728</ele>
        <time>2018-06-18T06:14:17Z</time>
      </trkpt>
      <trkpt lat="43.98785" lon="7.40775">
        <ele>1728</ele>
        <time>2018-06-18T06:14:20Z</time>
      </trkpt>
      <trkpt lat="43.9879" lon="7.40792">
        <ele>1726</ele>
        <time>2018-06-18T06:14:34Z</time>
      </trkpt>
      <trkpt lat="43.98796" lon="7.40801">
        <ele>1726</ele>
        <time>2018-06-18T06:14:46Z</time>
      </trkpt>
      <trkpt lat="43.98799" lon="7.40809">
        <ele>1725</ele>
        <time>2018-06-18T06:14:52Z</time>
      </trkpt>
      <trkpt lat="43.98803" lon="7.40824">
        <ele>1724</ele>
        <time>2018-06-18T06:15:05Z</time>
      </trkpt>
      <trkpt lat="43.9881" lon="7.4084">
        <ele>1707</ele>
        <time>2018-06-18T06:15:18Z</time>
      </trkpt>
      <trkpt lat="43.98815" lon="7.40853">
        <ele>1705</ele>
        <time>2018-06-18T06:15:31Z</time>
      </trkpt>
      <trkpt lat="43.98819" lon="7.40858">
        <ele>1705</ele>
        <time>2018-06-18T06:15:36Z</time>
      </trkpt>
      <trkpt lat="43.98823" lon="7.40872">
        <ele>1701</ele>
        <time>2018-06-18T06:15:47Z</time>
      </trkpt>
      <trkpt lat="43.98828" lon="7.4088">
        <ele>1699</ele>
        <time>2018-06-18T06:15:56Z</time>
      </trkpt>
      <trkpt lat="43.98831" lon="7.40882">
        <ele>1699</ele>
        <time>2018-06-18T06:16:00Z</time>
      </trkpt>
      <trkpt lat="43.98832" lon="7.40883">
        <ele>1699</ele>
        <time>2018-06-18T06:16:02Z</time>
      </trkpt>
      <trkpt lat="43.98846" lon="7.40887">
        <ele>1726</ele>
        <time>2018-06-18T06:16:17Z</time>
      </trkpt>
      <trkpt lat="43.98858" lon="7.40898">
        <ele>1727</ele>
        <time>2018-06-18T06:16:30Z</time>
      </trkpt>
      <trkpt lat="43.98865" lon="7.40911">
        <ele>1728</ele>
        <time>2018-06-18T06:16:42Z</time>
      </trkpt>
      <trkpt lat="43.98864" lon="7.40927">
        <ele>1713</ele>
        <time>2018-06-18T06:16:54Z</time>
      </trkpt>
      <trkpt lat="43.98864" lon="7.40948">
        <ele>1712</ele>
        <time>2018-06-18T06:17:10Z</time>
      </trkpt>
      <trkpt lat="43.98867" lon="7.40965">
        <ele>1711</ele>
        <time>2018-06-18T06:17:25Z</time>
      </trkpt>
      <trkpt lat="43.9887" lon="7.40977">
        <ele>1710</ele>
        <time>2018-06-18T06:17:37Z</time>
      </trkpt>
      <trkpt lat="43.98871" lon="7.40979">
        <ele>1710</ele>
        <time>2018-06-18T06:17:39Z</time>
      </trkpt>
      <trkpt lat="43.98872" lon="7.40982">
        <ele>1711</ele>
        <time>2018-06-18T06:17:42Z</time>
      </trkpt>
      <trkpt lat="43.98876" lon="7.40993">
        <ele>1712</ele>
        <time>2018-06-18T06:17:51Z</time>
      </trkpt>
      <trkpt lat="43.9888" lon="7.41014">
        <ele>1701</ele>
        <time>2018-06-18T06:18:06Z</time>
      </trkpt>
      <trkpt lat="43.98878" lon="7.41034">
        <ele>1699</ele>
        <time>2018-06-18T06:18:20Z</time>
      </trkpt>
      <trkpt lat="43.98877" lon="7.41043">
        <ele>1697</ele>
        <time>2018-06-18T06:18:27Z</time>
      </trkpt>
      <trkpt lat="43.9888" lon="7.41054">
        <ele>1698</ele>
        <time>2018-06-18T06:18:35Z</time>
      </trkpt>
      <trkpt lat="43.98883" lon="7.41058">
        <ele>1698</ele>
        <time>2018-06-18T06:18:39Z</time>
      </trkpt>
      <trkpt lat="43.98893" lon="7.4107">
        <ele>1701</ele>
        <time>2018-06-18T06:18:54Z</time>
      </trkpt>
      <trkpt lat="43.98901" lon="7.41079">
        <ele>1704</ele>
        <time>2018-06-18T06:19:06Z</time>
      </trkpt>
      <trkpt lat="43.98903" lon="7.41081">
        <ele>1705</ele>
        <time>2018-06-18T06:19:08Z</time>
      </trkpt>
      <trkpt lat="43.98906" lon="7.41083">
        <ele>1706</ele>
        <time>2018-06-18T06:19:11Z</time>
      </trkpt>
      <trkpt lat="43.98913" lon="7.41096">
        <ele>1696</ele>
        <time>2018-06-18T06:19:24Z</time>
      </trkpt>
      <trkpt lat="43.98916" lon="7.41099">
        <ele>1694</ele>
        <time>2018-06-18T06:19:27Z</time>
      </trkpt>
      <trkpt lat="43.98921" lon="7.41105">
        <ele>1708</ele>
        <time>2018-06-18T06:19:32Z</time>
      </trkpt>
      <trkpt lat="43.98923" lon="7.41107">
        <ele>1707</ele>
        <time>2018-06-18T06:19:34Z</time>
      </trkpt>
      <trkpt lat="43.9893" lon="7.41122">
        <ele>1705</ele>
        <time>2018-06-18T06:19:46Z</time>
      </trkpt>
      <trkpt lat="43.98937" lon="7.41132">
        <ele>1703</ele>
        <time>2018-06-18T06:19:55Z</time>
      </trkpt>
      <trkpt lat="43.98948" lon="7.41144">
        <ele>1702</ele>
        <time>2018-06-18T06:20:07Z</time>
      </trkpt>
      <trkpt lat="43.98951" lon="7.4115">
        <ele>1702</ele>
        <time>2018-06-18T06:20:12Z</time>
      </trkpt>
      <trkpt lat="43.98959" lon="7.4117">
        <ele>1687</ele>
        <time>2018-06-18T06:20:26Z</time>
      </trkpt>
      <trkpt lat="43.98962" lon="7.41175">
        <ele>1688</ele>
        <time>2018-06-18T06:20:30Z</time>
      </trkpt>
      <trkpt lat="43.98968" lon="7.4118">
        <ele>1689</ele>
        <time>2018-06-18T06:20:36Z</time>
      </trkpt>
      <trkpt lat="43.98981" lon="7.41179">
        <ele>1693</ele>
        <time>2018-06-18T06:20:50Z</time>
      </trkpt>
      <trkpt lat="43.98987" lon="7.41182">
        <ele>1694</ele>
        <time>2018-06-18T06:20:57Z</time>
      </trkpt>
      <trkpt lat="43.98993" lon="7.41176">
        <ele>1698</ele>
        <time>2018-06-18T06:21:04Z</time>
      </trkpt>
      <trkpt lat="43.98996" lon="7.41174">
        <ele>1701</ele>
        <time>2018-06-18T06:21:08Z</time>
      </trkpt>
      <trkpt lat="43.99001" lon="7.41177">
        <ele>1708</ele>
        <time>2018-06-18T06:21:14Z</time>
      </trkpt>
      <trkpt lat="43.99008" lon="7.41179">
        <ele>1708</ele>
        <time>2018-06-18T06:21:23Z</time>
      </trkpt>
      <trkpt lat="43.99016" lon="7.41186">
        <ele>1707</ele>
        <time>2018-06-18T06:21:34Z</time>
      </trkpt>
      <trkpt lat="43.99024" lon="7.41186">
        <ele>1708</ele>
        <time>2018-06-18T06:21:48Z</time>
      </trkpt>
      <trkpt lat="43.99027" lon="7.41185">
        <ele>1708</ele>
        <time>2018-06-18T06:21:53Z</time>
      </trkpt>
      <trkpt lat="43.99038" lon="7.41186">
        <ele>1710</ele>
        <time>2018-06-18T06:22:04Z</time>
      </trkpt>
      <trkpt lat="43.99049" lon="7.4119">
        <ele>1711</ele>
        <time>2018-06-18T06:22:13Z</time>
      </trkpt>
      <trkpt lat="43.99058" lon="7.41204">
        <ele>1710</ele>
        <time>2018-06-18T06:22:26Z</time>
      </trkpt>
      <trkpt lat="43.99061" lon="7.41207">
        <ele>1710</ele>
        <time>2018-06-18T06:22:30Z</time>
      </trkpt>
      <trkpt lat="43.99065" lon="7.41215">
        <ele>1710</ele>
        <time>2018-06-18T06:22:36Z</time>
      </trkpt>
      <trkpt lat="43.99065" lon="7.41224">
        <ele>1709</ele>
        <time>2018-06-18T06:22:42Z</time>
      </trkpt>
      <trkpt lat="43.99063" lon="7.41232">
        <ele>1708</ele>
        <time>2018-06-18T06:22:48Z</time>
      </trkpt>
      <trkpt lat="43.99065" lon="7.41247">
        <ele>1708</ele>
        <time>2018-06-18T06:23:00Z</time>
      </trkpt>
      <trkpt lat="43.99066" lon="7.41251">
        <ele>1701</ele>
        <time>2018-06-18T06:23:04Z</time>
      </trkpt>
      <trkpt lat="43.99066" lon="7.41263">
        <ele>1699</ele>
        <time>2018-06-18T06:23:13Z</time>
      </trkpt>
      <trkpt lat="43.99068" lon="7.41277">
        <ele>1697</ele>
        <time>2018-06-18T06:23:24Z</time>
      </trkpt>
      <trkpt lat="43.99068" lon="7.41278">
        <ele>1697</ele>
        <time>2018-06-18T06:23:25Z</time>
      </trkpt>
      <trkpt lat="43.99073" lon="7.41298">
        <ele>1695</ele>
        <time>2018-06-18T06:23:40Z</time>
      </trkpt>
      <trkpt lat="43.99075" lon="7.41302">
        <ele>1695</ele>
        <time>2018-06-18T06:23:51Z</time>
      </trkpt>
      <trkpt lat="43.99076" lon="7.41304">
        <ele>1695</ele>
        <time>2018-06-18T06:24:05Z</time>
      </trkpt>
      <trkpt lat="43.99078" lon="7.41309">
        <ele>1695</ele>
        <time>2018-06-18T06:24:18Z</time>
      </trkpt>
      <trkpt lat="43.99079" lon="7.4131">
        <ele>1695</ele>
        <time>2018-06-18T06:24:34Z</time>
      </trkpt>
      <trkpt lat="43.99079" lon="7.41311">
        <ele>1696</ele>
        <time>2018-06-18T06:24:52Z</time>
      </trkpt>
      <trkpt lat="43.99082" lon="7.41318">
        <ele>1697</ele>
        <time>2018-06-18T06:25:04Z</time>
      </trkpt>
      <trkpt lat="43.99086" lon="7.41327">
        <ele>1707</ele>
        <time>2018-06-18T06:25:14Z</time>
      </trkpt>
      <trkpt lat="43.99095" lon="7.41337">
        <ele>1702</ele>
        <time>2018-06-18T06:25:26Z</time>
      </trkpt>
      <trkpt lat="43.99097" lon="7.4134">
        <ele>1702</ele>
        <time>2018-06-18T06:25:29Z</time>
      </trkpt>
      <trkpt lat="43.99101" lon="7.41346">
        <ele>1702</ele>
        <time>2018-06-18T06:25:34Z</time>
      </trkpt>
      <trkpt lat="43.99105" lon="7.41358">
        <ele>1702</ele>
        <time>2018-06-18T06:25:46Z</time>
      </trkpt>
      <trkpt lat="43.99104" lon="7.41361">
        <ele>1701</ele>
        <time>2018-06-18T06:25:58Z</time>
      </trkpt>
      <trkpt lat="43.99101" lon="7.41363">
        <ele>1701</ele>
        <time>2018-06-18T06:26:09Z</time>
      </trkpt>
      <trkpt lat="43.99102" lon="7.41367">
        <ele>1700</ele>
        <time>2018-06-18T06:26:23Z</time>
      </trkpt>
      <trkpt lat="43.99104" lon="7.41367">
        <ele>1700</ele>
        <time>2018-06-18T06:26:36Z</time>
      </trkpt>
      <trkpt lat="43.99105" lon="7.41368">
        <ele>1700</ele>
        <time>2018-06-18T06:26:54Z</time>
      </trkpt>
      <trkpt lat="43.99107" lon="7.41376">
        <ele>1699</ele>
        <time>2018-06-18T06:27:11Z</time>
      </trkpt>
      <trkpt lat="43.9911" lon="7.41378">
        <ele>1699</ele>
        <time>2018-06-18T06:27:15Z</time>
      </trkpt>
      <trkpt lat="43.99112" lon="7.4138">
        <ele>1699</ele>
        <time>2018-06-18T06:27:17Z</time>
      </trkpt>
      <trkpt lat="43.9912" lon="7.41383">
        <ele>1700</ele>
        <time>2018-06-18T06:27:30Z</time>
      </trkpt>
      <trkpt lat="43.99123" lon="7.41383">
        <ele>1700</ele>
        <time>2018-06-18T06:27:43Z</time>
      </trkpt>
      <trkpt lat="43.99126" lon="7.41386">
        <ele>1700</ele>
        <time>2018-06-18T06:27:55Z</time>
      </trkpt>
      <trkpt lat="43.99128" lon="7.41386">
        <ele>1700</ele>
        <time>2018-06-18T06:28:11Z</time>
      </trkpt>
      <trkpt lat="43.99133" lon="7.41387">
        <ele>1701</ele>
        <time>2018-06-18T06:28:22Z</time>
      </trkpt>
      <trkpt lat="43.99136" lon="7.41387">
        <ele>1701</ele>
        <time>2018-06-18T06:28:38Z</time>
      </trkpt>
      <trkpt lat="43.99138" lon="7.41387">
        <ele>1702</ele>
        <time>2018-06-18T06:28:53Z</time>
      </trkpt>
      <trkpt lat="43.99143" lon="7.41387">
        <ele>1702</ele>
        <time>2018-06-18T06:29:12Z</time>
      </trkpt>
      <trkpt lat="43.99149" lon="7.41391">
        <ele>1702</ele>
        <time>2018-06-18T06:29:29Z</time>
      </trkpt>
      <trkpt lat="43.99154" lon="7.41391">
        <ele>1702</ele>
        <time>2018-06-18T06:29:40Z</time>
      </trkpt>
      <trkpt lat="43.99161" lon="7.41394">
        <ele>1702</ele>
        <time>2018-06-18T06:29:53Z</time>
      </trkpt>
      <trkpt lat="43.99167" lon="7.41396">
        <ele>1711</ele>
        <time>2018-06-18T06:30:08Z</time>
      </trkpt>
      <trkpt lat="43.9917" lon="7.41395">
        <ele>1711</ele>
        <time>2018-06-18T06:30:27Z</time>
      </trkpt>
      <trkpt lat="43.9918" lon="7.41393">
        <ele>1713</ele>
        <time>2018-06-18T06:30:41Z</time>
      </trkpt>
      <trkpt lat="43.99187" lon="7.41392">
        <ele>1715</ele>
        <time>2018-06-18T06:30:54Z</time>
      </trkpt>
      <trkpt lat="43.99187" lon="7.41392">
        <ele>1715</ele>
        <time>2018-06-18T06:31:22Z</time>
      </trkpt>
      <trkpt lat="43.99193" lon="7.41396">
        <ele>1715</ele>
        <time>2018-06-18T06:31:37Z</time>
      </trkpt>
      <trkpt lat="43.99193" lon="7.41396">
        <ele>1715</ele>
        <time>2018-06-18T06:32:02Z</time>
      </trkpt>
      <trkpt lat="43.99195" lon="7.41398">
        <ele>1714</ele>
        <time>2018-06-18T06:32:27Z</time>
      </trkpt>
      <trkpt lat="43.99198" lon="7.41397">
        <ele>1715</ele>
        <time>2018-06-18T06:33:04Z</time>
      </trkpt>
      <trkpt lat="43.99198" lon="7.41397">
        <ele>1715</ele>
        <time>2018-06-18T06:33:24Z</time>
      </trkpt>
      <trkpt lat="43.99199" lon="7.41396">
        <ele>1715</ele>
        <time>2018-06-18T06:33:42Z</time>
      </trkpt>
      <trkpt lat="43.992" lon="7.41397">
        <ele>1715</ele>
        <time>2018-06-18T06:33:57Z</time>
      </trkpt>
      <trkpt lat="43.99199" lon="7.41397">
        <ele>1715</ele>
        <time>2018-06-18T06:35:01Z</time>
      </trkpt>
      <trkpt lat="43.99202" lon="7.41396">
        <ele>1716</ele>
        <time>2018-06-18T06:35:39Z</time>
      </trkpt>
      <trkpt lat="43.992" lon="7.41397">
        <ele>1715</ele>
        <time>2018-06-18T06:35:52Z</time>
      </trkpt>
      <trkpt lat="43.99202" lon="7.41395">
        <ele>1716</ele>
        <time>2018-06-18T06:37:24Z</time>
      </trkpt>
      <trkpt lat="43.9921" lon="7.4139">
        <ele>1718</ele>
        <time>2018-06-18T06:37:34Z</time>
      </trkpt>
      <trkpt lat="43.99221" lon="7.4139">
        <ele>1718</ele>
        <time>2018-06-18T06:37:46Z</time>
      </trkpt>
      <trkpt lat="43.99225" lon="7.41389">
        <ele>1719</ele>
        <time>2018-06-18T06:37:50Z</time>
      </trkpt>
      <trkpt lat="43.99233" lon="7.41393">
        <ele>1718</ele>
        <time>2018-06-18T06:38:03Z</time>
      </trkpt>
      <trkpt lat="43.99242" lon="7.41399">
        <ele>1716</ele>
        <time>2018-06-18T06:38:14Z</time>
      </trkpt>
      <trkpt lat="43.99244" lon="7.41399">
        <ele>1716</ele>
        <time>2018-06-18T06:38:16Z</time>
      </trkpt>
      <trkpt lat="43.99253" lon="7.41399">
        <ele>1725</ele>
        <time>2018-06-18T06:38:29Z</time>
      </trkpt>
      <trkpt lat="43.99263" lon="7.41398">
        <ele>1728</ele>
        <time>2018-06-18T06:38:43Z</time>
      </trkpt>
      <trkpt lat="43.99266" lon="7.41413">
        <ele>1725</ele>
        <time>2018-06-18T06:38:55Z</time>
      </trkpt>
      <trkpt lat="43.99265" lon="7.41421">
        <ele>1719</ele>
        <time>2018-06-18T06:39:07Z</time>
      </trkpt>
      <trkpt lat="43.99263" lon="7.41432">
        <ele>1720</ele>
        <time>2018-06-18T06:39:20Z</time>
      </trkpt>
      <trkpt lat="43.99263" lon="7.41438">
        <ele>1721</ele>
        <time>2018-06-18T06:39:33Z</time>
      </trkpt>
      <trkpt lat="43.99262" lon="7.41448">
        <ele>1722</ele>
        <time>2018-06-18T06:39:45Z</time>
      </trkpt>
      <trkpt lat="43.99262" lon="7.4146">
        <ele>1722</ele>
        <time>2018-06-18T06:39:57Z</time>
      </trkpt>
      <trkpt lat="43.99262" lon="7.41478">
        <ele>1719</ele>
        <time>2018-06-18T06:40:12Z</time>
      </trkpt>
      <trkpt lat="43.99258" lon="7.41498">
        <ele>1711</ele>
        <time>2018-06-18T06:40:28Z</time>
      </trkpt>
      <trkpt lat="43.99255" lon="7.41516">
        <ele>1714</ele>
        <time>2018-06-18T06:40:43Z</time>
      </trkpt>
      <trkpt lat="43.9926" lon="7.4153">
        <ele>1717</ele>
        <time>2018-06-18T06:40:56Z</time>
      </trkpt>
      <trkpt lat="43.99263" lon="7.41543">
        <ele>1718</ele>
        <time>2018-06-18T06:41:08Z</time>
      </trkpt>
      <trkpt lat="43.99264" lon="7.41546">
        <ele>1718</ele>
        <time>2018-06-18T06:41:10Z</time>
      </trkpt>
      <trkpt lat="43.99268" lon="7.41559">
        <ele>1717</ele>
        <time>2018-06-18T06:41:22Z</time>
      </trkpt>
      <trkpt lat="43.99271" lon="7.41567">
        <ele>1717</ele>
        <time>2018-06-18T06:41:29Z</time>
      </trkpt>
      <trkpt lat="43.99274" lon="7.41577">
        <ele>1717</ele>
        <time>2018-06-18T06:41:38Z</time>
      </trkpt>
      <trkpt lat="43.99278" lon="7.41585">
        <ele>1714</ele>
        <time>2018-06-18T06:41:47Z</time>
      </trkpt>
      <trkpt lat="43.9928" lon="7.41588">
        <ele>1715</ele>
        <time>2018-06-18T06:41:50Z</time>
      </trkpt>
      <trkpt lat="43.99281" lon="7.4159">
        <ele>1715</ele>
        <time>2018-06-18T06:41:52Z</time>
      </trkpt>
      <trkpt lat="43.99288" lon="7.41601">
        <ele>1717</ele>
        <time>2018-06-18T06:42:03Z</time>
      </trkpt>
      <trkpt lat="43.9929" lon="7.41607">
        <ele>1718</ele>
        <time>2018-06-18T06:42:08Z</time>
      </trkpt>
      <trkpt lat="43.99295" lon="7.41617">
        <ele>1719</ele>
        <time>2018-06-18T06:42:16Z</time>
      </trkpt>
      <trkpt lat="43.993" lon="7.41623">
        <ele>1720</ele>
        <time>2018-06-18T06:42:22Z</time>
      </trkpt>
      <trkpt lat="43.99307" lon="7.41634">
        <ele>1720</ele>
        <time>2018-06-18T06:42:34Z</time>
      </trkpt>
      <trkpt lat="43.99315" lon="7.41647">
        <ele>1722</ele>
        <time>2018-06-18T06:42:47Z</time>
      </trkpt>
      <trkpt lat="43.99322" lon="7.41655">
        <ele>1724</ele>
        <time>2018-06-18T06:42:56Z</time>
      </trkpt>
      <trkpt lat="43.99329" lon="7.41661">
        <ele>1726</ele>
        <time>2018-06-18T06:43:05Z</time>
      </trkpt>
      <trkpt lat="43.99333" lon="7.41667">
        <ele>1729</ele>
        <time>2018-06-18T06:43:11Z</time>
      </trkpt>
      <trkpt lat="43.99336" lon="7.41683">
        <ele>1743</ele>
        <time>2018-06-18T06:43:25Z</time>
      </trkpt>
      <trkpt lat="43.99337" lon="7.41697">
        <ele>1748</ele>
        <time>2018-06-18T06:43:36Z</time>
      </trkpt>
      <trkpt lat="43.99334" lon="7.41711">
        <ele>1749</ele>
        <time>2018-06-18T06:43:50Z</time>
      </trkpt>
      <trkpt lat="43.99327" lon="7.41722">
        <ele>1727</ele>
        <time>2018-06-18T06:44:03Z</time>
      </trkpt>
      <trkpt lat="43.99326" lon="7.41737">
        <ele>1731</ele>
        <time>2018-06-18T06:44:18Z</time>
      </trkpt>
      <trkpt lat="43.99328" lon="7.41744">
        <ele>1734</ele>
        <time>2018-06-18T06:44:25Z</time>
      </trkpt>
      <trkpt lat="43.99331" lon="7.41758">
        <ele>1740</ele>
        <time>2018-06-18T06:44:37Z</time>
      </trkpt>
      <trkpt lat="43.99332" lon="7.41768">
        <ele>1742</ele>
        <time>2018-06-18T06:44:48Z</time>
      </trkpt>
      <trkpt lat="43.99329" lon="7.41776">
        <ele>1744</ele>
        <time>2018-06-18T06:44:59Z</time>
      </trkpt>
      <trkpt lat="43.99328" lon="7.41776">
        <ele>1744</ele>
        <time>2018-06-18T06:45:00Z</time>
      </trkpt>
      <trkpt lat="43.99323" lon="7.41778">
        <ele>1744</ele>
        <time>2018-06-18T06:45:13Z</time>
      </trkpt>
      <trkpt lat="43.99324" lon="7.41784">
        <ele>1745</ele>
        <time>2018-06-18T06:45:26Z</time>
      </trkpt>
      <trkpt lat="43.99321" lon="7.41786">
        <ele>1745</ele>
        <time>2018-06-18T06:45:35Z</time>
      </trkpt>
      <trkpt lat="43.99316" lon="7.4179">
        <ele>1746</ele>
        <time>2018-06-18T06:45:49Z</time>
      </trkpt>
      <trkpt lat="43.99308" lon="7.41792">
        <ele>1746</ele>
        <time>2018-06-18T06:46:00Z</time>
      </trkpt>
      <trkpt lat="43.993" lon="7.41793">
        <ele>1745</ele>
        <time>2018-06-18T06:46:11Z</time>
      </trkpt>
      <trkpt lat="43.99293" lon="7.41798">
        <ele>1745</ele>
        <time>2018-06-18T06:46:23Z</time>
      </trkpt>
      <trkpt lat="43.99288" lon="7.41799">
        <ele>1745</ele>
        <time>2018-06-18T06:46:35Z</time>
      </trkpt>
      <trkpt lat="43.99281" lon="7.41801">
        <ele>1745</ele>
        <time>2018-06-18T06:46:45Z</time>
      </trkpt>
      <trkpt lat="43.99278" lon="7.41806">
        <ele>1745</ele>
        <time>2018-06-18T06:46:57Z</time>
      </trkpt>
      <trkpt lat="43.99272" lon="7.41814">
        <ele>1747</ele>
        <time>2018-06-18T06:47:10Z</time>
      </trkpt>
      <trkpt lat="43.99266" lon="7.41818">
        <ele>1748</ele>
        <time>2018-06-18T06:47:22Z</time>
      </trkpt>
      <trkpt lat="43.9926" lon="7.41821">
        <ele>1748</ele>
        <time>2018-06-18T06:47:34Z</time>
      </trkpt>
      <trkpt lat="43.99251" lon="7.4183">
        <ele>1752</ele>
        <time>2018-06-18T06:47:49Z</time>
      </trkpt>
      <trkpt lat="43.99245" lon="7.41838">
        <ele>1753</ele>
        <time>2018-06-18T06:48:02Z</time>
      </trkpt>
      <trkpt lat="43.99239" lon="7.41855">
        <ele>1755</ele>
        <time>2018-06-18T06:48:13Z</time>
      </trkpt>
      <trkpt lat="43.99236" lon="7.41861">
        <ele>1756</ele>
        <time>2018-06-18T06:48:20Z</time>
      </trkpt>
      <trkpt lat="43.99231" lon="7.41876">
        <ele>1758</ele>
        <time>2018-06-18T06:48:34Z</time>
      </trkpt>
      <trkpt lat="43.99229" lon="7.41887">
        <ele>1760</ele>
        <time>2018-06-18T06:48:47Z</time>
      </trkpt>
      <trkpt lat="43.99226" lon="7.41897">
        <ele>1762</ele>
        <time>2018-06-18T06:48:58Z</time>
      </trkpt>
      <trkpt lat="43.99221" lon="7.4191">
        <ele>1763</ele>
        <time>2018-06-18T06:49:10Z</time>
      </trkpt>
      <trkpt lat="43.9922" lon="7.41912">
        <ele>1763</ele>
        <time>2018-06-18T06:49:12Z</time>
      </trkpt>
      <trkpt lat="43.99211" lon="7.41918">
        <ele>1778</ele>
        <time>2018-06-18T06:49:25Z</time>
      </trkpt>
      <trkpt lat="43.99201" lon="7.41922">
        <ele>1776</ele>
        <time>2018-06-18T06:49:37Z</time>
      </trkpt>
      <trkpt lat="43.99195" lon="7.41921">
        <ele>1774</ele>
        <time>2018-06-18T06:49:44Z</time>
      </trkpt>
      <trkpt lat="43.9918" lon="7.41922">
        <ele>1768</ele>
        <time>2018-06-18T06:50:00Z</time>
      </trkpt>
      <trkpt lat="43.99169" lon="7.41933">
        <ele>1770</ele>
        <time>2018-06-18T06:50:16Z</time>
      </trkpt>
      <trkpt lat="43.99163" lon="7.41944">
        <ele>1757</ele>
        <time>2018-06-18T06:50:29Z</time>
      </trkpt>
      <trkpt lat="43.99154" lon="7.41955">
        <ele>1758</ele>
        <time>2018-06-18T06:50:39Z</time>
      </trkpt>
      <trkpt lat="43.99142" lon="7.41971">
        <ele>1759</ele>
        <time>2018-06-18T06:50:53Z</time>
      </trkpt>
      <trkpt lat="43.99135" lon="7.41982">
        <ele>1759</ele>
        <time>2018-06-18T06:51:05Z</time>
      </trkpt>
      <trkpt lat="43.99131" lon="7.41993">
        <ele>1760</ele>
        <time>2018-06-18T06:51:16Z</time>
      </trkpt>
      <trkpt lat="43.9913" lon="7.41994">
        <ele>1759</ele>
        <time>2018-06-18T06:51:39Z</time>
      </trkpt>
      <trkpt lat="43.99131" lon="7.41994">
        <ele>1760</ele>
        <time>2018-06-18T06:52:06Z</time>
      </trkpt>
      <trkpt lat="43.99131" lon="7.41994">
        <ele>1760</ele>
        <time>2018-06-18T06:53:00Z</time>
      </trkpt>
      <trkpt lat="43.99131" lon="7.41994">
        <ele>1760</ele>
        <time>2018-06-18T06:53:24Z</time>
      </trkpt>
      <trkpt lat="43.9913" lon="7.41994">
        <ele>1759</ele>
        <time>2018-06-18T06:53:59Z</time>
      </trkpt>
      <trkpt lat="43.9913" lon="7.41994">
        <ele>1759</ele>
        <time>2018-06-18T06:55:05Z</time>
      </trkpt>
      <trkpt lat="43.9913" lon="7.41999">
        <ele>1760</ele>
        <time>2018-06-18T06:55:26Z</time>
      </trkpt>
      <trkpt lat="43.9913" lon="7.42">
        <ele>1767</ele>
        <time>2018-06-18T06:55:27Z</time>
      </trkpt>
      <trkpt lat="43.9913" lon="7.42009">
        <ele>1767</ele>
        <time>2018-06-18T06:55:35Z</time>
      </trkpt>
      <trkpt lat="43.99135" lon="7.42029">
        <ele>1767</ele>
        <time>2018-06-18T06:55:51Z</time>
      </trkpt>
      <trkpt lat="43.99139" lon="7.42045">
        <ele>1768</ele>
        <time>2018-06-18T06:56:06Z</time>
      </trkpt>
      <trkpt lat="43.99141" lon="7.42055">
        <ele>1768</ele>
        <time>2018-06-18T06:56:18Z</time>
      </trkpt>
      <trkpt lat="43.99144" lon="7.42065">
        <ele>1770</ele>
        <time>2018-06-18T06:56:28Z</time>
      </trkpt>
      <trkpt lat="43.99145" lon="7.4207">
        <ele>1771</ele>
        <time>2018-06-18T06:56:32Z</time>
      </trkpt>
      <trkpt lat="43.99146" lon="7.42076">
        <ele>1771</ele>
        <time>2018-06-18T06:56:38Z</time>
      </trkpt>
      <trkpt lat="43.99149" lon="7.42081">
        <ele>1773</ele>
        <time>2018-06-18T06:56:44Z</time>
      </trkpt>
      <trkpt lat="43.99152" lon="7.42086">
        <ele>1770</ele>
        <time>2018-06-18T06:56:49Z</time>
      </trkpt>
      <trkpt lat="43.99155" lon="7.42096">
        <ele>1769</ele>
        <time>2018-06-18T06:56:57Z</time>
      </trkpt>
      <trkpt lat="43.99156" lon="7.42098">
        <ele>1769</ele>
        <time>2018-06-18T06:56:59Z</time>
      </trkpt>
      <trkpt lat="43.99158" lon="7.42102">
        <ele>1768</ele>
        <time>2018-06-18T06:57:02Z</time>
      </trkpt>
      <trkpt lat="43.99161" lon="7.4211">
        <ele>1766</ele>
        <time>2018-06-18T06:57:10Z</time>
      </trkpt>
      <trkpt lat="43.99162" lon="7.42116">
        <ele>1764</ele>
        <time>2018-06-18T06:57:14Z</time>
      </trkpt>
      <trkpt lat="43.99166" lon="7.42123">
        <ele>1763</ele>
        <time>2018-06-18T06:57:20Z</time>
      </trkpt>
      <trkpt lat="43.99168" lon="7.42128">
        <ele>1788</ele>
        <time>2018-06-18T06:57:24Z</time>
      </trkpt>
      <trkpt lat="43.99167" lon="7.42135">
        <ele>1787</ele>
        <time>2018-06-18T06:57:28Z</time>
      </trkpt>
      <trkpt lat="43.99168" lon="7.42149">
        <ele>1782</ele>
        <time>2018-06-18T06:57:39Z</time>
      </trkpt>
      <trkpt lat="43.99168" lon="7.42154">
        <ele>1779</ele>
        <time>2018-06-18T06:57:42Z</time>
      </trkpt>
      <trkpt lat="43.99169" lon="7.4216">
        <ele>1775</ele>
        <time>2018-06-18T06:57:47Z</time>
      </trkpt>
      <trkpt lat="43.99172" lon="7.42181">
        <ele>1775</ele>
        <time>2018-06-18T06:58:01Z</time>
      </trkpt>
      <trkpt lat="43.99173" lon="7.42187">
        <ele>1776</ele>
        <time>2018-06-18T06:58:05Z</time>
      </trkpt>
      <trkpt lat="43.99175" lon="7.42193">
        <ele>1777</ele>
        <time>2018-06-18T06:58:10Z</time>
      </trkpt>
      <trkpt lat="43.99176" lon="7.42197">
        <ele>1777</ele>
        <time>2018-06-18T06:58:14Z</time>
      </trkpt>
      <trkpt lat="43.99178" lon="7.42209">
        <ele>1777</ele>
        <time>2018-06-18T06:58:23Z</time>
      </trkpt>
      <trkpt lat="43.99178" lon="7.42214">
        <ele>1776</ele>
        <time>2018-06-18T06:58:26Z</time>
      </trkpt>
      <trkpt lat="43.99179" lon="7.42216">
        <ele>1775</ele>
        <time>2018-06-18T06:58:28Z</time>
      </trkpt>
      <trkpt lat="43.99182" lon="7.42224">
        <ele>1774</ele>
        <time>2018-06-18T06:58:35Z</time>
      </trkpt>
      <trkpt lat="43.99187" lon="7.42234">
        <ele>1773</ele>
        <time>2018-06-18T06:58:43Z</time>
      </trkpt>
      <trkpt lat="43.99193" lon="7.42248">
        <ele>1774</ele>
        <time>2018-06-18T06:58:56Z</time>
      </trkpt>
      <trkpt lat="43.99197" lon="7.42253">
        <ele>1764</ele>
        <time>2018-06-18T06:59:03Z</time>
      </trkpt>
      <trkpt lat="43.99203" lon="7.42261">
        <ele>1766</ele>
        <time>2018-06-18T06:59:12Z</time>
      </trkpt>
      <trkpt lat="43.99205" lon="7.42265">
        <ele>1766</ele>
        <time>2018-06-18T06:59:15Z</time>
      </trkpt>
      <trkpt lat="43.99207" lon="7.42267">
        <ele>1767</ele>
        <time>2018-06-18T06:59:17Z</time>
      </trkpt>
      <trkpt lat="43.99209" lon="7.4227">
        <ele>1767</ele>
        <time>2018-06-18T06:59:21Z</time>
      </trkpt>
      <trkpt lat="43.99212" lon="7.42274">
        <ele>1768</ele>
        <time>2018-06-18T06:59:25Z</time>
      </trkpt>
      <trkpt lat="43.99215" lon="7.42275">
        <ele>1769</ele>
        <time>2018-06-18T06:59:28Z</time>
      </trkpt>
      <trkpt lat="43.99217" lon="7.42277">
        <ele>1769</ele>
        <time>2018-06-18T06:59:30Z</time>
      </trkpt>
      <trkpt lat="43.9922" lon="7.42284">
        <ele>1769</ele>
        <time>2018-06-18T06:59:37Z</time>
      </trkpt>
      <trkpt lat="43.99223" lon="7.42292">
        <ele>1768</ele>
        <time>2018-06-18T06:59:43Z</time>
      </trkpt>
      <trkpt lat="43.99231" lon="7.42306">
        <ele>1769</ele>
        <time>2018-06-18T06:59:56Z</time>
      </trkpt>
      <trkpt lat="43.99233" lon="7.42312">
        <ele>1769</ele>
        <time>2018-06-18T07:00:01Z</time>
      </trkpt>
      <trkpt lat="43.99237" lon="7.4232">
        <ele>1770</ele>
        <time>2018-06-18T07:00:08Z</time>
      </trkpt>
      <trkpt lat="43.99237" lon="7.42323">
        <ele>1770</ele>
        <time>2018-06-18T07:00:10Z</time>
      </trkpt>
      <trkpt lat="43.99245" lon="7.42335">
        <ele>1771</ele>
        <time>2018-06-18T07:00:22Z</time>
      </trkpt>
      <trkpt lat="43.99247" lon="7.42337">
        <ele>1772</ele>
        <time>2018-06-18T07:00:24Z</time>
      </trkpt>
      <trkpt lat="43.99256" lon="7.4235">
        <ele>1783</ele>
        <time>2018-06-18T07:00:36Z</time>
      </trkpt>
      <trkpt lat="43.99257" lon="7.42353">
        <ele>1784</ele>
        <time>2018-06-18T07:00:38Z</time>
      </trkpt>
      <trkpt lat="43.99257" lon="7.42356">
        <ele>1784</ele>
        <time>2018-06-18T07:00:40Z</time>
      </trkpt>
      <trkpt lat="43.99258" lon="7.42361">
        <ele>1785</ele>
        <time>2018-06-18T07:00:43Z</time>
      </trkpt>
      <trkpt lat="43.9926" lon="7.42364">
        <ele>1785</ele>
        <time>2018-06-18T07:00:45Z</time>
      </trkpt>
      <trkpt lat="43.99262" lon="7.42367">
        <ele>1786</ele>
        <time>2018-06-18T07:00:48Z</time>
      </trkpt>
      <trkpt lat="43.99264" lon="7.42374">
        <ele>1785</ele>
        <time>2018-06-18T07:00:53Z</time>
      </trkpt>
      <trkpt lat="43.99265" lon="7.42381">
        <ele>1785</ele>
        <time>2018-06-18T07:00:58Z</time>
      </trkpt>
      <trkpt lat="43.99267" lon="7.42383">
        <ele>1785</ele>
        <time>2018-06-18T07:01:00Z</time>
      </trkpt>
      <trkpt lat="43.99271" lon="7.42391">
        <ele>1784</ele>
        <time>2018-06-18T07:01:07Z</time>
      </trkpt>
      <trkpt lat="43.99274" lon="7.42397">
        <ele>1784</ele>
        <time>2018-06-18T07:01:12Z</time>
      </trkpt>
      <trkpt lat="43.99276" lon="7.42403">
        <ele>1784</ele>
        <time>2018-06-18T07:01:17Z</time>
      </trkpt>
      <trkpt lat="43.99278" lon="7.42406">
        <ele>1784</ele>
        <time>2018-06-18T07:01:20Z</time>
      </trkpt>
      <trkpt lat="43.9928" lon="7.4241">
        <ele>1785</ele>
        <time>2018-06-18T07:01:24Z</time>
      </trkpt>
      <trkpt lat="43.99282" lon="7.42417">
        <ele>1785</ele>
        <time>2018-06-18T07:01:29Z</time>
      </trkpt>
      <trkpt lat="43.99283" lon="7.42419">
        <ele>1785</ele>
        <time>2018-06-18T07:01:31Z</time>
      </trkpt>
      <trkpt lat="43.99286" lon="7.42422">
        <ele>1786</ele>
        <time>2018-06-18T07:01:34Z</time>
      </trkpt>
      <trkpt lat="43.99286" lon="7.42426">
        <ele>1787</ele>
        <time>2018-06-18T07:01:37Z</time>
      </trkpt>
      <trkpt lat="43.99285" lon="7.42431">
        <ele>1786</ele>
        <time>2018-06-18T07:01:41Z</time>
      </trkpt>
      <trkpt lat="43.99275" lon="7.42442">
        <ele>1784</ele>
        <time>2018-06-18T07:01:55Z</time>
      </trkpt>
      <trkpt lat="43.99266" lon="7.42448">
        <ele>1784</ele>
        <time>2018-06-18T07:02:06Z</time>
      </trkpt>
      <trkpt lat="43.99255" lon="7.42455">
        <ele>1783</ele>
        <time>2018-06-18T07:02:19Z</time>
      </trkpt>
      <trkpt lat="43.99255" lon="7.42457">
        <ele>1784</ele>
        <time>2018-06-18T07:02:20Z</time>
      </trkpt>
      <trkpt lat="43.9925" lon="7.42472">
        <ele>1785</ele>
        <time>2018-06-18T07:02:34Z</time>
      </trkpt>
      <trkpt lat="43.99249" lon="7.42487">
        <ele>1774</ele>
        <time>2018-06-18T07:02:46Z</time>
      </trkpt>
      <trkpt lat="43.99248" lon="7.4249">
        <ele>1775</ele>
        <time>2018-06-18T07:02:48Z</time>
      </trkpt>
      <trkpt lat="43.99238" lon="7.42495">
        <ele>1774</ele>
        <time>2018-06-18T07:02:57Z</time>
      </trkpt>
      <trkpt lat="43.99229" lon="7.4249">
        <ele>1770</ele>
        <time>2018-06-18T07:03:10Z</time>
      </trkpt>
      <trkpt lat="43.99227" lon="7.42491">
        <ele>1770</ele>
        <time>2018-06-18T07:03:14Z</time>
      </trkpt>
      <trkpt lat="43.99224" lon="7.42493">
        <ele>1770</ele>
        <time>2018-06-18T07:03:17Z</time>
      </trkpt>
      <trkpt lat="43.99211" lon="7.42493">
        <ele>1767</ele>
        <time>2018-06-18T07:03:32Z</time>
      </trkpt>
      <trkpt lat="43.99208" lon="7.42495">
        <ele>1767</ele>
        <time>2018-06-18T07:03:37Z</time>
      </trkpt>
      <trkpt lat="43.99199" lon="7.42499">
        <ele>1767</ele>
        <time>2018-06-18T07:03:50Z</time>
      </trkpt>
      <trkpt lat="43.9919" lon="7.42505">
        <ele>1783</ele>
        <time>2018-06-18T07:04:03Z</time>
      </trkpt>
      <trkpt lat="43.99179" lon="7.42507">
        <ele>1779</ele>
        <time>2018-06-18T07:04:16Z</time>
      </trkpt>
      <trkpt lat="43.99174" lon="7.42508">
        <ele>1778</ele>
        <time>2018-06-18T07:04:23Z</time>
      </trkpt>
      <trkpt lat="43.99162" lon="7.42511">
        <ele>1776</ele>
        <time>2018-06-18T07:04:37Z</time>
      </trkpt>
      <trkpt lat="43.99158" lon="7.42512">
        <ele>1777</ele>
        <time>2018-06-18T07:04:40Z</time>
      </trkpt>
      <trkpt lat="43.99144" lon="7.42516">
        <ele>1779</ele>
        <time>2018-06-18T07:04:52Z</time>
      </trkpt>
      <trkpt lat="43.99137" lon="7.42525">
        <ele>1781</ele>
        <time>2018-06-18T07:05:05Z</time>
      </trkpt>
      <trkpt lat="43.99137" lon="7.42529">
        <ele>1782</ele>
        <time>2018-06-18T07:05:07Z</time>
      </trkpt>
      <trkpt lat="43.99131" lon="7.42535">
        <ele>1783</ele>
        <time>2018-06-18T07:05:18Z</time>
      </trkpt>
      <trkpt lat="43.99129" lon="7.42538">
        <ele>1784</ele>
        <time>2018-06-18T07:05:20Z</time>
      </trkpt>
      <trkpt lat="43.99121" lon="7.42547">
        <ele>1785</ele>
        <time>2018-06-18T07:05:31Z</time>
      </trkpt>
      <trkpt lat="43.9912" lon="7.42547">
        <ele>1786</ele>
        <time>2018-06-18T07:05:32Z</time>
      </trkpt>
      <trkpt lat="43.9911" lon="7.42553">
        <ele>1787</ele>
        <time>2018-06-18T07:05:45Z</time>
      </trkpt>
      <trkpt lat="43.99107" lon="7.42555">
        <ele>1787</ele>
        <time>2018-06-18T07:05:50Z</time>
      </trkpt>
      <trkpt lat="43.99097" lon="7.42546">
        <ele>1785</ele>
        <time>2018-06-18T07:06:02Z</time>
      </trkpt>
      <trkpt lat="43.99085" lon="7.42547">
        <ele>1785</ele>
        <time>2018-06-18T07:06:14Z</time>
      </trkpt>
      <trkpt lat="43.99082" lon="7.42554">
        <ele>1781</ele>
        <time>2018-06-18T07:06:26Z</time>
      </trkpt>
      <trkpt lat="43.99075" lon="7.42554">
        <ele>1781</ele>
        <time>2018-06-18T07:06:38Z</time>
      </trkpt>
      <trkpt lat="43.99065" lon="7.42554">
        <ele>1780</ele>
        <time>2018-06-18T07:06:50Z</time>
      </trkpt>
      <trkpt lat="43.9906" lon="7.42554">
        <ele>1779</ele>
        <time>2018-06-18T07:06:55Z</time>
      </trkpt>
      <trkpt lat="43.99048" lon="7.42551">
        <ele>1777</ele>
        <time>2018-06-18T07:07:09Z</time>
      </trkpt>
      <trkpt lat="43.99036" lon="7.42546">
        <ele>1775</ele>
        <time>2018-06-18T07:07:21Z</time>
      </trkpt>
      <trkpt lat="43.99023" lon="7.42546">
        <ele>1774</ele>
        <time>2018-06-18T07:07:35Z</time>
      </trkpt>
      <trkpt lat="43.99016" lon="7.42549">
        <ele>1774</ele>
        <time>2018-06-18T07:07:46Z</time>
      </trkpt>
      <trkpt lat="43.99009" lon="7.42558">
        <ele>1775</ele>
        <time>2018-06-18T07:07:58Z</time>
      </trkpt>
      <trkpt lat="43.99001" lon="7.42563">
        <ele>1776</ele>
        <time>2018-06-18T07:08:08Z</time>
      </trkpt>
      <trkpt lat="43.9899" lon="7.4257">
        <ele>1764</ele>
        <time>2018-06-18T07:08:22Z</time>
      </trkpt>
      <trkpt lat="43.98984" lon="7.42578">
        <ele>1764</ele>
        <time>2018-06-18T07:08:30Z</time>
      </trkpt>
      <trkpt lat="43.98979" lon="7.42589">
        <ele>1772</ele>
        <time>2018-06-18T07:08:43Z</time>
      </trkpt>
      <trkpt lat="43.98976" lon="7.42604">
        <ele>1771</ele>
        <time>2018-06-18T07:08:56Z</time>
      </trkpt>
      <trkpt lat="43.98975" lon="7.4262">
        <ele>1772</ele>
        <time>2018-06-18T07:09:08Z</time>
      </trkpt>
      <trkpt lat="43.98971" lon="7.42629">
        <ele>1772</ele>
        <time>2018-06-18T07:09:17Z</time>
      </trkpt>
      <trkpt lat="43.98968" lon="7.42643">
        <ele>1773</ele>
        <time>2018-06-18T07:09:27Z</time>
      </trkpt>
      <trkpt lat="43.98962" lon="7.42658">
        <ele>1773</ele>
        <time>2018-06-18T07:09:40Z</time>
      </trkpt>
      <trkpt lat="43.98956" lon="7.42666">
        <ele>1771</ele>
        <time>2018-06-18T07:09:51Z</time>
      </trkpt>
      <trkpt lat="43.98953" lon="7.4267">
        <ele>1782</ele>
        <time>2018-06-18T07:09:55Z</time>
      </trkpt>
      <trkpt lat="43.98947" lon="7.42684">
        <ele>1781</ele>
        <time>2018-06-18T07:10:08Z</time>
      </trkpt>
      <trkpt lat="43.98939" lon="7.42695">
        <ele>1780</ele>
        <time>2018-06-18T07:10:21Z</time>
      </trkpt>
      <trkpt lat="43.98934" lon="7.42702">
        <ele>1780</ele>
        <time>2018-06-18T07:10:36Z</time>
      </trkpt>
      <trkpt lat="43.98928" lon="7.42712">
        <ele>1781</ele>
        <time>2018-06-18T07:10:48Z</time>
      </trkpt>
      <trkpt lat="43.98919" lon="7.42723">
        <ele>1780</ele>
        <time>2018-06-18T07:10:58Z</time>
      </trkpt>
      <trkpt lat="43.98917" lon="7.42728">
        <ele>1780</ele>
        <time>2018-06-18T07:11:02Z</time>
      </trkpt>
      <trkpt lat="43.98912" lon="7.42738">
        <ele>1762</ele>
        <time>2018-06-18T07:11:12Z</time>
      </trkpt>
      <trkpt lat="43.98908" lon="7.42743">
        <ele>1763</ele>
        <time>2018-06-18T07:11:19Z</time>
      </trkpt>
      <trkpt lat="43.98906" lon="7.42744">
        <ele>1763</ele>
        <time>2018-06-18T07:11:21Z</time>
      </trkpt>
      <trkpt lat="43.98906" lon="7.4275">
        <ele>1763</ele>
        <time>2018-06-18T07:11:26Z</time>
      </trkpt>
      <trkpt lat="43.98905" lon="7.42754">
        <ele>1766</ele>
        <time>2018-06-18T07:11:31Z</time>
      </trkpt>
      <trkpt lat="43.98905" lon="7.42774">
        <ele>1761</ele>
        <time>2018-06-18T07:11:44Z</time>
      </trkpt>
      <trkpt lat="43.98905" lon="7.4278">
        <ele>1760</ele>
        <time>2018-06-18T07:11:48Z</time>
      </trkpt>
      <trkpt lat="43.98906" lon="7.42783">
        <ele>1760</ele>
        <time>2018-06-18T07:11:50Z</time>
      </trkpt>
      <trkpt lat="43.98907" lon="7.42788">
        <ele>1759</ele>
        <time>2018-06-18T07:11:54Z</time>
      </trkpt>
      <trkpt lat="43.98911" lon="7.42811">
        <ele>1762</ele>
        <time>2018-06-18T07:12:08Z</time>
      </trkpt>
      <trkpt lat="43.98909" lon="7.42825">
        <ele>1765</ele>
        <time>2018-06-18T07:12:19Z</time>
      </trkpt>
      <trkpt lat="43.98909" lon="7.4283">
        <ele>1766</ele>
        <time>2018-06-18T07:12:24Z</time>
      </trkpt>
      <trkpt lat="43.98909" lon="7.42832">
        <ele>1767</ele>
        <time>2018-06-18T07:12:26Z</time>
      </trkpt>
      <trkpt lat="43.98911" lon="7.42846">
        <ele>1767</ele>
        <time>2018-06-18T07:12:41Z</time>
      </trkpt>
      <trkpt lat="43.98911" lon="7.4285">
        <ele>1766</ele>
        <time>2018-06-18T07:12:45Z</time>
      </trkpt>
      <trkpt lat="43.98917" lon="7.42858">
        <ele>1766</ele>
        <time>2018-06-18T07:12:55Z</time>
      </trkpt>
      <trkpt lat="43.98922" lon="7.42859">
        <ele>1783</ele>
        <time>2018-06-18T07:13:06Z</time>
      </trkpt>
      <trkpt lat="43.98925" lon="7.42864">
        <ele>1785</ele>
        <time>2018-06-18T07:13:16Z</time>
      </trkpt>
      <trkpt lat="43.98924" lon="7.42869">
        <ele>1785</ele>
        <time>2018-06-18T07:13:27Z</time>
      </trkpt>
      <trkpt lat="43.98923" lon="7.42871">
        <ele>1785</ele>
        <time>2018-06-18T07:13:31Z</time>
      </trkpt>
      <trkpt lat="43.9892" lon="7.42885">
        <ele>1786</ele>
        <time>2018-06-18T07:13:43Z</time>
      </trkpt>
      <trkpt lat="43.98914" lon="7.42889">
        <ele>1768</ele>
        <time>2018-06-18T07:13:50Z</time>
      </trkpt>
      <trkpt lat="43.98903" lon="7.42894">
        <ele>1767</ele>
        <time>2018-06-18T07:14:04Z</time>
      </trkpt>
      <trkpt lat="43.98898" lon="7.42898">
        <ele>1767</ele>
        <time>2018-06-18T07:14:15Z</time>
      </trkpt>
      <trkpt lat="43.98894" lon="7.42906">
        <ele>1767</ele>
        <time>2018-06-18T07:14:25Z</time>
      </trkpt>
      <trkpt lat="43.98892" lon="7.42909">
        <ele>1767</ele>
        <time>2018-06-18T07:14:30Z</time>
      </trkpt>
      <trkpt lat="43.98889" lon="7.42914">
        <ele>1766</ele>
        <time>2018-06-18T07:14:33Z</time>
      </trkpt>
      <trkpt lat="43.98886" lon="7.42924">
        <ele>1780</ele>
        <time>2018-06-18T07:14:43Z</time>
      </trkpt>
      <trkpt lat="43.9888" lon="7.42932">
        <ele>1780</ele>
        <time>2018-06-18T07:14:52Z</time>
      </trkpt>
      <trkpt lat="43.98877" lon="7.42932">
        <ele>1780</ele>
        <time>2018-06-18T07:14:54Z</time>
      </trkpt>
      <trkpt lat="43.98869" lon="7.42937">
        <ele>1779</ele>
        <time>2018-06-18T07:15:02Z</time>
      </trkpt>
      <trkpt lat="43.98864" lon="7.42942">
        <ele>1779</ele>
        <time>2018-06-18T07:15:10Z</time>
      </trkpt>
      <trkpt lat="43.98852" lon="7.42939">
        <ele>1776</ele>
        <time>2018-06-18T07:15:19Z</time>
      </trkpt>
      <trkpt lat="43.98843" lon="7.4294">
        <ele>1774</ele>
        <time>2018-06-18T07:15:26Z</time>
      </trkpt>
      <trkpt lat="43.98834" lon="7.42941">
        <ele>1774</ele>
        <time>2018-06-18T07:15:33Z</time>
      </trkpt>
      <trkpt lat="43.98824" lon="7.42943">
        <ele>1768</ele>
        <time>2018-06-18T07:15:43Z</time>
      </trkpt>
      <trkpt lat="43.98816" lon="7.42948">
        <ele>1770</ele>
        <time>2018-06-18T07:15:54Z</time>
      </trkpt>
      <trkpt lat="43.98806" lon="7.42948">
        <ele>1770</ele>
        <time>2018-06-18T07:16:04Z</time>
      </trkpt>
      <trkpt lat="43.98796" lon="7.42944">
        <ele>1769</ele>
        <time>2018-06-18T07:16:15Z</time>
      </trkpt>
      <trkpt lat="43.98787" lon="7.42941">
        <ele>1768</ele>
        <time>2018-06-18T07:16:27Z</time>
      </trkpt>
      <trkpt lat="43.98776" lon="7.42938">
        <ele>1766</ele>
        <time>2018-06-18T07:16:39Z</time>
      </trkpt>
      <trkpt lat="43.98761" lon="7.42929">
        <ele>1762</ele>
        <time>2018-06-18T07:16:55Z</time>
      </trkpt>
      <trkpt lat="43.98747" lon="7.42926">
        <ele>1754</ele>
        <time>2018-06-18T07:17:08Z</time>
      </trkpt>
      <trkpt lat="43.98731" lon="7.42921">
        <ele>1754</ele>
        <time>2018-06-18T07:17:24Z</time>
      </trkpt>
      <trkpt lat="43.98717" lon="7.42918">
        <ele>1752</ele>
        <time>2018-06-18T07:17:36Z</time>
      </trkpt>
      <trkpt lat="43.98715" lon="7.42918">
        <ele>1752</ele>
        <time>2018-06-18T07:17:38Z</time>
      </trkpt>
      <trkpt lat="43.98703" lon="7.42912">
        <ele>1743</ele>
        <time>2018-06-18T07:17:51Z</time>
      </trkpt>
      <trkpt lat="43.98687" lon="7.42905">
        <ele>1741</ele>
        <time>2018-06-18T07:18:07Z</time>
      </trkpt>
      <trkpt lat="43.98682" lon="7.42907">
        <ele>1741</ele>
        <time>2018-06-18T07:18:18Z</time>
      </trkpt>
      <trkpt lat="43.98682" lon="7.42907">
        <ele>1741</ele>
        <time>2018-06-18T07:18:46Z</time>
      </trkpt>
      <trkpt lat="43.98682" lon="7.42907">
        <ele>1741</ele>
        <time>2018-06-18T07:19:22Z</time>
      </trkpt>
      <trkpt lat="43.98682" lon="7.42907">
        <ele>1741</ele>
        <time>2018-06-18T07:20:14Z</time>
      </trkpt>
      <trkpt lat="43.98684" lon="7.42914">
        <ele>1741</ele>
        <time>2018-06-18T07:20:51Z</time>
      </trkpt>
      <trkpt lat="43.98683" lon="7.42919">
        <ele>1746</ele>
        <time>2018-06-18T07:20:55Z</time>
      </trkpt>
      <trkpt lat="43.9868" lon="7.42933">
        <ele>1747</ele>
        <time>2018-06-18T07:21:05Z</time>
      </trkpt>
      <trkpt lat="43.98682" lon="7.42951">
        <ele>1750</ele>
        <time>2018-06-18T07:21:21Z</time>
      </trkpt>
      <trkpt lat="43.98682" lon="7.42952">
        <ele>1750</ele>
        <time>2018-06-18T07:21:24Z</time>
      </trkpt>
      <trkpt lat="43.98688" lon="7.42959">
        <ele>1751</ele>
        <time>2018-06-18T07:21:33Z</time>
      </trkpt>
      <trkpt lat="43.98689" lon="7.42972">
        <ele>1751</ele>
        <time>2018-06-18T07:21:44Z</time>
      </trkpt>
      <trkpt lat="43.98692" lon="7.42986">
        <ele>1751</ele>
        <time>2018-06-18T07:21:56Z</time>
      </trkpt>
      <trkpt lat="43.98696" lon="7.42994">
        <ele>1752</ele>
        <time>2018-06-18T07:22:06Z</time>
      </trkpt>
      <trkpt lat="43.98693" lon="7.43001">
        <ele>1759</ele>
        <time>2018-06-18T07:22:16Z</time>
      </trkpt>
      <trkpt lat="43.98694" lon="7.4301">
        <ele>1760</ele>
        <time>2018-06-18T07:22:23Z</time>
      </trkpt>
      <trkpt lat="43.98687" lon="7.43023">
        <ele>1760</ele>
        <time>2018-06-18T07:22:38Z</time>
      </trkpt>
      <trkpt lat="43.98684" lon="7.43038">
        <ele>1762</ele>
        <time>2018-06-18T07:22:50Z</time>
      </trkpt>
      <trkpt lat="43.98678" lon="7.43051">
        <ele>1762</ele>
        <time>2018-06-18T07:22:59Z</time>
      </trkpt>
      <trkpt lat="43.98675" lon="7.43062">
        <ele>1760</ele>
        <time>2018-06-18T07:23:09Z</time>
      </trkpt>
      <trkpt lat="43.98673" lon="7.43064">
        <ele>1759</ele>
        <time>2018-06-18T07:23:12Z</time>
      </trkpt>
      <trkpt lat="43.98672" lon="7.43073">
        <ele>1757</ele>
        <time>2018-06-18T07:23:17Z</time>
      </trkpt>
      <trkpt lat="43.98668" lon="7.43088">
        <ele>1755</ele>
        <time>2018-06-18T07:23:29Z</time>
      </trkpt>
      <trkpt lat="43.98664" lon="7.43102">
        <ele>1737</ele>
        <time>2018-06-18T07:23:41Z</time>
      </trkpt>
      <trkpt lat="43.98664" lon="7.43121">
        <ele>1733</ele>
        <time>2018-06-18T07:23:54Z</time>
      </trkpt>
      <trkpt lat="43.98666" lon="7.43125">
        <ele>1733</ele>
        <time>2018-06-18T07:23:58Z</time>
      </trkpt>
      <trkpt lat="43.98668" lon="7.4313">
        <ele>1766</ele>
        <time>2018-06-18T07:24:02Z</time>
      </trkpt>
      <trkpt lat="43.98672" lon="7.43139">
        <ele>1766</ele>
        <time>2018-06-18T07:24:10Z</time>
      </trkpt>
      <trkpt lat="43.98673" lon="7.43145">
        <ele>1764</ele>
        <time>2018-06-18T07:24:15Z</time>
      </trkpt>
      <trkpt lat="43.98681" lon="7.43156">
        <ele>1764</ele>
        <time>2018-06-18T07:24:27Z</time>
      </trkpt>
      <trkpt lat="43.98683" lon="7.4317">
        <ele>1762</ele>
        <time>2018-06-18T07:24:39Z</time>
      </trkpt>
      <trkpt lat="43.98683" lon="7.43181">
        <ele>1764</ele>
        <time>2018-06-18T07:24:46Z</time>
      </trkpt>
      <trkpt lat="43.98683" lon="7.43184">
        <ele>1764</ele>
        <time>2018-06-18T07:24:48Z</time>
      </trkpt>
      <trkpt lat="43.98683" lon="7.43188">
        <ele>1765</ele>
        <time>2018-06-18T07:24:51Z</time>
      </trkpt>
      <trkpt lat="43.98681" lon="7.43195">
        <ele>1765</ele>
        <time>2018-06-18T07:24:55Z</time>
      </trkpt>
      <trkpt lat="43.98681" lon="7.43203">
        <ele>1765</ele>
        <time>2018-06-18T07:25:01Z</time>
      </trkpt>
      <trkpt lat="43.98679" lon="7.43218">
        <ele>1764</ele>
        <time>2018-06-18T07:25:12Z</time>
      </trkpt>
      <trkpt lat="43.98681" lon="7.43224">
        <ele>1763</ele>
        <time>2018-06-18T07:25:17Z</time>
      </trkpt>
      <trkpt lat="43.98688" lon="7.43226">
        <ele>1765</ele>
        <time>2018-06-18T07:25:22Z</time>
      </trkpt>
      <trkpt lat="43.9869" lon="7.43232">
        <ele>1765</ele>
        <time>2018-06-18T07:25:27Z</time>
      </trkpt>
      <trkpt lat="43.98695" lon="7.43235">
        <ele>1766</ele>
        <time>2018-06-18T07:25:32Z</time>
      </trkpt>
      <trkpt lat="43.98695" lon="7.43236">
        <ele>1766</ele>
        <time>2018-06-18T07:25:33Z</time>
      </trkpt>
      <trkpt lat="43.98702" lon="7.43242">
        <ele>1769</ele>
        <time>2018-06-18T07:25:39Z</time>
      </trkpt>
      <trkpt lat="43.98709" lon="7.43246">
        <ele>1772</ele>
        <time>2018-06-18T07:25:45Z</time>
      </trkpt>
      <trkpt lat="43.98716" lon="7.43249">
        <ele>1775</ele>
        <time>2018-06-18T07:25:52Z</time>
      </trkpt>
      <trkpt lat="43.98713" lon="7.4326">
        <ele>1776</ele>
        <time>2018-06-18T07:26:03Z</time>
      </trkpt>
      <trkpt lat="43.98712" lon="7.43271">
        <ele>1777</ele>
        <time>2018-06-18T07:26:12Z</time>
      </trkpt>
      <trkpt lat="43.98708" lon="7.43281">
        <ele>1776</ele>
        <time>2018-06-18T07:26:21Z</time>
      </trkpt>
      <trkpt lat="43.98705" lon="7.43286">
        <ele>1775</ele>
        <time>2018-06-18T07:26:26Z</time>
      </trkpt>
      <trkpt lat="43.98703" lon="7.43288">
        <ele>1775</ele>
        <time>2018-06-18T07:26:28Z</time>
      </trkpt>
      <trkpt lat="43.98693" lon="7.43306">
        <ele>1773</ele>
        <time>2018-06-18T07:26:42Z</time>
      </trkpt>
      <trkpt lat="43.98686" lon="7.4332">
        <ele>1771</ele>
        <time>2018-06-18T07:26:54Z</time>
      </trkpt>
      <trkpt lat="43.98685" lon="7.43323">
        <ele>1770</ele>
        <time>2018-06-18T07:26:57Z</time>
      </trkpt>
      <trkpt lat="43.98681" lon="7.43332">
        <ele>1768</ele>
        <time>2018-06-18T07:27:04Z</time>
      </trkpt>
      <trkpt lat="43.98676" lon="7.43336">
        <ele>1773</ele>
        <time>2018-06-18T07:27:10Z</time>
      </trkpt>
      <trkpt lat="43.98669" lon="7.43348">
        <ele>1777</ele>
        <time>2018-06-18T07:27:19Z</time>
      </trkpt>
      <trkpt lat="43.98667" lon="7.43352">
        <ele>1781</ele>
        <time>2018-06-18T07:27:22Z</time>
      </trkpt>
      <trkpt lat="43.98665" lon="7.43356">
        <ele>1763</ele>
        <time>2018-06-18T07:27:25Z</time>
      </trkpt>
      <trkpt lat="43.9866" lon="7.43362">
        <ele>1763</ele>
        <time>2018-06-18T07:27:31Z</time>
      </trkpt>
      <trkpt lat="43.98653" lon="7.43368">
        <ele>1764</ele>
        <time>2018-06-18T07:27:39Z</time>
      </trkpt>
      <trkpt lat="43.98647" lon="7.43371">
        <ele>1764</ele>
        <time>2018-06-18T07:27:45Z</time>
      </trkpt>
      <trkpt lat="43.98636" lon="7.43381">
        <ele>1765</ele>
        <time>2018-06-18T07:27:59Z</time>
      </trkpt>
      <trkpt lat="43.98635" lon="7.43383">
        <ele>1765</ele>
        <time>2018-06-18T07:28:01Z</time>
      </trkpt>
      <trkpt lat="43.98631" lon="7.43389">
        <ele>1765</ele>
        <time>2018-06-18T07:28:07Z</time>
      </trkpt>
      <trkpt lat="43.98624" lon="7.43397">
        <ele>1765</ele>
        <time>2018-06-18T07:28:15Z</time>
      </trkpt>
      <trkpt lat="43.98617" lon="7.43408">
        <ele>1764</ele>
        <time>2018-06-18T07:28:26Z</time>
      </trkpt>
      <trkpt lat="43.98613" lon="7.43409">
        <ele>1764</ele>
        <time>2018-06-18T07:28:30Z</time>
      </trkpt>
      <trkpt lat="43.98605" lon="7.43417">
        <ele>1782</ele>
        <time>2018-06-18T07:28:39Z</time>
      </trkpt>
      <trkpt lat="43.98596" lon="7.43429">
        <ele>1779</ele>
        <time>2018-06-18T07:28:51Z</time>
      </trkpt>
      <trkpt lat="43.98587" lon="7.43442">
        <ele>1784</ele>
        <time>2018-06-18T07:29:03Z</time>
      </trkpt>
      <trkpt lat="43.98583" lon="7.43451">
        <ele>1763</ele>
        <time>2018-06-18T07:29:13Z</time>
      </trkpt>
      <trkpt lat="43.98582" lon="7.43453">
        <ele>1764</ele>
        <time>2018-06-18T07:29:15Z</time>
      </trkpt>
      <trkpt lat="43.98575" lon="7.43462">
        <ele>1766</ele>
        <time>2018-06-18T07:29:28Z</time>
      </trkpt>
      <trkpt lat="43.9857" lon="7.43466">
        <ele>1767</ele>
        <time>2018-06-18T07:29:33Z</time>
      </trkpt>
      <trkpt lat="43.98565" lon="7.43474">
        <ele>1768</ele>
        <time>2018-06-18T07:29:42Z</time>
      </trkpt>
      <trkpt lat="43.98557" lon="7.4349">
        <ele>1770</ele>
        <time>2018-06-18T07:29:56Z</time>
      </trkpt>
      <trkpt lat="43.98552" lon="7.43501">
        <ele>1790</ele>
        <time>2018-06-18T07:30:06Z</time>
      </trkpt>
      <trkpt lat="43.98545" lon="7.43517">
        <ele>1790</ele>
        <time>2018-06-18T07:30:18Z</time>
      </trkpt>
      <trkpt lat="43.98539" lon="7.43531">
        <ele>1790</ele>
        <time>2018-06-18T07:30:29Z</time>
      </trkpt>
      <trkpt lat="43.98531" lon="7.4355">
        <ele>1793</ele>
        <time>2018-06-18T07:30:42Z</time>
      </trkpt>
      <trkpt lat="43.9853" lon="7.43553">
        <ele>1793</ele>
        <time>2018-06-18T07:30:45Z</time>
      </trkpt>
      <trkpt lat="43.98524" lon="7.4356">
        <ele>1793</ele>
        <time>2018-06-18T07:30:55Z</time>
      </trkpt>
      <trkpt lat="43.98515" lon="7.43564">
        <ele>1792</ele>
        <time>2018-06-18T07:31:04Z</time>
      </trkpt>
      <trkpt lat="43.98506" lon="7.4357">
        <ele>1792</ele>
        <time>2018-06-18T07:31:14Z</time>
      </trkpt>
      <trkpt lat="43.98501" lon="7.43574">
        <ele>1792</ele>
        <time>2018-06-18T07:31:20Z</time>
      </trkpt>
      <trkpt lat="43.98496" lon="7.43576">
        <ele>1782</ele>
        <time>2018-06-18T07:31:26Z</time>
      </trkpt>
      <trkpt lat="43.98487" lon="7.43581">
        <ele>1777</ele>
        <time>2018-06-18T07:31:35Z</time>
      </trkpt>
      <trkpt lat="43.98477" lon="7.43589">
        <ele>1786</ele>
        <time>2018-06-18T07:31:47Z</time>
      </trkpt>
      <trkpt lat="43.98469" lon="7.43596">
        <ele>1785</ele>
        <time>2018-06-18T07:31:53Z</time>
      </trkpt>
      <trkpt lat="43.98461" lon="7.43615">
        <ele>1784</ele>
        <time>2018-06-18T07:32:06Z</time>
      </trkpt>
      <trkpt lat="43.98454" lon="7.43622">
        <ele>1784</ele>
        <time>2018-06-18T07:32:13Z</time>
      </trkpt>
      <trkpt lat="43.98443" lon="7.43626">
        <ele>1782</ele>
        <time>2018-06-18T07:32:24Z</time>
      </trkpt>
      <trkpt lat="43.98431" lon="7.43637">
        <ele>1781</ele>
        <time>2018-06-18T07:32:35Z</time>
      </trkpt>
      <trkpt lat="43.98423" lon="7.43646">
        <ele>1781</ele>
        <time>2018-06-18T07:32:42Z</time>
      </trkpt>
      <trkpt lat="43.98407" lon="7.43662">
        <ele>1770</ele>
        <time>2018-06-18T07:32:57Z</time>
      </trkpt>
      <trkpt lat="43.98395" lon="7.43684">
        <ele>1775</ele>
        <time>2018-06-18T07:33:12Z</time>
      </trkpt>
      <trkpt lat="43.98387" lon="7.43701">
        <ele>1775</ele>
        <time>2018-06-18T07:33:27Z</time>
      </trkpt>
      <trkpt lat="43.98384" lon="7.4371">
        <ele>1776</ele>
        <time>2018-06-18T07:33:35Z</time>
      </trkpt>
      <trkpt lat="43.98383" lon="7.43713">
        <ele>1776</ele>
        <time>2018-06-18T07:33:38Z</time>
      </trkpt>
      <trkpt lat="43.98379" lon="7.43723">
        <ele>1777</ele>
        <time>2018-06-18T07:33:44Z</time>
      </trkpt>
      <trkpt lat="43.98373" lon="7.43735">
        <ele>1777</ele>
        <time>2018-06-18T07:33:57Z</time>
      </trkpt>
      <trkpt lat="43.98373" lon="7.43735">
        <ele>1777</ele>
        <time>2018-06-18T07:33:59Z</time>
      </trkpt>
      <trkpt lat="43.9837" lon="7.43738">
        <ele>1776</ele>
        <time>2018-06-18T07:34:02Z</time>
      </trkpt>
      <trkpt lat="43.98362" lon="7.43755">
        <ele>1779</ele>
        <time>2018-06-18T07:34:17Z</time>
      </trkpt>
      <trkpt lat="43.9836" lon="7.43759">
        <ele>1778</ele>
        <time>2018-06-18T07:34:20Z</time>
      </trkpt>
      <trkpt lat="43.98355" lon="7.43777">
        <ele>1778</ele>
        <time>2018-06-18T07:34:33Z</time>
      </trkpt>
      <trkpt lat="43.98349" lon="7.43788">
        <ele>1777</ele>
        <time>2018-06-18T07:34:45Z</time>
      </trkpt>
      <trkpt lat="43.98347" lon="7.43792">
        <ele>1777</ele>
        <time>2018-06-18T07:34:58Z</time>
      </trkpt>
      <trkpt lat="43.98344" lon="7.4379">
        <ele>1777</ele>
        <time>2018-06-18T07:35:18Z</time>
      </trkpt>
      <trkpt lat="43.98344" lon="7.4379">
        <ele>1777</ele>
        <time>2018-06-18T07:35:19Z</time>
      </trkpt>
      <trkpt lat="43.98342" lon="7.43789">
        <ele>1777</ele>
        <time>2018-06-18T07:35:22Z</time>
      </trkpt>
      <trkpt lat="43.9834" lon="7.43787">
        <ele>1777</ele>
        <time>2018-06-18T07:35:24Z</time>
      </trkpt>
      <trkpt lat="43.98323" lon="7.43785">
        <ele>1775</ele>
        <time>2018-06-18T07:35:38Z</time>
      </trkpt>
      <trkpt lat="43.98305" lon="7.43792">
        <ele>1776</ele>
        <time>2018-06-18T07:35:55Z</time>
      </trkpt>
      <trkpt lat="43.98303" lon="7.43792">
        <ele>1776</ele>
        <time>2018-06-18T07:35:57Z</time>
      </trkpt>
      <trkpt lat="43.98298" lon="7.43793">
        <ele>1776</ele>
        <time>2018-06-18T07:36:09Z</time>
      </trkpt>
      <trkpt lat="43.98298" lon="7.43793">
        <ele>1776</ele>
        <time>2018-06-18T07:36:10Z</time>
      </trkpt>
      <trkpt lat="43.98287" lon="7.43798">
        <ele>1777</ele>
        <time>2018-06-18T07:36:20Z</time>
      </trkpt>
      <trkpt lat="43.98279" lon="7.43803">
        <ele>1778</ele>
        <time>2018-06-18T07:36:28Z</time>
      </trkpt>
      <trkpt lat="43.98264" lon="7.43817">
        <ele>1779</ele>
        <time>2018-06-18T07:36:42Z</time>
      </trkpt>
      <trkpt lat="43.98251" lon="7.43832">
        <ele>1781</ele>
        <time>2018-06-18T07:36:56Z</time>
      </trkpt>
      <trkpt lat="43.98248" lon="7.43835">
        <ele>1781</ele>
        <time>2018-06-18T07:36:59Z</time>
      </trkpt>
      <trkpt lat="43.98246" lon="7.43837">
        <ele>1781</ele>
        <time>2018-06-18T07:37:01Z</time>
      </trkpt>
      <trkpt lat="43.98241" lon="7.43841">
        <ele>1782</ele>
        <time>2018-06-18T07:37:06Z</time>
      </trkpt>
      <trkpt lat="43.98229" lon="7.43856">
        <ele>1782</ele>
        <time>2018-06-18T07:37:19Z</time>
      </trkpt>
      <trkpt lat="43.98217" lon="7.43863">
        <ele>1783</ele>
        <time>2018-06-18T07:37:33Z</time>
      </trkpt>
      <trkpt lat="43.98217" lon="7.43863">
        <ele>1783</ele>
        <time>2018-06-18T07:38:08Z</time>
      </trkpt>
      <trkpt lat="43.98217" lon="7.43862">
        <ele>1783</ele>
        <time>2018-06-18T07:38:25Z</time>
      </trkpt>
      <trkpt lat="43.98216" lon="7.43862">
        <ele>1783</ele>
        <time>2018-06-18T07:38:56Z</time>
      </trkpt>
      <trkpt lat="43.98213" lon="7.43864">
        <ele>1784</ele>
        <time>2018-06-18T07:39:36Z</time>
      </trkpt>
      <trkpt lat="43.9821" lon="7.43868">
        <ele>1784</ele>
        <time>2018-06-18T07:39:49Z</time>
      </trkpt>
      <trkpt lat="43.98205" lon="7.43871">
        <ele>1784</ele>
        <time>2018-06-18T07:39:59Z</time>
      </trkpt>
      <trkpt lat="43.98203" lon="7.43873">
        <ele>1784</ele>
        <time>2018-06-18T07:40:18Z</time>
      </trkpt>
      <trkpt lat="43.98199" lon="7.43876">
        <ele>1784</ele>
        <time>2018-06-18T07:40:24Z</time>
      </trkpt>
      <trkpt lat="43.98197" lon="7.43878">
        <ele>1784</ele>
        <time>2018-06-18T07:40:26Z</time>
      </trkpt>
      <trkpt lat="43.98192" lon="7.43882">
        <ele>1784</ele>
        <time>2018-06-18T07:40:43Z</time>
      </trkpt>
      <trkpt lat="43.98186" lon="7.43891">
        <ele>1784</ele>
        <time>2018-06-18T07:40:56Z</time>
      </trkpt>
      <trkpt lat="43.98174" lon="7.43905">
        <ele>1784</ele>
        <time>2018-06-18T07:41:08Z</time>
      </trkpt>
      <trkpt lat="43.98168" lon="7.43911">
        <ele>1785</ele>
        <time>2018-06-18T07:41:14Z</time>
      </trkpt>
      <trkpt lat="43.98156" lon="7.43925">
        <ele>1780</ele>
        <time>2018-06-18T07:41:27Z</time>
      </trkpt>
      <trkpt lat="43.98154" lon="7.43928">
        <ele>1779</ele>
        <time>2018-06-18T07:41:29Z</time>
      </trkpt>
      <trkpt lat="43.9814" lon="7.4394">
        <ele>1775</ele>
        <time>2018-06-18T07:41:42Z</time>
      </trkpt>
      <trkpt lat="43.98134" lon="7.43949">
        <ele>1774</ele>
        <time>2018-06-18T07:41:55Z</time>
      </trkpt>
      <trkpt lat="43.98126" lon="7.43955">
        <ele>1773</ele>
        <time>2018-06-18T07:42:06Z</time>
      </trkpt>
      <trkpt lat="43.98107" lon="7.43951">
        <ele>1773</ele>
        <time>2018-06-18T07:42:21Z</time>
      </trkpt>
      <trkpt lat="43.98099" lon="7.43948">
        <ele>1773</ele>
        <time>2018-06-18T07:42:28Z</time>
      </trkpt>
      <trkpt lat="43.98091" lon="7.43943">
        <ele>1774</ele>
        <time>2018-06-18T07:42:36Z</time>
      </trkpt>
      <trkpt lat="43.98083" lon="7.43932">
        <ele>1769</ele>
        <time>2018-06-18T07:42:46Z</time>
      </trkpt>
      <trkpt lat="43.9808" lon="7.4393">
        <ele>1770</ele>
        <time>2018-06-18T07:42:51Z</time>
      </trkpt>
      <trkpt lat="43.98081" lon="7.43953">
        <ele>1763</ele>
        <time>2018-06-18T07:43:06Z</time>
      </trkpt>
      <trkpt lat="43.98083" lon="7.4396">
        <ele>1761</ele>
        <time>2018-06-18T07:43:11Z</time>
      </trkpt>
      <trkpt lat="43.98084" lon="7.43964">
        <ele>1771</ele>
        <time>2018-06-18T07:43:14Z</time>
      </trkpt>
      <trkpt lat="43.98086" lon="7.4397">
        <ele>1770</ele>
        <time>2018-06-18T07:43:18Z</time>
      </trkpt>
      <trkpt lat="43.98092" lon="7.43987">
        <ele>1767</ele>
        <time>2018-06-18T07:43:34Z</time>
      </trkpt>
      <trkpt lat="43.98091" lon="7.43988">
        <ele>1766</ele>
        <time>2018-06-18T07:43:35Z</time>
      </trkpt>
      <trkpt lat="43.98083" lon="7.43983">
        <ele>1760</ele>
        <time>2018-06-18T07:43:44Z</time>
      </trkpt>
      <trkpt lat="43.98082" lon="7.43982">
        <ele>1760</ele>
        <time>2018-06-18T07:43:45Z</time>
      </trkpt>
      <trkpt lat="43.9807" lon="7.43976">
        <ele>1759</ele>
        <time>2018-06-18T07:43:57Z</time>
      </trkpt>
      <trkpt lat="43.98058" lon="7.43966">
        <ele>1758</ele>
        <time>2018-06-18T07:44:12Z</time>
      </trkpt>
      <trkpt lat="43.98048" lon="7.43951">
        <ele>1758</ele>
        <time>2018-06-18T07:44:25Z</time>
      </trkpt>
      <trkpt lat="43.98042" lon="7.43946">
        <ele>1757</ele>
        <time>2018-06-18T07:44:39Z</time>
      </trkpt>
      <trkpt lat="43.98042" lon="7.43947">
        <ele>1757</ele>
        <time>2018-06-18T07:44:40Z</time>
      </trkpt>
      <trkpt lat="43.98044" lon="7.43958">
        <ele>1757</ele>
        <time>2018-06-18T07:44:50Z</time>
      </trkpt>
      <trkpt lat="43.98044" lon="7.43961">
        <ele>1756</ele>
        <time>2018-06-18T07:44:52Z</time>
      </trkpt>
      <trkpt lat="43.98046" lon="7.43966">
        <ele>1756</ele>
        <time>2018-06-18T07:44:56Z</time>
      </trkpt>
      <trkpt lat="43.9805" lon="7.43979">
        <ele>1756</ele>
        <time>2018-06-18T07:45:07Z</time>
      </trkpt>
      <trkpt lat="43.98051" lon="7.43985">
        <ele>1755</ele>
        <time>2018-06-18T07:45:11Z</time>
      </trkpt>
      <trkpt lat="43.98051" lon="7.43993">
        <ele>1755</ele>
        <time>2018-06-18T07:45:19Z</time>
      </trkpt>
      <trkpt lat="43.98052" lon="7.43996">
        <ele>1755</ele>
        <time>2018-06-18T07:45:21Z</time>
      </trkpt>
      <trkpt lat="43.98054" lon="7.44004">
        <ele>1745</ele>
        <time>2018-06-18T07:45:28Z</time>
      </trkpt>
      <trkpt lat="43.98063" lon="7.4402">
        <ele>1746</ele>
        <time>2018-06-18T07:45:40Z</time>
      </trkpt>
      <trkpt lat="43.98065" lon="7.44029">
        <ele>1744</ele>
        <time>2018-06-18T07:45:51Z</time>
      </trkpt>
      <trkpt lat="43.98072" lon="7.44039">
        <ele>1743</ele>
        <time>2018-06-18T07:46:04Z</time>
      </trkpt>
      <trkpt lat="43.98075" lon="7.44043">
        <ele>1742</ele>
        <time>2018-06-18T07:46:10Z</time>
      </trkpt>
      <trkpt lat="43.98079" lon="7.44047">
        <ele>1742</ele>
        <time>2018-06-18T07:46:16Z</time>
      </trkpt>
      <trkpt lat="43.98082" lon="7.44052">
        <ele>1741</ele>
        <time>2018-06-18T07:46:23Z</time>
      </trkpt>
      <trkpt lat="43.98091" lon="7.44058">
        <ele>1747</ele>
        <time>2018-06-18T07:46:36Z</time>
      </trkpt>
      <trkpt lat="43.98099" lon="7.44061">
        <ele>1747</ele>
        <time>2018-06-18T07:46:45Z</time>
      </trkpt>
      <trkpt lat="43.98104" lon="7.44062">
        <ele>1747</ele>
        <time>2018-06-18T07:46:51Z</time>
      </trkpt>
      <trkpt lat="43.98114" lon="7.44066">
        <ele>1747</ele>
        <time>2018-06-18T07:47:03Z</time>
      </trkpt>
      <trkpt lat="43.98118" lon="7.44067">
        <ele>1747</ele>
        <time>2018-06-18T07:47:07Z</time>
      </trkpt>
      <trkpt lat="43.98136" lon="7.44064">
        <ele>1747</ele>
        <time>2018-06-18T07:47:20Z</time>
      </trkpt>
      <trkpt lat="43.98141" lon="7.44063">
        <ele>1747</ele>
        <time>2018-06-18T07:47:33Z</time>
      </trkpt>
      <trkpt lat="43.98146" lon="7.44064">
        <ele>1746</ele>
        <time>2018-06-18T07:48:00Z</time>
      </trkpt>
      <trkpt lat="43.98149" lon="7.44065">
        <ele>1745</ele>
        <time>2018-06-18T07:48:12Z</time>
      </trkpt>
      <trkpt lat="43.98152" lon="7.44064">
        <ele>1745</ele>
        <time>2018-06-18T07:48:16Z</time>
      </trkpt>
      <trkpt lat="43.98166" lon="7.44057">
        <ele>1746</ele>
        <time>2018-06-18T07:48:30Z</time>
      </trkpt>
      <trkpt lat="43.98172" lon="7.44055">
        <ele>1744</ele>
        <time>2018-06-18T07:48:34Z</time>
      </trkpt>
      <trkpt lat="43.98176" lon="7.44053">
        <ele>1744</ele>
        <time>2018-06-18T07:48:38Z</time>
      </trkpt>
      <trkpt lat="43.98179" lon="7.44051">
        <ele>1745</ele>
        <time>2018-06-18T07:48:40Z</time>
      </trkpt>
      <trkpt lat="43.98182" lon="7.4405">
        <ele>1745</ele>
        <time>2018-06-18T07:48:42Z</time>
      </trkpt>
      <trkpt lat="43.98197" lon="7.44039">
        <ele>1746</ele>
        <time>2018-06-18T07:48:55Z</time>
      </trkpt>
      <trkpt lat="43.98204" lon="7.4403">
        <ele>1746</ele>
        <time>2018-06-18T07:49:02Z</time>
      </trkpt>
      <trkpt lat="43.98208" lon="7.44026">
        <ele>1746</ele>
        <time>2018-06-18T07:49:06Z</time>
      </trkpt>
      <trkpt lat="43.98217" lon="7.44013">
        <ele>1745</ele>
        <time>2018-06-18T07:49:21Z</time>
      </trkpt>
      <trkpt lat="43.98219" lon="7.44011">
        <ele>1745</ele>
        <time>2018-06-18T07:49:34Z</time>
      </trkpt>
      <trkpt lat="43.98218" lon="7.44011">
        <ele>1745</ele>
        <time>2018-06-18T07:49:52Z</time>
      </trkpt>
      <trkpt lat="43.98226" lon="7.44014">
        <ele>1744</ele>
        <time>2018-06-18T07:50:19Z</time>
      </trkpt>
      <trkpt lat="43.98229" lon="7.44015">
        <ele>1743</ele>
        <time>2018-06-18T07:50:32Z</time>
      </trkpt>
      <trkpt lat="43.98236" lon="7.44018">
        <ele>1743</ele>
        <time>2018-06-18T07:50:50Z</time>
      </trkpt>
      <trkpt lat="43.98242" lon="7.44017">
        <ele>1742</ele>
        <time>2018-06-18T07:50:58Z</time>
      </trkpt>
      <trkpt lat="43.98251" lon="7.44017">
        <ele>1740</ele>
        <time>2018-06-18T07:51:10Z</time>
      </trkpt>
      <trkpt lat="43.98255" lon="7.44018">
        <ele>1740</ele>
        <time>2018-06-18T07:51:15Z</time>
      </trkpt>
      <trkpt lat="43.98263" lon="7.44022">
        <ele>1741</ele>
        <time>2018-06-18T07:51:24Z</time>
      </trkpt>
      <trkpt lat="43.98268" lon="7.44027">
        <ele>1741</ele>
        <time>2018-06-18T07:51:33Z</time>
      </trkpt>
      <trkpt lat="43.98267" lon="7.44036">
        <ele>1742</ele>
        <time>2018-06-18T07:51:45Z</time>
      </trkpt>
      <trkpt lat="43.98264" lon="7.44038">
        <ele>1742</ele>
        <time>2018-06-18T07:51:50Z</time>
      </trkpt>
      <trkpt lat="43.98257" lon="7.44049">
        <ele>1742</ele>
        <time>2018-06-18T07:52:04Z</time>
      </trkpt>
      <trkpt lat="43.98251" lon="7.44059">
        <ele>1742</ele>
        <time>2018-06-18T07:52:18Z</time>
      </trkpt>
      <trkpt lat="43.98247" lon="7.44067">
        <ele>1743</ele>
        <time>2018-06-18T07:52:30Z</time>
      </trkpt>
      <trkpt lat="43.98243" lon="7.44079">
        <ele>1742</ele>
        <time>2018-06-18T07:52:42Z</time>
      </trkpt>
      <trkpt lat="43.98242" lon="7.44083">
        <ele>1742</ele>
        <time>2018-06-18T07:52:47Z</time>
      </trkpt>
      <trkpt lat="43.98238" lon="7.44095">
        <ele>1744</ele>
        <time>2018-06-18T07:53:00Z</time>
      </trkpt>
      <trkpt lat="43.98235" lon="7.44107">
        <ele>1746</ele>
        <time>2018-06-18T07:53:10Z</time>
      </trkpt>
      <trkpt lat="43.98231" lon="7.44119">
        <ele>1747</ele>
        <time>2018-06-18T07:53:22Z</time>
      </trkpt>
      <trkpt lat="43.98224" lon="7.44129">
        <ele>1748</ele>
        <time>2018-06-18T07:53:36Z</time>
      </trkpt>
      <trkpt lat="43.98222" lon="7.44144">
        <ele>1749</ele>
        <time>2018-06-18T07:53:50Z</time>
      </trkpt>
      <trkpt lat="43.9822" lon="7.44158">
        <ele>1750</ele>
        <time>2018-06-18T07:54:02Z</time>
      </trkpt>
      <trkpt lat="43.98219" lon="7.44162">
        <ele>1750</ele>
        <time>2018-06-18T07:54:06Z</time>
      </trkpt>
      <trkpt lat="43.98217" lon="7.44177">
        <ele>1762</ele>
        <time>2018-06-18T07:54:19Z</time>
      </trkpt>
      <trkpt lat="43.98207" lon="7.44186">
        <ele>1762</ele>
        <time>2018-06-18T07:54:33Z</time>
      </trkpt>
      <trkpt lat="43.982" lon="7.44195">
        <ele>1762</ele>
        <time>2018-06-18T07:54:45Z</time>
      </trkpt>
      <trkpt lat="43.98196" lon="7.44198">
        <ele>1762</ele>
        <time>2018-06-18T07:54:53Z</time>
      </trkpt>
      <trkpt lat="43.98193" lon="7.44202">
        <ele>1763</ele>
        <time>2018-06-18T07:55:08Z</time>
      </trkpt>
      <trkpt lat="43.98197" lon="7.44202">
        <ele>1763</ele>
        <time>2018-06-18T07:55:13Z</time>
      </trkpt>
      <trkpt lat="43.98204" lon="7.44204">
        <ele>1764</ele>
        <time>2018-06-18T07:55:24Z</time>
      </trkpt>
      <trkpt lat="43.9821" lon="7.44206">
        <ele>1765</ele>
        <time>2018-06-18T07:55:33Z</time>
      </trkpt>
      <trkpt lat="43.98213" lon="7.44207">
        <ele>1766</ele>
        <time>2018-06-18T07:55:36Z</time>
      </trkpt>
      <trkpt lat="43.98222" lon="7.44208">
        <ele>1767</ele>
        <time>2018-06-18T07:55:48Z</time>
      </trkpt>
      <trkpt lat="43.98222" lon="7.44208">
        <ele>1767</ele>
        <time>2018-06-18T07:55:49Z</time>
      </trkpt>
      <trkpt lat="43.98236" lon="7.44197">
        <ele>1766</ele>
        <time>2018-06-18T07:56:02Z</time>
      </trkpt>
      <trkpt lat="43.98246" lon="7.44189">
        <ele>1765</ele>
        <time>2018-06-18T07:56:15Z</time>
      </trkpt>
      <trkpt lat="43.98253" lon="7.44183">
        <ele>1772</ele>
        <time>2018-06-18T07:56:26Z</time>
      </trkpt>
      <trkpt lat="43.9826" lon="7.44172">
        <ele>1770</ele>
        <time>2018-06-18T07:56:39Z</time>
      </trkpt>
      <trkpt lat="43.98269" lon="7.44165">
        <ele>1762</ele>
        <time>2018-06-18T07:56:53Z</time>
      </trkpt>
      <trkpt lat="43.98278" lon="7.44158">
        <ele>1762</ele>
        <time>2018-06-18T07:57:05Z</time>
      </trkpt>
      <trkpt lat="43.9828" lon="7.44156">
        <ele>1762</ele>
        <time>2018-06-18T07:57:07Z</time>
      </trkpt>
      <trkpt lat="43.98292" lon="7.44155">
        <ele>1763</ele>
        <time>2018-06-18T07:57:19Z</time>
      </trkpt>
      <trkpt lat="43.98301" lon="7.4416">
        <ele>1764</ele>
        <time>2018-06-18T07:57:35Z</time>
      </trkpt>
      <trkpt lat="43.98296" lon="7.44163">
        <ele>1764</ele>
        <time>2018-06-18T07:57:45Z</time>
      </trkpt>
      <trkpt lat="43.98295" lon="7.44164">
        <ele>1764</ele>
        <time>2018-06-18T07:57:47Z</time>
      </trkpt>
      <trkpt lat="43.98289" lon="7.44176">
        <ele>1777</ele>
        <time>2018-06-18T07:58:00Z</time>
      </trkpt>
      <trkpt lat="43.98285" lon="7.44188">
        <ele>1778</ele>
        <time>2018-06-18T07:58:10Z</time>
      </trkpt>
      <trkpt lat="43.98277" lon="7.44198">
        <ele>1778</ele>
        <time>2018-06-18T07:58:22Z</time>
      </trkpt>
      <trkpt lat="43.98273" lon="7.44207">
        <ele>1779</ele>
        <time>2018-06-18T07:58:33Z</time>
      </trkpt>
      <trkpt lat="43.98271" lon="7.44211">
        <ele>1780</ele>
        <time>2018-06-18T07:58:37Z</time>
      </trkpt>
      <trkpt lat="43.98266" lon="7.44223">
        <ele>1782</ele>
        <time>2018-06-18T07:58:49Z</time>
      </trkpt>
      <trkpt lat="43.98265" lon="7.44224">
        <ele>1782</ele>
        <time>2018-06-18T07:58:50Z</time>
      </trkpt>
      <trkpt lat="43.98261" lon="7.44236">
        <ele>1783</ele>
        <time>2018-06-18T07:59:01Z</time>
      </trkpt>
      <trkpt lat="43.9826" lon="7.44239">
        <ele>1783</ele>
        <time>2018-06-18T07:59:05Z</time>
      </trkpt>
      <trkpt lat="43.98256" lon="7.44249">
        <ele>1784</ele>
        <time>2018-06-18T07:59:17Z</time>
      </trkpt>
      <trkpt lat="43.9825" lon="7.44259">
        <ele>1789</ele>
        <time>2018-06-18T07:59:29Z</time>
      </trkpt>
      <trkpt lat="43.98244" lon="7.44268">
        <ele>1786</ele>
        <time>2018-06-18T07:59:42Z</time>
      </trkpt>
      <trkpt lat="43.98243" lon="7.44273">
        <ele>1787</ele>
        <time>2018-06-18T07:59:48Z</time>
      </trkpt>
      <trkpt lat="43.9824" lon="7.44279">
        <ele>1787</ele>
        <time>2018-06-18T07:59:55Z</time>
      </trkpt>
      <trkpt lat="43.98236" lon="7.44287">
        <ele>1788</ele>
        <time>2018-06-18T08:00:05Z</time>
      </trkpt>
      <trkpt lat="43.98231" lon="7.44302">
        <ele>1789</ele>
        <time>2018-06-18T08:00:20Z</time>
      </trkpt>
      <trkpt lat="43.98223" lon="7.44314">
        <ele>1790</ele>
        <time>2018-06-18T08:00:34Z</time>
      </trkpt>
      <trkpt lat="43.98217" lon="7.44328">
        <ele>1791</ele>
        <time>2018-06-18T08:00:48Z</time>
      </trkpt>
      <trkpt lat="43.98212" lon="7.44343">
        <ele>1797</ele>
        <time>2018-06-18T08:01:02Z</time>
      </trkpt>
      <trkpt lat="43.98209" lon="7.44355">
        <ele>1797</ele>
        <time>2018-06-18T08:01:14Z</time>
      </trkpt>
      <trkpt lat="43.98205" lon="7.44369">
        <ele>1797</ele>
        <time>2018-06-18T08:01:27Z</time>
      </trkpt>
      <trkpt lat="43.98203" lon="7.4438">
        <ele>1798</ele>
        <time>2018-06-18T08:01:39Z</time>
      </trkpt>
      <trkpt lat="43.98202" lon="7.44383">
        <ele>1798</ele>
        <time>2018-06-18T08:01:55Z</time>
      </trkpt>
      <trkpt lat="43.98203" lon="7.44383">
        <ele>1798</ele>
        <time>2018-06-18T08:02:26Z</time>
      </trkpt>
      <trkpt lat="43.98205" lon="7.44384">
        <ele>1798</ele>
        <time>2018-06-18T08:02:39Z</time>
      </trkpt>
      <trkpt lat="43.98205" lon="7.44384">
        <ele>1798</ele>
        <time>2018-06-18T08:03:38Z</time>
      </trkpt>
      <trkpt lat="43.98207" lon="7.4438">
        <ele>1798</ele>
        <time>2018-06-18T08:03:41Z</time>
      </trkpt>
      <trkpt lat="43.98208" lon="7.44378">
        <ele>1798</ele>
        <time>2018-06-18T08:03:43Z</time>
      </trkpt>
      <trkpt lat="43.98214" lon="7.44371">
        <ele>1797</ele>
        <time>2018-06-18T08:03:56Z</time>
      </trkpt>
      <trkpt lat="43.98208" lon="7.44375">
        <ele>1798</ele>
        <time>2018-06-18T08:04:40Z</time>
      </trkpt>
      <trkpt lat="43.98203" lon="7.4438">
        <ele>1798</ele>
        <time>2018-06-18T08:04:55Z</time>
      </trkpt>
      <trkpt lat="43.98203" lon="7.44382">
        <ele>1798</ele>
        <time>2018-06-18T08:05:25Z</time>
      </trkpt>
      <trkpt lat="43.98203" lon="7.44382">
        <ele>1798</ele>
        <time>2018-06-18T08:05:41Z</time>
      </trkpt>
      <trkpt lat="43.98203" lon="7.44382">
        <ele>1798</ele>
        <time>2018-06-18T08:06:24Z</time>
      </trkpt>
      <trkpt lat="43.98199" lon="7.44386">
        <ele>1798</ele>
        <time>2018-06-18T08:07:06Z</time>
      </trkpt>
      <trkpt lat="43.98199" lon="7.44388">
        <ele>1798</ele>
        <time>2018-06-18T08:07:20Z</time>
      </trkpt>
      <trkpt lat="43.98192" lon="7.4439">
        <ele>1799</ele>
        <time>2018-06-18T08:07:28Z</time>
      </trkpt>
      <trkpt lat="43.9818" lon="7.44394">
        <ele>1800</ele>
        <time>2018-06-18T08:07:40Z</time>
      </trkpt>
      <trkpt lat="43.9817" lon="7.44399">
        <ele>1801</ele>
        <time>2018-06-18T08:07:53Z</time>
      </trkpt>
      <trkpt lat="43.98162" lon="7.44399">
        <ele>1803</ele>
        <time>2018-06-18T08:08:04Z</time>
      </trkpt>
      <trkpt lat="43.98153" lon="7.44397">
        <ele>1802</ele>
        <time>2018-06-18T08:08:16Z</time>
      </trkpt>
      <trkpt lat="43.98143" lon="7.44401">
        <ele>1802</ele>
        <time>2018-06-18T08:08:30Z</time>
      </trkpt>
      <trkpt lat="43.98134" lon="7.44404">
        <ele>1802</ele>
        <time>2018-06-18T08:08:41Z</time>
      </trkpt>
      <trkpt lat="43.98126" lon="7.44408">
        <ele>1803</ele>
        <time>2018-06-18T08:08:54Z</time>
      </trkpt>
      <trkpt lat="43.98116" lon="7.44413">
        <ele>1804</ele>
        <time>2018-06-18T08:09:09Z</time>
      </trkpt>
      <trkpt lat="43.98107" lon="7.4442">
        <ele>1810</ele>
        <time>2018-06-18T08:09:24Z</time>
      </trkpt>
      <trkpt lat="43.98106" lon="7.44421">
        <ele>1810</ele>
        <time>2018-06-18T08:09:26Z</time>
      </trkpt>
      <trkpt lat="43.98103" lon="7.44425">
        <ele>1810</ele>
        <time>2018-06-18T08:09:31Z</time>
      </trkpt>
      <trkpt lat="43.98102" lon="7.44427">
        <ele>1811</ele>
        <time>2018-06-18T08:09:33Z</time>
      </trkpt>
      <trkpt lat="43.98096" lon="7.44432">
        <ele>1811</ele>
        <time>2018-06-18T08:09:45Z</time>
      </trkpt>
      <trkpt lat="43.9809" lon="7.4444">
        <ele>1811</ele>
        <time>2018-06-18T08:09:59Z</time>
      </trkpt>
      <trkpt lat="43.9809" lon="7.44442">
        <ele>1811</ele>
        <time>2018-06-18T08:10:01Z</time>
      </trkpt>
      <trkpt lat="43.98087" lon="7.44448">
        <ele>1811</ele>
        <time>2018-06-18T08:10:08Z</time>
      </trkpt>
      <trkpt lat="43.98083" lon="7.44458">
        <ele>1814</ele>
        <time>2018-06-18T08:10:20Z</time>
      </trkpt>
      <trkpt lat="43.98082" lon="7.44459">
        <ele>1814</ele>
        <time>2018-06-18T08:10:22Z</time>
      </trkpt>
      <trkpt lat="43.98075" lon="7.44469">
        <ele>1815</ele>
        <time>2018-06-18T08:10:34Z</time>
      </trkpt>
      <trkpt lat="43.98069" lon="7.44477">
        <ele>1815</ele>
        <time>2018-06-18T08:10:45Z</time>
      </trkpt>
      <trkpt lat="43.9806" lon="7.44487">
        <ele>1816</ele>
        <time>2018-06-18T08:10:59Z</time>
      </trkpt>
      <trkpt lat="43.98051" lon="7.44496">
        <ele>1816</ele>
        <time>2018-06-18T08:11:13Z</time>
      </trkpt>
      <trkpt lat="43.98044" lon="7.44504">
        <ele>1821</ele>
        <time>2018-06-18T08:11:24Z</time>
      </trkpt>
      <trkpt lat="43.98035" lon="7.44512">
        <ele>1821</ele>
        <time>2018-06-18T08:11:38Z</time>
      </trkpt>
      <trkpt lat="43.98027" lon="7.4452">
        <ele>1822</ele>
        <time>2018-06-18T08:11:50Z</time>
      </trkpt>
      <trkpt lat="43.98017" lon="7.44529">
        <ele>1822</ele>
        <time>2018-06-18T08:12:03Z</time>
      </trkpt>
      <trkpt lat="43.9801" lon="7.44537">
        <ele>1823</ele>
        <time>2018-06-18T08:12:14Z</time>
      </trkpt>
      <trkpt lat="43.98004" lon="7.44542">
        <ele>1823</ele>
        <time>2018-06-18T08:12:23Z</time>
      </trkpt>
      <trkpt lat="43.98001" lon="7.44544">
        <ele>1824</ele>
        <time>2018-06-18T08:12:27Z</time>
      </trkpt>
      <trkpt lat="43.97995" lon="7.44548">
        <ele>1831</ele>
        <time>2018-06-18T08:12:35Z</time>
      </trkpt>
      <trkpt lat="43.97984" lon="7.4455">
        <ele>1831</ele>
        <time>2018-06-18T08:12:49Z</time>
      </trkpt>
      <trkpt lat="43.97974" lon="7.44552">
        <ele>1832</ele>
        <time>2018-06-18T08:13:02Z</time>
      </trkpt>
      <trkpt lat="43.97965" lon="7.44553">
        <ele>1833</ele>
        <time>2018-06-18T08:13:15Z</time>
      </trkpt>
      <trkpt lat="43.97958" lon="7.44555">
        <ele>1833</ele>
        <time>2018-06-18T08:13:28Z</time>
      </trkpt>
      <trkpt lat="43.97953" lon="7.44555">
        <ele>1834</ele>
        <time>2018-06-18T08:13:36Z</time>
      </trkpt>
      <trkpt lat="43.97945" lon="7.44556">
        <ele>1835</ele>
        <time>2018-06-18T08:13:50Z</time>
      </trkpt>
      <trkpt lat="43.97938" lon="7.44556">
        <ele>1836</ele>
        <time>2018-06-18T08:14:03Z</time>
      </trkpt>
      <trkpt lat="43.97929" lon="7.4456">
        <ele>1838</ele>
        <time>2018-06-18T08:14:18Z</time>
      </trkpt>
      <trkpt lat="43.97918" lon="7.44564">
        <ele>1840</ele>
        <time>2018-06-18T08:14:31Z</time>
      </trkpt>
      <trkpt lat="43.9791" lon="7.44566">
        <ele>1846</ele>
        <time>2018-06-18T08:14:43Z</time>
      </trkpt>
      <trkpt lat="43.97902" lon="7.44564">
        <ele>1846</ele>
        <time>2018-06-18T08:14:56Z</time>
      </trkpt>
      <trkpt lat="43.97892" lon="7.44566">
        <ele>1847</ele>
        <time>2018-06-18T08:15:11Z</time>
      </trkpt>
      <trkpt lat="43.97885" lon="7.44568">
        <ele>1847</ele>
        <time>2018-06-18T08:15:23Z</time>
      </trkpt>
      <trkpt lat="43.97883" lon="7.44568">
        <ele>1847</ele>
        <time>2018-06-18T08:15:26Z</time>
      </trkpt>
      <trkpt lat="43.9788" lon="7.44567">
        <ele>1848</ele>
        <time>2018-06-18T08:15:31Z</time>
      </trkpt>
      <trkpt lat="43.97867" lon="7.44565">
        <ele>1849</ele>
        <time>2018-06-18T08:15:45Z</time>
      </trkpt>
      <trkpt lat="43.97857" lon="7.44564">
        <ele>1850</ele>
        <time>2018-06-18T08:15:59Z</time>
      </trkpt>
      <trkpt lat="43.97848" lon="7.44565">
        <ele>1851</ele>
        <time>2018-06-18T08:16:13Z</time>
      </trkpt>
      <trkpt lat="43.97841" lon="7.44568">
        <ele>1853</ele>
        <time>2018-06-18T08:16:26Z</time>
      </trkpt>
      <trkpt lat="43.97834" lon="7.44571">
        <ele>1855</ele>
        <time>2018-06-18T08:16:40Z</time>
      </trkpt>
      <trkpt lat="43.97833" lon="7.44571">
        <ele>1861</ele>
        <time>2018-06-18T08:16:41Z</time>
      </trkpt>
      <trkpt lat="43.97826" lon="7.44571">
        <ele>1861</ele>
        <time>2018-06-18T08:16:52Z</time>
      </trkpt>
      <trkpt lat="43.97824" lon="7.44572">
        <ele>1861</ele>
        <time>2018-06-18T08:16:59Z</time>
      </trkpt>
      <trkpt lat="43.97819" lon="7.44575">
        <ele>1861</ele>
        <time>2018-06-18T08:17:05Z</time>
      </trkpt>
      <trkpt lat="43.97807" lon="7.44579">
        <ele>1861</ele>
        <time>2018-06-18T08:17:19Z</time>
      </trkpt>
      <trkpt lat="43.97798" lon="7.4458">
        <ele>1862</ele>
        <time>2018-06-18T08:17:31Z</time>
      </trkpt>
      <trkpt lat="43.97791" lon="7.44582">
        <ele>1863</ele>
        <time>2018-06-18T08:17:45Z</time>
      </trkpt>
      <trkpt lat="43.97783" lon="7.44584">
        <ele>1864</ele>
        <time>2018-06-18T08:17:57Z</time>
      </trkpt>
      <trkpt lat="43.97776" lon="7.4459">
        <ele>1865</ele>
        <time>2018-06-18T08:18:11Z</time>
      </trkpt>
      <trkpt lat="43.9777" lon="7.44599">
        <ele>1865</ele>
        <time>2018-06-18T08:18:24Z</time>
      </trkpt>
      <trkpt lat="43.97766" lon="7.44604">
        <ele>1865</ele>
        <time>2018-06-18T08:18:38Z</time>
      </trkpt>
      <trkpt lat="43.97758" lon="7.4461">
        <ele>1864</ele>
        <time>2018-06-18T08:19:00Z</time>
      </trkpt>
      <trkpt lat="43.97744" lon="7.44613">
        <ele>1873</ele>
        <time>2018-06-18T08:19:14Z</time>
      </trkpt>
      <trkpt lat="43.97736" lon="7.44616">
        <ele>1873</ele>
        <time>2018-06-18T08:19:24Z</time>
      </trkpt>
      <trkpt lat="43.97726" lon="7.44619">
        <ele>1874</ele>
        <time>2018-06-18T08:19:35Z</time>
      </trkpt>
      <trkpt lat="43.97716" lon="7.4462">
        <ele>1875</ele>
        <time>2018-06-18T08:19:48Z</time>
      </trkpt>
      <trkpt lat="43.97712" lon="7.44618">
        <ele>1875</ele>
        <time>2018-06-18T08:20:12Z</time>
      </trkpt>
      <trkpt lat="43.97707" lon="7.44619">
        <ele>1876</ele>
        <time>2018-06-18T08:20:24Z</time>
      </trkpt>
      <trkpt lat="43.97704" lon="7.44619">
        <ele>1876</ele>
        <time>2018-06-18T08:20:45Z</time>
      </trkpt>
      <trkpt lat="43.97704" lon="7.4462">
        <ele>1876</ele>
        <time>2018-06-18T08:21:01Z</time>
      </trkpt>
      <trkpt lat="43.977" lon="7.44622">
        <ele>1877</ele>
        <time>2018-06-18T08:21:25Z</time>
      </trkpt>
      <trkpt lat="43.97695" lon="7.44625">
        <ele>1877</ele>
        <time>2018-06-18T08:21:38Z</time>
      </trkpt>
      <trkpt lat="43.97694" lon="7.44627">
        <ele>1877</ele>
        <time>2018-06-18T08:21:43Z</time>
      </trkpt>
      <trkpt lat="43.97688" lon="7.44631">
        <ele>1877</ele>
        <time>2018-06-18T08:21:52Z</time>
      </trkpt>
      <trkpt lat="43.97684" lon="7.44636">
        <ele>1877</ele>
        <time>2018-06-18T08:21:57Z</time>
      </trkpt>
      <trkpt lat="43.97677" lon="7.4464">
        <ele>1877</ele>
        <time>2018-06-18T08:22:03Z</time>
      </trkpt>
      <trkpt lat="43.97673" lon="7.4464">
        <ele>1877</ele>
        <time>2018-06-18T08:22:07Z</time>
      </trkpt>
      <trkpt lat="43.97663" lon="7.44647">
        <ele>1883</ele>
        <time>2018-06-18T08:22:18Z</time>
      </trkpt>
      <trkpt lat="43.97653" lon="7.44657">
        <ele>1882</ele>
        <time>2018-06-18T08:22:27Z</time>
      </trkpt>
      <trkpt lat="43.97648" lon="7.4466">
        <ele>1883</ele>
        <time>2018-06-18T08:22:31Z</time>
      </trkpt>
      <trkpt lat="43.97638" lon="7.44666">
        <ele>1884</ele>
        <time>2018-06-18T08:22:40Z</time>
      </trkpt>
      <trkpt lat="43.97636" lon="7.44668">
        <ele>1873</ele>
        <time>2018-06-18T08:22:42Z</time>
      </trkpt>
      <trkpt lat="43.9763" lon="7.44671">
        <ele>1873</ele>
        <time>2018-06-18T08:22:49Z</time>
      </trkpt>
      <trkpt lat="43.97626" lon="7.44672">
        <ele>1873</ele>
        <time>2018-06-18T08:22:52Z</time>
      </trkpt>
      <trkpt lat="43.97617" lon="7.44679">
        <ele>1874</ele>
        <time>2018-06-18T08:23:03Z</time>
      </trkpt>
      <trkpt lat="43.97615" lon="7.4468">
        <ele>1874</ele>
        <time>2018-06-18T08:23:05Z</time>
      </trkpt>
      <trkpt lat="43.97612" lon="7.44684">
        <ele>1874</ele>
        <time>2018-06-18T08:23:08Z</time>
      </trkpt>
      <trkpt lat="43.97599" lon="7.44692">
        <ele>1875</ele>
        <time>2018-06-18T08:23:21Z</time>
      </trkpt>
      <trkpt lat="43.97587" lon="7.44703">
        <ele>1873</ele>
        <time>2018-06-18T08:23:35Z</time>
      </trkpt>
      <trkpt lat="43.97576" lon="7.44713">
        <ele>1876</ele>
        <time>2018-06-18T08:23:47Z</time>
      </trkpt>
      <trkpt lat="43.97564" lon="7.4472">
        <ele>1875</ele>
        <time>2018-06-18T08:24:00Z</time>
      </trkpt>
      <trkpt lat="43.97548" lon="7.44724">
        <ele>1876</ele>
        <time>2018-06-18T08:24:15Z</time>
      </trkpt>
      <trkpt lat="43.97538" lon="7.44724">
        <ele>1876</ele>
        <time>2018-06-18T08:24:25Z</time>
      </trkpt>
      <trkpt lat="43.97528" lon="7.44722">
        <ele>1876</ele>
        <time>2018-06-18T08:24:35Z</time>
      </trkpt>
      <trkpt lat="43.9752" lon="7.44724">
        <ele>1876</ele>
        <time>2018-06-18T08:24:44Z</time>
      </trkpt>
      <trkpt lat="43.97506" lon="7.44735">
        <ele>1878</ele>
        <time>2018-06-18T08:24:59Z</time>
      </trkpt>
      <trkpt lat="43.97497" lon="7.4474">
        <ele>1876</ele>
        <time>2018-06-18T08:25:08Z</time>
      </trkpt>
      <trkpt lat="43.97491" lon="7.44739">
        <ele>1875</ele>
        <time>2018-06-18T08:25:13Z</time>
      </trkpt>
      <trkpt lat="43.97479" lon="7.44743">
        <ele>1873</ele>
        <time>2018-06-18T08:25:25Z</time>
      </trkpt>
      <trkpt lat="43.97475" lon="7.44745">
        <ele>1872</ele>
        <time>2018-06-18T08:25:39Z</time>
      </trkpt>
      <trkpt lat="43.97474" lon="7.44746">
        <ele>1872</ele>
        <time>2018-06-18T08:25:51Z</time>
      </trkpt>
      <trkpt lat="43.97473" lon="7.44747">
        <ele>1872</ele>
        <time>2018-06-18T08:26:16Z</time>
      </trkpt>
      <trkpt lat="43.97469" lon="7.44751">
        <ele>1878</ele>
        <time>2018-06-18T08:27:27Z</time>
      </trkpt>
      <trkpt lat="43.97456" lon="7.44759">
        <ele>1877</ele>
        <time>2018-06-18T08:27:40Z</time>
      </trkpt>
      <trkpt lat="43.97445" lon="7.44766">
        <ele>1877</ele>
        <time>2018-06-18T08:27:51Z</time>
      </trkpt>
      <trkpt lat="43.97443" lon="7.44766">
        <ele>1877</ele>
        <time>2018-06-18T08:27:53Z</time>
      </trkpt>
      <trkpt lat="43.97428" lon="7.44768">
        <ele>1876</ele>
        <time>2018-06-18T08:28:05Z</time>
      </trkpt>
      <trkpt lat="43.97423" lon="7.44769">
        <ele>1876</ele>
        <time>2018-06-18T08:28:09Z</time>
      </trkpt>
      <trkpt lat="43.97421" lon="7.44771">
        <ele>1877</ele>
        <time>2018-06-18T08:28:11Z</time>
      </trkpt>
      <trkpt lat="43.97414" lon="7.44774">
        <ele>1874</ele>
        <time>2018-06-18T08:28:17Z</time>
      </trkpt>
      <trkpt lat="43.97399" lon="7.44786">
        <ele>1875</ele>
        <time>2018-06-18T08:28:31Z</time>
      </trkpt>
      <trkpt lat="43.97389" lon="7.44795">
        <ele>1875</ele>
        <time>2018-06-18T08:28:41Z</time>
      </trkpt>
      <trkpt lat="43.97382" lon="7.44804">
        <ele>1876</ele>
        <time>2018-06-18T08:28:49Z</time>
      </trkpt>
      <trkpt lat="43.97375" lon="7.44815">
        <ele>1876</ele>
        <time>2018-06-18T08:28:59Z</time>
      </trkpt>
      <trkpt lat="43.97373" lon="7.44818">
        <ele>1876</ele>
        <time>2018-06-18T08:29:01Z</time>
      </trkpt>
      <trkpt lat="43.97365" lon="7.44828">
        <ele>1877</ele>
        <time>2018-06-18T08:29:11Z</time>
      </trkpt>
      <trkpt lat="43.97358" lon="7.44839">
        <ele>1881</ele>
        <time>2018-06-18T08:29:20Z</time>
      </trkpt>
      <trkpt lat="43.97356" lon="7.44843">
        <ele>1881</ele>
        <time>2018-06-18T08:29:23Z</time>
      </trkpt>
      <trkpt lat="43.97348" lon="7.44856">
        <ele>1881</ele>
        <time>2018-06-18T08:29:33Z</time>
      </trkpt>
      <trkpt lat="43.97345" lon="7.4486">
        <ele>1881</ele>
        <time>2018-06-18T08:29:37Z</time>
      </trkpt>
      <trkpt lat="43.97344" lon="7.44863">
        <ele>1881</ele>
        <time>2018-06-18T08:29:39Z</time>
      </trkpt>
      <trkpt lat="43.97339" lon="7.44871">
        <ele>1881</ele>
        <time>2018-06-18T08:29:45Z</time>
      </trkpt>
      <trkpt lat="43.97335" lon="7.44882">
        <ele>1881</ele>
        <time>2018-06-18T08:29:52Z</time>
      </trkpt>
      <trkpt lat="43.97321" lon="7.44897">
        <ele>1888</ele>
        <time>2018-06-18T08:30:06Z</time>
      </trkpt>
      <trkpt lat="43.97309" lon="7.44901">
        <ele>1889</ele>
        <time>2018-06-18T08:30:19Z</time>
      </trkpt>
      <trkpt lat="43.97303" lon="7.44899">
        <ele>1890</ele>
        <time>2018-06-18T08:30:30Z</time>
      </trkpt>
      <trkpt lat="43.97299" lon="7.44895">
        <ele>1890</ele>
        <time>2018-06-18T08:30:36Z</time>
      </trkpt>
      <trkpt lat="43.9729" lon="7.44885">
        <ele>1890</ele>
        <time>2018-06-18T08:30:49Z</time>
      </trkpt>
      <trkpt lat="43.97282" lon="7.44878">
        <ele>1890</ele>
        <time>2018-06-18T08:31:01Z</time>
      </trkpt>
      <trkpt lat="43.97272" lon="7.44872">
        <ele>1890</ele>
        <time>2018-06-18T08:31:15Z</time>
      </trkpt>
      <trkpt lat="43.97269" lon="7.44869">
        <ele>1890</ele>
        <time>2018-06-18T08:31:19Z</time>
      </trkpt>
      <trkpt lat="43.97255" lon="7.44864">
        <ele>1889</ele>
        <time>2018-06-18T08:31:34Z</time>
      </trkpt>
      <trkpt lat="43.97252" lon="7.44864">
        <ele>1889</ele>
        <time>2018-06-18T08:31:38Z</time>
      </trkpt>
      <trkpt lat="43.97251" lon="7.44863">
        <ele>1889</ele>
        <time>2018-06-18T08:31:40Z</time>
      </trkpt>
      <trkpt lat="43.97239" lon="7.4486">
        <ele>1901</ele>
        <time>2018-06-18T08:31:54Z</time>
      </trkpt>
      <trkpt lat="43.97228" lon="7.44858">
        <ele>1903</ele>
        <time>2018-06-18T08:32:07Z</time>
      </trkpt>
      <trkpt lat="43.97217" lon="7.44855">
        <ele>1905</ele>
        <time>2018-06-18T08:32:20Z</time>
      </trkpt>
      <trkpt lat="43.97205" lon="7.44853">
        <ele>1907</ele>
        <time>2018-06-18T08:32:32Z</time>
      </trkpt>
      <trkpt lat="43.97204" lon="7.44854">
        <ele>1907</ele>
        <time>2018-06-18T08:32:33Z</time>
      </trkpt>
      <trkpt lat="43.97196" lon="7.44852">
        <ele>1908</ele>
        <time>2018-06-18T08:32:46Z</time>
      </trkpt>
      <trkpt lat="43.97186" lon="7.44847">
        <ele>1910</ele>
        <time>2018-06-18T08:32:59Z</time>
      </trkpt>
      <trkpt lat="43.97175" lon="7.44843">
        <ele>1910</ele>
        <time>2018-06-18T08:33:13Z</time>
      </trkpt>
      <trkpt lat="43.97169" lon="7.44839">
        <ele>1911</ele>
        <time>2018-06-18T08:33:22Z</time>
      </trkpt>
      <trkpt lat="43.97158" lon="7.44835">
        <ele>1918</ele>
        <time>2018-06-18T08:33:36Z</time>
      </trkpt>
      <trkpt lat="43.97148" lon="7.44827">
        <ele>1911</ele>
        <time>2018-06-18T08:33:48Z</time>
      </trkpt>
      <trkpt lat="43.97142" lon="7.44823">
        <ele>1911</ele>
        <time>2018-06-18T08:33:57Z</time>
      </trkpt>
      <trkpt lat="43.97136" lon="7.44816">
        <ele>1912</ele>
        <time>2018-06-18T08:34:05Z</time>
      </trkpt>
      <trkpt lat="43.97125" lon="7.44811">
        <ele>1913</ele>
        <time>2018-06-18T08:34:18Z</time>
      </trkpt>
      <trkpt lat="43.97118" lon="7.44808">
        <ele>1914</ele>
        <time>2018-06-18T08:34:27Z</time>
      </trkpt>
      <trkpt lat="43.9711" lon="7.44798">
        <ele>1913</ele>
        <time>2018-06-18T08:34:39Z</time>
      </trkpt>
      <trkpt lat="43.97105" lon="7.44795">
        <ele>1913</ele>
        <time>2018-06-18T08:34:45Z</time>
      </trkpt>
      <trkpt lat="43.97095" lon="7.44788">
        <ele>1912</ele>
        <time>2018-06-18T08:34:57Z</time>
      </trkpt>
      <trkpt lat="43.97085" lon="7.4478">
        <ele>1911</ele>
        <time>2018-06-18T08:35:09Z</time>
      </trkpt>
      <trkpt lat="43.97076" lon="7.44771">
        <ele>1923</ele>
        <time>2018-06-18T08:35:21Z</time>
      </trkpt>
      <trkpt lat="43.97065" lon="7.44764">
        <ele>1923</ele>
        <time>2018-06-18T08:35:33Z</time>
      </trkpt>
      <trkpt lat="43.97062" lon="7.44761">
        <ele>1923</ele>
        <time>2018-06-18T08:35:36Z</time>
      </trkpt>
      <trkpt lat="43.97059" lon="7.44761">
        <ele>1924</ele>
        <time>2018-06-18T08:35:38Z</time>
      </trkpt>
      <trkpt lat="43.97045" lon="7.44754">
        <ele>1928</ele>
        <time>2018-06-18T08:35:52Z</time>
      </trkpt>
      <trkpt lat="43.97035" lon="7.44747">
        <ele>1909</ele>
        <time>2018-06-18T08:36:03Z</time>
      </trkpt>
      <trkpt lat="43.97032" lon="7.44745">
        <ele>1909</ele>
        <time>2018-06-18T08:36:08Z</time>
      </trkpt>
      <trkpt lat="43.97023" lon="7.44743">
        <ele>1913</ele>
        <time>2018-06-18T08:36:18Z</time>
      </trkpt>
      <trkpt lat="43.97009" lon="7.44738">
        <ele>1918</ele>
        <time>2018-06-18T08:36:31Z</time>
      </trkpt>
      <trkpt lat="43.97001" lon="7.44733">
        <ele>1916</ele>
        <time>2018-06-18T08:36:39Z</time>
      </trkpt>
      <trkpt lat="43.96988" lon="7.44731">
        <ele>1920</ele>
        <time>2018-06-18T08:36:53Z</time>
      </trkpt>
      <trkpt lat="43.96976" lon="7.44725">
        <ele>1918</ele>
        <time>2018-06-18T08:37:06Z</time>
      </trkpt>
      <trkpt lat="43.96971" lon="7.44724">
        <ele>1917</ele>
        <time>2018-06-18T08:37:12Z</time>
      </trkpt>
      <trkpt lat="43.96962" lon="7.44722">
        <ele>1916</ele>
        <time>2018-06-18T08:37:20Z</time>
      </trkpt>
      <trkpt lat="43.96959" lon="7.44722">
        <ele>1916</ele>
        <time>2018-06-18T08:37:23Z</time>
      </trkpt>
      <trkpt lat="43.96944" lon="7.4472">
        <ele>1916</ele>
        <time>2018-06-18T08:37:37Z</time>
      </trkpt>
      <trkpt lat="43.96932" lon="7.44719">
        <ele>1916</ele>
        <time>2018-06-18T08:37:49Z</time>
      </trkpt>
      <trkpt lat="43.96921" lon="7.4472">
        <ele>1917</ele>
        <time>2018-06-18T08:38:01Z</time>
      </trkpt>
      <trkpt lat="43.96909" lon="7.44726">
        <ele>1916</ele>
        <time>2018-06-18T08:38:14Z</time>
      </trkpt>
      <trkpt lat="43.96908" lon="7.44727">
        <ele>1916</ele>
        <time>2018-06-18T08:38:16Z</time>
      </trkpt>
      <trkpt lat="43.96902" lon="7.44729">
        <ele>1916</ele>
        <time>2018-06-18T08:38:21Z</time>
      </trkpt>
      <trkpt lat="43.96886" lon="7.44733">
        <ele>1914</ele>
        <time>2018-06-18T08:38:35Z</time>
      </trkpt>
      <trkpt lat="43.9688" lon="7.44735">
        <ele>1914</ele>
        <time>2018-06-18T08:38:41Z</time>
      </trkpt>
      <trkpt lat="43.96872" lon="7.44737">
        <ele>1913</ele>
        <time>2018-06-18T08:38:48Z</time>
      </trkpt>
      <trkpt lat="43.9687" lon="7.44735">
        <ele>1913</ele>
        <time>2018-06-18T08:38:51Z</time>
      </trkpt>
      <trkpt lat="43.96864" lon="7.44739">
        <ele>1913</ele>
        <time>2018-06-18T08:38:57Z</time>
      </trkpt>
      <trkpt lat="43.96855" lon="7.44743">
        <ele>1914</ele>
        <time>2018-06-18T08:39:06Z</time>
      </trkpt>
      <trkpt lat="43.9684" lon="7.44747">
        <ele>1918</ele>
        <time>2018-06-18T08:39:20Z</time>
      </trkpt>
      <trkpt lat="43.96828" lon="7.44752">
        <ele>1922</ele>
        <time>2018-06-18T08:39:34Z</time>
      </trkpt>
      <trkpt lat="43.96823" lon="7.44753">
        <ele>1922</ele>
        <time>2018-06-18T08:39:45Z</time>
      </trkpt>
      <trkpt lat="43.96812" lon="7.44754">
        <ele>1923</ele>
        <time>2018-06-18T08:40:00Z</time>
      </trkpt>
      <trkpt lat="43.96809" lon="7.44756">
        <ele>1923</ele>
        <time>2018-06-18T08:40:04Z</time>
      </trkpt>
      <trkpt lat="43.96805" lon="7.44756">
        <ele>1922</ele>
        <time>2018-06-18T08:40:08Z</time>
      </trkpt>
      <trkpt lat="43.96789" lon="7.4476">
        <ele>1921</ele>
        <time>2018-06-18T08:40:22Z</time>
      </trkpt>
      <trkpt lat="43.96775" lon="7.44763">
        <ele>1918</ele>
        <time>2018-06-18T08:40:38Z</time>
      </trkpt>
      <trkpt lat="43.96774" lon="7.44763">
        <ele>1918</ele>
        <time>2018-06-18T08:40:40Z</time>
      </trkpt>
      <trkpt lat="43.9677" lon="7.44766">
        <ele>1917</ele>
        <time>2018-06-18T08:40:45Z</time>
      </trkpt>
      <trkpt lat="43.96757" lon="7.44771">
        <ele>1916</ele>
        <time>2018-06-18T08:40:59Z</time>
      </trkpt>
      <trkpt lat="43.96746" lon="7.44774">
        <ele>1908</ele>
        <time>2018-06-18T08:41:13Z</time>
      </trkpt>
      <trkpt lat="43.96734" lon="7.44778">
        <ele>1908</ele>
        <time>2018-06-18T08:41:26Z</time>
      </trkpt>
      <trkpt lat="43.96731" lon="7.44779">
        <ele>1908</ele>
        <time>2018-06-18T08:41:29Z</time>
      </trkpt>
      <trkpt lat="43.96728" lon="7.44778">
        <ele>1908</ele>
        <time>2018-06-18T08:41:31Z</time>
      </trkpt>
      <trkpt lat="43.96727" lon="7.44777">
        <ele>1908</ele>
        <time>2018-06-18T08:41:34Z</time>
      </trkpt>
      <trkpt lat="43.96712" lon="7.4478">
        <ele>1907</ele>
        <time>2018-06-18T08:41:48Z</time>
      </trkpt>
      <trkpt lat="43.96695" lon="7.44778">
        <ele>1905</ele>
        <time>2018-06-18T08:42:03Z</time>
      </trkpt>
      <trkpt lat="43.96694" lon="7.44778">
        <ele>1905</ele>
        <time>2018-06-18T08:42:04Z</time>
      </trkpt>
      <trkpt lat="43.9668" lon="7.44779">
        <ele>1904</ele>
        <time>2018-06-18T08:42:18Z</time>
      </trkpt>
      <trkpt lat="43.96666" lon="7.44782">
        <ele>1896</ele>
        <time>2018-06-18T08:42:32Z</time>
      </trkpt>
      <trkpt lat="43.96653" lon="7.44785">
        <ele>1895</ele>
        <time>2018-06-18T08:42:45Z</time>
      </trkpt>
      <trkpt lat="43.9664" lon="7.44789">
        <ele>1895</ele>
        <time>2018-06-18T08:42:59Z</time>
      </trkpt>
      <trkpt lat="43.96634" lon="7.4479">
        <ele>1895</ele>
        <time>2018-06-18T08:43:05Z</time>
      </trkpt>
      <trkpt lat="43.9662" lon="7.44794">
        <ele>1894</ele>
        <time>2018-06-18T08:43:18Z</time>
      </trkpt>
      <trkpt lat="43.96609" lon="7.44796">
        <ele>1893</ele>
        <time>2018-06-18T08:43:29Z</time>
      </trkpt>
      <trkpt lat="43.96603" lon="7.44799">
        <ele>1893</ele>
        <time>2018-06-18T08:43:35Z</time>
      </trkpt>
      <trkpt lat="43.96588" lon="7.44802">
        <ele>1893</ele>
        <time>2018-06-18T08:43:50Z</time>
      </trkpt>
      <trkpt lat="43.96577" lon="7.44804">
        <ele>1882</ele>
        <time>2018-06-18T08:44:03Z</time>
      </trkpt>
      <trkpt lat="43.96566" lon="7.44808">
        <ele>1882</ele>
        <time>2018-06-18T08:44:17Z</time>
      </trkpt>
      <trkpt lat="43.96552" lon="7.44813">
        <ele>1880</ele>
        <time>2018-06-18T08:44:31Z</time>
      </trkpt>
      <trkpt lat="43.96542" lon="7.44818">
        <ele>1879</ele>
        <time>2018-06-18T08:44:41Z</time>
      </trkpt>
      <trkpt lat="43.96539" lon="7.4482">
        <ele>1879</ele>
        <time>2018-06-18T08:44:44Z</time>
      </trkpt>
      <trkpt lat="43.96536" lon="7.44819">
        <ele>1878</ele>
        <time>2018-06-18T08:44:47Z</time>
      </trkpt>
      <trkpt lat="43.96529" lon="7.44824">
        <ele>1877</ele>
        <time>2018-06-18T08:44:55Z</time>
      </trkpt>
      <trkpt lat="43.96518" lon="7.44826">
        <ele>1876</ele>
        <time>2018-06-18T08:45:08Z</time>
      </trkpt>
      <trkpt lat="43.96515" lon="7.44827">
        <ele>1876</ele>
        <time>2018-06-18T08:45:12Z</time>
      </trkpt>
      <trkpt lat="43.96506" lon="7.44834">
        <ele>1878</ele>
        <time>2018-06-18T08:45:22Z</time>
      </trkpt>
      <trkpt lat="43.96502" lon="7.44837">
        <ele>1877</ele>
        <time>2018-06-18T08:45:27Z</time>
      </trkpt>
      <trkpt lat="43.96499" lon="7.44839">
        <ele>1875</ele>
        <time>2018-06-18T08:45:30Z</time>
      </trkpt>
      <trkpt lat="43.96486" lon="7.44847">
        <ele>1874</ele>
        <time>2018-06-18T08:45:44Z</time>
      </trkpt>
      <trkpt lat="43.96484" lon="7.44849">
        <ele>1873</ele>
        <time>2018-06-18T08:45:47Z</time>
      </trkpt>
      <trkpt lat="43.9648" lon="7.4485">
        <ele>1873</ele>
        <time>2018-06-18T08:45:51Z</time>
      </trkpt>
      <trkpt lat="43.96474" lon="7.44857">
        <ele>1873</ele>
        <time>2018-06-18T08:45:58Z</time>
      </trkpt>
      <trkpt lat="43.96467" lon="7.44863">
        <ele>1872</ele>
        <time>2018-06-18T08:46:05Z</time>
      </trkpt>
      <trkpt lat="43.9646" lon="7.44868">
        <ele>1872</ele>
        <time>2018-06-18T08:46:12Z</time>
      </trkpt>
      <trkpt lat="43.96457" lon="7.44871">
        <ele>1872</ele>
        <time>2018-06-18T08:46:15Z</time>
      </trkpt>
      <trkpt lat="43.96448" lon="7.44877">
        <ele>1872</ele>
        <time>2018-06-18T08:46:24Z</time>
      </trkpt>
      <trkpt lat="43.96433" lon="7.44883">
        <ele>1871</ele>
        <time>2018-06-18T08:46:38Z</time>
      </trkpt>
      <trkpt lat="43.96431" lon="7.44884">
        <ele>1871</ele>
        <time>2018-06-18T08:46:41Z</time>
      </trkpt>
      <trkpt lat="43.96426" lon="7.44887">
        <ele>1871</ele>
        <time>2018-06-18T08:46:46Z</time>
      </trkpt>
      <trkpt lat="43.96422" lon="7.44889">
        <ele>1871</ele>
        <time>2018-06-18T08:46:50Z</time>
      </trkpt>
      <trkpt lat="43.96407" lon="7.44894">
        <ele>1864</ele>
        <time>2018-06-18T08:47:05Z</time>
      </trkpt>
      <trkpt lat="43.96395" lon="7.44897">
        <ele>1863</ele>
        <time>2018-06-18T08:47:18Z</time>
      </trkpt>
      <trkpt lat="43.96383" lon="7.44901">
        <ele>1862</ele>
        <time>2018-06-18T08:47:33Z</time>
      </trkpt>
      <trkpt lat="43.9638" lon="7.44902">
        <ele>1862</ele>
        <time>2018-06-18T08:47:47Z</time>
      </trkpt>
      <trkpt lat="43.96379" lon="7.44904">
        <ele>1862</ele>
        <time>2018-06-18T08:47:49Z</time>
      </trkpt>
      <trkpt lat="43.96376" lon="7.44909">
        <ele>1862</ele>
        <time>2018-06-18T08:47:53Z</time>
      </trkpt>
      <trkpt lat="43.96366" lon="7.4492">
        <ele>1864</ele>
        <time>2018-06-18T08:48:04Z</time>
      </trkpt>
      <trkpt lat="43.96351" lon="7.44932">
        <ele>1863</ele>
        <time>2018-06-18T08:48:19Z</time>
      </trkpt>
      <trkpt lat="43.96349" lon="7.44933">
        <ele>1862</ele>
        <time>2018-06-18T08:48:38Z</time>
      </trkpt>
      <trkpt lat="43.96349" lon="7.44934">
        <ele>1862</ele>
        <time>2018-06-18T08:49:01Z</time>
      </trkpt>
      <trkpt lat="43.96349" lon="7.44933">
        <ele>1862</ele>
        <time>2018-06-18T08:49:32Z</time>
      </trkpt>
      <trkpt lat="43.96348" lon="7.44934">
        <ele>1862</ele>
        <time>2018-06-18T08:49:45Z</time>
      </trkpt>
      <trkpt lat="43.96347" lon="7.44934">
        <ele>1862</ele>
        <time>2018-06-18T08:50:12Z</time>
      </trkpt>
      <trkpt lat="43.96339" lon="7.44939">
        <ele>1862</ele>
        <time>2018-06-18T08:50:30Z</time>
      </trkpt>
      <trkpt lat="43.96327" lon="7.44948">
        <ele>1859</ele>
        <time>2018-06-18T08:50:44Z</time>
      </trkpt>
      <trkpt lat="43.96311" lon="7.44954">
        <ele>1859</ele>
        <time>2018-06-18T08:50:58Z</time>
      </trkpt>
      <trkpt lat="43.96305" lon="7.44955">
        <ele>1859</ele>
        <time>2018-06-18T08:51:08Z</time>
      </trkpt>
      <trkpt lat="43.96308" lon="7.44957">
        <ele>1859</ele>
        <time>2018-06-18T08:51:28Z</time>
      </trkpt>
      <trkpt lat="43.96307" lon="7.44958">
        <ele>1859</ele>
        <time>2018-06-18T08:51:42Z</time>
      </trkpt>
      <trkpt lat="43.96307" lon="7.44958">
        <ele>1859</ele>
        <time>2018-06-18T08:51:55Z</time>
      </trkpt>
      <trkpt lat="43.96307" lon="7.44958">
        <ele>1859</ele>
        <time>2018-06-18T08:52:09Z</time>
      </trkpt>
      <trkpt lat="43.96307" lon="7.44958">
        <ele>1859</ele>
        <time>2018-06-18T08:52:38Z</time>
      </trkpt>
      <trkpt lat="43.96306" lon="7.44958">
        <ele>1859</ele>
        <time>2018-06-18T08:52:56Z</time>
      </trkpt>
      <trkpt lat="43.96305" lon="7.44959">
        <ele>1859</ele>
        <time>2018-06-18T08:53:02Z</time>
      </trkpt>
      <trkpt lat="43.96295" lon="7.44976">
        <ele>1858</ele>
        <time>2018-06-18T08:53:16Z</time>
      </trkpt>
      <trkpt lat="43.96283" lon="7.44983">
        <ele>1858</ele>
        <time>2018-06-18T08:53:28Z</time>
      </trkpt>
      <trkpt lat="43.96276" lon="7.44986">
        <ele>1857</ele>
        <time>2018-06-18T08:53:41Z</time>
      </trkpt>
      <trkpt lat="43.96267" lon="7.44993">
        <ele>1856</ele>
        <time>2018-06-18T08:53:54Z</time>
      </trkpt>
      <trkpt lat="43.96261" lon="7.44998">
        <ele>1855</ele>
        <time>2018-06-18T08:54:09Z</time>
      </trkpt>
      <trkpt lat="43.96257" lon="7.45">
        <ele>1854</ele>
        <time>2018-06-18T08:54:24Z</time>
      </trkpt>
      <trkpt lat="43.96254" lon="7.45">
        <ele>1850</ele>
        <time>2018-06-18T08:54:46Z</time>
      </trkpt>
      <trkpt lat="43.96251" lon="7.45">
        <ele>1851</ele>
        <time>2018-06-18T08:54:50Z</time>
      </trkpt>
      <trkpt lat="43.96242" lon="7.44995">
        <ele>1855</ele>
        <time>2018-06-18T08:55:04Z</time>
      </trkpt>
      <trkpt lat="43.96237" lon="7.44993">
        <ele>1856</ele>
        <time>2018-06-18T08:55:15Z</time>
      </trkpt>
      <trkpt lat="43.96235" lon="7.44993">
        <ele>1856</ele>
        <time>2018-06-18T08:55:29Z</time>
      </trkpt>
      <trkpt lat="43.96233" lon="7.44994">
        <ele>1856</ele>
        <time>2018-06-18T08:55:52Z</time>
      </trkpt>
      <trkpt lat="43.96225" lon="7.44997">
        <ele>1857</ele>
        <time>2018-06-18T08:56:08Z</time>
      </trkpt>
      <trkpt lat="43.96214" lon="7.45001">
        <ele>1833</ele>
        <time>2018-06-18T08:56:20Z</time>
      </trkpt>
      <trkpt lat="43.96201" lon="7.45007">
        <ele>1830</ele>
        <time>2018-06-18T08:56:33Z</time>
      </trkpt>
      <trkpt lat="43.96185" lon="7.45009">
        <ele>1831</ele>
        <time>2018-06-18T08:56:47Z</time>
      </trkpt>
      <trkpt lat="43.96182" lon="7.45009">
        <ele>1831</ele>
        <time>2018-06-18T08:56:49Z</time>
      </trkpt>
      <trkpt lat="43.9618" lon="7.45009">
        <ele>1832</ele>
        <time>2018-06-18T08:56:51Z</time>
      </trkpt>
      <trkpt lat="43.96178" lon="7.45008">
        <ele>1832</ele>
        <time>2018-06-18T08:56:53Z</time>
      </trkpt>
      <trkpt lat="43.96172" lon="7.45005">
        <ele>1834</ele>
        <time>2018-06-18T08:56:59Z</time>
      </trkpt>
      <trkpt lat="43.96162" lon="7.44998">
        <ele>1842</ele>
        <time>2018-06-18T08:57:12Z</time>
      </trkpt>
      <trkpt lat="43.96159" lon="7.44996">
        <ele>1844</ele>
        <time>2018-06-18T08:57:17Z</time>
      </trkpt>
      <trkpt lat="43.96145" lon="7.44989">
        <ele>1850</ele>
        <time>2018-06-18T08:57:32Z</time>
      </trkpt>
      <trkpt lat="43.96141" lon="7.44987">
        <ele>1851</ele>
        <time>2018-06-18T08:57:37Z</time>
      </trkpt>
      <trkpt lat="43.96136" lon="7.44986">
        <ele>1852</ele>
        <time>2018-06-18T08:57:43Z</time>
      </trkpt>
      <trkpt lat="43.9613" lon="7.44985">
        <ele>1852</ele>
        <time>2018-06-18T08:57:54Z</time>
      </trkpt>
      <trkpt lat="43.96126" lon="7.44984">
        <ele>1852</ele>
        <time>2018-06-18T08:58:06Z</time>
      </trkpt>
      <trkpt lat="43.96122" lon="7.44981">
        <ele>1853</ele>
        <time>2018-06-18T08:58:19Z</time>
      </trkpt>
      <trkpt lat="43.96115" lon="7.44979">
        <ele>1853</ele>
        <time>2018-06-18T08:58:34Z</time>
      </trkpt>
      <trkpt lat="43.96113" lon="7.44979">
        <ele>1853</ele>
        <time>2018-06-18T08:58:37Z</time>
      </trkpt>
      <trkpt lat="43.96103" lon="7.44977">
        <ele>1851</ele>
        <time>2018-06-18T08:58:50Z</time>
      </trkpt>
      <trkpt lat="43.96101" lon="7.44978">
        <ele>1851</ele>
        <time>2018-06-18T08:58:54Z</time>
      </trkpt>
      <trkpt lat="43.9609" lon="7.44978">
        <ele>1849</ele>
        <time>2018-06-18T08:59:04Z</time>
      </trkpt>
      <trkpt lat="43.96086" lon="7.44977">
        <ele>1849</ele>
        <time>2018-06-18T08:59:08Z</time>
      </trkpt>
      <trkpt lat="43.96082" lon="7.44976">
        <ele>1846</ele>
        <time>2018-06-18T08:59:12Z</time>
      </trkpt>
      <trkpt lat="43.96072" lon="7.44975">
        <ele>1847</ele>
        <time>2018-06-18T08:59:22Z</time>
      </trkpt>
      <trkpt lat="43.96068" lon="7.44975">
        <ele>1847</ele>
        <time>2018-06-18T08:59:25Z</time>
      </trkpt>
      <trkpt lat="43.96056" lon="7.44972">
        <ele>1849</ele>
        <time>2018-06-18T08:59:39Z</time>
      </trkpt>
      <trkpt lat="43.96046" lon="7.44967">
        <ele>1850</ele>
        <time>2018-06-18T08:59:51Z</time>
      </trkpt>
      <trkpt lat="43.96044" lon="7.44966">
        <ele>1851</ele>
        <time>2018-06-18T08:59:53Z</time>
      </trkpt>
      <trkpt lat="43.96034" lon="7.44964">
        <ele>1851</ele>
        <time>2018-06-18T09:00:05Z</time>
      </trkpt>
      <trkpt lat="43.96029" lon="7.44965">
        <ele>1850</ele>
        <time>2018-06-18T09:00:11Z</time>
      </trkpt>
      <trkpt lat="43.96026" lon="7.44966">
        <ele>1850</ele>
        <time>2018-06-18T09:00:14Z</time>
      </trkpt>
      <trkpt lat="43.96016" lon="7.44968">
        <ele>1848</ele>
        <time>2018-06-18T09:00:26Z</time>
      </trkpt>
      <trkpt lat="43.96015" lon="7.44969">
        <ele>1848</ele>
        <time>2018-06-18T09:00:27Z</time>
      </trkpt>
      <trkpt lat="43.96012" lon="7.44969">
        <ele>1848</ele>
        <time>2018-06-18T09:00:29Z</time>
      </trkpt>
      <trkpt lat="43.96008" lon="7.44971">
        <ele>1847</ele>
        <time>2018-06-18T09:00:33Z</time>
      </trkpt>
      <trkpt lat="43.95993" lon="7.44975">
        <ele>1846</ele>
        <time>2018-06-18T09:00:48Z</time>
      </trkpt>
      <trkpt lat="43.95979" lon="7.44979">
        <ele>1846</ele>
        <time>2018-06-18T09:01:02Z</time>
      </trkpt>
      <trkpt lat="43.95971" lon="7.44982">
        <ele>1847</ele>
        <time>2018-06-18T09:01:10Z</time>
      </trkpt>
      <trkpt lat="43.95968" lon="7.44984">
        <ele>1847</ele>
        <time>2018-06-18T09:01:13Z</time>
      </trkpt>
      <trkpt lat="43.9596" lon="7.44986">
        <ele>1847</ele>
        <time>2018-06-18T09:01:22Z</time>
      </trkpt>
      <trkpt lat="43.95958" lon="7.44988">
        <ele>1847</ele>
        <time>2018-06-18T09:01:24Z</time>
      </trkpt>
      <trkpt lat="43.95948" lon="7.4499">
        <ele>1846</ele>
        <time>2018-06-18T09:01:34Z</time>
      </trkpt>
      <trkpt lat="43.95932" lon="7.44995">
        <ele>1842</ele>
        <time>2018-06-18T09:01:49Z</time>
      </trkpt>
      <trkpt lat="43.95922" lon="7.44996">
        <ele>1837</ele>
        <time>2018-06-18T09:01:59Z</time>
      </trkpt>
      <trkpt lat="43.95913" lon="7.44998">
        <ele>1836</ele>
        <time>2018-06-18T09:02:08Z</time>
      </trkpt>
      <trkpt lat="43.95901" lon="7.45005">
        <ele>1824</ele>
        <time>2018-06-18T09:02:21Z</time>
      </trkpt>
      <trkpt lat="43.959" lon="7.45006">
        <ele>1824</ele>
        <time>2018-06-18T09:02:22Z</time>
      </trkpt>
      <trkpt lat="43.95892" lon="7.45009">
        <ele>1822</ele>
        <time>2018-06-18T09:02:30Z</time>
      </trkpt>
      <trkpt lat="43.95876" lon="7.45013">
        <ele>1822</ele>
        <time>2018-06-18T09:02:46Z</time>
      </trkpt>
      <trkpt lat="43.95865" lon="7.4502">
        <ele>1823</ele>
        <time>2018-06-18T09:02:58Z</time>
      </trkpt>
      <trkpt lat="43.95855" lon="7.45025">
        <ele>1823</ele>
        <time>2018-06-18T09:03:13Z</time>
      </trkpt>
      <trkpt lat="43.95848" lon="7.45027">
        <ele>1824</ele>
        <time>2018-06-18T09:03:25Z</time>
      </trkpt>
      <trkpt lat="43.95844" lon="7.4503">
        <ele>1823</ele>
        <time>2018-06-18T09:03:39Z</time>
      </trkpt>
      <trkpt lat="43.95843" lon="7.45033">
        <ele>1822</ele>
        <time>2018-06-18T09:03:44Z</time>
      </trkpt>
      <trkpt lat="43.95831" lon="7.45038">
        <ele>1829</ele>
        <time>2018-06-18T09:03:59Z</time>
      </trkpt>
      <trkpt lat="43.95825" lon="7.4504">
        <ele>1829</ele>
        <time>2018-06-18T09:04:06Z</time>
      </trkpt>
      <trkpt lat="43.95814" lon="7.45046">
        <ele>1827</ele>
        <time>2018-06-18T09:04:19Z</time>
      </trkpt>
      <trkpt lat="43.95808" lon="7.45051">
        <ele>1826</ele>
        <time>2018-06-18T09:04:32Z</time>
      </trkpt>
      <trkpt lat="43.95806" lon="7.45051">
        <ele>1826</ele>
        <time>2018-06-18T09:04:50Z</time>
      </trkpt>
      <trkpt lat="43.958" lon="7.45057">
        <ele>1825</ele>
        <time>2018-06-18T09:05:09Z</time>
      </trkpt>
      <trkpt lat="43.958" lon="7.45057">
        <ele>1825</ele>
        <time>2018-06-18T09:05:38Z</time>
      </trkpt>
      <trkpt lat="43.95796" lon="7.45058">
        <ele>1825</ele>
        <time>2018-06-18T09:05:51Z</time>
      </trkpt>
      <trkpt lat="43.95788" lon="7.45065">
        <ele>1825</ele>
        <time>2018-06-18T09:06:05Z</time>
      </trkpt>
      <trkpt lat="43.95781" lon="7.4507">
        <ele>1825</ele>
        <time>2018-06-18T09:06:17Z</time>
      </trkpt>
      <trkpt lat="43.95773" lon="7.45076">
        <ele>1824</ele>
        <time>2018-06-18T09:06:29Z</time>
      </trkpt>
      <trkpt lat="43.95767" lon="7.45081">
        <ele>1823</ele>
        <time>2018-06-18T09:06:37Z</time>
      </trkpt>
      <trkpt lat="43.9576" lon="7.45086">
        <ele>1810</ele>
        <time>2018-06-18T09:06:46Z</time>
      </trkpt>
      <trkpt lat="43.95759" lon="7.45089">
        <ele>1809</ele>
        <time>2018-06-18T09:06:49Z</time>
      </trkpt>
      <trkpt lat="43.95754" lon="7.45094">
        <ele>1809</ele>
        <time>2018-06-18T09:06:54Z</time>
      </trkpt>
      <trkpt lat="43.9574" lon="7.4511">
        <ele>1810</ele>
        <time>2018-06-18T09:07:11Z</time>
      </trkpt>
      <trkpt lat="43.95732" lon="7.45122">
        <ele>1807</ele>
        <time>2018-06-18T09:07:25Z</time>
      </trkpt>
      <trkpt lat="43.95728" lon="7.45126">
        <ele>1806</ele>
        <time>2018-06-18T09:07:30Z</time>
      </trkpt>
      <trkpt lat="43.95726" lon="7.45129">
        <ele>1805</ele>
        <time>2018-06-18T09:07:33Z</time>
      </trkpt>
      <trkpt lat="43.95715" lon="7.45141">
        <ele>1804</ele>
        <time>2018-06-18T09:07:46Z</time>
      </trkpt>
      <trkpt lat="43.95714" lon="7.45142">
        <ele>1804</ele>
        <time>2018-06-18T09:07:48Z</time>
      </trkpt>
      <trkpt lat="43.95703" lon="7.45155">
        <ele>1805</ele>
        <time>2018-06-18T09:08:01Z</time>
      </trkpt>
      <trkpt lat="43.9569" lon="7.45166">
        <ele>1806</ele>
        <time>2018-06-18T09:08:15Z</time>
      </trkpt>
      <trkpt lat="43.95679" lon="7.45179">
        <ele>1793</ele>
        <time>2018-06-18T09:08:28Z</time>
      </trkpt>
      <trkpt lat="43.95672" lon="7.45187">
        <ele>1791</ele>
        <time>2018-06-18T09:08:37Z</time>
      </trkpt>
      <trkpt lat="43.95666" lon="7.45193">
        <ele>1801</ele>
        <time>2018-06-18T09:08:45Z</time>
      </trkpt>
      <trkpt lat="43.95664" lon="7.45195">
        <ele>1800</ele>
        <time>2018-06-18T09:08:48Z</time>
      </trkpt>
      <trkpt lat="43.95658" lon="7.45201">
        <ele>1799</ele>
        <time>2018-06-18T09:08:56Z</time>
      </trkpt>
      <trkpt lat="43.95653" lon="7.45205">
        <ele>1798</ele>
        <time>2018-06-18T09:09:02Z</time>
      </trkpt>
      <trkpt lat="43.95647" lon="7.45211">
        <ele>1797</ele>
        <time>2018-06-18T09:09:09Z</time>
      </trkpt>
      <trkpt lat="43.95635" lon="7.45223">
        <ele>1796</ele>
        <time>2018-06-18T09:09:24Z</time>
      </trkpt>
      <trkpt lat="43.95624" lon="7.45234">
        <ele>1796</ele>
        <time>2018-06-18T09:09:37Z</time>
      </trkpt>
      <trkpt lat="43.95616" lon="7.45246">
        <ele>1796</ele>
        <time>2018-06-18T09:09:50Z</time>
      </trkpt>
      <trkpt lat="43.95606" lon="7.45259">
        <ele>1780</ele>
        <time>2018-06-18T09:10:03Z</time>
      </trkpt>
      <trkpt lat="43.95601" lon="7.45264">
        <ele>1780</ele>
        <time>2018-06-18T09:10:10Z</time>
      </trkpt>
      <trkpt lat="43.95598" lon="7.45271">
        <ele>1779</ele>
        <time>2018-06-18T09:10:15Z</time>
      </trkpt>
      <trkpt lat="43.95589" lon="7.4528">
        <ele>1777</ele>
        <time>2018-06-18T09:10:27Z</time>
      </trkpt>
      <trkpt lat="43.95578" lon="7.45296">
        <ele>1784</ele>
        <time>2018-06-18T09:10:43Z</time>
      </trkpt>
      <trkpt lat="43.95571" lon="7.45304">
        <ele>1783</ele>
        <time>2018-06-18T09:10:52Z</time>
      </trkpt>
      <trkpt lat="43.9556" lon="7.45316">
        <ele>1781</ele>
        <time>2018-06-18T09:11:06Z</time>
      </trkpt>
      <trkpt lat="43.95548" lon="7.45325">
        <ele>1782</ele>
        <time>2018-06-18T09:11:20Z</time>
      </trkpt>
      <trkpt lat="43.95538" lon="7.45334">
        <ele>1761</ele>
        <time>2018-06-18T09:11:31Z</time>
      </trkpt>
      <trkpt lat="43.95536" lon="7.45334">
        <ele>1761</ele>
        <time>2018-06-18T09:11:34Z</time>
      </trkpt>
      <trkpt lat="43.95523" lon="7.45343">
        <ele>1764</ele>
        <time>2018-06-18T09:11:47Z</time>
      </trkpt>
      <trkpt lat="43.95509" lon="7.45351">
        <ele>1765</ele>
        <time>2018-06-18T09:12:00Z</time>
      </trkpt>
      <trkpt lat="43.95499" lon="7.45356">
        <ele>1770</ele>
        <time>2018-06-18T09:12:09Z</time>
      </trkpt>
      <trkpt lat="43.95492" lon="7.45362">
        <ele>1767</ele>
        <time>2018-06-18T09:12:16Z</time>
      </trkpt>
      <trkpt lat="43.95484" lon="7.45365">
        <ele>1766</ele>
        <time>2018-06-18T09:12:23Z</time>
      </trkpt>
      <trkpt lat="43.95468" lon="7.45377">
        <ele>1763</ele>
        <time>2018-06-18T09:12:39Z</time>
      </trkpt>
      <trkpt lat="43.95467" lon="7.45378">
        <ele>1763</ele>
        <time>2018-06-18T09:12:40Z</time>
      </trkpt>
      <trkpt lat="43.95457" lon="7.45381">
        <ele>1763</ele>
        <time>2018-06-18T09:12:50Z</time>
      </trkpt>
      <trkpt lat="43.95442" lon="7.45382">
        <ele>1763</ele>
        <time>2018-06-18T09:13:04Z</time>
      </trkpt>
      <trkpt lat="43.95426" lon="7.45385">
        <ele>1762</ele>
        <time>2018-06-18T09:13:19Z</time>
      </trkpt>
      <trkpt lat="43.95416" lon="7.45389">
        <ele>1759</ele>
        <time>2018-06-18T09:13:29Z</time>
      </trkpt>
      <trkpt lat="43.95412" lon="7.4539">
        <ele>1759</ele>
        <time>2018-06-18T09:13:35Z</time>
      </trkpt>
      <trkpt lat="43.95406" lon="7.45395">
        <ele>1757</ele>
        <time>2018-06-18T09:13:41Z</time>
      </trkpt>
      <trkpt lat="43.95395" lon="7.45398">
        <ele>1757</ele>
        <time>2018-06-18T09:13:51Z</time>
      </trkpt>
      <trkpt lat="43.95384" lon="7.45398">
        <ele>1758</ele>
        <time>2018-06-18T09:14:02Z</time>
      </trkpt>
      <trkpt lat="43.95371" lon="7.45402">
        <ele>1757</ele>
        <time>2018-06-18T09:14:16Z</time>
      </trkpt>
      <trkpt lat="43.95366" lon="7.45403">
        <ele>1756</ele>
        <time>2018-06-18T09:14:20Z</time>
      </trkpt>
      <trkpt lat="43.95359" lon="7.45404">
        <ele>1755</ele>
        <time>2018-06-18T09:14:27Z</time>
      </trkpt>
      <trkpt lat="43.95354" lon="7.45406">
        <ele>1754</ele>
        <time>2018-06-18T09:14:32Z</time>
      </trkpt>
      <trkpt lat="43.95345" lon="7.45406">
        <ele>1753</ele>
        <time>2018-06-18T09:14:40Z</time>
      </trkpt>
      <trkpt lat="43.9533" lon="7.45412">
        <ele>1745</ele>
        <time>2018-06-18T09:14:54Z</time>
      </trkpt>
      <trkpt lat="43.95315" lon="7.45416">
        <ele>1741</ele>
        <time>2018-06-18T09:15:07Z</time>
      </trkpt>
      <trkpt lat="43.95308" lon="7.4542">
        <ele>1736</ele>
        <time>2018-06-18T09:15:13Z</time>
      </trkpt>
      <trkpt lat="43.953" lon="7.45424">
        <ele>1734</ele>
        <time>2018-06-18T09:15:21Z</time>
      </trkpt>
      <trkpt lat="43.95284" lon="7.45436">
        <ele>1731</ele>
        <time>2018-06-18T09:15:37Z</time>
      </trkpt>
      <trkpt lat="43.95269" lon="7.45442">
        <ele>1731</ele>
        <time>2018-06-18T09:15:52Z</time>
      </trkpt>
      <trkpt lat="43.95267" lon="7.45442">
        <ele>1731</ele>
        <time>2018-06-18T09:15:54Z</time>
      </trkpt>
      <trkpt lat="43.95261" lon="7.4544">
        <ele>1731</ele>
        <time>2018-06-18T09:16:07Z</time>
      </trkpt>
      <trkpt lat="43.9526" lon="7.45439">
        <ele>1731</ele>
        <time>2018-06-18T09:16:23Z</time>
      </trkpt>
      <trkpt lat="43.9526" lon="7.45439">
        <ele>1731</ele>
        <time>2018-06-18T09:16:59Z</time>
      </trkpt>
      <trkpt lat="43.9526" lon="7.45439">
        <ele>1731</ele>
        <time>2018-06-18T09:17:04Z</time>
      </trkpt>
      <trkpt lat="43.95259" lon="7.4544">
        <ele>1731</ele>
        <time>2018-06-18T09:17:06Z</time>
      </trkpt>
      <trkpt lat="43.95251" lon="7.45453">
        <ele>1731</ele>
        <time>2018-06-18T09:17:21Z</time>
      </trkpt>
      <trkpt lat="43.9525" lon="7.45457">
        <ele>1723</ele>
        <time>2018-06-18T09:17:33Z</time>
      </trkpt>
      <trkpt lat="43.95245" lon="7.45458">
        <ele>1723</ele>
        <time>2018-06-18T09:17:44Z</time>
      </trkpt>
      <trkpt lat="43.95245" lon="7.45457">
        <ele>1723</ele>
        <time>2018-06-18T09:18:02Z</time>
      </trkpt>
      <trkpt lat="43.95246" lon="7.45458">
        <ele>1723</ele>
        <time>2018-06-18T09:18:34Z</time>
      </trkpt>
      <trkpt lat="43.95247" lon="7.45456">
        <ele>1723</ele>
        <time>2018-06-18T09:18:47Z</time>
      </trkpt>
      <trkpt lat="43.95248" lon="7.45455">
        <ele>1723</ele>
        <time>2018-06-18T09:19:12Z</time>
      </trkpt>
      <trkpt lat="43.95248" lon="7.45457">
        <ele>1723</ele>
        <time>2018-06-18T09:19:32Z</time>
      </trkpt>
      <trkpt lat="43.95248" lon="7.45457">
        <ele>1723</ele>
        <time>2018-06-18T09:19:42Z</time>
      </trkpt>
      <trkpt lat="43.95256" lon="7.45451">
        <ele>1731</ele>
        <time>2018-06-18T09:19:55Z</time>
      </trkpt>
      <trkpt lat="43.95252" lon="7.45453">
        <ele>1731</ele>
        <time>2018-06-18T09:20:07Z</time>
      </trkpt>
      <trkpt lat="43.95251" lon="7.45454">
        <ele>1731</ele>
        <time>2018-06-18T09:20:09Z</time>
      </trkpt>
      <trkpt lat="43.95248" lon="7.45455">
        <ele>1723</ele>
        <time>2018-06-18T09:20:27Z</time>
      </trkpt>
      <trkpt lat="43.95247" lon="7.45459">
        <ele>1723</ele>
        <time>2018-06-18T09:21:11Z</time>
      </trkpt>
      <trkpt lat="43.95243" lon="7.45464">
        <ele>1723</ele>
        <time>2018-06-18T09:21:20Z</time>
      </trkpt>
      <trkpt lat="43.95239" lon="7.45468">
        <ele>1723</ele>
        <time>2018-06-18T09:21:24Z</time>
      </trkpt>
      <trkpt lat="43.95231" lon="7.45466">
        <ele>1722</ele>
        <time>2018-06-18T09:21:35Z</time>
      </trkpt>
      <trkpt lat="43.95228" lon="7.45465">
        <ele>1721</ele>
        <time>2018-06-18T09:21:39Z</time>
      </trkpt>
      <trkpt lat="43.95222" lon="7.45467">
        <ele>1721</ele>
        <time>2018-06-18T09:21:47Z</time>
      </trkpt>
      <trkpt lat="43.95212" lon="7.45477">
        <ele>1721</ele>
        <time>2018-06-18T09:21:59Z</time>
      </trkpt>
      <trkpt lat="43.95204" lon="7.45487">
        <ele>1720</ele>
        <time>2018-06-18T09:22:09Z</time>
      </trkpt>
      <trkpt lat="43.95201" lon="7.45489">
        <ele>1720</ele>
        <time>2018-06-18T09:22:11Z</time>
      </trkpt>
      <trkpt lat="43.95199" lon="7.45493">
        <ele>1720</ele>
        <time>2018-06-18T09:22:14Z</time>
      </trkpt>
      <trkpt lat="43.95194" lon="7.45497">
        <ele>1720</ele>
        <time>2018-06-18T09:22:19Z</time>
      </trkpt>
      <trkpt lat="43.95188" lon="7.45506">
        <ele>1727</ele>
        <time>2018-06-18T09:22:27Z</time>
      </trkpt>
      <trkpt lat="43.95186" lon="7.4551">
        <ele>1727</ele>
        <time>2018-06-18T09:22:31Z</time>
      </trkpt>
      <trkpt lat="43.95182" lon="7.45515">
        <ele>1727</ele>
        <time>2018-06-18T09:22:36Z</time>
      </trkpt>
      <trkpt lat="43.95176" lon="7.45522">
        <ele>1727</ele>
        <time>2018-06-18T09:22:45Z</time>
      </trkpt>
      <trkpt lat="43.95173" lon="7.45527">
        <ele>1728</ele>
        <time>2018-06-18T09:22:49Z</time>
      </trkpt>
      <trkpt lat="43.95163" lon="7.45539">
        <ele>1728</ele>
        <time>2018-06-18T09:23:04Z</time>
      </trkpt>
      <trkpt lat="43.9516" lon="7.45543">
        <ele>1729</ele>
        <time>2018-06-18T09:23:17Z</time>
      </trkpt>
      <trkpt lat="43.95151" lon="7.45548">
        <ele>1729</ele>
        <time>2018-06-18T09:23:29Z</time>
      </trkpt>
      <trkpt lat="43.9514" lon="7.45554">
        <ele>1729</ele>
        <time>2018-06-18T09:23:43Z</time>
      </trkpt>
      <trkpt lat="43.95131" lon="7.45559">
        <ele>1730</ele>
        <time>2018-06-18T09:23:55Z</time>
      </trkpt>
      <trkpt lat="43.95127" lon="7.4556">
        <ele>1730</ele>
        <time>2018-06-18T09:24:01Z</time>
      </trkpt>
      <trkpt lat="43.95118" lon="7.45564">
        <ele>1730</ele>
        <time>2018-06-18T09:24:11Z</time>
      </trkpt>
      <trkpt lat="43.95106" lon="7.45568">
        <ele>1731</ele>
        <time>2018-06-18T09:24:24Z</time>
      </trkpt>
      <trkpt lat="43.95093" lon="7.45571">
        <ele>1734</ele>
        <time>2018-06-18T09:24:38Z</time>
      </trkpt>
      <trkpt lat="43.95082" lon="7.45572">
        <ele>1730</ele>
        <time>2018-06-18T09:24:52Z</time>
      </trkpt>
      <trkpt lat="43.95071" lon="7.4557">
        <ele>1726</ele>
        <time>2018-06-18T09:25:04Z</time>
      </trkpt>
      <trkpt lat="43.95057" lon="7.4557">
        <ele>1722</ele>
        <time>2018-06-18T09:25:18Z</time>
      </trkpt>
      <trkpt lat="43.95047" lon="7.45569">
        <ele>1719</ele>
        <time>2018-06-18T09:25:29Z</time>
      </trkpt>
      <trkpt lat="43.95045" lon="7.45568">
        <ele>1719</ele>
        <time>2018-06-18T09:25:31Z</time>
      </trkpt>
      <trkpt lat="43.95032" lon="7.45564">
        <ele>1717</ele>
        <time>2018-06-18T09:25:44Z</time>
      </trkpt>
      <trkpt lat="43.95021" lon="7.45556">
        <ele>1714</ele>
        <time>2018-06-18T09:25:57Z</time>
      </trkpt>
      <trkpt lat="43.95017" lon="7.45554">
        <ele>1713</ele>
        <time>2018-06-18T09:26:02Z</time>
      </trkpt>
      <trkpt lat="43.95009" lon="7.45549">
        <ele>1712</ele>
        <time>2018-06-18T09:26:16Z</time>
      </trkpt>
      <trkpt lat="43.95" lon="7.45546">
        <ele>1695</ele>
        <time>2018-06-18T09:26:27Z</time>
      </trkpt>
      <trkpt lat="43.94985" lon="7.45553">
        <ele>1696</ele>
        <time>2018-06-18T09:26:43Z</time>
      </trkpt>
      <trkpt lat="43.94973" lon="7.4556">
        <ele>1696</ele>
        <time>2018-06-18T09:26:59Z</time>
      </trkpt>
      <trkpt lat="43.94967" lon="7.45564">
        <ele>1696</ele>
        <time>2018-06-18T09:27:07Z</time>
      </trkpt>
      <trkpt lat="43.94963" lon="7.45568">
        <ele>1695</ele>
        <time>2018-06-18T09:27:12Z</time>
      </trkpt>
      <trkpt lat="43.9496" lon="7.4557">
        <ele>1695</ele>
        <time>2018-06-18T09:27:16Z</time>
      </trkpt>
      <trkpt lat="43.94957" lon="7.45576">
        <ele>1695</ele>
        <time>2018-06-18T09:27:20Z</time>
      </trkpt>
      <trkpt lat="43.94954" lon="7.4558">
        <ele>1695</ele>
        <time>2018-06-18T09:27:24Z</time>
      </trkpt>
      <trkpt lat="43.94951" lon="7.45587">
        <ele>1727</ele>
        <time>2018-06-18T09:27:31Z</time>
      </trkpt>
      <trkpt lat="43.94947" lon="7.45591">
        <ele>1727</ele>
        <time>2018-06-18T09:27:36Z</time>
      </trkpt>
      <trkpt lat="43.94939" lon="7.45597">
        <ele>1725</ele>
        <time>2018-06-18T09:27:45Z</time>
      </trkpt>
      <trkpt lat="43.94929" lon="7.45606">
        <ele>1725</ele>
        <time>2018-06-18T09:27:58Z</time>
      </trkpt>
      <trkpt lat="43.94921" lon="7.45619">
        <ele>1732</ele>
        <time>2018-06-18T09:28:12Z</time>
      </trkpt>
      <trkpt lat="43.94917" lon="7.45622">
        <ele>1734</ele>
        <time>2018-06-18T09:28:18Z</time>
      </trkpt>
      <trkpt lat="43.94914" lon="7.45622">
        <ele>1719</ele>
        <time>2018-06-18T09:28:22Z</time>
      </trkpt>
      <trkpt lat="43.94903" lon="7.4562">
        <ele>1717</ele>
        <time>2018-06-18T09:28:33Z</time>
      </trkpt>
      <trkpt lat="43.94892" lon="7.45626">
        <ele>1719</ele>
        <time>2018-06-18T09:28:47Z</time>
      </trkpt>
      <trkpt lat="43.94883" lon="7.45627">
        <ele>1718</ele>
        <time>2018-06-18T09:28:59Z</time>
      </trkpt>
      <trkpt lat="43.94879" lon="7.45629">
        <ele>1718</ele>
        <time>2018-06-18T09:29:10Z</time>
      </trkpt>
      <trkpt lat="43.94873" lon="7.4563">
        <ele>1718</ele>
        <time>2018-06-18T09:29:20Z</time>
      </trkpt>
      <trkpt lat="43.94866" lon="7.45627">
        <ele>1716</ele>
        <time>2018-06-18T09:29:33Z</time>
      </trkpt>
      <trkpt lat="43.9486" lon="7.45627">
        <ele>1715</ele>
        <time>2018-06-18T09:29:51Z</time>
      </trkpt>
      <trkpt lat="43.94852" lon="7.45624">
        <ele>1713</ele>
        <time>2018-06-18T09:30:03Z</time>
      </trkpt>
      <trkpt lat="43.94847" lon="7.45627">
        <ele>1714</ele>
        <time>2018-06-18T09:30:14Z</time>
      </trkpt>
      <trkpt lat="43.94843" lon="7.45631">
        <ele>1715</ele>
        <time>2018-06-18T09:30:24Z</time>
      </trkpt>
      <trkpt lat="43.94842" lon="7.45634">
        <ele>1716</ele>
        <time>2018-06-18T09:30:26Z</time>
      </trkpt>
      <trkpt lat="43.94835" lon="7.45643">
        <ele>1720</ele>
        <time>2018-06-18T09:30:38Z</time>
      </trkpt>
      <trkpt lat="43.94835" lon="7.45646">
        <ele>1722</ele>
        <time>2018-06-18T09:30:40Z</time>
      </trkpt>
      <trkpt lat="43.94831" lon="7.45654">
        <ele>1719</ele>
        <time>2018-06-18T09:30:47Z</time>
      </trkpt>
      <trkpt lat="43.94829" lon="7.45657">
        <ele>1720</ele>
        <time>2018-06-18T09:30:49Z</time>
      </trkpt>
      <trkpt lat="43.9482" lon="7.45661">
        <ele>1718</ele>
        <time>2018-06-18T09:30:59Z</time>
      </trkpt>
      <trkpt lat="43.94816" lon="7.45658">
        <ele>1714</ele>
        <time>2018-06-18T09:31:03Z</time>
      </trkpt>
      <trkpt lat="43.94813" lon="7.45658">
        <ele>1713</ele>
        <time>2018-06-18T09:31:05Z</time>
      </trkpt>
      <trkpt lat="43.94805" lon="7.45655">
        <ele>1709</ele>
        <time>2018-06-18T09:31:17Z</time>
      </trkpt>
      <trkpt lat="43.948" lon="7.45651">
        <ele>1707</ele>
        <time>2018-06-18T09:31:24Z</time>
      </trkpt>
      <trkpt lat="43.94792" lon="7.45648">
        <ele>1705</ele>
        <time>2018-06-18T09:31:32Z</time>
      </trkpt>
      <trkpt lat="43.94781" lon="7.45638">
        <ele>1702</ele>
        <time>2018-06-18T09:31:44Z</time>
      </trkpt>
      <trkpt lat="43.94768" lon="7.45632">
        <ele>1699</ele>
        <time>2018-06-18T09:31:58Z</time>
      </trkpt>
      <trkpt lat="43.94766" lon="7.45629">
        <ele>1698</ele>
        <time>2018-06-18T09:32:01Z</time>
      </trkpt>
      <trkpt lat="43.94756" lon="7.45626">
        <ele>1696</ele>
        <time>2018-06-18T09:32:09Z</time>
      </trkpt>
      <trkpt lat="43.94755" lon="7.45625">
        <ele>1696</ele>
        <time>2018-06-18T09:32:10Z</time>
      </trkpt>
      <trkpt lat="43.94744" lon="7.4562">
        <ele>1685</ele>
        <time>2018-06-18T09:32:21Z</time>
      </trkpt>
      <trkpt lat="43.9473" lon="7.45622">
        <ele>1685</ele>
        <time>2018-06-18T09:32:36Z</time>
      </trkpt>
      <trkpt lat="43.94718" lon="7.45627">
        <ele>1686</ele>
        <time>2018-06-18T09:32:50Z</time>
      </trkpt>
      <trkpt lat="43.94712" lon="7.45634">
        <ele>1687</ele>
        <time>2018-06-18T09:33:00Z</time>
      </trkpt>
      <trkpt lat="43.94711" lon="7.45635">
        <ele>1687</ele>
        <time>2018-06-18T09:33:02Z</time>
      </trkpt>
      <trkpt lat="43.94699" lon="7.45645">
        <ele>1689</ele>
        <time>2018-06-18T09:33:15Z</time>
      </trkpt>
      <trkpt lat="43.94692" lon="7.45653">
        <ele>1691</ele>
        <time>2018-06-18T09:33:23Z</time>
      </trkpt>
      <trkpt lat="43.94691" lon="7.45655">
        <ele>1691</ele>
        <time>2018-06-18T09:33:25Z</time>
      </trkpt>
      <trkpt lat="43.94681" lon="7.45664">
        <ele>1694</ele>
        <time>2018-06-18T09:33:37Z</time>
      </trkpt>
      <trkpt lat="43.94677" lon="7.45671">
        <ele>1706</ele>
        <time>2018-06-18T09:33:48Z</time>
      </trkpt>
      <trkpt lat="43.94672" lon="7.45671">
        <ele>1704</ele>
        <time>2018-06-18T09:33:54Z</time>
      </trkpt>
      <trkpt lat="43.9466" lon="7.45678">
        <ele>1698</ele>
        <time>2018-06-18T09:34:07Z</time>
      </trkpt>
      <trkpt lat="43.9465" lon="7.45684">
        <ele>1697</ele>
        <time>2018-06-18T09:34:21Z</time>
      </trkpt>
      <trkpt lat="43.94647" lon="7.45684">
        <ele>1697</ele>
        <time>2018-06-18T09:34:24Z</time>
      </trkpt>
      <trkpt lat="43.94644" lon="7.45684">
        <ele>1696</ele>
        <time>2018-06-18T09:34:27Z</time>
      </trkpt>
      <trkpt lat="43.94631" lon="7.45683">
        <ele>1695</ele>
        <time>2018-06-18T09:34:40Z</time>
      </trkpt>
      <trkpt lat="43.9463" lon="7.45683">
        <ele>1695</ele>
        <time>2018-06-18T09:34:41Z</time>
      </trkpt>
      <trkpt lat="43.94625" lon="7.45681">
        <ele>1695</ele>
        <time>2018-06-18T09:34:46Z</time>
      </trkpt>
      <trkpt lat="43.94606" lon="7.4568">
        <ele>1693</ele>
        <time>2018-06-18T09:35:02Z</time>
      </trkpt>
      <trkpt lat="43.94589" lon="7.45684">
        <ele>1692</ele>
        <time>2018-06-18T09:35:18Z</time>
      </trkpt>
      <trkpt lat="43.94584" lon="7.45686">
        <ele>1692</ele>
        <time>2018-06-18T09:35:33Z</time>
      </trkpt>
      <trkpt lat="43.94575" lon="7.45688">
        <ele>1688</ele>
        <time>2018-06-18T09:35:44Z</time>
      </trkpt>
      <trkpt lat="43.94564" lon="7.45687">
        <ele>1688</ele>
        <time>2018-06-18T09:35:56Z</time>
      </trkpt>
      <trkpt lat="43.94563" lon="7.45687">
        <ele>1688</ele>
        <time>2018-06-18T09:36:08Z</time>
      </trkpt>
      <trkpt lat="43.94563" lon="7.45686">
        <ele>1688</ele>
        <time>2018-06-18T09:36:32Z</time>
      </trkpt>
      <trkpt lat="43.94562" lon="7.45687">
        <ele>1688</ele>
        <time>2018-06-18T09:36:55Z</time>
      </trkpt>
      <trkpt lat="43.94563" lon="7.45686">
        <ele>1688</ele>
        <time>2018-06-18T09:37:46Z</time>
      </trkpt>
      <trkpt lat="43.94569" lon="7.45687">
        <ele>1688</ele>
        <time>2018-06-18T09:37:58Z</time>
      </trkpt>
      <trkpt lat="43.9457" lon="7.45684">
        <ele>1688</ele>
        <time>2018-06-18T09:38:09Z</time>
      </trkpt>
      <trkpt lat="43.9457" lon="7.45687">
        <ele>1688</ele>
        <time>2018-06-18T09:38:34Z</time>
      </trkpt>
      <trkpt lat="43.94567" lon="7.45688">
        <ele>1688</ele>
        <time>2018-06-18T09:38:51Z</time>
      </trkpt>
      <trkpt lat="43.94565" lon="7.45688">
        <ele>1688</ele>
        <time>2018-06-18T09:39:07Z</time>
      </trkpt>
      <trkpt lat="43.94556" lon="7.45689">
        <ele>1687</ele>
        <time>2018-06-18T09:39:22Z</time>
      </trkpt>
      <trkpt lat="43.94552" lon="7.45691">
        <ele>1687</ele>
        <time>2018-06-18T09:39:27Z</time>
      </trkpt>
      <trkpt lat="43.94549" lon="7.45692">
        <ele>1687</ele>
        <time>2018-06-18T09:39:30Z</time>
      </trkpt>
      <trkpt lat="43.94547" lon="7.45693">
        <ele>1687</ele>
        <time>2018-06-18T09:39:33Z</time>
      </trkpt>
      <trkpt lat="43.94534" lon="7.45698">
        <ele>1686</ele>
        <time>2018-06-18T09:39:46Z</time>
      </trkpt>
      <trkpt lat="43.94526" lon="7.457">
        <ele>1686</ele>
        <time>2018-06-18T09:39:54Z</time>
      </trkpt>
      <trkpt lat="43.94518" lon="7.457">
        <ele>1687</ele>
        <time>2018-06-18T09:40:02Z</time>
      </trkpt>
      <trkpt lat="43.94501" lon="7.45698">
        <ele>1687</ele>
        <time>2018-06-18T09:40:18Z</time>
      </trkpt>
      <trkpt lat="43.94496" lon="7.45697">
        <ele>1685</ele>
        <time>2018-06-18T09:40:29Z</time>
      </trkpt>
      <trkpt lat="43.9449" lon="7.45696">
        <ele>1685</ele>
        <time>2018-06-18T09:40:37Z</time>
      </trkpt>
      <trkpt lat="43.94488" lon="7.45696">
        <ele>1685</ele>
        <time>2018-06-18T09:40:39Z</time>
      </trkpt>
      <trkpt lat="43.94484" lon="7.45695">
        <ele>1685</ele>
        <time>2018-06-18T09:40:43Z</time>
      </trkpt>
      <trkpt lat="43.94481" lon="7.45692">
        <ele>1685</ele>
        <time>2018-06-18T09:40:48Z</time>
      </trkpt>
      <trkpt lat="43.94469" lon="7.45688">
        <ele>1685</ele>
        <time>2018-06-18T09:41:01Z</time>
      </trkpt>
      <trkpt lat="43.94457" lon="7.45685">
        <ele>1685</ele>
        <time>2018-06-18T09:41:15Z</time>
      </trkpt>
      <trkpt lat="43.94452" lon="7.45685">
        <ele>1685</ele>
        <time>2018-06-18T09:41:19Z</time>
      </trkpt>
      <trkpt lat="43.9445" lon="7.45684">
        <ele>1685</ele>
        <time>2018-06-18T09:41:21Z</time>
      </trkpt>
      <trkpt lat="43.94435" lon="7.45683">
        <ele>1685</ele>
        <time>2018-06-18T09:41:36Z</time>
      </trkpt>
      <trkpt lat="43.9442" lon="7.45681">
        <ele>1686</ele>
        <time>2018-06-18T09:41:51Z</time>
      </trkpt>
      <trkpt lat="43.94413" lon="7.45679">
        <ele>1687</ele>
        <time>2018-06-18T09:41:58Z</time>
      </trkpt>
      <trkpt lat="43.944" lon="7.45678">
        <ele>1687</ele>
        <time>2018-06-18T09:42:11Z</time>
      </trkpt>
      <trkpt lat="43.94398" lon="7.45677">
        <ele>1687</ele>
        <time>2018-06-18T09:42:13Z</time>
      </trkpt>
      <trkpt lat="43.94386" lon="7.45673">
        <ele>1687</ele>
        <time>2018-06-18T09:42:28Z</time>
      </trkpt>
      <trkpt lat="43.94378" lon="7.45672">
        <ele>1688</ele>
        <time>2018-06-18T09:42:36Z</time>
      </trkpt>
      <trkpt lat="43.94377" lon="7.45671">
        <ele>1688</ele>
        <time>2018-06-18T09:42:38Z</time>
      </trkpt>
      <trkpt lat="43.94374" lon="7.4567">
        <ele>1689</ele>
        <time>2018-06-18T09:42:41Z</time>
      </trkpt>
      <trkpt lat="43.94371" lon="7.45668">
        <ele>1689</ele>
        <time>2018-06-18T09:42:44Z</time>
      </trkpt>
      <trkpt lat="43.94358" lon="7.45664">
        <ele>1694</ele>
        <time>2018-06-18T09:42:59Z</time>
      </trkpt>
      <trkpt lat="43.94351" lon="7.45663">
        <ele>1696</ele>
        <time>2018-06-18T09:43:09Z</time>
      </trkpt>
      <trkpt lat="43.94346" lon="7.45663">
        <ele>1698</ele>
        <time>2018-06-18T09:43:14Z</time>
      </trkpt>
      <trkpt lat="43.94335" lon="7.45662">
        <ele>1702</ele>
        <time>2018-06-18T09:43:29Z</time>
      </trkpt>
      <trkpt lat="43.94324" lon="7.45661">
        <ele>1704</ele>
        <time>2018-06-18T09:43:43Z</time>
      </trkpt>
      <trkpt lat="43.94316" lon="7.4566">
        <ele>1704</ele>
        <time>2018-06-18T09:43:54Z</time>
      </trkpt>
      <trkpt lat="43.94305" lon="7.45659">
        <ele>1704</ele>
        <time>2018-06-18T09:44:09Z</time>
      </trkpt>
      <trkpt lat="43.94296" lon="7.45658">
        <ele>1704</ele>
        <time>2018-06-18T09:44:22Z</time>
      </trkpt>
      <trkpt lat="43.94287" lon="7.45654">
        <ele>1704</ele>
        <time>2018-06-18T09:44:35Z</time>
      </trkpt>
      <trkpt lat="43.94278" lon="7.45651">
        <ele>1705</ele>
        <time>2018-06-18T09:44:48Z</time>
      </trkpt>
      <trkpt lat="43.94269" lon="7.45646">
        <ele>1705</ele>
        <time>2018-06-18T09:45:01Z</time>
      </trkpt>
      <trkpt lat="43.94261" lon="7.45642">
        <ele>1705</ele>
        <time>2018-06-18T09:45:15Z</time>
      </trkpt>
      <trkpt lat="43.94256" lon="7.45638">
        <ele>1705</ele>
        <time>2018-06-18T09:45:28Z</time>
      </trkpt>
      <trkpt lat="43.94248" lon="7.45634">
        <ele>1714</ele>
        <time>2018-06-18T09:45:41Z</time>
      </trkpt>
      <trkpt lat="43.94238" lon="7.45626">
        <ele>1715</ele>
        <time>2018-06-18T09:45:57Z</time>
      </trkpt>
      <trkpt lat="43.94233" lon="7.45621">
        <ele>1715</ele>
        <time>2018-06-18T09:46:10Z</time>
      </trkpt>
      <trkpt lat="43.94224" lon="7.45613">
        <ele>1716</ele>
        <time>2018-06-18T09:46:24Z</time>
      </trkpt>
      <trkpt lat="43.94222" lon="7.45611">
        <ele>1717</ele>
        <time>2018-06-18T09:46:27Z</time>
      </trkpt>
      <trkpt lat="43.94216" lon="7.45601">
        <ele>1718</ele>
        <time>2018-06-18T09:46:41Z</time>
      </trkpt>
      <trkpt lat="43.94211" lon="7.45597">
        <ele>1718</ele>
        <time>2018-06-18T09:46:51Z</time>
      </trkpt>
      <trkpt lat="43.94204" lon="7.45591">
        <ele>1720</ele>
        <time>2018-06-18T09:47:04Z</time>
      </trkpt>
      <trkpt lat="43.942" lon="7.45587">
        <ele>1721</ele>
        <time>2018-06-18T09:47:15Z</time>
      </trkpt>
      <trkpt lat="43.94195" lon="7.45587">
        <ele>1722</ele>
        <time>2018-06-18T09:47:22Z</time>
      </trkpt>
      <trkpt lat="43.94186" lon="7.45588">
        <ele>1724</ele>
        <time>2018-06-18T09:47:35Z</time>
      </trkpt>
      <trkpt lat="43.94175" lon="7.45589">
        <ele>1727</ele>
        <time>2018-06-18T09:47:48Z</time>
      </trkpt>
      <trkpt lat="43.94167" lon="7.4559">
        <ele>1729</ele>
        <time>2018-06-18T09:48:00Z</time>
      </trkpt>
      <trkpt lat="43.94157" lon="7.45591">
        <ele>1735</ele>
        <time>2018-06-18T09:48:13Z</time>
      </trkpt>
      <trkpt lat="43.94152" lon="7.45592">
        <ele>1736</ele>
        <time>2018-06-18T09:48:19Z</time>
      </trkpt>
      <trkpt lat="43.94147" lon="7.45595">
        <ele>1737</ele>
        <time>2018-06-18T09:48:24Z</time>
      </trkpt>
      <trkpt lat="43.94144" lon="7.45595">
        <ele>1738</ele>
        <time>2018-06-18T09:48:28Z</time>
      </trkpt>
      <trkpt lat="43.94136" lon="7.45594">
        <ele>1739</ele>
        <time>2018-06-18T09:48:40Z</time>
      </trkpt>
      <trkpt lat="43.94129" lon="7.45595">
        <ele>1740</ele>
        <time>2018-06-18T09:48:50Z</time>
      </trkpt>
      <trkpt lat="43.94118" lon="7.45593">
        <ele>1742</ele>
        <time>2018-06-18T09:49:02Z</time>
      </trkpt>
      <trkpt lat="43.94108" lon="7.4559">
        <ele>1743</ele>
        <time>2018-06-18T09:49:14Z</time>
      </trkpt>
      <trkpt lat="43.94105" lon="7.4559">
        <ele>1743</ele>
        <time>2018-06-18T09:49:26Z</time>
      </trkpt>
      <trkpt lat="43.94095" lon="7.45589">
        <ele>1745</ele>
        <time>2018-06-18T09:49:37Z</time>
      </trkpt>
      <trkpt lat="43.94087" lon="7.45589">
        <ele>1745</ele>
        <time>2018-06-18T09:49:43Z</time>
      </trkpt>
      <trkpt lat="43.94083" lon="7.45588">
        <ele>1750</ele>
        <time>2018-06-18T09:49:46Z</time>
      </trkpt>
      <trkpt lat="43.94074" lon="7.45588">
        <ele>1753</ele>
        <time>2018-06-18T09:49:59Z</time>
      </trkpt>
      <trkpt lat="43.9407" lon="7.45588">
        <ele>1754</ele>
        <time>2018-06-18T09:50:09Z</time>
      </trkpt>
      <trkpt lat="43.94056" lon="7.45583">
        <ele>1744</ele>
        <time>2018-06-18T09:50:24Z</time>
      </trkpt>
      <trkpt lat="43.94047" lon="7.45578">
        <ele>1745</ele>
        <time>2018-06-18T09:50:34Z</time>
      </trkpt>
      <trkpt lat="43.9404" lon="7.45573">
        <ele>1746</ele>
        <time>2018-06-18T09:50:46Z</time>
      </trkpt>
      <trkpt lat="43.94032" lon="7.45565">
        <ele>1746</ele>
        <time>2018-06-18T09:50:59Z</time>
      </trkpt>
      <trkpt lat="43.94029" lon="7.45562">
        <ele>1746</ele>
        <time>2018-06-18T09:51:10Z</time>
      </trkpt>
      <trkpt lat="43.94027" lon="7.45561">
        <ele>1747</ele>
        <time>2018-06-18T09:51:12Z</time>
      </trkpt>
      <trkpt lat="43.94025" lon="7.4556">
        <ele>1747</ele>
        <time>2018-06-18T09:51:14Z</time>
      </trkpt>
      <trkpt lat="43.94016" lon="7.45552">
        <ele>1746</ele>
        <time>2018-06-18T09:51:24Z</time>
      </trkpt>
      <trkpt lat="43.94003" lon="7.45542">
        <ele>1745</ele>
        <time>2018-06-18T09:51:38Z</time>
      </trkpt>
      <trkpt lat="43.93997" lon="7.45536">
        <ele>1756</ele>
        <time>2018-06-18T09:51:51Z</time>
      </trkpt>
      <trkpt lat="43.93992" lon="7.45532">
        <ele>1755</ele>
        <time>2018-06-18T09:52:05Z</time>
      </trkpt>
      <trkpt lat="43.93988" lon="7.45527">
        <ele>1754</ele>
        <time>2018-06-18T09:52:18Z</time>
      </trkpt>
      <trkpt lat="43.93983" lon="7.45521">
        <ele>1754</ele>
        <time>2018-06-18T09:52:28Z</time>
      </trkpt>
      <trkpt lat="43.93979" lon="7.45516">
        <ele>1753</ele>
        <time>2018-06-18T09:52:41Z</time>
      </trkpt>
      <trkpt lat="43.93973" lon="7.45512">
        <ele>1754</ele>
        <time>2018-06-18T09:52:58Z</time>
      </trkpt>
      <trkpt lat="43.93966" lon="7.45505">
        <ele>1755</ele>
        <time>2018-06-18T09:53:10Z</time>
      </trkpt>
      <trkpt lat="43.93958" lon="7.45494">
        <ele>1744</ele>
        <time>2018-06-18T09:53:22Z</time>
      </trkpt>
      <trkpt lat="43.93954" lon="7.45489">
        <ele>1744</ele>
        <time>2018-06-18T09:53:34Z</time>
      </trkpt>
      <trkpt lat="43.93946" lon="7.45485">
        <ele>1746</ele>
        <time>2018-06-18T09:53:44Z</time>
      </trkpt>
      <trkpt lat="43.9394" lon="7.45484">
        <ele>1748</ele>
        <time>2018-06-18T09:53:53Z</time>
      </trkpt>
      <trkpt lat="43.93939" lon="7.45484">
        <ele>1748</ele>
        <time>2018-06-18T09:53:59Z</time>
      </trkpt>
      <trkpt lat="43.93923" lon="7.45479">
        <ele>1751</ele>
        <time>2018-06-18T09:54:14Z</time>
      </trkpt>
      <trkpt lat="43.93907" lon="7.45473">
        <ele>1761</ele>
        <time>2018-06-18T09:54:29Z</time>
      </trkpt>
      <trkpt lat="43.93905" lon="7.45471">
        <ele>1761</ele>
        <time>2018-06-18T09:54:31Z</time>
      </trkpt>
      <trkpt lat="43.93895" lon="7.45465">
        <ele>1761</ele>
        <time>2018-06-18T09:54:44Z</time>
      </trkpt>
      <trkpt lat="43.93895" lon="7.45465">
        <ele>1761</ele>
        <time>2018-06-18T09:55:00Z</time>
      </trkpt>
      <trkpt lat="43.93895" lon="7.45465">
        <ele>1761</ele>
        <time>2018-06-18T09:55:11Z</time>
      </trkpt>
      <trkpt lat="43.93894" lon="7.45465">
        <ele>1761</ele>
        <time>2018-06-18T09:56:14Z</time>
      </trkpt>
      <trkpt lat="43.93894" lon="7.45465">
        <ele>1761</ele>
        <time>2018-06-18T09:56:59Z</time>
      </trkpt>
      <trkpt lat="43.93891" lon="7.45463">
        <ele>1761</ele>
        <time>2018-06-18T09:57:13Z</time>
      </trkpt>
      <trkpt lat="43.93892" lon="7.45467">
        <ele>1761</ele>
        <time>2018-06-18T09:57:25Z</time>
      </trkpt>
      <trkpt lat="43.93892" lon="7.45463">
        <ele>1761</ele>
        <time>2018-06-18T09:57:46Z</time>
      </trkpt>
      <trkpt lat="43.93891" lon="7.45464">
        <ele>1761</ele>
        <time>2018-06-18T09:57:55Z</time>
      </trkpt>
      <trkpt lat="43.93891" lon="7.45465">
        <ele>1761</ele>
        <time>2018-06-18T09:58:16Z</time>
      </trkpt>
      <trkpt lat="43.93889" lon="7.45461">
        <ele>1761</ele>
        <time>2018-06-18T09:58:43Z</time>
      </trkpt>
      <trkpt lat="43.93884" lon="7.45457">
        <ele>1761</ele>
        <time>2018-06-18T09:58:51Z</time>
      </trkpt>
      <trkpt lat="43.93881" lon="7.45454">
        <ele>1761</ele>
        <time>2018-06-18T09:58:55Z</time>
      </trkpt>
      <trkpt lat="43.93876" lon="7.45449">
        <ele>1761</ele>
        <time>2018-06-18T09:59:04Z</time>
      </trkpt>
      <trkpt lat="43.93871" lon="7.45443">
        <ele>1762</ele>
        <time>2018-06-18T09:59:14Z</time>
      </trkpt>
      <trkpt lat="43.93865" lon="7.4544">
        <ele>1763</ele>
        <time>2018-06-18T09:59:25Z</time>
      </trkpt>
      <trkpt lat="43.93865" lon="7.45439">
        <ele>1763</ele>
        <time>2018-06-18T09:59:27Z</time>
      </trkpt>
      <trkpt lat="43.9386" lon="7.45435">
        <ele>1764</ele>
        <time>2018-06-18T09:59:37Z</time>
      </trkpt>
      <trkpt lat="43.93853" lon="7.45429">
        <ele>1766</ele>
        <time>2018-06-18T09:59:49Z</time>
      </trkpt>
      <trkpt lat="43.93845" lon="7.45424">
        <ele>1768</ele>
        <time>2018-06-18T10:00:02Z</time>
      </trkpt>
      <trkpt lat="43.93838" lon="7.45417">
        <ele>1772</ele>
        <time>2018-06-18T10:00:14Z</time>
      </trkpt>
      <trkpt lat="43.93831" lon="7.4541">
        <ele>1774</ele>
        <time>2018-06-18T10:00:26Z</time>
      </trkpt>
      <trkpt lat="43.93829" lon="7.45407">
        <ele>1774</ele>
        <time>2018-06-18T10:00:30Z</time>
      </trkpt>
      <trkpt lat="43.93823" lon="7.45401">
        <ele>1773</ele>
        <time>2018-06-18T10:00:42Z</time>
      </trkpt>
      <trkpt lat="43.93817" lon="7.45395">
        <ele>1773</ele>
        <time>2018-06-18T10:00:53Z</time>
      </trkpt>
      <trkpt lat="43.93812" lon="7.4539">
        <ele>1773</ele>
        <time>2018-06-18T10:01:04Z</time>
      </trkpt>
      <trkpt lat="43.93805" lon="7.45383">
        <ele>1772</ele>
        <time>2018-06-18T10:01:17Z</time>
      </trkpt>
      <trkpt lat="43.93798" lon="7.45376">
        <ele>1773</ele>
        <time>2018-06-18T10:01:30Z</time>
      </trkpt>
      <trkpt lat="43.93795" lon="7.45372">
        <ele>1773</ele>
        <time>2018-06-18T10:01:35Z</time>
      </trkpt>
      <trkpt lat="43.93786" lon="7.45362">
        <ele>1774</ele>
        <time>2018-06-18T10:01:48Z</time>
      </trkpt>
      <trkpt lat="43.93778" lon="7.45355">
        <ele>1775</ele>
        <time>2018-06-18T10:02:00Z</time>
      </trkpt>
      <trkpt lat="43.93778" lon="7.45355">
        <ele>1775</ele>
        <time>2018-06-18T10:02:01Z</time>
      </trkpt>
      <trkpt lat="43.93774" lon="7.45352">
        <ele>1776</ele>
        <time>2018-06-18T10:02:06Z</time>
      </trkpt>
      <trkpt lat="43.9377" lon="7.4535">
        <ele>1777</ele>
        <time>2018-06-18T10:02:11Z</time>
      </trkpt>
      <trkpt lat="43.93767" lon="7.45348">
        <ele>1778</ele>
        <time>2018-06-18T10:02:15Z</time>
      </trkpt>
      <trkpt lat="43.93757" lon="7.45335">
        <ele>1783</ele>
        <time>2018-06-18T10:02:29Z</time>
      </trkpt>
      <trkpt lat="43.93755" lon="7.45334">
        <ele>1783</ele>
        <time>2018-06-18T10:02:31Z</time>
      </trkpt>
      <trkpt lat="43.93745" lon="7.45323">
        <ele>1787</ele>
        <time>2018-06-18T10:02:45Z</time>
      </trkpt>
      <trkpt lat="43.93744" lon="7.45321">
        <ele>1787</ele>
        <time>2018-06-18T10:02:47Z</time>
      </trkpt>
      <trkpt lat="43.93738" lon="7.45313">
        <ele>1787</ele>
        <time>2018-06-18T10:02:58Z</time>
      </trkpt>
      <trkpt lat="43.93735" lon="7.45305">
        <ele>1788</ele>
        <time>2018-06-18T10:03:09Z</time>
      </trkpt>
      <trkpt lat="43.93729" lon="7.45295">
        <ele>1788</ele>
        <time>2018-06-18T10:03:22Z</time>
      </trkpt>
      <trkpt lat="43.93723" lon="7.45285">
        <ele>1789</ele>
        <time>2018-06-18T10:03:36Z</time>
      </trkpt>
      <trkpt lat="43.93719" lon="7.45275">
        <ele>1789</ele>
        <time>2018-06-18T10:03:48Z</time>
      </trkpt>
      <trkpt lat="43.93714" lon="7.45264">
        <ele>1790</ele>
        <time>2018-06-18T10:04:02Z</time>
      </trkpt>
      <trkpt lat="43.93709" lon="7.45255">
        <ele>1791</ele>
        <time>2018-06-18T10:04:14Z</time>
      </trkpt>
      <trkpt lat="43.93703" lon="7.45247">
        <ele>1794</ele>
        <time>2018-06-18T10:04:26Z</time>
      </trkpt>
      <trkpt lat="43.93698" lon="7.45241">
        <ele>1794</ele>
        <time>2018-06-18T10:04:37Z</time>
      </trkpt>
      <trkpt lat="43.93697" lon="7.45235">
        <ele>1794</ele>
        <time>2018-06-18T10:04:50Z</time>
      </trkpt>
      <trkpt lat="43.93697" lon="7.45235">
        <ele>1794</ele>
        <time>2018-06-18T10:05:08Z</time>
      </trkpt>
      <trkpt lat="43.93697" lon="7.45235">
        <ele>1794</ele>
        <time>2018-06-18T10:05:42Z</time>
      </trkpt>
      <trkpt lat="43.93697" lon="7.45235">
        <ele>1794</ele>
        <time>2018-06-18T10:06:16Z</time>
      </trkpt>
      <trkpt lat="43.93697" lon="7.45235">
        <ele>1794</ele>
        <time>2018-06-18T10:07:11Z</time>
      </trkpt>
      <trkpt lat="43.93697" lon="7.45234">
        <ele>1794</ele>
        <time>2018-06-18T10:07:43Z</time>
      </trkpt>
      <trkpt lat="43.93697" lon="7.45234">
        <ele>1794</ele>
        <time>2018-06-18T10:08:06Z</time>
      </trkpt>
      <trkpt lat="43.93697" lon="7.45235">
        <ele>1794</ele>
        <time>2018-06-18T10:08:54Z</time>
      </trkpt>
      <trkpt lat="43.93697" lon="7.45234">
        <ele>1794</ele>
        <time>2018-06-18T10:09:24Z</time>
      </trkpt>
      <trkpt lat="43.93697" lon="7.45234">
        <ele>1794</ele>
        <time>2018-06-18T10:09:40Z</time>
      </trkpt>
      <trkpt lat="43.93697" lon="7.45235">
        <ele>1794</ele>
        <time>2018-06-18T10:10:30Z</time>
      </trkpt>
      <trkpt lat="43.93696" lon="7.45237">
        <ele>1794</ele>
        <time>2018-06-18T10:10:46Z</time>
      </trkpt>
      <trkpt lat="43.93696" lon="7.45237">
        <ele>1794</ele>
        <time>2018-06-18T10:11:04Z</time>
      </trkpt>
      <trkpt lat="43.93696" lon="7.45238">
        <ele>1794</ele>
        <time>2018-06-18T10:11:36Z</time>
      </trkpt>
      <trkpt lat="43.93696" lon="7.45238">
        <ele>1794</ele>
        <time>2018-06-18T10:11:52Z</time>
      </trkpt>
      <trkpt lat="43.93696" lon="7.45238">
        <ele>1794</ele>
        <time>2018-06-18T10:12:16Z</time>
      </trkpt>
      <trkpt lat="43.93696" lon="7.45238">
        <ele>1794</ele>
        <time>2018-06-18T10:12:32Z</time>
      </trkpt>
      <trkpt lat="43.93696" lon="7.45238">
        <ele>1794</ele>
        <time>2018-06-18T10:12:38Z</time>
      </trkpt>
      <trkpt lat="43.93696" lon="7.45238">
        <ele>1794</ele>
        <time>2018-06-18T10:12:41Z</time>
      </trkpt>
      <trkpt lat="43.93696" lon="7.4524">
        <ele>1794</ele>
        <time>2018-06-18T10:12:54Z</time>
      </trkpt>
      <trkpt lat="43.93696" lon="7.4524">
        <ele>1794</ele>
        <time>2018-06-18T10:13:23Z</time>
      </trkpt>
      <trkpt lat="43.93695" lon="7.4524">
        <ele>1794</ele>
        <time>2018-06-18T10:13:57Z</time>
      </trkpt>
      <trkpt lat="43.93694" lon="7.4524">
        <ele>1794</ele>
        <time>2018-06-18T10:14:23Z</time>
      </trkpt>
      <trkpt lat="43.93694" lon="7.4524">
        <ele>1795</ele>
        <time>2018-06-18T10:14:28Z</time>
      </trkpt>
      <trkpt lat="43.93694" lon="7.45236">
        <ele>1794</ele>
        <time>2018-06-18T10:14:44Z</time>
      </trkpt>
      <trkpt lat="43.93695" lon="7.45235">
        <ele>1794</ele>
        <time>2018-06-18T10:15:27Z</time>
      </trkpt>
      <trkpt lat="43.93692" lon="7.45234">
        <ele>1794</ele>
        <time>2018-06-18T10:15:41Z</time>
      </trkpt>
      <trkpt lat="43.93693" lon="7.45221">
        <ele>1794</ele>
        <time>2018-06-18T10:15:54Z</time>
      </trkpt>
      <trkpt lat="43.93691" lon="7.45211">
        <ele>1793</ele>
        <time>2018-06-18T10:16:07Z</time>
      </trkpt>
      <trkpt lat="43.93688" lon="7.45204">
        <ele>1793</ele>
        <time>2018-06-18T10:16:22Z</time>
      </trkpt>
      <trkpt lat="43.93694" lon="7.45199">
        <ele>1793</ele>
        <time>2018-06-18T10:16:30Z</time>
      </trkpt>
      <trkpt lat="43.93696" lon="7.45197">
        <ele>1792</ele>
        <time>2018-06-18T10:16:45Z</time>
      </trkpt>
      <trkpt lat="43.9369" lon="7.45202">
        <ele>1793</ele>
        <time>2018-06-18T10:16:56Z</time>
      </trkpt>
      <trkpt lat="43.93684" lon="7.45208">
        <ele>1794</ele>
        <time>2018-06-18T10:17:10Z</time>
      </trkpt>
      <trkpt lat="43.93678" lon="7.45206">
        <ele>1794</ele>
        <time>2018-06-18T10:17:28Z</time>
      </trkpt>
      <trkpt lat="43.9367" lon="7.452">
        <ele>1795</ele>
        <time>2018-06-18T10:17:43Z</time>
      </trkpt>
      <trkpt lat="43.93665" lon="7.45195">
        <ele>1792</ele>
        <time>2018-06-18T10:17:56Z</time>
      </trkpt>
      <trkpt lat="43.93661" lon="7.45193">
        <ele>1792</ele>
        <time>2018-06-18T10:18:09Z</time>
      </trkpt>
      <trkpt lat="43.93659" lon="7.45192">
        <ele>1792</ele>
        <time>2018-06-18T10:18:15Z</time>
      </trkpt>
      <trkpt lat="43.93654" lon="7.45188">
        <ele>1792</ele>
        <time>2018-06-18T10:18:31Z</time>
      </trkpt>
      <trkpt lat="43.93644" lon="7.45181">
        <ele>1791</ele>
        <time>2018-06-18T10:18:47Z</time>
      </trkpt>
      <trkpt lat="43.93639" lon="7.4517">
        <ele>1791</ele>
        <time>2018-06-18T10:19:00Z</time>
      </trkpt>
      <trkpt lat="43.93634" lon="7.45166">
        <ele>1787</ele>
        <time>2018-06-18T10:19:15Z</time>
      </trkpt>
      <trkpt lat="43.93635" lon="7.45161">
        <ele>1787</ele>
        <time>2018-06-18T10:19:30Z</time>
      </trkpt>
      <trkpt lat="43.93633" lon="7.45162">
        <ele>1786</ele>
        <time>2018-06-18T10:19:45Z</time>
      </trkpt>
      <trkpt lat="43.93631" lon="7.45161">
        <ele>1786</ele>
        <time>2018-06-18T10:20:03Z</time>
      </trkpt>
      <trkpt lat="43.93628" lon="7.45159">
        <ele>1785</ele>
        <time>2018-06-18T10:20:07Z</time>
      </trkpt>
      <trkpt lat="43.93623" lon="7.45156">
        <ele>1785</ele>
        <time>2018-06-18T10:20:14Z</time>
      </trkpt>
      <trkpt lat="43.93621" lon="7.45154">
        <ele>1784</ele>
        <time>2018-06-18T10:20:17Z</time>
      </trkpt>
      <trkpt lat="43.93616" lon="7.45148">
        <ele>1783</ele>
        <time>2018-06-18T10:20:26Z</time>
      </trkpt>
      <trkpt lat="43.93609" lon="7.45145">
        <ele>1783</ele>
        <time>2018-06-18T10:20:35Z</time>
      </trkpt>
      <trkpt lat="43.93602" lon="7.45143">
        <ele>1782</ele>
        <time>2018-06-18T10:20:47Z</time>
      </trkpt>
      <trkpt lat="43.93595" lon="7.45139">
        <ele>1782</ele>
        <time>2018-06-18T10:20:59Z</time>
      </trkpt>
      <trkpt lat="43.93588" lon="7.45134">
        <ele>1781</ele>
        <time>2018-06-18T10:21:11Z</time>
      </trkpt>
      <trkpt lat="43.93578" lon="7.45128">
        <ele>1771</ele>
        <time>2018-06-18T10:21:26Z</time>
      </trkpt>
      <trkpt lat="43.93571" lon="7.45124">
        <ele>1770</ele>
        <time>2018-06-18T10:21:34Z</time>
      </trkpt>
      <trkpt lat="43.93569" lon="7.45124">
        <ele>1770</ele>
        <time>2018-06-18T10:21:37Z</time>
      </trkpt>
      <trkpt lat="43.93566" lon="7.45122">
        <ele>1770</ele>
        <time>2018-06-18T10:21:40Z</time>
      </trkpt>
      <trkpt lat="43.93556" lon="7.45115">
        <ele>1769</ele>
        <time>2018-06-18T10:21:54Z</time>
      </trkpt>
      <trkpt lat="43.93547" lon="7.45108">
        <ele>1768</ele>
        <time>2018-06-18T10:22:07Z</time>
      </trkpt>
      <trkpt lat="43.93545" lon="7.45107">
        <ele>1768</ele>
        <time>2018-06-18T10:22:09Z</time>
      </trkpt>
      <trkpt lat="43.93543" lon="7.45106">
        <ele>1767</ele>
        <time>2018-06-18T10:22:12Z</time>
      </trkpt>
      <trkpt lat="43.93541" lon="7.45104">
        <ele>1767</ele>
        <time>2018-06-18T10:22:15Z</time>
      </trkpt>
      <trkpt lat="43.93537" lon="7.45102">
        <ele>1767</ele>
        <time>2018-06-18T10:22:20Z</time>
      </trkpt>
      <trkpt lat="43.93527" lon="7.45094">
        <ele>1766</ele>
        <time>2018-06-18T10:22:34Z</time>
      </trkpt>
      <trkpt lat="43.93527" lon="7.45093">
        <ele>1766</ele>
        <time>2018-06-18T10:22:47Z</time>
      </trkpt>
      <trkpt lat="43.93529" lon="7.45092">
        <ele>1766</ele>
        <time>2018-06-18T10:23:07Z</time>
      </trkpt>
      <trkpt lat="43.93535" lon="7.4509">
        <ele>1767</ele>
        <time>2018-06-18T10:23:22Z</time>
      </trkpt>
      <trkpt lat="43.93539" lon="7.45089">
        <ele>1767</ele>
        <time>2018-06-18T10:23:40Z</time>
      </trkpt>
      <trkpt lat="43.93539" lon="7.45089">
        <ele>1767</ele>
        <time>2018-06-18T10:24:05Z</time>
      </trkpt>
      <trkpt lat="43.93539" lon="7.45089">
        <ele>1767</ele>
        <time>2018-06-18T10:25:09Z</time>
      </trkpt>
      <trkpt lat="43.93541" lon="7.4509">
        <ele>1767</ele>
        <time>2018-06-18T10:51:31Z</time>
      </trkpt>
      <trkpt lat="43.93541" lon="7.45089">
        <ele>1767</ele>
        <time>2018-06-18T10:53:27Z</time>
      </trkpt>
      <trkpt lat="43.93541" lon="7.45089">
        <ele>1767</ele>
        <time>2018-06-18T10:55:34Z</time>
      </trkpt>
      <trkpt lat="43.93541" lon="7.45088">
        <ele>1767</ele>
        <time>2018-06-18T10:59:01Z</time>
      </trkpt>
      <trkpt lat="43.93541" lon="7.45088">
        <ele>1767</ele>
        <time>2018-06-18T11:00:05Z</time>
      </trkpt>
      <trkpt lat="43.9354" lon="7.45088">
        <ele>1767</ele>
        <time>2018-06-18T11:01:25Z</time>
      </trkpt>
      <trkpt lat="43.9354" lon="7.45088">
        <ele>1767</ele>
        <time>2018-06-18T11:03:23Z</time>
      </trkpt>
      <trkpt lat="43.93549" lon="7.45087">
        <ele>1768</ele>
        <time>2018-06-18T11:03:53Z</time>
      </trkpt>
      <trkpt lat="43.9355" lon="7.45087">
        <ele>1768</ele>
        <time>2018-06-18T11:03:54Z</time>
      </trkpt>
      <trkpt lat="43.93566" lon="7.45085">
        <ele>1770</ele>
        <time>2018-06-18T11:04:09Z</time>
      </trkpt>
      <trkpt lat="43.9357" lon="7.45085">
        <ele>1771</ele>
        <time>2018-06-18T11:04:14Z</time>
      </trkpt>
      <trkpt lat="43.93586" lon="7.45085">
        <ele>1774</ele>
        <time>2018-06-18T11:04:32Z</time>
      </trkpt>
      <trkpt lat="43.93592" lon="7.45082">
        <ele>1767</ele>
        <time>2018-06-18T11:04:40Z</time>
      </trkpt>
      <trkpt lat="43.93596" lon="7.45082">
        <ele>1766</ele>
        <time>2018-06-18T11:04:44Z</time>
      </trkpt>
      <trkpt lat="43.93608" lon="7.45079">
        <ele>1762</ele>
        <time>2018-06-18T11:04:57Z</time>
      </trkpt>
      <trkpt lat="43.9362" lon="7.45074">
        <ele>1760</ele>
        <time>2018-06-18T11:05:10Z</time>
      </trkpt>
      <trkpt lat="43.93626" lon="7.45072">
        <ele>1760</ele>
        <time>2018-06-18T11:05:17Z</time>
      </trkpt>
      <trkpt lat="43.93642" lon="7.45066">
        <ele>1760</ele>
        <time>2018-06-18T11:05:33Z</time>
      </trkpt>
      <trkpt lat="43.93652" lon="7.45059">
        <ele>1759</ele>
        <time>2018-06-18T11:05:46Z</time>
      </trkpt>
      <trkpt lat="43.93659" lon="7.4506">
        <ele>1760</ele>
        <time>2018-06-18T11:05:55Z</time>
      </trkpt>
      <trkpt lat="43.93663" lon="7.45059">
        <ele>1760</ele>
        <time>2018-06-18T11:05:59Z</time>
      </trkpt>
      <trkpt lat="43.93674" lon="7.45055">
        <ele>1757</ele>
        <time>2018-06-18T11:06:11Z</time>
      </trkpt>
      <trkpt lat="43.93687" lon="7.45055">
        <ele>1756</ele>
        <time>2018-06-18T11:06:26Z</time>
      </trkpt>
      <trkpt lat="43.93697" lon="7.45052">
        <ele>1755</ele>
        <time>2018-06-18T11:06:37Z</time>
      </trkpt>
      <trkpt lat="43.93702" lon="7.4505">
        <ele>1754</ele>
        <time>2018-06-18T11:06:42Z</time>
      </trkpt>
      <trkpt lat="43.93705" lon="7.45047">
        <ele>1754</ele>
        <time>2018-06-18T11:06:45Z</time>
      </trkpt>
      <trkpt lat="43.93716" lon="7.45042">
        <ele>1753</ele>
        <time>2018-06-18T11:06:57Z</time>
      </trkpt>
      <trkpt lat="43.93722" lon="7.4504">
        <ele>1752</ele>
        <time>2018-06-18T11:07:04Z</time>
      </trkpt>
      <trkpt lat="43.93732" lon="7.45034">
        <ele>1751</ele>
        <time>2018-06-18T11:07:16Z</time>
      </trkpt>
      <trkpt lat="43.93742" lon="7.45026">
        <ele>1749</ele>
        <time>2018-06-18T11:07:28Z</time>
      </trkpt>
      <trkpt lat="43.93749" lon="7.45021">
        <ele>1748</ele>
        <time>2018-06-18T11:07:36Z</time>
      </trkpt>
      <trkpt lat="43.93753" lon="7.45017">
        <ele>1735</ele>
        <time>2018-06-18T11:07:41Z</time>
      </trkpt>
      <trkpt lat="43.93759" lon="7.45001">
        <ele>1737</ele>
        <time>2018-06-18T11:07:54Z</time>
      </trkpt>
      <trkpt lat="43.93761" lon="7.44991">
        <ele>1732</ele>
        <time>2018-06-18T11:08:07Z</time>
      </trkpt>
      <trkpt lat="43.93763" lon="7.44978">
        <ele>1728</ele>
        <time>2018-06-18T11:08:21Z</time>
      </trkpt>
      <trkpt lat="43.93766" lon="7.4496">
        <ele>1725</ele>
        <time>2018-06-18T11:08:38Z</time>
      </trkpt>
      <trkpt lat="43.93768" lon="7.44948">
        <ele>1724</ele>
        <time>2018-06-18T11:08:51Z</time>
      </trkpt>
      <trkpt lat="43.9377" lon="7.4494">
        <ele>1724</ele>
        <time>2018-06-18T11:09:03Z</time>
      </trkpt>
      <trkpt lat="43.93771" lon="7.44928">
        <ele>1724</ele>
        <time>2018-06-18T11:09:15Z</time>
      </trkpt>
      <trkpt lat="43.93771" lon="7.44922">
        <ele>1724</ele>
        <time>2018-06-18T11:09:28Z</time>
      </trkpt>
      <trkpt lat="43.9377" lon="7.44912">
        <ele>1723</ele>
        <time>2018-06-18T11:09:41Z</time>
      </trkpt>
      <trkpt lat="43.93767" lon="7.44903">
        <ele>1722</ele>
        <time>2018-06-18T11:09:54Z</time>
      </trkpt>
      <trkpt lat="43.93766" lon="7.449">
        <ele>1722</ele>
        <time>2018-06-18T11:10:08Z</time>
      </trkpt>
      <trkpt lat="43.93764" lon="7.44903">
        <ele>1723</ele>
        <time>2018-06-18T11:10:14Z</time>
      </trkpt>
      <trkpt lat="43.9376" lon="7.44906">
        <ele>1723</ele>
        <time>2018-06-18T11:10:21Z</time>
      </trkpt>
      <trkpt lat="43.93754" lon="7.4491">
        <ele>1725</ele>
        <time>2018-06-18T11:10:34Z</time>
      </trkpt>
      <trkpt lat="43.9375" lon="7.44914">
        <ele>1724</ele>
        <time>2018-06-18T11:10:46Z</time>
      </trkpt>
      <trkpt lat="43.93742" lon="7.44918">
        <ele>1726</ele>
        <time>2018-06-18T11:10:59Z</time>
      </trkpt>
      <trkpt lat="43.93735" lon="7.4492">
        <ele>1725</ele>
        <time>2018-06-18T11:11:12Z</time>
      </trkpt>
      <trkpt lat="43.93728" lon="7.44925">
        <ele>1724</ele>
        <time>2018-06-18T11:11:24Z</time>
      </trkpt>
      <trkpt lat="43.93721" lon="7.44932">
        <ele>1723</ele>
        <time>2018-06-18T11:11:37Z</time>
      </trkpt>
      <trkpt lat="43.93715" lon="7.44933">
        <ele>1722</ele>
        <time>2018-06-18T11:11:50Z</time>
      </trkpt>
      <trkpt lat="43.93709" lon="7.44939">
        <ele>1722</ele>
        <time>2018-06-18T11:12:02Z</time>
      </trkpt>
      <trkpt lat="43.93708" lon="7.44939">
        <ele>1722</ele>
        <time>2018-06-18T11:12:03Z</time>
      </trkpt>
      <trkpt lat="43.93697" lon="7.44941">
        <ele>1720</ele>
        <time>2018-06-18T11:12:15Z</time>
      </trkpt>
      <trkpt lat="43.93693" lon="7.4494">
        <ele>1719</ele>
        <time>2018-06-18T11:12:27Z</time>
      </trkpt>
      <trkpt lat="43.9369" lon="7.4494">
        <ele>1718</ele>
        <time>2018-06-18T11:12:33Z</time>
      </trkpt>
      <trkpt lat="43.9368" lon="7.44936">
        <ele>1714</ele>
        <time>2018-06-18T11:12:45Z</time>
      </trkpt>
      <trkpt lat="43.93671" lon="7.44931">
        <ele>1709</ele>
        <time>2018-06-18T11:12:59Z</time>
      </trkpt>
      <trkpt lat="43.93675" lon="7.44925">
        <ele>1707</ele>
        <time>2018-06-18T11:13:11Z</time>
      </trkpt>
      <trkpt lat="43.9367" lon="7.44921">
        <ele>1701</ele>
        <time>2018-06-18T11:13:23Z</time>
      </trkpt>
      <trkpt lat="43.93663" lon="7.44917">
        <ele>1698</ele>
        <time>2018-06-18T11:13:34Z</time>
      </trkpt>
      <trkpt lat="43.93652" lon="7.44911">
        <ele>1686</ele>
        <time>2018-06-18T11:13:49Z</time>
      </trkpt>
      <trkpt lat="43.93645" lon="7.44907">
        <ele>1683</ele>
        <time>2018-06-18T11:14:01Z</time>
      </trkpt>
      <trkpt lat="43.93643" lon="7.44905">
        <ele>1683</ele>
        <time>2018-06-18T11:14:08Z</time>
      </trkpt>
      <trkpt lat="43.93637" lon="7.44898">
        <ele>1680</ele>
        <time>2018-06-18T11:14:20Z</time>
      </trkpt>
      <trkpt lat="43.93632" lon="7.44893">
        <ele>1679</ele>
        <time>2018-06-18T11:14:33Z</time>
      </trkpt>
      <trkpt lat="43.93625" lon="7.44886">
        <ele>1677</ele>
        <time>2018-06-18T11:14:46Z</time>
      </trkpt>
      <trkpt lat="43.9362" lon="7.44883">
        <ele>1676</ele>
        <time>2018-06-18T11:14:56Z</time>
      </trkpt>
      <trkpt lat="43.93609" lon="7.44881">
        <ele>1675</ele>
        <time>2018-06-18T11:15:08Z</time>
      </trkpt>
      <trkpt lat="43.93604" lon="7.44873">
        <ele>1672</ele>
        <time>2018-06-18T11:15:20Z</time>
      </trkpt>
      <trkpt lat="43.93598" lon="7.44864">
        <ele>1669</ele>
        <time>2018-06-18T11:15:33Z</time>
      </trkpt>
      <trkpt lat="43.936" lon="7.44865">
        <ele>1669</ele>
        <time>2018-06-18T11:15:38Z</time>
      </trkpt>
      <trkpt lat="43.93595" lon="7.44856">
        <ele>1665</ele>
        <time>2018-06-18T11:15:51Z</time>
      </trkpt>
      <trkpt lat="43.93592" lon="7.44851">
        <ele>1662</ele>
        <time>2018-06-18T11:15:58Z</time>
      </trkpt>
      <trkpt lat="43.93588" lon="7.44842">
        <ele>1655</ele>
        <time>2018-06-18T11:16:10Z</time>
      </trkpt>
      <trkpt lat="43.93585" lon="7.44842">
        <ele>1655</ele>
        <time>2018-06-18T11:16:13Z</time>
      </trkpt>
      <trkpt lat="43.93577" lon="7.44833">
        <ele>1643</ele>
        <time>2018-06-18T11:16:27Z</time>
      </trkpt>
      <trkpt lat="43.93568" lon="7.44823">
        <ele>1639</ele>
        <time>2018-06-18T11:16:43Z</time>
      </trkpt>
      <trkpt lat="43.93561" lon="7.44815">
        <ele>1636</ele>
        <time>2018-06-18T11:16:57Z</time>
      </trkpt>
      <trkpt lat="43.93557" lon="7.44807">
        <ele>1635</ele>
        <time>2018-06-18T11:17:10Z</time>
      </trkpt>
      <trkpt lat="43.93549" lon="7.44799">
        <ele>1633</ele>
        <time>2018-06-18T11:17:23Z</time>
      </trkpt>
      <trkpt lat="43.93544" lon="7.44792">
        <ele>1632</ele>
        <time>2018-06-18T11:17:32Z</time>
      </trkpt>
      <trkpt lat="43.93537" lon="7.44787">
        <ele>1630</ele>
        <time>2018-06-18T11:17:41Z</time>
      </trkpt>
      <trkpt lat="43.93524" lon="7.44782">
        <ele>1629</ele>
        <time>2018-06-18T11:17:56Z</time>
      </trkpt>
      <trkpt lat="43.93516" lon="7.44781">
        <ele>1629</ele>
        <time>2018-06-18T11:18:03Z</time>
      </trkpt>
      <trkpt lat="43.93509" lon="7.4478">
        <ele>1628</ele>
        <time>2018-06-18T11:18:10Z</time>
      </trkpt>
      <trkpt lat="43.93499" lon="7.44778">
        <ele>1632</ele>
        <time>2018-06-18T11:18:22Z</time>
      </trkpt>
      <trkpt lat="43.9349" lon="7.44776">
        <ele>1632</ele>
        <time>2018-06-18T11:18:35Z</time>
      </trkpt>
      <trkpt lat="43.93482" lon="7.44768">
        <ele>1630</ele>
        <time>2018-06-18T11:18:49Z</time>
      </trkpt>
      <trkpt lat="43.93478" lon="7.4476">
        <ele>1629</ele>
        <time>2018-06-18T11:19:01Z</time>
      </trkpt>
      <trkpt lat="43.93471" lon="7.44754">
        <ele>1630</ele>
        <time>2018-06-18T11:19:12Z</time>
      </trkpt>
      <trkpt lat="43.93467" lon="7.44749">
        <ele>1608</ele>
        <time>2018-06-18T11:19:25Z</time>
      </trkpt>
      <trkpt lat="43.93463" lon="7.4474">
        <ele>1607</ele>
        <time>2018-06-18T11:19:35Z</time>
      </trkpt>
      <trkpt lat="43.93457" lon="7.44729">
        <ele>1606</ele>
        <time>2018-06-18T11:19:48Z</time>
      </trkpt>
      <trkpt lat="43.93456" lon="7.44727">
        <ele>1606</ele>
        <time>2018-06-18T11:19:50Z</time>
      </trkpt>
      <trkpt lat="43.93447" lon="7.44715">
        <ele>1604</ele>
        <time>2018-06-18T11:20:05Z</time>
      </trkpt>
      <trkpt lat="43.93442" lon="7.44704">
        <ele>1601</ele>
        <time>2018-06-18T11:20:17Z</time>
      </trkpt>
      <trkpt lat="43.93436" lon="7.44696">
        <ele>1599</ele>
        <time>2018-06-18T11:20:28Z</time>
      </trkpt>
      <trkpt lat="43.93433" lon="7.44686">
        <ele>1597</ele>
        <time>2018-06-18T11:20:41Z</time>
      </trkpt>
      <trkpt lat="43.93428" lon="7.44676">
        <ele>1594</ele>
        <time>2018-06-18T11:20:55Z</time>
      </trkpt>
      <trkpt lat="43.93428" lon="7.44675">
        <ele>1594</ele>
        <time>2018-06-18T11:20:58Z</time>
      </trkpt>
      <trkpt lat="43.93423" lon="7.44668">
        <ele>1591</ele>
        <time>2018-06-18T11:21:12Z</time>
      </trkpt>
      <trkpt lat="43.93416" lon="7.44658">
        <ele>1588</ele>
        <time>2018-06-18T11:21:25Z</time>
      </trkpt>
      <trkpt lat="43.93416" lon="7.44657">
        <ele>1588</ele>
        <time>2018-06-18T11:21:47Z</time>
      </trkpt>
      <trkpt lat="43.93415" lon="7.44655">
        <ele>1587</ele>
        <time>2018-06-18T11:22:14Z</time>
      </trkpt>
      <trkpt lat="43.93415" lon="7.44656">
        <ele>1587</ele>
        <time>2018-06-18T11:23:02Z</time>
      </trkpt>
      <trkpt lat="43.9341" lon="7.44654">
        <ele>1587</ele>
        <time>2018-06-18T11:23:55Z</time>
      </trkpt>
      <trkpt lat="43.93394" lon="7.44644">
        <ele>1588</ele>
        <time>2018-06-18T11:24:10Z</time>
      </trkpt>
      <trkpt lat="43.93388" lon="7.44634">
        <ele>1587</ele>
        <time>2018-06-18T11:24:18Z</time>
      </trkpt>
      <trkpt lat="43.9338" lon="7.44617">
        <ele>1584</ele>
        <time>2018-06-18T11:24:30Z</time>
      </trkpt>
      <trkpt lat="43.93378" lon="7.44614">
        <ele>1584</ele>
        <time>2018-06-18T11:24:32Z</time>
      </trkpt>
      <trkpt lat="43.93374" lon="7.44608">
        <ele>1584</ele>
        <time>2018-06-18T11:24:37Z</time>
      </trkpt>
      <trkpt lat="43.93364" lon="7.44594">
        <ele>1583</ele>
        <time>2018-06-18T11:24:48Z</time>
      </trkpt>
      <trkpt lat="43.93351" lon="7.44576">
        <ele>1563</ele>
        <time>2018-06-18T11:25:02Z</time>
      </trkpt>
      <trkpt lat="43.93339" lon="7.44563">
        <ele>1562</ele>
        <time>2018-06-18T11:25:15Z</time>
      </trkpt>
      <trkpt lat="43.93333" lon="7.44557">
        <ele>1559</ele>
        <time>2018-06-18T11:25:22Z</time>
      </trkpt>
      <trkpt lat="43.93326" lon="7.44548">
        <ele>1572</ele>
        <time>2018-06-18T11:25:33Z</time>
      </trkpt>
      <trkpt lat="43.93318" lon="7.44544">
        <ele>1571</ele>
        <time>2018-06-18T11:25:41Z</time>
      </trkpt>
      <trkpt lat="43.93315" lon="7.44542">
        <ele>1571</ele>
        <time>2018-06-18T11:25:45Z</time>
      </trkpt>
      <trkpt lat="43.93309" lon="7.44539">
        <ele>1571</ele>
        <time>2018-06-18T11:25:51Z</time>
      </trkpt>
      <trkpt lat="43.93303" lon="7.4454">
        <ele>1572</ele>
        <time>2018-06-18T11:25:57Z</time>
      </trkpt>
      <trkpt lat="43.933" lon="7.44539">
        <ele>1573</ele>
        <time>2018-06-18T11:26:00Z</time>
      </trkpt>
      <trkpt lat="43.93298" lon="7.44538">
        <ele>1573</ele>
        <time>2018-06-18T11:26:02Z</time>
      </trkpt>
      <trkpt lat="43.93286" lon="7.44531">
        <ele>1573</ele>
        <time>2018-06-18T11:26:16Z</time>
      </trkpt>
      <trkpt lat="43.93274" lon="7.4452">
        <ele>1572</ele>
        <time>2018-06-18T11:26:29Z</time>
      </trkpt>
      <trkpt lat="43.93263" lon="7.44512">
        <ele>1571</ele>
        <time>2018-06-18T11:26:41Z</time>
      </trkpt>
      <trkpt lat="43.93252" lon="7.44507">
        <ele>1570</ele>
        <time>2018-06-18T11:26:53Z</time>
      </trkpt>
      <trkpt lat="43.93239" lon="7.44503">
        <ele>1581</ele>
        <time>2018-06-18T11:27:06Z</time>
      </trkpt>
      <trkpt lat="43.9323" lon="7.44488">
        <ele>1568</ele>
        <time>2018-06-18T11:27:22Z</time>
      </trkpt>
      <trkpt lat="43.93227" lon="7.44485">
        <ele>1568</ele>
        <time>2018-06-18T11:27:28Z</time>
      </trkpt>
      <trkpt lat="43.93225" lon="7.4448">
        <ele>1567</ele>
        <time>2018-06-18T11:27:31Z</time>
      </trkpt>
      <trkpt lat="43.93216" lon="7.4446">
        <ele>1565</ele>
        <time>2018-06-18T11:27:44Z</time>
      </trkpt>
      <trkpt lat="43.93206" lon="7.44442">
        <ele>1563</ele>
        <time>2018-06-18T11:27:59Z</time>
      </trkpt>
      <trkpt lat="43.93193" lon="7.44433">
        <ele>1565</ele>
        <time>2018-06-18T11:28:12Z</time>
      </trkpt>
      <trkpt lat="43.93181" lon="7.44425">
        <ele>1566</ele>
        <time>2018-06-18T11:28:22Z</time>
      </trkpt>
      <trkpt lat="43.93172" lon="7.44414">
        <ele>1559</ele>
        <time>2018-06-18T11:28:32Z</time>
      </trkpt>
      <trkpt lat="43.93165" lon="7.44402">
        <ele>1567</ele>
        <time>2018-06-18T11:28:42Z</time>
      </trkpt>
      <trkpt lat="43.93161" lon="7.44393">
        <ele>1566</ele>
        <time>2018-06-18T11:28:48Z</time>
      </trkpt>
      <trkpt lat="43.93157" lon="7.44382">
        <ele>1564</ele>
        <time>2018-06-18T11:28:56Z</time>
      </trkpt>
      <trkpt lat="43.93156" lon="7.44379">
        <ele>1564</ele>
        <time>2018-06-18T11:28:58Z</time>
      </trkpt>
      <trkpt lat="43.93152" lon="7.44367">
        <ele>1561</ele>
        <time>2018-06-18T11:29:08Z</time>
      </trkpt>
      <trkpt lat="43.93148" lon="7.44348">
        <ele>1555</ele>
        <time>2018-06-18T11:29:21Z</time>
      </trkpt>
      <trkpt lat="43.93147" lon="7.44344">
        <ele>1554</ele>
        <time>2018-06-18T11:29:23Z</time>
      </trkpt>
      <trkpt lat="43.93139" lon="7.44321">
        <ele>1539</ele>
        <time>2018-06-18T11:29:37Z</time>
      </trkpt>
      <trkpt lat="43.93129" lon="7.44312">
        <ele>1541</ele>
        <time>2018-06-18T11:29:48Z</time>
      </trkpt>
      <trkpt lat="43.93112" lon="7.44306">
        <ele>1545</ele>
        <time>2018-06-18T11:30:03Z</time>
      </trkpt>
      <trkpt lat="43.93111" lon="7.44305">
        <ele>1545</ele>
        <time>2018-06-18T11:30:04Z</time>
      </trkpt>
      <trkpt lat="43.93099" lon="7.44296">
        <ele>1546</ele>
        <time>2018-06-18T11:30:16Z</time>
      </trkpt>
      <trkpt lat="43.93087" lon="7.44278">
        <ele>1544</ele>
        <time>2018-06-18T11:30:29Z</time>
      </trkpt>
      <trkpt lat="43.93084" lon="7.44266">
        <ele>1543</ele>
        <time>2018-06-18T11:30:39Z</time>
      </trkpt>
      <trkpt lat="43.93081" lon="7.44249">
        <ele>1546</ele>
        <time>2018-06-18T11:30:53Z</time>
      </trkpt>
      <trkpt lat="43.93079" lon="7.44241">
        <ele>1548</ele>
        <time>2018-06-18T11:30:58Z</time>
      </trkpt>
      <trkpt lat="43.93072" lon="7.44224">
        <ele>1549</ele>
        <time>2018-06-18T11:31:10Z</time>
      </trkpt>
      <trkpt lat="43.93066" lon="7.44211">
        <ele>1549</ele>
        <time>2018-06-18T11:31:19Z</time>
      </trkpt>
      <trkpt lat="43.93051" lon="7.442">
        <ele>1550</ele>
        <time>2018-06-18T11:31:33Z</time>
      </trkpt>
      <trkpt lat="43.93047" lon="7.44194">
        <ele>1551</ele>
        <time>2018-06-18T11:31:39Z</time>
      </trkpt>
      <trkpt lat="43.93045" lon="7.44192">
        <ele>1551</ele>
        <time>2018-06-18T11:31:42Z</time>
      </trkpt>
      <trkpt lat="43.93044" lon="7.44175">
        <ele>1550</ele>
        <time>2018-06-18T11:31:54Z</time>
      </trkpt>
      <trkpt lat="43.93043" lon="7.44164">
        <ele>1539</ele>
        <time>2018-06-18T11:32:00Z</time>
      </trkpt>
      <trkpt lat="43.93041" lon="7.44149">
        <ele>1539</ele>
        <time>2018-06-18T11:32:10Z</time>
      </trkpt>
      <trkpt lat="43.93043" lon="7.44139">
        <ele>1538</ele>
        <time>2018-06-18T11:32:20Z</time>
      </trkpt>
      <trkpt lat="43.93047" lon="7.44122">
        <ele>1535</ele>
        <time>2018-06-18T11:32:31Z</time>
      </trkpt>
      <trkpt lat="43.93048" lon="7.44119">
        <ele>1534</ele>
        <time>2018-06-18T11:32:33Z</time>
      </trkpt>
      <trkpt lat="43.93048" lon="7.44115">
        <ele>1534</ele>
        <time>2018-06-18T11:32:35Z</time>
      </trkpt>
      <trkpt lat="43.93046" lon="7.44104">
        <ele>1533</ele>
        <time>2018-06-18T11:32:43Z</time>
      </trkpt>
      <trkpt lat="43.93051" lon="7.44091">
        <ele>1529</ele>
        <time>2018-06-18T11:32:53Z</time>
      </trkpt>
      <trkpt lat="43.93052" lon="7.44086">
        <ele>1529</ele>
        <time>2018-06-18T11:32:56Z</time>
      </trkpt>
      <trkpt lat="43.93051" lon="7.44071">
        <ele>1517</ele>
        <time>2018-06-18T11:33:07Z</time>
      </trkpt>
      <trkpt lat="43.93053" lon="7.44068">
        <ele>1517</ele>
        <time>2018-06-18T11:33:19Z</time>
      </trkpt>
      <trkpt lat="43.93053" lon="7.44067">
        <ele>1517</ele>
        <time>2018-06-18T11:34:02Z</time>
      </trkpt>
      <trkpt lat="43.93053" lon="7.44061">
        <ele>1516</ele>
        <time>2018-06-18T11:34:50Z</time>
      </trkpt>
      <trkpt lat="43.93046" lon="7.44044">
        <ele>1517</ele>
        <time>2018-06-18T11:35:02Z</time>
      </trkpt>
      <trkpt lat="43.93036" lon="7.44036">
        <ele>1519</ele>
        <time>2018-06-18T11:35:12Z</time>
      </trkpt>
      <trkpt lat="43.93035" lon="7.44035">
        <ele>1519</ele>
        <time>2018-06-18T11:35:13Z</time>
      </trkpt>
      <trkpt lat="43.9303" lon="7.44031">
        <ele>1521</ele>
        <time>2018-06-18T11:35:18Z</time>
      </trkpt>
      <trkpt lat="43.93022" lon="7.44022">
        <ele>1522</ele>
        <time>2018-06-18T11:35:30Z</time>
      </trkpt>
      <trkpt lat="43.93022" lon="7.44011">
        <ele>1522</ele>
        <time>2018-06-18T11:35:44Z</time>
      </trkpt>
      <trkpt lat="43.9302" lon="7.43997">
        <ele>1513</ele>
        <time>2018-06-18T11:35:55Z</time>
      </trkpt>
      <trkpt lat="43.93015" lon="7.43982">
        <ele>1511</ele>
        <time>2018-06-18T11:36:05Z</time>
      </trkpt>
      <trkpt lat="43.93015" lon="7.4398">
        <ele>1510</ele>
        <time>2018-06-18T11:36:06Z</time>
      </trkpt>
      <trkpt lat="43.93013" lon="7.43973">
        <ele>1508</ele>
        <time>2018-06-18T11:36:10Z</time>
      </trkpt>
      <trkpt lat="43.93011" lon="7.43954">
        <ele>1504</ele>
        <time>2018-06-18T11:36:21Z</time>
      </trkpt>
      <trkpt lat="43.93011" lon="7.43932">
        <ele>1503</ele>
        <time>2018-06-18T11:36:35Z</time>
      </trkpt>
      <trkpt lat="43.9301" lon="7.43911">
        <ele>1497</ele>
        <time>2018-06-18T11:36:46Z</time>
      </trkpt>
      <trkpt lat="43.93012" lon="7.43882">
        <ele>1488</ele>
        <time>2018-06-18T11:37:01Z</time>
      </trkpt>
      <trkpt lat="43.93014" lon="7.43872">
        <ele>1486</ele>
        <time>2018-06-18T11:37:07Z</time>
      </trkpt>
      <trkpt lat="43.93017" lon="7.43848">
        <ele>1484</ele>
        <time>2018-06-18T11:37:21Z</time>
      </trkpt>
      <trkpt lat="43.93022" lon="7.43828">
        <ele>1480</ele>
        <time>2018-06-18T11:37:36Z</time>
      </trkpt>
      <trkpt lat="43.93026" lon="7.4381">
        <ele>1478</ele>
        <time>2018-06-18T11:37:47Z</time>
      </trkpt>
      <trkpt lat="43.93027" lon="7.4379">
        <ele>1477</ele>
        <time>2018-06-18T11:37:59Z</time>
      </trkpt>
      <trkpt lat="43.93028" lon="7.43781">
        <ele>1476</ele>
        <time>2018-06-18T11:38:05Z</time>
      </trkpt>
      <trkpt lat="43.93029" lon="7.43773">
        <ele>1476</ele>
        <time>2018-06-18T11:38:10Z</time>
      </trkpt>
      <trkpt lat="43.93026" lon="7.43771">
        <ele>1476</ele>
        <time>2018-06-18T11:38:15Z</time>
      </trkpt>
      <trkpt lat="43.93018" lon="7.43771">
        <ele>1477</ele>
        <time>2018-06-18T11:38:23Z</time>
      </trkpt>
      <trkpt lat="43.93012" lon="7.43775">
        <ele>1477</ele>
        <time>2018-06-18T11:38:33Z</time>
      </trkpt>
      <trkpt lat="43.93009" lon="7.43774">
        <ele>1477</ele>
        <time>2018-06-18T11:38:36Z</time>
      </trkpt>
      <trkpt lat="43.92999" lon="7.43771">
        <ele>1475</ele>
        <time>2018-06-18T11:38:48Z</time>
      </trkpt>
      <trkpt lat="43.92993" lon="7.43777">
        <ele>1474</ele>
        <time>2018-06-18T11:38:57Z</time>
      </trkpt>
      <trkpt lat="43.92986" lon="7.4378">
        <ele>1474</ele>
        <time>2018-06-18T11:39:08Z</time>
      </trkpt>
      <trkpt lat="43.92982" lon="7.43763">
        <ele>1473</ele>
        <time>2018-06-18T11:39:21Z</time>
      </trkpt>
      <trkpt lat="43.9298" lon="7.4376">
        <ele>1473</ele>
        <time>2018-06-18T11:39:23Z</time>
      </trkpt>
      <trkpt lat="43.92978" lon="7.43746">
        <ele>1465</ele>
        <time>2018-06-18T11:39:36Z</time>
      </trkpt>
      <trkpt lat="43.92974" lon="7.43749">
        <ele>1464</ele>
        <time>2018-06-18T11:39:44Z</time>
      </trkpt>
      <trkpt lat="43.92965" lon="7.43755">
        <ele>1470</ele>
        <time>2018-06-18T11:39:56Z</time>
      </trkpt>
      <trkpt lat="43.92961" lon="7.43758">
        <ele>1469</ele>
        <time>2018-06-18T11:40:00Z</time>
      </trkpt>
      <trkpt lat="43.92957" lon="7.43763">
        <ele>1469</ele>
        <time>2018-06-18T11:40:06Z</time>
      </trkpt>
      <trkpt lat="43.92945" lon="7.43767">
        <ele>1466</ele>
        <time>2018-06-18T11:40:19Z</time>
      </trkpt>
      <trkpt lat="43.92943" lon="7.43769">
        <ele>1466</ele>
        <time>2018-06-18T11:40:22Z</time>
      </trkpt>
      <trkpt lat="43.92934" lon="7.43774">
        <ele>1465</ele>
        <time>2018-06-18T11:40:32Z</time>
      </trkpt>
      <trkpt lat="43.92924" lon="7.43779">
        <ele>1465</ele>
        <time>2018-06-18T11:40:44Z</time>
      </trkpt>
      <trkpt lat="43.92923" lon="7.43779">
        <ele>1465</ele>
        <time>2018-06-18T11:40:45Z</time>
      </trkpt>
      <trkpt lat="43.9292" lon="7.43779">
        <ele>1464</ele>
        <time>2018-06-18T11:40:47Z</time>
      </trkpt>
      <trkpt lat="43.92917" lon="7.43778">
        <ele>1464</ele>
        <time>2018-06-18T11:40:50Z</time>
      </trkpt>
      <trkpt lat="43.92907" lon="7.43782">
        <ele>1455</ele>
        <time>2018-06-18T11:40:58Z</time>
      </trkpt>
      <trkpt lat="43.92896" lon="7.43787">
        <ele>1456</ele>
        <time>2018-06-18T11:41:08Z</time>
      </trkpt>
      <trkpt lat="43.9289" lon="7.43787">
        <ele>1456</ele>
        <time>2018-06-18T11:41:14Z</time>
      </trkpt>
      <trkpt lat="43.9288" lon="7.43783">
        <ele>1454</ele>
        <time>2018-06-18T11:41:24Z</time>
      </trkpt>
      <trkpt lat="43.92868" lon="7.43781">
        <ele>1453</ele>
        <time>2018-06-18T11:41:36Z</time>
      </trkpt>
      <trkpt lat="43.92856" lon="7.43779">
        <ele>1451</ele>
        <time>2018-06-18T11:41:49Z</time>
      </trkpt>
      <trkpt lat="43.9285" lon="7.43775">
        <ele>1449</ele>
        <time>2018-06-18T11:41:56Z</time>
      </trkpt>
      <trkpt lat="43.92843" lon="7.43775">
        <ele>1448</ele>
        <time>2018-06-18T11:42:01Z</time>
      </trkpt>
      <trkpt lat="43.92831" lon="7.43772">
        <ele>1440</ele>
        <time>2018-06-18T11:42:12Z</time>
      </trkpt>
      <trkpt lat="43.9282" lon="7.43771">
        <ele>1440</ele>
        <time>2018-06-18T11:42:23Z</time>
      </trkpt>
      <trkpt lat="43.92816" lon="7.4377">
        <ele>1440</ele>
        <time>2018-06-18T11:42:27Z</time>
      </trkpt>
      <trkpt lat="43.92809" lon="7.43767">
        <ele>1439</ele>
        <time>2018-06-18T11:42:37Z</time>
      </trkpt>
      <trkpt lat="43.92804" lon="7.4376">
        <ele>1438</ele>
        <time>2018-06-18T11:42:48Z</time>
      </trkpt>
      <trkpt lat="43.92791" lon="7.43761">
        <ele>1437</ele>
        <time>2018-06-18T11:43:00Z</time>
      </trkpt>
      <trkpt lat="43.9279" lon="7.43762">
        <ele>1437</ele>
        <time>2018-06-18T11:43:01Z</time>
      </trkpt>
      <trkpt lat="43.92787" lon="7.43761">
        <ele>1437</ele>
        <time>2018-06-18T11:43:03Z</time>
      </trkpt>
      <trkpt lat="43.92784" lon="7.43761">
        <ele>1436</ele>
        <time>2018-06-18T11:43:05Z</time>
      </trkpt>
      <trkpt lat="43.92774" lon="7.43761">
        <ele>1434</ele>
        <time>2018-06-18T11:43:15Z</time>
      </trkpt>
      <trkpt lat="43.92764" lon="7.43759">
        <ele>1430</ele>
        <time>2018-06-18T11:43:25Z</time>
      </trkpt>
      <trkpt lat="43.92753" lon="7.43757">
        <ele>1424</ele>
        <time>2018-06-18T11:43:35Z</time>
      </trkpt>
      <trkpt lat="43.9274" lon="7.43757">
        <ele>1422</ele>
        <time>2018-06-18T11:43:48Z</time>
      </trkpt>
      <trkpt lat="43.92739" lon="7.43757">
        <ele>1422</ele>
        <time>2018-06-18T11:43:49Z</time>
      </trkpt>
      <trkpt lat="43.92729" lon="7.43755">
        <ele>1424</ele>
        <time>2018-06-18T11:43:59Z</time>
      </trkpt>
      <trkpt lat="43.92727" lon="7.43754">
        <ele>1424</ele>
        <time>2018-06-18T11:44:01Z</time>
      </trkpt>
      <trkpt lat="43.92711" lon="7.43758">
        <ele>1424</ele>
        <time>2018-06-18T11:44:13Z</time>
      </trkpt>
      <trkpt lat="43.92701" lon="7.43761">
        <ele>1424</ele>
        <time>2018-06-18T11:44:24Z</time>
      </trkpt>
      <trkpt lat="43.92691" lon="7.43763">
        <ele>1422</ele>
        <time>2018-06-18T11:44:35Z</time>
      </trkpt>
      <trkpt lat="43.92684" lon="7.43766">
        <ele>1420</ele>
        <time>2018-06-18T11:44:46Z</time>
      </trkpt>
      <trkpt lat="43.92676" lon="7.43767">
        <ele>1418</ele>
        <time>2018-06-18T11:44:57Z</time>
      </trkpt>
      <trkpt lat="43.92672" lon="7.43766">
        <ele>1417</ele>
        <time>2018-06-18T11:45:01Z</time>
      </trkpt>
      <trkpt lat="43.92659" lon="7.43768">
        <ele>1412</ele>
        <time>2018-06-18T11:45:15Z</time>
      </trkpt>
      <trkpt lat="43.92648" lon="7.43767">
        <ele>1413</ele>
        <time>2018-06-18T11:45:26Z</time>
      </trkpt>
      <trkpt lat="43.92645" lon="7.43766">
        <ele>1413</ele>
        <time>2018-06-18T11:45:29Z</time>
      </trkpt>
      <trkpt lat="43.92641" lon="7.43767">
        <ele>1413</ele>
        <time>2018-06-18T11:45:34Z</time>
      </trkpt>
      <trkpt lat="43.92632" lon="7.43767">
        <ele>1413</ele>
        <time>2018-06-18T11:45:50Z</time>
      </trkpt>
      <trkpt lat="43.92633" lon="7.43766">
        <ele>1413</ele>
        <time>2018-06-18T11:46:28Z</time>
      </trkpt>
      <trkpt lat="43.92631" lon="7.43767">
        <ele>1413</ele>
        <time>2018-06-18T11:46:40Z</time>
      </trkpt>
      <trkpt lat="43.92627" lon="7.43769">
        <ele>1413</ele>
        <time>2018-06-18T11:46:44Z</time>
      </trkpt>
      <trkpt lat="43.92621" lon="7.43773">
        <ele>1413</ele>
        <time>2018-06-18T11:46:55Z</time>
      </trkpt>
      <trkpt lat="43.92621" lon="7.43772">
        <ele>1413</ele>
        <time>2018-06-18T11:47:42Z</time>
      </trkpt>
      <trkpt lat="43.92622" lon="7.43771">
        <ele>1413</ele>
        <time>2018-06-18T11:48:02Z</time>
      </trkpt>
      <trkpt lat="43.92621" lon="7.4377">
        <ele>1413</ele>
        <time>2018-06-18T11:48:33Z</time>
      </trkpt>
      <trkpt lat="43.92617" lon="7.4377">
        <ele>1412</ele>
        <time>2018-06-18T11:48:58Z</time>
      </trkpt>
      <trkpt lat="43.9261" lon="7.43772">
        <ele>1412</ele>
        <time>2018-06-18T11:49:06Z</time>
      </trkpt>
      <trkpt lat="43.92597" lon="7.43775">
        <ele>1410</ele>
        <time>2018-06-18T11:49:17Z</time>
      </trkpt>
      <trkpt lat="43.92586" lon="7.43777">
        <ele>1410</ele>
        <time>2018-06-18T11:49:28Z</time>
      </trkpt>
      <trkpt lat="43.92583" lon="7.43777">
        <ele>1402</ele>
        <time>2018-06-18T11:49:32Z</time>
      </trkpt>
      <trkpt lat="43.92567" lon="7.43777">
        <ele>1402</ele>
        <time>2018-06-18T11:49:44Z</time>
      </trkpt>
      <trkpt lat="43.92558" lon="7.43775">
        <ele>1401</ele>
        <time>2018-06-18T11:49:52Z</time>
      </trkpt>
      <trkpt lat="43.9255" lon="7.43776">
        <ele>1402</ele>
        <time>2018-06-18T11:50:01Z</time>
      </trkpt>
      <trkpt lat="43.92535" lon="7.43774">
        <ele>1400</ele>
        <time>2018-06-18T11:50:16Z</time>
      </trkpt>
      <trkpt lat="43.92526" lon="7.43772">
        <ele>1399</ele>
        <time>2018-06-18T11:50:31Z</time>
      </trkpt>
      <trkpt lat="43.9252" lon="7.43767">
        <ele>1396</ele>
        <time>2018-06-18T11:50:41Z</time>
      </trkpt>
      <trkpt lat="43.9251" lon="7.43762">
        <ele>1393</ele>
        <time>2018-06-18T11:50:53Z</time>
      </trkpt>
      <trkpt lat="43.92496" lon="7.43768">
        <ele>1386</ele>
        <time>2018-06-18T11:51:07Z</time>
      </trkpt>
      <trkpt lat="43.92485" lon="7.43773">
        <ele>1386</ele>
        <time>2018-06-18T11:51:19Z</time>
      </trkpt>
      <trkpt lat="43.92476" lon="7.43774">
        <ele>1386</ele>
        <time>2018-06-18T11:51:31Z</time>
      </trkpt>
      <trkpt lat="43.92465" lon="7.43775">
        <ele>1385</ele>
        <time>2018-06-18T11:51:44Z</time>
      </trkpt>
      <trkpt lat="43.92462" lon="7.43777">
        <ele>1385</ele>
        <time>2018-06-18T11:51:48Z</time>
      </trkpt>
      <trkpt lat="43.92456" lon="7.43783">
        <ele>1385</ele>
        <time>2018-06-18T11:51:56Z</time>
      </trkpt>
      <trkpt lat="43.92444" lon="7.43787">
        <ele>1384</ele>
        <time>2018-06-18T11:52:08Z</time>
      </trkpt>
      <trkpt lat="43.92435" lon="7.4379">
        <ele>1383</ele>
        <time>2018-06-18T11:52:16Z</time>
      </trkpt>
      <trkpt lat="43.92431" lon="7.4379">
        <ele>1383</ele>
        <time>2018-06-18T11:52:19Z</time>
      </trkpt>
      <trkpt lat="43.92415" lon="7.43791">
        <ele>1370</ele>
        <time>2018-06-18T11:52:31Z</time>
      </trkpt>
      <trkpt lat="43.92412" lon="7.4379">
        <ele>1370</ele>
        <time>2018-06-18T11:52:34Z</time>
      </trkpt>
      <trkpt lat="43.92399" lon="7.43784">
        <ele>1369</ele>
        <time>2018-06-18T11:52:46Z</time>
      </trkpt>
      <trkpt lat="43.92386" lon="7.43777">
        <ele>1368</ele>
        <time>2018-06-18T11:52:59Z</time>
      </trkpt>
      <trkpt lat="43.92384" lon="7.43777">
        <ele>1368</ele>
        <time>2018-06-18T11:53:01Z</time>
      </trkpt>
      <trkpt lat="43.92382" lon="7.43775">
        <ele>1367</ele>
        <time>2018-06-18T11:53:03Z</time>
      </trkpt>
      <trkpt lat="43.92373" lon="7.43771">
        <ele>1367</ele>
        <time>2018-06-18T11:53:12Z</time>
      </trkpt>
      <trkpt lat="43.92364" lon="7.43771">
        <ele>1366</ele>
        <time>2018-06-18T11:53:21Z</time>
      </trkpt>
      <trkpt lat="43.92357" lon="7.4378">
        <ele>1366</ele>
        <time>2018-06-18T11:53:33Z</time>
      </trkpt>
      <trkpt lat="43.92354" lon="7.43783">
        <ele>1365</ele>
        <time>2018-06-18T11:53:46Z</time>
      </trkpt>
      <trkpt lat="43.92354" lon="7.43783">
        <ele>1365</ele>
        <time>2018-06-18T11:54:09Z</time>
      </trkpt>
      <trkpt lat="43.92354" lon="7.43783">
        <ele>1365</ele>
        <time>2018-06-18T11:54:22Z</time>
      </trkpt>
      <trkpt lat="43.92354" lon="7.43783">
        <ele>1365</ele>
        <time>2018-06-18T11:54:41Z</time>
      </trkpt>
      <trkpt lat="43.92354" lon="7.43783">
        <ele>1365</ele>
        <time>2018-06-18T11:54:57Z</time>
      </trkpt>
      <trkpt lat="43.92353" lon="7.43785">
        <ele>1365</ele>
        <time>2018-06-18T11:55:10Z</time>
      </trkpt>
      <trkpt lat="43.92352" lon="7.43783">
        <ele>1365</ele>
        <time>2018-06-18T11:55:43Z</time>
      </trkpt>
      <trkpt lat="43.92348" lon="7.43777">
        <ele>1365</ele>
        <time>2018-06-18T11:55:49Z</time>
      </trkpt>
      <trkpt lat="43.92338" lon="7.43769">
        <ele>1366</ele>
        <time>2018-06-18T11:56:02Z</time>
      </trkpt>
      <trkpt lat="43.92337" lon="7.43768">
        <ele>1366</ele>
        <time>2018-06-18T11:56:04Z</time>
      </trkpt>
      <trkpt lat="43.92324" lon="7.43761">
        <ele>1358</ele>
        <time>2018-06-18T11:56:17Z</time>
      </trkpt>
      <trkpt lat="43.92314" lon="7.43756">
        <ele>1355</ele>
        <time>2018-06-18T11:56:27Z</time>
      </trkpt>
      <trkpt lat="43.92312" lon="7.43754">
        <ele>1355</ele>
        <time>2018-06-18T11:56:30Z</time>
      </trkpt>
      <trkpt lat="43.92301" lon="7.43743">
        <ele>1358</ele>
        <time>2018-06-18T11:56:42Z</time>
      </trkpt>
      <trkpt lat="43.92292" lon="7.43739">
        <ele>1357</ele>
        <time>2018-06-18T11:56:52Z</time>
      </trkpt>
      <trkpt lat="43.92284" lon="7.43732">
        <ele>1356</ele>
        <time>2018-06-18T11:57:04Z</time>
      </trkpt>
      <trkpt lat="43.92281" lon="7.43732">
        <ele>1355</ele>
        <time>2018-06-18T11:57:06Z</time>
      </trkpt>
      <trkpt lat="43.92276" lon="7.43727">
        <ele>1355</ele>
        <time>2018-06-18T11:57:14Z</time>
      </trkpt>
      <trkpt lat="43.92268" lon="7.4372">
        <ele>1354</ele>
        <time>2018-06-18T11:57:25Z</time>
      </trkpt>
      <trkpt lat="43.92261" lon="7.43717">
        <ele>1354</ele>
        <time>2018-06-18T11:57:33Z</time>
      </trkpt>
      <trkpt lat="43.92257" lon="7.43715">
        <ele>1354</ele>
        <time>2018-06-18T11:57:37Z</time>
      </trkpt>
      <trkpt lat="43.92248" lon="7.43713">
        <ele>1345</ele>
        <time>2018-06-18T11:57:49Z</time>
      </trkpt>
      <trkpt lat="43.92245" lon="7.43711">
        <ele>1345</ele>
        <time>2018-06-18T11:57:52Z</time>
      </trkpt>
      <trkpt lat="43.92236" lon="7.43707">
        <ele>1344</ele>
        <time>2018-06-18T11:58:01Z</time>
      </trkpt>
      <trkpt lat="43.92227" lon="7.437">
        <ele>1344</ele>
        <time>2018-06-18T11:58:12Z</time>
      </trkpt>
      <trkpt lat="43.92211" lon="7.43688">
        <ele>1343</ele>
        <time>2018-06-18T11:58:26Z</time>
      </trkpt>
      <trkpt lat="43.92209" lon="7.43687">
        <ele>1343</ele>
        <time>2018-06-18T11:58:28Z</time>
      </trkpt>
      <trkpt lat="43.92203" lon="7.43682">
        <ele>1343</ele>
        <time>2018-06-18T11:58:37Z</time>
      </trkpt>
      <trkpt lat="43.92196" lon="7.43681">
        <ele>1342</ele>
        <time>2018-06-18T11:58:43Z</time>
      </trkpt>
      <trkpt lat="43.92186" lon="7.43684">
        <ele>1342</ele>
        <time>2018-06-18T11:58:53Z</time>
      </trkpt>
      <trkpt lat="43.92185" lon="7.43686">
        <ele>1341</ele>
        <time>2018-06-18T11:58:55Z</time>
      </trkpt>
      <trkpt lat="43.92182" lon="7.43688">
        <ele>1341</ele>
        <time>2018-06-18T11:58:58Z</time>
      </trkpt>
      <trkpt lat="43.9217" lon="7.43684">
        <ele>1341</ele>
        <time>2018-06-18T11:59:08Z</time>
      </trkpt>
      <trkpt lat="43.92165" lon="7.4368">
        <ele>1335</ele>
        <time>2018-06-18T11:59:13Z</time>
      </trkpt>
      <trkpt lat="43.92149" lon="7.43667">
        <ele>1341</ele>
        <time>2018-06-18T11:59:28Z</time>
      </trkpt>
      <trkpt lat="43.92149" lon="7.43666">
        <ele>1341</ele>
        <time>2018-06-18T11:59:29Z</time>
      </trkpt>
      <trkpt lat="43.92143" lon="7.43667">
        <ele>1332</ele>
        <time>2018-06-18T11:59:35Z</time>
      </trkpt>
      <trkpt lat="43.92137" lon="7.43665">
        <ele>1340</ele>
        <time>2018-06-18T11:59:43Z</time>
      </trkpt>
      <trkpt lat="43.92128" lon="7.43664">
        <ele>1339</ele>
        <time>2018-06-18T11:59:55Z</time>
      </trkpt>
      <trkpt lat="43.92118" lon="7.43659">
        <ele>1339</ele>
        <time>2018-06-18T12:00:09Z</time>
      </trkpt>
      <trkpt lat="43.92109" lon="7.43662">
        <ele>1338</ele>
        <time>2018-06-18T12:00:23Z</time>
      </trkpt>
      <trkpt lat="43.92103" lon="7.4366">
        <ele>1337</ele>
        <time>2018-06-18T12:00:28Z</time>
      </trkpt>
      <trkpt lat="43.92091" lon="7.43651">
        <ele>1337</ele>
        <time>2018-06-18T12:00:40Z</time>
      </trkpt>
      <trkpt lat="43.92086" lon="7.4365">
        <ele>1337</ele>
        <time>2018-06-18T12:00:46Z</time>
      </trkpt>
      <trkpt lat="43.92077" lon="7.43649">
        <ele>1337</ele>
        <time>2018-06-18T12:00:58Z</time>
      </trkpt>
      <trkpt lat="43.92068" lon="7.43656">
        <ele>1336</ele>
        <time>2018-06-18T12:01:12Z</time>
      </trkpt>
      <trkpt lat="43.92059" lon="7.43661">
        <ele>1336</ele>
        <time>2018-06-18T12:01:24Z</time>
      </trkpt>
      <trkpt lat="43.92058" lon="7.43661">
        <ele>1336</ele>
        <time>2018-06-18T12:01:25Z</time>
      </trkpt>
      <trkpt lat="43.92045" lon="7.43664">
        <ele>1336</ele>
        <time>2018-06-18T12:01:39Z</time>
      </trkpt>
      <trkpt lat="43.92036" lon="7.43665">
        <ele>1335</ele>
        <time>2018-06-18T12:01:51Z</time>
      </trkpt>
      <trkpt lat="43.92031" lon="7.43665">
        <ele>1334</ele>
        <time>2018-06-18T12:02:03Z</time>
      </trkpt>
      <trkpt lat="43.92025" lon="7.43668">
        <ele>1316</ele>
        <time>2018-06-18T12:02:15Z</time>
      </trkpt>
      <trkpt lat="43.92014" lon="7.43676">
        <ele>1316</ele>
        <time>2018-06-18T12:02:26Z</time>
      </trkpt>
      <trkpt lat="43.92004" lon="7.4368">
        <ele>1316</ele>
        <time>2018-06-18T12:02:38Z</time>
      </trkpt>
      <trkpt lat="43.91996" lon="7.43682">
        <ele>1311</ele>
        <time>2018-06-18T12:02:47Z</time>
      </trkpt>
      <trkpt lat="43.91993" lon="7.43682">
        <ele>1310</ele>
        <time>2018-06-18T12:02:53Z</time>
      </trkpt>
      <trkpt lat="43.91985" lon="7.43686">
        <ele>1307</ele>
        <time>2018-06-18T12:03:04Z</time>
      </trkpt>
      <trkpt lat="43.91983" lon="7.43686">
        <ele>1307</ele>
        <time>2018-06-18T12:03:06Z</time>
      </trkpt>
      <trkpt lat="43.91971" lon="7.43692">
        <ele>1303</ele>
        <time>2018-06-18T12:03:18Z</time>
      </trkpt>
      <trkpt lat="43.91962" lon="7.43694">
        <ele>1302</ele>
        <time>2018-06-18T12:03:30Z</time>
      </trkpt>
      <trkpt lat="43.91956" lon="7.43695">
        <ele>1302</ele>
        <time>2018-06-18T12:03:41Z</time>
      </trkpt>
      <trkpt lat="43.91954" lon="7.43696">
        <ele>1301</ele>
        <time>2018-06-18T12:03:43Z</time>
      </trkpt>
      <trkpt lat="43.91947" lon="7.43696">
        <ele>1301</ele>
        <time>2018-06-18T12:03:48Z</time>
      </trkpt>
      <trkpt lat="43.91939" lon="7.43693">
        <ele>1302</ele>
        <time>2018-06-18T12:04:00Z</time>
      </trkpt>
      <trkpt lat="43.91927" lon="7.43698">
        <ele>1300</ele>
        <time>2018-06-18T12:04:11Z</time>
      </trkpt>
      <trkpt lat="43.91914" lon="7.43697">
        <ele>1295</ele>
        <time>2018-06-18T12:04:22Z</time>
      </trkpt>
      <trkpt lat="43.91903" lon="7.43697">
        <ele>1294</ele>
        <time>2018-06-18T12:04:34Z</time>
      </trkpt>
      <trkpt lat="43.91891" lon="7.43698">
        <ele>1293</ele>
        <time>2018-06-18T12:04:47Z</time>
      </trkpt>
      <trkpt lat="43.9188" lon="7.437">
        <ele>1291</ele>
        <time>2018-06-18T12:05:00Z</time>
      </trkpt>
      <trkpt lat="43.91875" lon="7.43702">
        <ele>1291</ele>
        <time>2018-06-18T12:05:12Z</time>
      </trkpt>
      <trkpt lat="43.91865" lon="7.43705">
        <ele>1289</ele>
        <time>2018-06-18T12:05:19Z</time>
      </trkpt>
      <trkpt lat="43.91863" lon="7.43704">
        <ele>1289</ele>
        <time>2018-06-18T12:05:21Z</time>
      </trkpt>
      <trkpt lat="43.9186" lon="7.43703">
        <ele>1290</ele>
        <time>2018-06-18T12:05:23Z</time>
      </trkpt>
      <trkpt lat="43.91844" lon="7.43705">
        <ele>1288</ele>
        <time>2018-06-18T12:05:37Z</time>
      </trkpt>
      <trkpt lat="43.91834" lon="7.43703">
        <ele>1289</ele>
        <time>2018-06-18T12:05:47Z</time>
      </trkpt>
      <trkpt lat="43.91821" lon="7.43704">
        <ele>1279</ele>
        <time>2018-06-18T12:05:59Z</time>
      </trkpt>
      <trkpt lat="43.91817" lon="7.43705">
        <ele>1279</ele>
        <time>2018-06-18T12:06:04Z</time>
      </trkpt>
      <trkpt lat="43.91808" lon="7.43708">
        <ele>1277</ele>
        <time>2018-06-18T12:06:15Z</time>
      </trkpt>
      <trkpt lat="43.91806" lon="7.43708">
        <ele>1276</ele>
        <time>2018-06-18T12:06:17Z</time>
      </trkpt>
      <trkpt lat="43.918" lon="7.43711">
        <ele>1275</ele>
        <time>2018-06-18T12:06:22Z</time>
      </trkpt>
      <trkpt lat="43.91789" lon="7.43707">
        <ele>1275</ele>
        <time>2018-06-18T12:06:33Z</time>
      </trkpt>
      <trkpt lat="43.91777" lon="7.43706">
        <ele>1274</ele>
        <time>2018-06-18T12:06:45Z</time>
      </trkpt>
      <trkpt lat="43.91768" lon="7.43706">
        <ele>1274</ele>
        <time>2018-06-18T12:06:57Z</time>
      </trkpt>
      <trkpt lat="43.91758" lon="7.43709">
        <ele>1272</ele>
        <time>2018-06-18T12:07:07Z</time>
      </trkpt>
      <trkpt lat="43.91751" lon="7.43707">
        <ele>1272</ele>
        <time>2018-06-18T12:07:20Z</time>
      </trkpt>
      <trkpt lat="43.91738" lon="7.43706">
        <ele>1259</ele>
        <time>2018-06-18T12:07:33Z</time>
      </trkpt>
      <trkpt lat="43.91728" lon="7.43713">
        <ele>1256</ele>
        <time>2018-06-18T12:07:45Z</time>
      </trkpt>
      <trkpt lat="43.91722" lon="7.43716">
        <ele>1255</ele>
        <time>2018-06-18T12:07:53Z</time>
      </trkpt>
      <trkpt lat="43.91721" lon="7.43717">
        <ele>1254</ele>
        <time>2018-06-18T12:07:58Z</time>
      </trkpt>
      <trkpt lat="43.91712" lon="7.43716">
        <ele>1253</ele>
        <time>2018-06-18T12:08:08Z</time>
      </trkpt>
      <trkpt lat="43.91701" lon="7.43709">
        <ele>1253</ele>
        <time>2018-06-18T12:08:18Z</time>
      </trkpt>
      <trkpt lat="43.91698" lon="7.43705">
        <ele>1253</ele>
        <time>2018-06-18T12:08:21Z</time>
      </trkpt>
      <trkpt lat="43.91689" lon="7.43701">
        <ele>1253</ele>
        <time>2018-06-18T12:08:29Z</time>
      </trkpt>
      <trkpt lat="43.91679" lon="7.43699">
        <ele>1253</ele>
        <time>2018-06-18T12:08:43Z</time>
      </trkpt>
      <trkpt lat="43.91674" lon="7.43696">
        <ele>1253</ele>
        <time>2018-06-18T12:08:50Z</time>
      </trkpt>
      <trkpt lat="43.91667" lon="7.43684">
        <ele>1255</ele>
        <time>2018-06-18T12:09:01Z</time>
      </trkpt>
      <trkpt lat="43.91659" lon="7.43676">
        <ele>1246</ele>
        <time>2018-06-18T12:09:13Z</time>
      </trkpt>
      <trkpt lat="43.91658" lon="7.43675">
        <ele>1246</ele>
        <time>2018-06-18T12:09:14Z</time>
      </trkpt>
      <trkpt lat="43.91645" lon="7.43669">
        <ele>1241</ele>
        <time>2018-06-18T12:09:29Z</time>
      </trkpt>
      <trkpt lat="43.91643" lon="7.4367">
        <ele>1240</ele>
        <time>2018-06-18T12:09:32Z</time>
      </trkpt>
      <trkpt lat="43.91633" lon="7.43667">
        <ele>1236</ele>
        <time>2018-06-18T12:09:44Z</time>
      </trkpt>
      <trkpt lat="43.91629" lon="7.43666">
        <ele>1254</ele>
        <time>2018-06-18T12:09:48Z</time>
      </trkpt>
      <trkpt lat="43.91617" lon="7.43665">
        <ele>1251</ele>
        <time>2018-06-18T12:10:00Z</time>
      </trkpt>
      <trkpt lat="43.91607" lon="7.43663">
        <ele>1247</ele>
        <time>2018-06-18T12:10:13Z</time>
      </trkpt>
      <trkpt lat="43.91599" lon="7.43659">
        <ele>1244</ele>
        <time>2018-06-18T12:10:25Z</time>
      </trkpt>
      <trkpt lat="43.91599" lon="7.43659">
        <ele>1243</ele>
        <time>2018-06-18T12:10:26Z</time>
      </trkpt>
      <trkpt lat="43.91592" lon="7.43659">
        <ele>1240</ele>
        <time>2018-06-18T12:10:35Z</time>
      </trkpt>
      <trkpt lat="43.91584" lon="7.43658">
        <ele>1236</ele>
        <time>2018-06-18T12:10:48Z</time>
      </trkpt>
      <trkpt lat="43.91575" lon="7.43656">
        <ele>1230</ele>
        <time>2018-06-18T12:11:00Z</time>
      </trkpt>
      <trkpt lat="43.91567" lon="7.43654">
        <ele>1230</ele>
        <time>2018-06-18T12:11:12Z</time>
      </trkpt>
      <trkpt lat="43.91558" lon="7.43652">
        <ele>1230</ele>
        <time>2018-06-18T12:11:24Z</time>
      </trkpt>
      <trkpt lat="43.91551" lon="7.43652">
        <ele>1229</ele>
        <time>2018-06-18T12:11:35Z</time>
      </trkpt>
      <trkpt lat="43.91537" lon="7.4365">
        <ele>1227</ele>
        <time>2018-06-18T12:11:48Z</time>
      </trkpt>
      <trkpt lat="43.91536" lon="7.43649">
        <ele>1227</ele>
        <time>2018-06-18T12:11:50Z</time>
      </trkpt>
      <trkpt lat="43.91523" lon="7.43648">
        <ele>1224</ele>
        <time>2018-06-18T12:12:02Z</time>
      </trkpt>
      <trkpt lat="43.91512" lon="7.43645">
        <ele>1222</ele>
        <time>2018-06-18T12:12:14Z</time>
      </trkpt>
      <trkpt lat="43.915" lon="7.43645">
        <ele>1220</ele>
        <time>2018-06-18T12:12:27Z</time>
      </trkpt>
      <trkpt lat="43.9149" lon="7.43643">
        <ele>1208</ele>
        <time>2018-06-18T12:12:38Z</time>
      </trkpt>
      <trkpt lat="43.9148" lon="7.43644">
        <ele>1207</ele>
        <time>2018-06-18T12:12:51Z</time>
      </trkpt>
      <trkpt lat="43.91473" lon="7.43648">
        <ele>1206</ele>
        <time>2018-06-18T12:13:02Z</time>
      </trkpt>
      <trkpt lat="43.91463" lon="7.43647">
        <ele>1205</ele>
        <time>2018-06-18T12:13:14Z</time>
      </trkpt>
      <trkpt lat="43.91462" lon="7.43649">
        <ele>1204</ele>
        <time>2018-06-18T12:13:33Z</time>
      </trkpt>
      <trkpt lat="43.91461" lon="7.43649">
        <ele>1204</ele>
        <time>2018-06-18T12:14:44Z</time>
      </trkpt>
      <trkpt lat="43.91451" lon="7.43649">
        <ele>1202</ele>
        <time>2018-06-18T12:15:22Z</time>
      </trkpt>
      <trkpt lat="43.91448" lon="7.43649">
        <ele>1201</ele>
        <time>2018-06-18T12:15:25Z</time>
      </trkpt>
      <trkpt lat="43.91436" lon="7.43647">
        <ele>1199</ele>
        <time>2018-06-18T12:15:35Z</time>
      </trkpt>
      <trkpt lat="43.91423" lon="7.43639">
        <ele>1199</ele>
        <time>2018-06-18T12:15:51Z</time>
      </trkpt>
      <trkpt lat="43.91411" lon="7.43635">
        <ele>1186</ele>
        <time>2018-06-18T12:16:05Z</time>
      </trkpt>
      <trkpt lat="43.9141" lon="7.43635">
        <ele>1186</ele>
        <time>2018-06-18T12:16:06Z</time>
      </trkpt>
      <trkpt lat="43.91402" lon="7.43631">
        <ele>1187</ele>
        <time>2018-06-18T12:16:20Z</time>
      </trkpt>
      <trkpt lat="43.91393" lon="7.43629">
        <ele>1186</ele>
        <time>2018-06-18T12:16:32Z</time>
      </trkpt>
      <trkpt lat="43.91385" lon="7.43627">
        <ele>1186</ele>
        <time>2018-06-18T12:16:46Z</time>
      </trkpt>
      <trkpt lat="43.91379" lon="7.43631">
        <ele>1184</ele>
        <time>2018-06-18T12:16:57Z</time>
      </trkpt>
      <trkpt lat="43.91371" lon="7.43639">
        <ele>1181</ele>
        <time>2018-06-18T12:17:09Z</time>
      </trkpt>
      <trkpt lat="43.91367" lon="7.43641">
        <ele>1180</ele>
        <time>2018-06-18T12:17:14Z</time>
      </trkpt>
      <trkpt lat="43.91352" lon="7.43641">
        <ele>1177</ele>
        <time>2018-06-18T12:17:27Z</time>
      </trkpt>
      <trkpt lat="43.91341" lon="7.43642">
        <ele>1175</ele>
        <time>2018-06-18T12:17:37Z</time>
      </trkpt>
      <trkpt lat="43.91338" lon="7.43641">
        <ele>1175</ele>
        <time>2018-06-18T12:17:40Z</time>
      </trkpt>
      <trkpt lat="43.91323" lon="7.43644">
        <ele>1162</ele>
        <time>2018-06-18T12:17:53Z</time>
      </trkpt>
      <trkpt lat="43.91321" lon="7.43643">
        <ele>1162</ele>
        <time>2018-06-18T12:17:55Z</time>
      </trkpt>
      <trkpt lat="43.91317" lon="7.43644">
        <ele>1162</ele>
        <time>2018-06-18T12:17:59Z</time>
      </trkpt>
      <trkpt lat="43.91306" lon="7.43645">
        <ele>1161</ele>
        <time>2018-06-18T12:18:12Z</time>
      </trkpt>
      <trkpt lat="43.91297" lon="7.43649">
        <ele>1160</ele>
        <time>2018-06-18T12:18:22Z</time>
      </trkpt>
      <trkpt lat="43.91288" lon="7.43651">
        <ele>1159</ele>
        <time>2018-06-18T12:18:33Z</time>
      </trkpt>
      <trkpt lat="43.91287" lon="7.43651">
        <ele>1159</ele>
        <time>2018-06-18T12:18:34Z</time>
      </trkpt>
      <trkpt lat="43.91279" lon="7.43658">
        <ele>1158</ele>
        <time>2018-06-18T12:18:42Z</time>
      </trkpt>
      <trkpt lat="43.91273" lon="7.43661">
        <ele>1156</ele>
        <time>2018-06-18T12:18:48Z</time>
      </trkpt>
      <trkpt lat="43.9127" lon="7.43667">
        <ele>1139</ele>
        <time>2018-06-18T12:18:53Z</time>
      </trkpt>
      <trkpt lat="43.91256" lon="7.43675">
        <ele>1141</ele>
        <time>2018-06-18T12:19:07Z</time>
      </trkpt>
      <trkpt lat="43.91251" lon="7.43679">
        <ele>1140</ele>
        <time>2018-06-18T12:19:16Z</time>
      </trkpt>
      <trkpt lat="43.91242" lon="7.43681">
        <ele>1132</ele>
        <time>2018-06-18T12:19:30Z</time>
      </trkpt>
      <trkpt lat="43.91237" lon="7.43683">
        <ele>1129</ele>
        <time>2018-06-18T12:19:44Z</time>
      </trkpt>
      <trkpt lat="43.91225" lon="7.43678">
        <ele>1126</ele>
        <time>2018-06-18T12:19:58Z</time>
      </trkpt>
      <trkpt lat="43.9122" lon="7.43682">
        <ele>1123</ele>
        <time>2018-06-18T12:20:08Z</time>
      </trkpt>
      <trkpt lat="43.91216" lon="7.43681">
        <ele>1122</ele>
        <time>2018-06-18T12:20:13Z</time>
      </trkpt>
      <trkpt lat="43.91214" lon="7.43681">
        <ele>1122</ele>
        <time>2018-06-18T12:20:15Z</time>
      </trkpt>
      <trkpt lat="43.91205" lon="7.43674">
        <ele>1121</ele>
        <time>2018-06-18T12:20:28Z</time>
      </trkpt>
      <trkpt lat="43.91199" lon="7.43675">
        <ele>1119</ele>
        <time>2018-06-18T12:20:38Z</time>
      </trkpt>
      <trkpt lat="43.91195" lon="7.43677">
        <ele>1119</ele>
        <time>2018-06-18T12:20:42Z</time>
      </trkpt>
      <trkpt lat="43.91184" lon="7.43672">
        <ele>1118</ele>
        <time>2018-06-18T12:20:55Z</time>
      </trkpt>
      <trkpt lat="43.91174" lon="7.43671">
        <ele>1118</ele>
        <time>2018-06-18T12:21:09Z</time>
      </trkpt>
      <trkpt lat="43.91168" lon="7.43666">
        <ele>1119</ele>
        <time>2018-06-18T12:21:22Z</time>
      </trkpt>
      <trkpt lat="43.91164" lon="7.43666">
        <ele>1116</ele>
        <time>2018-06-18T12:21:30Z</time>
      </trkpt>
      <trkpt lat="43.91156" lon="7.43668">
        <ele>1108</ele>
        <time>2018-06-18T12:21:43Z</time>
      </trkpt>
      <trkpt lat="43.91152" lon="7.43665">
        <ele>1107</ele>
        <time>2018-06-18T12:22:00Z</time>
      </trkpt>
      <trkpt lat="43.91152" lon="7.43664">
        <ele>1107</ele>
        <time>2018-06-18T12:22:01Z</time>
      </trkpt>
      <trkpt lat="43.91149" lon="7.43653">
        <ele>1104</ele>
        <time>2018-06-18T12:22:13Z</time>
      </trkpt>
      <trkpt lat="43.91146" lon="7.43655">
        <ele>1103</ele>
        <time>2018-06-18T12:22:19Z</time>
      </trkpt>
      <trkpt lat="43.91143" lon="7.43663">
        <ele>1102</ele>
        <time>2018-06-18T12:22:25Z</time>
      </trkpt>
      <trkpt lat="43.9114" lon="7.43671">
        <ele>1099</ele>
        <time>2018-06-18T12:22:32Z</time>
      </trkpt>
      <trkpt lat="43.9114" lon="7.43684">
        <ele>1097</ele>
        <time>2018-06-18T12:22:48Z</time>
      </trkpt>
      <trkpt lat="43.91129" lon="7.43682">
        <ele>1094</ele>
        <time>2018-06-18T12:23:04Z</time>
      </trkpt>
      <trkpt lat="43.91123" lon="7.43676">
        <ele>1093</ele>
        <time>2018-06-18T12:23:17Z</time>
      </trkpt>
      <trkpt lat="43.91117" lon="7.4368">
        <ele>1091</ele>
        <time>2018-06-18T12:23:29Z</time>
      </trkpt>
      <trkpt lat="43.91116" lon="7.43686">
        <ele>1090</ele>
        <time>2018-06-18T12:23:39Z</time>
      </trkpt>
      <trkpt lat="43.91124" lon="7.43692">
        <ele>1092</ele>
        <time>2018-06-18T12:23:52Z</time>
      </trkpt>
      <trkpt lat="43.9113" lon="7.43701">
        <ele>1092</ele>
        <time>2018-06-18T12:24:07Z</time>
      </trkpt>
      <trkpt lat="43.91136" lon="7.43705">
        <ele>1093</ele>
        <time>2018-06-18T12:24:19Z</time>
      </trkpt>
      <trkpt lat="43.91141" lon="7.43712">
        <ele>1093</ele>
        <time>2018-06-18T12:24:32Z</time>
      </trkpt>
      <trkpt lat="43.91141" lon="7.43723">
        <ele>1091</ele>
        <time>2018-06-18T12:24:44Z</time>
      </trkpt>
      <trkpt lat="43.91141" lon="7.43727">
        <ele>1091</ele>
        <time>2018-06-18T12:24:49Z</time>
      </trkpt>
      <trkpt lat="43.91148" lon="7.43731">
        <ele>1092</ele>
        <time>2018-06-18T12:25:02Z</time>
      </trkpt>
      <trkpt lat="43.91151" lon="7.43739">
        <ele>1092</ele>
        <time>2018-06-18T12:25:15Z</time>
      </trkpt>
      <trkpt lat="43.91144" lon="7.43746">
        <ele>1091</ele>
        <time>2018-06-18T12:25:27Z</time>
      </trkpt>
      <trkpt lat="43.91138" lon="7.43748">
        <ele>1090</ele>
        <time>2018-06-18T12:25:40Z</time>
      </trkpt>
      <trkpt lat="43.9113" lon="7.43749">
        <ele>1088</ele>
        <time>2018-06-18T12:25:53Z</time>
      </trkpt>
      <trkpt lat="43.91126" lon="7.43751">
        <ele>1069</ele>
        <time>2018-06-18T12:25:57Z</time>
      </trkpt>
      <trkpt lat="43.91113" lon="7.43747">
        <ele>1084</ele>
        <time>2018-06-18T12:26:11Z</time>
      </trkpt>
      <trkpt lat="43.91105" lon="7.43746">
        <ele>1082</ele>
        <time>2018-06-18T12:26:23Z</time>
      </trkpt>
      <trkpt lat="43.91095" lon="7.43745">
        <ele>1078</ele>
        <time>2018-06-18T12:26:35Z</time>
      </trkpt>
      <trkpt lat="43.91093" lon="7.43747">
        <ele>1076</ele>
        <time>2018-06-18T12:26:38Z</time>
      </trkpt>
      <trkpt lat="43.9108" lon="7.43748">
        <ele>1068</ele>
        <time>2018-06-18T12:26:50Z</time>
      </trkpt>
      <trkpt lat="43.9108" lon="7.43749">
        <ele>1068</ele>
        <time>2018-06-18T12:26:51Z</time>
      </trkpt>
      <trkpt lat="43.91073" lon="7.4375">
        <ele>1065</ele>
        <time>2018-06-18T12:27:06Z</time>
      </trkpt>
      <trkpt lat="43.91073" lon="7.4375">
        <ele>1059</ele>
        <time>2018-06-18T12:27:49Z</time>
      </trkpt>
      <trkpt lat="43.91064" lon="7.43748">
        <ele>1062</ele>
        <time>2018-06-18T12:28:03Z</time>
      </trkpt>
      <trkpt lat="43.91057" lon="7.43749">
        <ele>1060</ele>
        <time>2018-06-18T12:28:15Z</time>
      </trkpt>
      <trkpt lat="43.91047" lon="7.43745">
        <ele>1057</ele>
        <time>2018-06-18T12:28:29Z</time>
      </trkpt>
      <trkpt lat="43.91039" lon="7.43743">
        <ele>1055</ele>
        <time>2018-06-18T12:28:43Z</time>
      </trkpt>
      <trkpt lat="43.91032" lon="7.43744">
        <ele>1052</ele>
        <time>2018-06-18T12:28:55Z</time>
      </trkpt>
      <trkpt lat="43.91025" lon="7.43746">
        <ele>1050</ele>
        <time>2018-06-18T12:29:08Z</time>
      </trkpt>
      <trkpt lat="43.91018" lon="7.43746">
        <ele>1048</ele>
        <time>2018-06-18T12:29:20Z</time>
      </trkpt>
      <trkpt lat="43.91011" lon="7.43744">
        <ele>1045</ele>
        <time>2018-06-18T12:29:33Z</time>
      </trkpt>
      <trkpt lat="43.91007" lon="7.43743">
        <ele>1044</ele>
        <time>2018-06-18T12:29:39Z</time>
      </trkpt>
      <trkpt lat="43.90998" lon="7.43745">
        <ele>1034</ele>
        <time>2018-06-18T12:29:54Z</time>
      </trkpt>
      <trkpt lat="43.90991" lon="7.4375">
        <ele>1031</ele>
        <time>2018-06-18T12:30:07Z</time>
      </trkpt>
      <trkpt lat="43.90982" lon="7.43753">
        <ele>1026</ele>
        <time>2018-06-18T12:30:20Z</time>
      </trkpt>
      <trkpt lat="43.90975" lon="7.4376">
        <ele>1023</ele>
        <time>2018-06-18T12:30:30Z</time>
      </trkpt>
      <trkpt lat="43.90969" lon="7.43763">
        <ele>1021</ele>
        <time>2018-06-18T12:30:37Z</time>
      </trkpt>
      <trkpt lat="43.90958" lon="7.4377">
        <ele>1018</ele>
        <time>2018-06-18T12:30:50Z</time>
      </trkpt>
      <trkpt lat="43.90945" lon="7.43778">
        <ele>1015</ele>
        <time>2018-06-18T12:31:05Z</time>
      </trkpt>
      <trkpt lat="43.90935" lon="7.43786">
        <ele>1014</ele>
        <time>2018-06-18T12:31:18Z</time>
      </trkpt>
      <trkpt lat="43.90929" lon="7.43796">
        <ele>1014</ele>
        <time>2018-06-18T12:31:31Z</time>
      </trkpt>
      <trkpt lat="43.90923" lon="7.43801">
        <ele>1013</ele>
        <time>2018-06-18T12:31:52Z</time>
      </trkpt>
      <trkpt lat="43.90916" lon="7.4381">
        <ele>998</ele>
        <time>2018-06-18T12:32:07Z</time>
      </trkpt>
      <trkpt lat="43.90915" lon="7.43813">
        <ele>999</ele>
        <time>2018-06-18T12:32:10Z</time>
      </trkpt>
      <trkpt lat="43.90909" lon="7.43822">
        <ele>1001</ele>
        <time>2018-06-18T12:32:24Z</time>
      </trkpt>
      <trkpt lat="43.90902" lon="7.43828">
        <ele>1000</ele>
        <time>2018-06-18T12:32:35Z</time>
      </trkpt>
      <trkpt lat="43.90902" lon="7.4383">
        <ele>1000</ele>
        <time>2018-06-18T12:32:37Z</time>
      </trkpt>
      <trkpt lat="43.90907" lon="7.43837">
        <ele>1001</ele>
        <time>2018-06-18T12:32:51Z</time>
      </trkpt>
      <trkpt lat="43.90906" lon="7.43847">
        <ele>996</ele>
        <time>2018-06-18T12:33:04Z</time>
      </trkpt>
      <trkpt lat="43.90899" lon="7.43853">
        <ele>993</ele>
        <time>2018-06-18T12:33:15Z</time>
      </trkpt>
      <trkpt lat="43.90887" lon="7.43859">
        <ele>989</ele>
        <time>2018-06-18T12:33:29Z</time>
      </trkpt>
      <trkpt lat="43.90878" lon="7.43866">
        <ele>986</ele>
        <time>2018-06-18T12:33:42Z</time>
      </trkpt>
      <trkpt lat="43.90872" lon="7.4387">
        <ele>985</ele>
        <time>2018-06-18T12:33:50Z</time>
      </trkpt>
      <trkpt lat="43.90871" lon="7.43871">
        <ele>984</ele>
        <time>2018-06-18T12:33:52Z</time>
      </trkpt>
      <trkpt lat="43.90858" lon="7.4387">
        <ele>983</ele>
        <time>2018-06-18T12:34:08Z</time>
      </trkpt>
      <trkpt lat="43.9085" lon="7.43869">
        <ele>983</ele>
        <time>2018-06-18T12:34:21Z</time>
      </trkpt>
      <trkpt lat="43.90845" lon="7.43876">
        <ele>981</ele>
        <time>2018-06-18T12:34:34Z</time>
      </trkpt>
      <trkpt lat="43.90838" lon="7.43881">
        <ele>980</ele>
        <time>2018-06-18T12:34:43Z</time>
      </trkpt>
      <trkpt lat="43.90831" lon="7.43884">
        <ele>970</ele>
        <time>2018-06-18T12:35:00Z</time>
      </trkpt>
      <trkpt lat="43.90831" lon="7.43883">
        <ele>970</ele>
        <time>2018-06-18T12:36:25Z</time>
      </trkpt>
      <trkpt lat="43.90824" lon="7.43886">
        <ele>970</ele>
        <time>2018-06-18T12:36:42Z</time>
      </trkpt>
      <trkpt lat="43.90811" lon="7.43885">
        <ele>969</ele>
        <time>2018-06-18T12:36:57Z</time>
      </trkpt>
      <trkpt lat="43.90797" lon="7.43879">
        <ele>968</ele>
        <time>2018-06-18T12:37:11Z</time>
      </trkpt>
      <trkpt lat="43.90786" lon="7.4388">
        <ele>967</ele>
        <time>2018-06-18T12:37:23Z</time>
      </trkpt>
      <trkpt lat="43.90775" lon="7.43873">
        <ele>966</ele>
        <time>2018-06-18T12:37:35Z</time>
      </trkpt>
      <trkpt lat="43.9077" lon="7.43869">
        <ele>966</ele>
        <time>2018-06-18T12:37:40Z</time>
      </trkpt>
      <trkpt lat="43.90761" lon="7.43859">
        <ele>965</ele>
        <time>2018-06-18T12:37:53Z</time>
      </trkpt>
      <trkpt lat="43.90747" lon="7.43866">
        <ele>955</ele>
        <time>2018-06-18T12:38:07Z</time>
      </trkpt>
      <trkpt lat="43.90739" lon="7.43868">
        <ele>955</ele>
        <time>2018-06-18T12:38:16Z</time>
      </trkpt>
      <trkpt lat="43.90737" lon="7.43869">
        <ele>955</ele>
        <time>2018-06-18T12:38:19Z</time>
      </trkpt>
      <trkpt lat="43.90727" lon="7.43872">
        <ele>954</ele>
        <time>2018-06-18T12:38:29Z</time>
      </trkpt>
      <trkpt lat="43.90711" lon="7.43875">
        <ele>953</ele>
        <time>2018-06-18T12:38:44Z</time>
      </trkpt>
      <trkpt lat="43.90701" lon="7.43875">
        <ele>952</ele>
        <time>2018-06-18T12:38:55Z</time>
      </trkpt>
      <trkpt lat="43.90688" lon="7.43883">
        <ele>951</ele>
        <time>2018-06-18T12:39:07Z</time>
      </trkpt>
      <trkpt lat="43.90676" lon="7.43882">
        <ele>951</ele>
        <time>2018-06-18T12:39:22Z</time>
      </trkpt>
      <trkpt lat="43.90673" lon="7.43882">
        <ele>951</ele>
        <time>2018-06-18T12:39:27Z</time>
      </trkpt>
      <trkpt lat="43.90667" lon="7.43892">
        <ele>943</ele>
        <time>2018-06-18T12:39:37Z</time>
      </trkpt>
      <trkpt lat="43.90664" lon="7.43893">
        <ele>943</ele>
        <time>2018-06-18T12:39:39Z</time>
      </trkpt>
      <trkpt lat="43.90651" lon="7.43897">
        <ele>942</ele>
        <time>2018-06-18T12:39:53Z</time>
      </trkpt>
      <trkpt lat="43.90648" lon="7.43898">
        <ele>942</ele>
        <time>2018-06-18T12:39:57Z</time>
      </trkpt>
      <trkpt lat="43.90636" lon="7.43899">
        <ele>940</ele>
        <time>2018-06-18T12:40:10Z</time>
      </trkpt>
      <trkpt lat="43.90624" lon="7.43894">
        <ele>939</ele>
        <time>2018-06-18T12:40:22Z</time>
      </trkpt>
      <trkpt lat="43.90614" lon="7.439">
        <ele>938</ele>
        <time>2018-06-18T12:40:33Z</time>
      </trkpt>
      <trkpt lat="43.90611" lon="7.43911">
        <ele>938</ele>
        <time>2018-06-18T12:40:46Z</time>
      </trkpt>
      <trkpt lat="43.90607" lon="7.43925">
        <ele>934</ele>
        <time>2018-06-18T12:40:58Z</time>
      </trkpt>
      <trkpt lat="43.90598" lon="7.43929">
        <ele>934</ele>
        <time>2018-06-18T12:41:13Z</time>
      </trkpt>
      <trkpt lat="43.90596" lon="7.43932">
        <ele>933</ele>
        <time>2018-06-18T12:41:17Z</time>
      </trkpt>
      <trkpt lat="43.906" lon="7.43941">
        <ele>932</ele>
        <time>2018-06-18T12:41:30Z</time>
      </trkpt>
      <trkpt lat="43.90599" lon="7.43942">
        <ele>932</ele>
        <time>2018-06-18T12:41:34Z</time>
      </trkpt>
      <trkpt lat="43.90601" lon="7.43946">
        <ele>932</ele>
        <time>2018-06-18T12:41:46Z</time>
      </trkpt>
      <trkpt lat="43.90599" lon="7.43958">
        <ele>930</ele>
        <time>2018-06-18T12:41:55Z</time>
      </trkpt>
      <trkpt lat="43.90597" lon="7.43967">
        <ele>930</ele>
        <time>2018-06-18T12:42:01Z</time>
      </trkpt>
      <trkpt lat="43.90591" lon="7.43977">
        <ele>929</ele>
        <time>2018-06-18T12:42:14Z</time>
      </trkpt>
      <trkpt lat="43.90582" lon="7.43986">
        <ele>922</ele>
        <time>2018-06-18T12:42:27Z</time>
      </trkpt>
      <trkpt lat="43.90573" lon="7.43991">
        <ele>921</ele>
        <time>2018-06-18T12:42:40Z</time>
      </trkpt>
      <trkpt lat="43.90566" lon="7.43996">
        <ele>919</ele>
        <time>2018-06-18T12:42:53Z</time>
      </trkpt>
      <trkpt lat="43.90562" lon="7.44">
        <ele>912</ele>
        <time>2018-06-18T12:43:04Z</time>
      </trkpt>
      <trkpt lat="43.90555" lon="7.44011">
        <ele>909</ele>
        <time>2018-06-18T12:43:17Z</time>
      </trkpt>
      <trkpt lat="43.90548" lon="7.44026">
        <ele>905</ele>
        <time>2018-06-18T12:43:30Z</time>
      </trkpt>
      <trkpt lat="43.90542" lon="7.44034">
        <ele>903</ele>
        <time>2018-06-18T12:43:40Z</time>
      </trkpt>
      <trkpt lat="43.90539" lon="7.44038">
        <ele>903</ele>
        <time>2018-06-18T12:43:45Z</time>
      </trkpt>
      <trkpt lat="43.90538" lon="7.44039">
        <ele>903</ele>
        <time>2018-06-18T12:43:47Z</time>
      </trkpt>
      <trkpt lat="43.90536" lon="7.44045">
        <ele>902</ele>
        <time>2018-06-18T12:43:54Z</time>
      </trkpt>
      <trkpt lat="43.90535" lon="7.44049">
        <ele>902</ele>
        <time>2018-06-18T12:43:57Z</time>
      </trkpt>
      <trkpt lat="43.90532" lon="7.44061">
        <ele>901</ele>
        <time>2018-06-18T12:44:10Z</time>
      </trkpt>
      <trkpt lat="43.90531" lon="7.44072">
        <ele>900</ele>
        <time>2018-06-18T12:44:21Z</time>
      </trkpt>
      <trkpt lat="43.90528" lon="7.44082">
        <ele>900</ele>
        <time>2018-06-18T12:44:29Z</time>
      </trkpt>
      <trkpt lat="43.9052" lon="7.44093">
        <ele>891</ele>
        <time>2018-06-18T12:44:42Z</time>
      </trkpt>
      <trkpt lat="43.90519" lon="7.44094">
        <ele>891</ele>
        <time>2018-06-18T12:44:44Z</time>
      </trkpt>
      <trkpt lat="43.90512" lon="7.44106">
        <ele>890</ele>
        <time>2018-06-18T12:44:56Z</time>
      </trkpt>
      <trkpt lat="43.90507" lon="7.44116">
        <ele>888</ele>
        <time>2018-06-18T12:45:11Z</time>
      </trkpt>
      <trkpt lat="43.90502" lon="7.4412">
        <ele>888</ele>
        <time>2018-06-18T12:45:23Z</time>
      </trkpt>
      <trkpt lat="43.90496" lon="7.44117">
        <ele>885</ele>
        <time>2018-06-18T12:45:35Z</time>
      </trkpt>
      <trkpt lat="43.90491" lon="7.44121">
        <ele>884</ele>
        <time>2018-06-18T12:45:46Z</time>
      </trkpt>
      <trkpt lat="43.90495" lon="7.4413">
        <ele>883</ele>
        <time>2018-06-18T12:45:55Z</time>
      </trkpt>
      <trkpt lat="43.90495" lon="7.44132">
        <ele>883</ele>
        <time>2018-06-18T12:45:58Z</time>
      </trkpt>
      <trkpt lat="43.90496" lon="7.44134">
        <ele>883</ele>
        <time>2018-06-18T12:46:00Z</time>
      </trkpt>
      <trkpt lat="43.90495" lon="7.44139">
        <ele>883</ele>
        <time>2018-06-18T12:46:03Z</time>
      </trkpt>
      <trkpt lat="43.90493" lon="7.44155">
        <ele>883</ele>
        <time>2018-06-18T12:46:19Z</time>
      </trkpt>
      <trkpt lat="43.90493" lon="7.44155">
        <ele>883</ele>
        <time>2018-06-18T12:46:28Z</time>
      </trkpt>
      <trkpt lat="43.90493" lon="7.44155">
        <ele>883</ele>
        <time>2018-06-18T12:46:29Z</time>
      </trkpt>
      <trkpt lat="43.90493" lon="7.44156">
        <ele>883</ele>
        <time>2018-06-18T12:47:23Z</time>
      </trkpt>
      <trkpt lat="43.90493" lon="7.44155">
        <ele>883</ele>
        <time>2018-06-18T12:48:24Z</time>
      </trkpt>
      <trkpt lat="43.90493" lon="7.44154">
        <ele>883</ele>
        <time>2018-06-18T12:49:14Z</time>
      </trkpt>
      <trkpt lat="43.90493" lon="7.44154">
        <ele>883</ele>
        <time>2018-06-18T12:49:56Z</time>
      </trkpt>
      <trkpt lat="43.90493" lon="7.44154">
        <ele>883</ele>
        <time>2018-06-18T12:51:08Z</time>
      </trkpt>
      <trkpt lat="43.90494" lon="7.44157">
        <ele>884</ele>
        <time>2018-06-18T12:52:22Z</time>
      </trkpt>
      <trkpt lat="43.90488" lon="7.44169">
        <ele>881</ele>
        <time>2018-06-18T12:52:35Z</time>
      </trkpt>
      <trkpt lat="43.90472" lon="7.44183">
        <ele>878</ele>
        <time>2018-06-18T12:52:50Z</time>
      </trkpt>
      <trkpt lat="43.90457" lon="7.4419">
        <ele>876</ele>
        <time>2018-06-18T12:53:04Z</time>
      </trkpt>
      <trkpt lat="43.9045" lon="7.44189">
        <ele>876</ele>
        <time>2018-06-18T12:53:09Z</time>
      </trkpt>
      <trkpt lat="43.90445" lon="7.44187">
        <ele>876</ele>
        <time>2018-06-18T12:53:15Z</time>
      </trkpt>
      <trkpt lat="43.90442" lon="7.44187">
        <ele>875</ele>
        <time>2018-06-18T12:53:18Z</time>
      </trkpt>
      <trkpt lat="43.90433" lon="7.44191">
        <ele>875</ele>
        <time>2018-06-18T12:53:27Z</time>
      </trkpt>
      <trkpt lat="43.90419" lon="7.44193">
        <ele>875</ele>
        <time>2018-06-18T12:53:40Z</time>
      </trkpt>
      <trkpt lat="43.90417" lon="7.44195">
        <ele>874</ele>
        <time>2018-06-18T12:53:42Z</time>
      </trkpt>
      <trkpt lat="43.90403" lon="7.44191">
        <ele>870</ele>
        <time>2018-06-18T12:53:54Z</time>
      </trkpt>
      <trkpt lat="43.90391" lon="7.44192">
        <ele>869</ele>
        <time>2018-06-18T12:54:05Z</time>
      </trkpt>
      <trkpt lat="43.90372" lon="7.44182">
        <ele>869</ele>
        <time>2018-06-18T12:54:23Z</time>
      </trkpt>
      <trkpt lat="43.90368" lon="7.44181">
        <ele>869</ele>
        <time>2018-06-18T12:54:27Z</time>
      </trkpt>
      <trkpt lat="43.90357" lon="7.44181">
        <ele>870</ele>
        <time>2018-06-18T12:54:39Z</time>
      </trkpt>
      <trkpt lat="43.90353" lon="7.44182">
        <ele>870</ele>
        <time>2018-06-18T12:54:43Z</time>
      </trkpt>
      <trkpt lat="43.90348" lon="7.44181">
        <ele>870</ele>
        <time>2018-06-18T12:54:48Z</time>
      </trkpt>
      <trkpt lat="43.9034" lon="7.44176">
        <ele>872</ele>
        <time>2018-06-18T12:55:01Z</time>
      </trkpt>
      <trkpt lat="43.90334" lon="7.44171">
        <ele>874</ele>
        <time>2018-06-18T12:55:08Z</time>
      </trkpt>
      <trkpt lat="43.90322" lon="7.44165">
        <ele>871</ele>
        <time>2018-06-18T12:55:20Z</time>
      </trkpt>
      <trkpt lat="43.90317" lon="7.44162">
        <ele>869</ele>
        <time>2018-06-18T12:55:26Z</time>
      </trkpt>
      <trkpt lat="43.90313" lon="7.4416">
        <ele>868</ele>
        <time>2018-06-18T12:55:30Z</time>
      </trkpt>
      <trkpt lat="43.9031" lon="7.44158">
        <ele>867</ele>
        <time>2018-06-18T12:55:33Z</time>
      </trkpt>
      <trkpt lat="43.90301" lon="7.44153">
        <ele>865</ele>
        <time>2018-06-18T12:55:41Z</time>
      </trkpt>
      <trkpt lat="43.90292" lon="7.44147">
        <ele>863</ele>
        <time>2018-06-18T12:55:50Z</time>
      </trkpt>
      <trkpt lat="43.90286" lon="7.44145">
        <ele>863</ele>
        <time>2018-06-18T12:55:57Z</time>
      </trkpt>
      <trkpt lat="43.90279" lon="7.44144">
        <ele>862</ele>
        <time>2018-06-18T12:56:03Z</time>
      </trkpt>
      <trkpt lat="43.90275" lon="7.44144">
        <ele>862</ele>
        <time>2018-06-18T12:56:07Z</time>
      </trkpt>
      <trkpt lat="43.90261" lon="7.44148">
        <ele>862</ele>
        <time>2018-06-18T12:56:22Z</time>
      </trkpt>
      <trkpt lat="43.90249" lon="7.44153">
        <ele>857</ele>
        <time>2018-06-18T12:56:37Z</time>
      </trkpt>
      <trkpt lat="43.90241" lon="7.44157">
        <ele>857</ele>
        <time>2018-06-18T12:56:50Z</time>
      </trkpt>
      <trkpt lat="43.9023" lon="7.44159">
        <ele>854</ele>
        <time>2018-06-18T12:57:03Z</time>
      </trkpt>
      <trkpt lat="43.90226" lon="7.44161">
        <ele>854</ele>
        <time>2018-06-18T12:57:08Z</time>
      </trkpt>
      <trkpt lat="43.90211" lon="7.44164">
        <ele>852</ele>
        <time>2018-06-18T12:57:23Z</time>
      </trkpt>
      <trkpt lat="43.90202" lon="7.44167">
        <ele>849</ele>
        <time>2018-06-18T12:57:32Z</time>
      </trkpt>
      <trkpt lat="43.90187" lon="7.44173">
        <ele>849</ele>
        <time>2018-06-18T12:57:45Z</time>
      </trkpt>
      <trkpt lat="43.9018" lon="7.44178">
        <ele>849</ele>
        <time>2018-06-18T12:57:50Z</time>
      </trkpt>
      <trkpt lat="43.90167" lon="7.44183">
        <ele>849</ele>
        <time>2018-06-18T12:58:01Z</time>
      </trkpt>
      <trkpt lat="43.90146" lon="7.44183">
        <ele>842</ele>
        <time>2018-06-18T12:58:17Z</time>
      </trkpt>
      <trkpt lat="43.9013" lon="7.44186">
        <ele>840</ele>
        <time>2018-06-18T12:58:31Z</time>
      </trkpt>
      <trkpt lat="43.90128" lon="7.44186">
        <ele>839</ele>
        <time>2018-06-18T12:58:33Z</time>
      </trkpt>
      <trkpt lat="43.90125" lon="7.44189">
        <ele>839</ele>
        <time>2018-06-18T12:58:36Z</time>
      </trkpt>
      <trkpt lat="43.90118" lon="7.44189">
        <ele>838</ele>
        <time>2018-06-18T12:58:49Z</time>
      </trkpt>
      <trkpt lat="43.90113" lon="7.44192">
        <ele>838</ele>
        <time>2018-06-18T12:58:57Z</time>
      </trkpt>
      <trkpt lat="43.90107" lon="7.44203">
        <ele>837</ele>
        <time>2018-06-18T12:59:10Z</time>
      </trkpt>
      <trkpt lat="43.90098" lon="7.44217">
        <ele>837</ele>
        <time>2018-06-18T12:59:23Z</time>
      </trkpt>
      <trkpt lat="43.90091" lon="7.4422">
        <ele>837</ele>
        <time>2018-06-18T12:59:30Z</time>
      </trkpt>
      <trkpt lat="43.9008" lon="7.44218">
        <ele>827</ele>
        <time>2018-06-18T12:59:42Z</time>
      </trkpt>
      <trkpt lat="43.90077" lon="7.44221">
        <ele>827</ele>
        <time>2018-06-18T12:59:47Z</time>
      </trkpt>
      <trkpt lat="43.90069" lon="7.44234">
        <ele>828</ele>
        <time>2018-06-18T13:00:01Z</time>
      </trkpt>
      <trkpt lat="43.90062" lon="7.44245">
        <ele>827</ele>
        <time>2018-06-18T13:00:14Z</time>
      </trkpt>
      <trkpt lat="43.9005" lon="7.4424">
        <ele>825</ele>
        <time>2018-06-18T13:00:26Z</time>
      </trkpt>
      <trkpt lat="43.90046" lon="7.44243">
        <ele>824</ele>
        <time>2018-06-18T13:00:31Z</time>
      </trkpt>
      <trkpt lat="43.90048" lon="7.44248">
        <ele>825</ele>
        <time>2018-06-18T13:00:35Z</time>
      </trkpt>
      <trkpt lat="43.90046" lon="7.44258">
        <ele>820</ele>
        <time>2018-06-18T13:00:50Z</time>
      </trkpt>
      <trkpt lat="43.90043" lon="7.44263">
        <ele>819</ele>
        <time>2018-06-18T13:01:08Z</time>
      </trkpt>
      <trkpt lat="43.90038" lon="7.44271">
        <ele>818</ele>
        <time>2018-06-18T13:01:20Z</time>
      </trkpt>
      <trkpt lat="43.90035" lon="7.4428">
        <ele>816</ele>
        <time>2018-06-18T13:01:32Z</time>
      </trkpt>
      <trkpt lat="43.90023" lon="7.44273">
        <ele>817</ele>
        <time>2018-06-18T13:01:47Z</time>
      </trkpt>
      <trkpt lat="43.90018" lon="7.44275">
        <ele>816</ele>
        <time>2018-06-18T13:01:54Z</time>
      </trkpt>
      <trkpt lat="43.90006" lon="7.44284">
        <ele>815</ele>
        <time>2018-06-18T13:02:10Z</time>
      </trkpt>
      <trkpt lat="43.90001" lon="7.44285">
        <ele>814</ele>
        <time>2018-06-18T13:02:19Z</time>
      </trkpt>
      <trkpt lat="43.89997" lon="7.4429">
        <ele>805</ele>
        <time>2018-06-18T13:02:24Z</time>
      </trkpt>
      <trkpt lat="43.89995" lon="7.44292">
        <ele>804</ele>
        <time>2018-06-18T13:02:26Z</time>
      </trkpt>
      <trkpt lat="43.89986" lon="7.44298">
        <ele>803</ele>
        <time>2018-06-18T13:02:36Z</time>
      </trkpt>
      <trkpt lat="43.89984" lon="7.44299">
        <ele>803</ele>
        <time>2018-06-18T13:02:39Z</time>
      </trkpt>
      <trkpt lat="43.8997" lon="7.44296">
        <ele>802</ele>
        <time>2018-06-18T13:02:52Z</time>
      </trkpt>
      <trkpt lat="43.89963" lon="7.44289">
        <ele>801</ele>
        <time>2018-06-18T13:03:06Z</time>
      </trkpt>
      <trkpt lat="43.89959" lon="7.44287">
        <ele>801</ele>
        <time>2018-06-18T13:03:18Z</time>
      </trkpt>
      <trkpt lat="43.89962" lon="7.44285">
        <ele>802</ele>
        <time>2018-06-18T13:03:34Z</time>
      </trkpt>
      <trkpt lat="43.89967" lon="7.44278">
        <ele>803</ele>
        <time>2018-06-18T13:03:47Z</time>
      </trkpt>
      <trkpt lat="43.89962" lon="7.44276">
        <ele>802</ele>
        <time>2018-06-18T13:04:00Z</time>
      </trkpt>
      <trkpt lat="43.89958" lon="7.44275">
        <ele>802</ele>
        <time>2018-06-18T13:04:06Z</time>
      </trkpt>
      <trkpt lat="43.89948" lon="7.44278">
        <ele>800</ele>
        <time>2018-06-18T13:04:18Z</time>
      </trkpt>
      <trkpt lat="43.89935" lon="7.44284">
        <ele>798</ele>
        <time>2018-06-18T13:04:30Z</time>
      </trkpt>
      <trkpt lat="43.89924" lon="7.44292">
        <ele>797</ele>
        <time>2018-06-18T13:04:42Z</time>
      </trkpt>
      <trkpt lat="43.89913" lon="7.44289">
        <ele>785</ele>
        <time>2018-06-18T13:04:56Z</time>
      </trkpt>
      <trkpt lat="43.89903" lon="7.44284">
        <ele>785</ele>
        <time>2018-06-18T13:05:09Z</time>
      </trkpt>
      <trkpt lat="43.89896" lon="7.44281">
        <ele>784</ele>
        <time>2018-06-18T13:05:18Z</time>
      </trkpt>
      <trkpt lat="43.89889" lon="7.44279">
        <ele>784</ele>
        <time>2018-06-18T13:05:29Z</time>
      </trkpt>
      <trkpt lat="43.89884" lon="7.44278">
        <ele>783</ele>
        <time>2018-06-18T13:05:34Z</time>
      </trkpt>
      <trkpt lat="43.89878" lon="7.44281">
        <ele>782</ele>
        <time>2018-06-18T13:05:41Z</time>
      </trkpt>
      <trkpt lat="43.89876" lon="7.44289">
        <ele>782</ele>
        <time>2018-06-18T13:05:47Z</time>
      </trkpt>
      <trkpt lat="43.89879" lon="7.44293">
        <ele>783</ele>
        <time>2018-06-18T13:05:51Z</time>
      </trkpt>
      <trkpt lat="43.89882" lon="7.44298">
        <ele>783</ele>
        <time>2018-06-18T13:05:56Z</time>
      </trkpt>
      <trkpt lat="43.89885" lon="7.44301">
        <ele>783</ele>
        <time>2018-06-18T13:05:59Z</time>
      </trkpt>
      <trkpt lat="43.89895" lon="7.44316">
        <ele>785</ele>
        <time>2018-06-18T13:06:13Z</time>
      </trkpt>
      <trkpt lat="43.89893" lon="7.44326">
        <ele>785</ele>
        <time>2018-06-18T13:06:28Z</time>
      </trkpt>
      <trkpt lat="43.8989" lon="7.44326">
        <ele>785</ele>
        <time>2018-06-18T13:06:40Z</time>
      </trkpt>
      <trkpt lat="43.89884" lon="7.44324">
        <ele>784</ele>
        <time>2018-06-18T13:06:46Z</time>
      </trkpt>
      <trkpt lat="43.89879" lon="7.44324">
        <ele>783</ele>
        <time>2018-06-18T13:06:51Z</time>
      </trkpt>
      <trkpt lat="43.89864" lon="7.44321">
        <ele>781</ele>
        <time>2018-06-18T13:07:05Z</time>
      </trkpt>
      <trkpt lat="43.89851" lon="7.44322">
        <ele>780</ele>
        <time>2018-06-18T13:07:17Z</time>
      </trkpt>
      <trkpt lat="43.89841" lon="7.44325">
        <ele>779</ele>
        <time>2018-06-18T13:07:25Z</time>
      </trkpt>
      <trkpt lat="43.89827" lon="7.4433">
        <ele>772</ele>
        <time>2018-06-18T13:07:41Z</time>
      </trkpt>
      <trkpt lat="43.89818" lon="7.44336">
        <ele>765</ele>
        <time>2018-06-18T13:07:54Z</time>
      </trkpt>
      <trkpt lat="43.8981" lon="7.44335">
        <ele>761</ele>
        <time>2018-06-18T13:08:10Z</time>
      </trkpt>
      <trkpt lat="43.89807" lon="7.44334">
        <ele>760</ele>
        <time>2018-06-18T13:08:24Z</time>
      </trkpt>
      <trkpt lat="43.89802" lon="7.44334">
        <ele>758</ele>
        <time>2018-06-18T13:08:30Z</time>
      </trkpt>
      <trkpt lat="43.89798" lon="7.44318">
        <ele>759</ele>
        <time>2018-06-18T13:08:42Z</time>
      </trkpt>
      <trkpt lat="43.8979" lon="7.44318">
        <ele>756</ele>
        <time>2018-06-18T13:08:55Z</time>
      </trkpt>
      <trkpt lat="43.89792" lon="7.44328">
        <ele>757</ele>
        <time>2018-06-18T13:09:10Z</time>
      </trkpt>
      <trkpt lat="43.89792" lon="7.44341">
        <ele>754</ele>
        <time>2018-06-18T13:09:24Z</time>
      </trkpt>
      <trkpt lat="43.89792" lon="7.44357">
        <ele>753</ele>
        <time>2018-06-18T13:09:40Z</time>
      </trkpt>
      <trkpt lat="43.89791" lon="7.44372">
        <ele>752</ele>
        <time>2018-06-18T13:09:54Z</time>
      </trkpt>
      <trkpt lat="43.89789" lon="7.44384">
        <ele>751</ele>
        <time>2018-06-18T13:10:07Z</time>
      </trkpt>
      <trkpt lat="43.89786" lon="7.44398">
        <ele>749</ele>
        <time>2018-06-18T13:10:21Z</time>
      </trkpt>
      <trkpt lat="43.89783" lon="7.44408">
        <ele>748</ele>
        <time>2018-06-18T13:10:33Z</time>
      </trkpt>
      <trkpt lat="43.8978" lon="7.4442">
        <ele>742</ele>
        <time>2018-06-18T13:10:47Z</time>
      </trkpt>
      <trkpt lat="43.89774" lon="7.44431">
        <ele>741</ele>
        <time>2018-06-18T13:11:00Z</time>
      </trkpt>
      <trkpt lat="43.89763" lon="7.44435">
        <ele>741</ele>
        <time>2018-06-18T13:11:15Z</time>
      </trkpt>
      <trkpt lat="43.89758" lon="7.44437">
        <ele>741</ele>
        <time>2018-06-18T13:11:30Z</time>
      </trkpt>
      <trkpt lat="43.89758" lon="7.44438">
        <ele>741</ele>
        <time>2018-06-18T13:12:17Z</time>
      </trkpt>
      <trkpt lat="43.89756" lon="7.44439">
        <ele>741</ele>
        <time>2018-06-18T13:12:39Z</time>
      </trkpt>
      <trkpt lat="43.89746" lon="7.4444">
        <ele>733</ele>
        <time>2018-06-18T13:12:54Z</time>
      </trkpt>
      <trkpt lat="43.89736" lon="7.44444">
        <ele>732</ele>
        <time>2018-06-18T13:13:12Z</time>
      </trkpt>
      <trkpt lat="43.89732" lon="7.44447">
        <ele>731</ele>
        <time>2018-06-18T13:13:16Z</time>
      </trkpt>
      <trkpt lat="43.89723" lon="7.44453">
        <ele>730</ele>
        <time>2018-06-18T13:13:24Z</time>
      </trkpt>
      <trkpt lat="43.89715" lon="7.44458">
        <ele>729</ele>
        <time>2018-06-18T13:13:32Z</time>
      </trkpt>
      <trkpt lat="43.89699" lon="7.44465">
        <ele>728</ele>
        <time>2018-06-18T13:13:47Z</time>
      </trkpt>
      <trkpt lat="43.89685" lon="7.44475">
        <ele>728</ele>
        <time>2018-06-18T13:14:01Z</time>
      </trkpt>
      <trkpt lat="43.89672" lon="7.44486">
        <ele>728</ele>
        <time>2018-06-18T13:14:15Z</time>
      </trkpt>
      <trkpt lat="43.89661" lon="7.445">
        <ele>722</ele>
        <time>2018-06-18T13:14:28Z</time>
      </trkpt>
      <trkpt lat="43.89658" lon="7.44506">
        <ele>725</ele>
        <time>2018-06-18T13:14:33Z</time>
      </trkpt>
      <trkpt lat="43.89644" lon="7.44523">
        <ele>721</ele>
        <time>2018-06-18T13:14:50Z</time>
      </trkpt>
      <trkpt lat="43.89638" lon="7.44531">
        <ele>720</ele>
        <time>2018-06-18T13:14:59Z</time>
      </trkpt>
      <trkpt lat="43.89626" lon="7.4455">
        <ele>720</ele>
        <time>2018-06-18T13:15:15Z</time>
      </trkpt>
      <trkpt lat="43.89622" lon="7.44558">
        <ele>720</ele>
        <time>2018-06-18T13:15:21Z</time>
      </trkpt>
      <trkpt lat="43.89617" lon="7.44564">
        <ele>719</ele>
        <time>2018-06-18T13:15:38Z</time>
      </trkpt>
      <trkpt lat="43.89612" lon="7.44575">
        <ele>718</ele>
        <time>2018-06-18T13:15:54Z</time>
      </trkpt>
      <trkpt lat="43.89605" lon="7.44588">
        <ele>728</ele>
        <time>2018-06-18T13:16:06Z</time>
      </trkpt>
      <trkpt lat="43.89605" lon="7.4459">
        <ele>728</ele>
        <time>2018-06-18T13:16:07Z</time>
      </trkpt>
      <trkpt lat="43.89591" lon="7.44603">
        <ele>727</ele>
        <time>2018-06-18T13:16:23Z</time>
      </trkpt>
      <trkpt lat="43.89587" lon="7.44598">
        <ele>724</ele>
        <time>2018-06-18T13:16:28Z</time>
      </trkpt>
      <trkpt lat="43.896" lon="7.44579">
        <ele>715</ele>
        <time>2018-06-18T13:16:46Z</time>
      </trkpt>
      <trkpt lat="43.89602" lon="7.44575">
        <ele>715</ele>
        <time>2018-06-18T13:16:50Z</time>
      </trkpt>
      <trkpt lat="43.89606" lon="7.44559">
        <ele>716</ele>
        <time>2018-06-18T13:17:02Z</time>
      </trkpt>
      <trkpt lat="43.89609" lon="7.44538">
        <ele>714</ele>
        <time>2018-06-18T13:17:17Z</time>
      </trkpt>
      <trkpt lat="43.89613" lon="7.44518">
        <ele>711</ele>
        <time>2018-06-18T13:17:31Z</time>
      </trkpt>
      <trkpt lat="43.89619" lon="7.445">
        <ele>712</ele>
        <time>2018-06-18T13:17:46Z</time>
      </trkpt>
      <trkpt lat="43.89618" lon="7.44499">
        <ele>698</ele>
        <time>2018-06-18T13:17:48Z</time>
      </trkpt>
      <trkpt lat="43.89617" lon="7.44501">
        <ele>711</ele>
        <time>2018-06-18T13:17:51Z</time>
      </trkpt>
      <trkpt lat="43.89609" lon="7.44522">
        <ele>711</ele>
        <time>2018-06-18T13:18:06Z</time>
      </trkpt>
      <trkpt lat="43.89607" lon="7.44528">
        <ele>711</ele>
        <time>2018-06-18T13:18:10Z</time>
      </trkpt>
      <trkpt lat="43.89595" lon="7.44547">
        <ele>713</ele>
        <time>2018-06-18T13:18:27Z</time>
      </trkpt>
      <trkpt lat="43.89594" lon="7.44548">
        <ele>713</ele>
        <time>2018-06-18T13:18:28Z</time>
      </trkpt>
      <trkpt lat="43.89582" lon="7.44572">
        <ele>699</ele>
        <time>2018-06-18T13:18:46Z</time>
      </trkpt>
      <trkpt lat="43.89573" lon="7.44582">
        <ele>699</ele>
        <time>2018-06-18T13:18:56Z</time>
      </trkpt>
      <trkpt lat="43.8956" lon="7.44593">
        <ele>706</ele>
        <time>2018-06-18T13:19:12Z</time>
      </trkpt>
      <trkpt lat="43.89544" lon="7.44596">
        <ele>703</ele>
        <time>2018-06-18T13:19:27Z</time>
      </trkpt>
      <trkpt lat="43.89541" lon="7.44595">
        <ele>702</ele>
        <time>2018-06-18T13:19:29Z</time>
      </trkpt>
      <trkpt lat="43.89525" lon="7.44588">
        <ele>695</ele>
        <time>2018-06-18T13:19:44Z</time>
      </trkpt>
      <trkpt lat="43.8952" lon="7.44591">
        <ele>693</ele>
        <time>2018-06-18T13:19:51Z</time>
      </trkpt>
      <trkpt lat="43.89515" lon="7.44594">
        <ele>691</ele>
        <time>2018-06-18T13:19:57Z</time>
      </trkpt>
      <trkpt lat="43.89507" lon="7.44602">
        <ele>691</ele>
        <time>2018-06-18T13:20:06Z</time>
      </trkpt>
      <trkpt lat="43.89494" lon="7.44604">
        <ele>674</ele>
        <time>2018-06-18T13:20:19Z</time>
      </trkpt>
      <trkpt lat="43.89489" lon="7.44604">
        <ele>674</ele>
        <time>2018-06-18T13:20:23Z</time>
      </trkpt>
      <trkpt lat="43.8948" lon="7.4461">
        <ele>674</ele>
        <time>2018-06-18T13:20:35Z</time>
      </trkpt>
      <trkpt lat="43.89473" lon="7.44623">
        <ele>674</ele>
        <time>2018-06-18T13:20:48Z</time>
      </trkpt>
      <trkpt lat="43.89467" lon="7.44641">
        <ele>676</ele>
        <time>2018-06-18T13:21:02Z</time>
      </trkpt>
      <trkpt lat="43.89465" lon="7.44646">
        <ele>677</ele>
        <time>2018-06-18T13:21:06Z</time>
      </trkpt>
      <trkpt lat="43.89454" lon="7.44665">
        <ele>675</ele>
        <time>2018-06-18T13:21:23Z</time>
      </trkpt>
      <trkpt lat="43.89448" lon="7.44676">
        <ele>693</ele>
        <time>2018-06-18T13:21:35Z</time>
      </trkpt>
      <trkpt lat="43.89444" lon="7.44683">
        <ele>692</ele>
        <time>2018-06-18T13:21:42Z</time>
      </trkpt>
      <trkpt lat="43.89432" lon="7.44689">
        <ele>690</ele>
        <time>2018-06-18T13:21:54Z</time>
      </trkpt>
      <trkpt lat="43.89427" lon="7.44697">
        <ele>693</ele>
        <time>2018-06-18T13:22:03Z</time>
      </trkpt>
      <trkpt lat="43.8942" lon="7.44703">
        <ele>694</ele>
        <time>2018-06-18T13:22:12Z</time>
      </trkpt>
      <trkpt lat="43.89418" lon="7.44695">
        <ele>690</ele>
        <time>2018-06-18T13:22:19Z</time>
      </trkpt>
      <trkpt lat="43.89421" lon="7.4469">
        <ele>688</ele>
        <time>2018-06-18T13:22:23Z</time>
      </trkpt>
      <trkpt lat="43.89428" lon="7.44676">
        <ele>682</ele>
        <time>2018-06-18T13:22:37Z</time>
      </trkpt>
      <trkpt lat="43.89431" lon="7.44671">
        <ele>682</ele>
        <time>2018-06-18T13:22:47Z</time>
      </trkpt>
      <trkpt lat="43.89437" lon="7.44663">
        <ele>671</ele>
        <time>2018-06-18T13:22:59Z</time>
      </trkpt>
      <trkpt lat="43.8944" lon="7.44652">
        <ele>671</ele>
        <time>2018-06-18T13:23:11Z</time>
      </trkpt>
      <trkpt lat="43.8944" lon="7.44652">
        <ele>671</ele>
        <time>2018-06-18T13:23:12Z</time>
      </trkpt>
      <trkpt lat="43.89434" lon="7.44658">
        <ele>670</ele>
        <time>2018-06-18T13:23:27Z</time>
      </trkpt>
      <trkpt lat="43.89433" lon="7.4466">
        <ele>670</ele>
        <time>2018-06-18T13:23:43Z</time>
      </trkpt>
      <trkpt lat="43.89433" lon="7.4466">
        <ele>670</ele>
        <time>2018-06-18T13:24:04Z</time>
      </trkpt>
      <trkpt lat="43.89425" lon="7.44673">
        <ele>678</ele>
        <time>2018-06-18T13:24:15Z</time>
      </trkpt>
      <trkpt lat="43.89408" lon="7.44688">
        <ele>678</ele>
        <time>2018-06-18T13:24:32Z</time>
      </trkpt>
      <trkpt lat="43.89404" lon="7.44688">
        <ele>679</ele>
        <time>2018-06-18T13:24:35Z</time>
      </trkpt>
      <trkpt lat="43.89386" lon="7.44676">
        <ele>679</ele>
        <time>2018-06-18T13:24:50Z</time>
      </trkpt>
      <trkpt lat="43.89383" lon="7.44675">
        <ele>679</ele>
        <time>2018-06-18T13:24:53Z</time>
      </trkpt>
      <trkpt lat="43.89378" lon="7.44679">
        <ele>680</ele>
        <time>2018-06-18T13:24:58Z</time>
      </trkpt>
      <trkpt lat="43.89368" lon="7.44685">
        <ele>681</ele>
        <time>2018-06-18T13:25:09Z</time>
      </trkpt>
      <trkpt lat="43.89361" lon="7.44676">
        <ele>680</ele>
        <time>2018-06-18T13:25:19Z</time>
      </trkpt>
      <trkpt lat="43.8936" lon="7.44675">
        <ele>680</ele>
        <time>2018-06-18T13:25:20Z</time>
      </trkpt>
      <trkpt lat="43.89358" lon="7.44661">
        <ele>665</ele>
        <time>2018-06-18T13:25:27Z</time>
      </trkpt>
      <trkpt lat="43.89358" lon="7.44654">
        <ele>664</ele>
        <time>2018-06-18T13:25:31Z</time>
      </trkpt>
      <trkpt lat="43.89351" lon="7.44629">
        <ele>659</ele>
        <time>2018-06-18T13:25:45Z</time>
      </trkpt>
      <trkpt lat="43.89338" lon="7.4461">
        <ele>655</ele>
        <time>2018-06-18T13:25:59Z</time>
      </trkpt>
      <trkpt lat="43.89323" lon="7.44599">
        <ele>653</ele>
        <time>2018-06-18T13:26:13Z</time>
      </trkpt>
      <trkpt lat="43.89308" lon="7.44596">
        <ele>655</ele>
        <time>2018-06-18T13:26:29Z</time>
      </trkpt>
      <trkpt lat="43.89305" lon="7.44595">
        <ele>655</ele>
        <time>2018-06-18T13:26:44Z</time>
      </trkpt>
      <trkpt lat="43.89302" lon="7.44599">
        <ele>656</ele>
        <time>2018-06-18T13:26:58Z</time>
      </trkpt>
      <trkpt lat="43.89297" lon="7.446">
        <ele>656</ele>
        <time>2018-06-18T13:27:08Z</time>
      </trkpt>
      <trkpt lat="43.89283" lon="7.44604">
        <ele>657</ele>
        <time>2018-06-18T13:27:20Z</time>
      </trkpt>
      <trkpt lat="43.8928" lon="7.44602">
        <ele>656</ele>
        <time>2018-06-18T13:27:23Z</time>
      </trkpt>
      <trkpt lat="43.89271" lon="7.44585">
        <ele>654</ele>
        <time>2018-06-18T13:27:36Z</time>
      </trkpt>
      <trkpt lat="43.8926" lon="7.4457">
        <ele>642</ele>
        <time>2018-06-18T13:27:49Z</time>
      </trkpt>
      <trkpt lat="43.89257" lon="7.4457">
        <ele>643</ele>
        <time>2018-06-18T13:27:51Z</time>
      </trkpt>
      <trkpt lat="43.8925" lon="7.44562">
        <ele>637</ele>
        <time>2018-06-18T13:28:00Z</time>
      </trkpt>
      <trkpt lat="43.89238" lon="7.44542">
        <ele>630</ele>
        <time>2018-06-18T13:28:13Z</time>
      </trkpt>
      <trkpt lat="43.89228" lon="7.44529">
        <ele>628</ele>
        <time>2018-06-18T13:28:26Z</time>
      </trkpt>
      <trkpt lat="43.89227" lon="7.44528">
        <ele>627</ele>
        <time>2018-06-18T13:28:27Z</time>
      </trkpt>
      <trkpt lat="43.89214" lon="7.44514">
        <ele>625</ele>
        <time>2018-06-18T13:28:42Z</time>
      </trkpt>
      <trkpt lat="43.89204" lon="7.44513">
        <ele>624</ele>
        <time>2018-06-18T13:28:53Z</time>
      </trkpt>
      <trkpt lat="43.89196" lon="7.4452">
        <ele>623</ele>
        <time>2018-06-18T13:29:03Z</time>
      </trkpt>
      <trkpt lat="43.89191" lon="7.44538">
        <ele>625</ele>
        <time>2018-06-18T13:29:18Z</time>
      </trkpt>
      <trkpt lat="43.8919" lon="7.44548">
        <ele>625</ele>
        <time>2018-06-18T13:29:25Z</time>
      </trkpt>
      <trkpt lat="43.89185" lon="7.44567">
        <ele>626</ele>
        <time>2018-06-18T13:29:39Z</time>
      </trkpt>
      <trkpt lat="43.89182" lon="7.44578">
        <ele>625</ele>
        <time>2018-06-18T13:29:48Z</time>
      </trkpt>
      <trkpt lat="43.89177" lon="7.44599">
        <ele>632</ele>
        <time>2018-06-18T13:30:03Z</time>
      </trkpt>
      <trkpt lat="43.89173" lon="7.44599">
        <ele>631</ele>
        <time>2018-06-18T13:30:06Z</time>
      </trkpt>
      <trkpt lat="43.89174" lon="7.44591">
        <ele>628</ele>
        <time>2018-06-18T13:30:11Z</time>
      </trkpt>
      <trkpt lat="43.89174" lon="7.44587">
        <ele>627</ele>
        <time>2018-06-18T13:30:14Z</time>
      </trkpt>
      <trkpt lat="43.89174" lon="7.44582">
        <ele>624</ele>
        <time>2018-06-18T13:30:17Z</time>
      </trkpt>
      <trkpt lat="43.89175" lon="7.44565">
        <ele>625</ele>
        <time>2018-06-18T13:30:31Z</time>
      </trkpt>
      <trkpt lat="43.89174" lon="7.44544">
        <ele>624</ele>
        <time>2018-06-18T13:30:43Z</time>
      </trkpt>
      <trkpt lat="43.89174" lon="7.44535">
        <ele>623</ele>
        <time>2018-06-18T13:30:51Z</time>
      </trkpt>
      <trkpt lat="43.89171" lon="7.44539">
        <ele>623</ele>
        <time>2018-06-18T13:30:59Z</time>
      </trkpt>
      <trkpt lat="43.89171" lon="7.44546">
        <ele>624</ele>
        <time>2018-06-18T13:31:07Z</time>
      </trkpt>
      <trkpt lat="43.89169" lon="7.44567">
        <ele>624</ele>
        <time>2018-06-18T13:31:24Z</time>
      </trkpt>
      <trkpt lat="43.89164" lon="7.44586">
        <ele>619</ele>
        <time>2018-06-18T13:31:37Z</time>
      </trkpt>
      <trkpt lat="43.89161" lon="7.44591">
        <ele>617</ele>
        <time>2018-06-18T13:31:41Z</time>
      </trkpt>
      <trkpt lat="43.89149" lon="7.44604">
        <ele>610</ele>
        <time>2018-06-18T13:31:55Z</time>
      </trkpt>
      <trkpt lat="43.89137" lon="7.44611">
        <ele>607</ele>
        <time>2018-06-18T13:32:09Z</time>
      </trkpt>
      <trkpt lat="43.89128" lon="7.44619">
        <ele>605</ele>
        <time>2018-06-18T13:32:20Z</time>
      </trkpt>
      <trkpt lat="43.8912" lon="7.44628">
        <ele>603</ele>
        <time>2018-06-18T13:32:30Z</time>
      </trkpt>
      <trkpt lat="43.89122" lon="7.44637">
        <ele>604</ele>
        <time>2018-06-18T13:32:38Z</time>
      </trkpt>
      <trkpt lat="43.89133" lon="7.44658">
        <ele>608</ele>
        <time>2018-06-18T13:32:54Z</time>
      </trkpt>
      <trkpt lat="43.89139" lon="7.44672">
        <ele>612</ele>
        <time>2018-06-18T13:33:07Z</time>
      </trkpt>
      <trkpt lat="43.89146" lon="7.44684">
        <ele>613</ele>
        <time>2018-06-18T13:33:19Z</time>
      </trkpt>
      <trkpt lat="43.89146" lon="7.44685">
        <ele>613</ele>
        <time>2018-06-18T13:33:20Z</time>
      </trkpt>
      <trkpt lat="43.89143" lon="7.44691">
        <ele>611</ele>
        <time>2018-06-18T13:33:26Z</time>
      </trkpt>
      <trkpt lat="43.89132" lon="7.44677">
        <ele>609</ele>
        <time>2018-06-18T13:33:40Z</time>
      </trkpt>
      <trkpt lat="43.89128" lon="7.44671">
        <ele>608</ele>
        <time>2018-06-18T13:33:45Z</time>
      </trkpt>
      <trkpt lat="43.89124" lon="7.44665">
        <ele>605</ele>
        <time>2018-06-18T13:33:51Z</time>
      </trkpt>
      <trkpt lat="43.89121" lon="7.44662">
        <ele>604</ele>
        <time>2018-06-18T13:33:55Z</time>
      </trkpt>
      <trkpt lat="43.89116" lon="7.44656">
        <ele>602</ele>
        <time>2018-06-18T13:34:01Z</time>
      </trkpt>
      <trkpt lat="43.89104" lon="7.44644">
        <ele>600</ele>
        <time>2018-06-18T13:34:15Z</time>
      </trkpt>
      <trkpt lat="43.8909" lon="7.44637">
        <ele>598</ele>
        <time>2018-06-18T13:34:31Z</time>
      </trkpt>
      <trkpt lat="43.89076" lon="7.44626">
        <ele>575</ele>
        <time>2018-06-18T13:34:48Z</time>
      </trkpt>
      <trkpt lat="43.89067" lon="7.44618">
        <ele>574</ele>
        <time>2018-06-18T13:35:01Z</time>
      </trkpt>
      <trkpt lat="43.89068" lon="7.44614">
        <ele>574</ele>
        <time>2018-06-18T13:35:06Z</time>
      </trkpt>
      <trkpt lat="43.8907" lon="7.44608">
        <ele>575</ele>
        <time>2018-06-18T13:35:11Z</time>
      </trkpt>
      <trkpt lat="43.89074" lon="7.44605">
        <ele>575</ele>
        <time>2018-06-18T13:35:15Z</time>
      </trkpt>
      <trkpt lat="43.8908" lon="7.44601">
        <ele>577</ele>
        <time>2018-06-18T13:35:22Z</time>
      </trkpt>
      <trkpt lat="43.89089" lon="7.44596">
        <ele>592</ele>
        <time>2018-06-18T13:35:31Z</time>
      </trkpt>
      <trkpt lat="43.89083" lon="7.44591">
        <ele>579</ele>
        <time>2018-06-18T13:35:38Z</time>
      </trkpt>
      <trkpt lat="43.89069" lon="7.4459">
        <ele>576</ele>
        <time>2018-06-18T13:35:51Z</time>
      </trkpt>
      <trkpt lat="43.89067" lon="7.44591">
        <ele>576</ele>
        <time>2018-06-18T13:35:53Z</time>
      </trkpt>
      <trkpt lat="43.89062" lon="7.44593">
        <ele>574</ele>
        <time>2018-06-18T13:35:58Z</time>
      </trkpt>
      <trkpt lat="43.89058" lon="7.44594">
        <ele>573</ele>
        <time>2018-06-18T13:36:01Z</time>
      </trkpt>
      <trkpt lat="43.89053" lon="7.44607">
        <ele>571</ele>
        <time>2018-06-18T13:36:11Z</time>
      </trkpt>
      <trkpt lat="43.8905" lon="7.44631">
        <ele>571</ele>
        <time>2018-06-18T13:36:27Z</time>
      </trkpt>
      <trkpt lat="43.89052" lon="7.4464">
        <ele>572</ele>
        <time>2018-06-18T13:36:33Z</time>
      </trkpt>
      <trkpt lat="43.89052" lon="7.44643">
        <ele>572</ele>
        <time>2018-06-18T13:36:35Z</time>
      </trkpt>
      <trkpt lat="43.89044" lon="7.44636">
        <ele>570</ele>
        <time>2018-06-18T13:36:45Z</time>
      </trkpt>
      <trkpt lat="43.89042" lon="7.44612">
        <ele>569</ele>
        <time>2018-06-18T13:37:01Z</time>
      </trkpt>
      <trkpt lat="43.89042" lon="7.4461">
        <ele>569</ele>
        <time>2018-06-18T13:37:03Z</time>
      </trkpt>
      <trkpt lat="43.89038" lon="7.44603">
        <ele>568</ele>
        <time>2018-06-18T13:37:08Z</time>
      </trkpt>
      <trkpt lat="43.89035" lon="7.4458">
        <ele>564</ele>
        <time>2018-06-18T13:37:24Z</time>
      </trkpt>
      <trkpt lat="43.89032" lon="7.44581">
        <ele>563</ele>
        <time>2018-06-18T13:37:28Z</time>
      </trkpt>
      <trkpt lat="43.8903" lon="7.44586">
        <ele>565</ele>
        <time>2018-06-18T13:37:32Z</time>
      </trkpt>
      <trkpt lat="43.89034" lon="7.44605">
        <ele>567</ele>
        <time>2018-06-18T13:37:46Z</time>
      </trkpt>
      <trkpt lat="43.89035" lon="7.4461">
        <ele>568</ele>
        <time>2018-06-18T13:37:49Z</time>
      </trkpt>
      <trkpt lat="43.89035" lon="7.44616">
        <ele>568</ele>
        <time>2018-06-18T13:37:53Z</time>
      </trkpt>
      <trkpt lat="43.89032" lon="7.44621">
        <ele>568</ele>
        <time>2018-06-18T13:37:58Z</time>
      </trkpt>
      <trkpt lat="43.89025" lon="7.4463">
        <ele>567</ele>
        <time>2018-06-18T13:38:06Z</time>
      </trkpt>
      <trkpt lat="43.89019" lon="7.44626">
        <ele>566</ele>
        <time>2018-06-18T13:38:13Z</time>
      </trkpt>
      <trkpt lat="43.8902" lon="7.44623">
        <ele>566</ele>
        <time>2018-06-18T13:38:15Z</time>
      </trkpt>
      <trkpt lat="43.89021" lon="7.44617">
        <ele>565</ele>
        <time>2018-06-18T13:38:19Z</time>
      </trkpt>
      <trkpt lat="43.89023" lon="7.44614">
        <ele>565</ele>
        <time>2018-06-18T13:38:22Z</time>
      </trkpt>
      <trkpt lat="43.89016" lon="7.44598">
        <ele>562</ele>
        <time>2018-06-18T13:38:35Z</time>
      </trkpt>
      <trkpt lat="43.89012" lon="7.44591">
        <ele>559</ele>
        <time>2018-06-18T13:38:40Z</time>
      </trkpt>
      <trkpt lat="43.89009" lon="7.44587">
        <ele>557</ele>
        <time>2018-06-18T13:38:44Z</time>
      </trkpt>
      <trkpt lat="43.89012" lon="7.4457">
        <ele>558</ele>
        <time>2018-06-18T13:38:59Z</time>
      </trkpt>
      <trkpt lat="43.89009" lon="7.4457">
        <ele>557</ele>
        <time>2018-06-18T13:39:06Z</time>
      </trkpt>
      <trkpt lat="43.89007" lon="7.44572">
        <ele>556</ele>
        <time>2018-06-18T13:39:09Z</time>
      </trkpt>
      <trkpt lat="43.89003" lon="7.44578">
        <ele>554</ele>
        <time>2018-06-18T13:39:15Z</time>
      </trkpt>
      <trkpt lat="43.89006" lon="7.44588">
        <ele>556</ele>
        <time>2018-06-18T13:39:24Z</time>
      </trkpt>
      <trkpt lat="43.89008" lon="7.44591">
        <ele>558</ele>
        <time>2018-06-18T13:39:27Z</time>
      </trkpt>
      <trkpt lat="43.89001" lon="7.4459">
        <ele>555</ele>
        <time>2018-06-18T13:39:35Z</time>
      </trkpt>
      <trkpt lat="43.88996" lon="7.44582">
        <ele>549</ele>
        <time>2018-06-18T13:39:42Z</time>
      </trkpt>
      <trkpt lat="43.88991" lon="7.44567">
        <ele>544</ele>
        <time>2018-06-18T13:39:54Z</time>
      </trkpt>
      <trkpt lat="43.88992" lon="7.44563">
        <ele>543</ele>
        <time>2018-06-18T13:39:57Z</time>
      </trkpt>
      <trkpt lat="43.88987" lon="7.44561">
        <ele>542</ele>
        <time>2018-06-18T13:40:05Z</time>
      </trkpt>
      <trkpt lat="43.88988" lon="7.44581">
        <ele>546</ele>
        <time>2018-06-18T13:40:21Z</time>
      </trkpt>
      <trkpt lat="43.88992" lon="7.44586">
        <ele>550</ele>
        <time>2018-06-18T13:40:26Z</time>
      </trkpt>
      <trkpt lat="43.88992" lon="7.44596">
        <ele>549</ele>
        <time>2018-06-18T13:40:36Z</time>
      </trkpt>
      <trkpt lat="43.88981" lon="7.44581">
        <ele>543</ele>
        <time>2018-06-18T13:40:50Z</time>
      </trkpt>
      <trkpt lat="43.88971" lon="7.44564">
        <ele>540</ele>
        <time>2018-06-18T13:41:05Z</time>
      </trkpt>
      <trkpt lat="43.88973" lon="7.44543">
        <ele>539</ele>
        <time>2018-06-18T13:41:21Z</time>
      </trkpt>
      <trkpt lat="43.88975" lon="7.44539">
        <ele>539</ele>
        <time>2018-06-18T13:41:25Z</time>
      </trkpt>
      <trkpt lat="43.88975" lon="7.44535">
        <ele>539</ele>
        <time>2018-06-18T13:41:28Z</time>
      </trkpt>
      <trkpt lat="43.88971" lon="7.44535">
        <ele>538</ele>
        <time>2018-06-18T13:41:33Z</time>
      </trkpt>
      <trkpt lat="43.88965" lon="7.44553">
        <ele>538</ele>
        <time>2018-06-18T13:41:47Z</time>
      </trkpt>
      <trkpt lat="43.88963" lon="7.44561">
        <ele>539</ele>
        <time>2018-06-18T13:41:53Z</time>
      </trkpt>
      <trkpt lat="43.88964" lon="7.44567">
        <ele>539</ele>
        <time>2018-06-18T13:41:57Z</time>
      </trkpt>
      <trkpt lat="43.88964" lon="7.44574">
        <ele>539</ele>
        <time>2018-06-18T13:42:02Z</time>
      </trkpt>
      <trkpt lat="43.88959" lon="7.44575">
        <ele>539</ele>
        <time>2018-06-18T13:42:07Z</time>
      </trkpt>
      <trkpt lat="43.88958" lon="7.44571">
        <ele>538</ele>
        <time>2018-06-18T13:42:10Z</time>
      </trkpt>
      <trkpt lat="43.88956" lon="7.44564">
        <ele>538</ele>
        <time>2018-06-18T13:42:14Z</time>
      </trkpt>
      <trkpt lat="43.88954" lon="7.44547">
        <ele>537</ele>
        <time>2018-06-18T13:42:27Z</time>
      </trkpt>
      <trkpt lat="43.88955" lon="7.44538">
        <ele>536</ele>
        <time>2018-06-18T13:42:34Z</time>
      </trkpt>
      <trkpt lat="43.88956" lon="7.44526">
        <ele>536</ele>
        <time>2018-06-18T13:42:42Z</time>
      </trkpt>
      <trkpt lat="43.88957" lon="7.4452">
        <ele>536</ele>
        <time>2018-06-18T13:42:46Z</time>
      </trkpt>
      <trkpt lat="43.88955" lon="7.44516">
        <ele>535</ele>
        <time>2018-06-18T13:42:50Z</time>
      </trkpt>
      <trkpt lat="43.88952" lon="7.44519">
        <ele>535</ele>
        <time>2018-06-18T13:42:55Z</time>
      </trkpt>
      <trkpt lat="43.88952" lon="7.44522">
        <ele>535</ele>
        <time>2018-06-18T13:42:57Z</time>
      </trkpt>
      <trkpt lat="43.88951" lon="7.44525">
        <ele>535</ele>
        <time>2018-06-18T13:42:59Z</time>
      </trkpt>
      <trkpt lat="43.88949" lon="7.44543">
        <ele>536</ele>
        <time>2018-06-18T13:43:12Z</time>
      </trkpt>
      <trkpt lat="43.88946" lon="7.44561">
        <ele>536</ele>
        <time>2018-06-18T13:43:25Z</time>
      </trkpt>
      <trkpt lat="43.88946" lon="7.44573">
        <ele>536</ele>
        <time>2018-06-18T13:43:34Z</time>
      </trkpt>
      <trkpt lat="43.88942" lon="7.44573">
        <ele>536</ele>
        <time>2018-06-18T13:43:38Z</time>
      </trkpt>
      <trkpt lat="43.88941" lon="7.44559">
        <ele>535</ele>
        <time>2018-06-18T13:43:48Z</time>
      </trkpt>
      <trkpt lat="43.88938" lon="7.44543">
        <ele>534</ele>
        <time>2018-06-18T13:43:59Z</time>
      </trkpt>
      <trkpt lat="43.88937" lon="7.4454">
        <ele>534</ele>
        <time>2018-06-18T13:44:02Z</time>
      </trkpt>
      <trkpt lat="43.88936" lon="7.44525">
        <ele>532</ele>
        <time>2018-06-18T13:44:12Z</time>
      </trkpt>
      <trkpt lat="43.88936" lon="7.4452">
        <ele>531</ele>
        <time>2018-06-18T13:44:16Z</time>
      </trkpt>
      <trkpt lat="43.88934" lon="7.44512">
        <ele>530</ele>
        <time>2018-06-18T13:44:24Z</time>
      </trkpt>
      <trkpt lat="43.8893" lon="7.44504">
        <ele>527</ele>
        <time>2018-06-18T13:44:31Z</time>
      </trkpt>
      <trkpt lat="43.88928" lon="7.44497">
        <ele>528</ele>
        <time>2018-06-18T13:44:36Z</time>
      </trkpt>
      <trkpt lat="43.88931" lon="7.44491">
        <ele>531</ele>
        <time>2018-06-18T13:44:42Z</time>
      </trkpt>
      <trkpt lat="43.88931" lon="7.44486">
        <ele>532</ele>
        <time>2018-06-18T13:44:45Z</time>
      </trkpt>
      <trkpt lat="43.88928" lon="7.44485">
        <ele>532</ele>
        <time>2018-06-18T13:44:48Z</time>
      </trkpt>
      <trkpt lat="43.88925" lon="7.44501">
        <ele>524</ele>
        <time>2018-06-18T13:44:59Z</time>
      </trkpt>
      <trkpt lat="43.88921" lon="7.44512">
        <ele>526</ele>
        <time>2018-06-18T13:45:08Z</time>
      </trkpt>
      <trkpt lat="43.88908" lon="7.44517">
        <ele>523</ele>
        <time>2018-06-18T13:45:21Z</time>
      </trkpt>
      <trkpt lat="43.889" lon="7.44508">
        <ele>522</ele>
        <time>2018-06-18T13:45:40Z</time>
      </trkpt>
      <trkpt lat="43.889" lon="7.44507">
        <ele>522</ele>
        <time>2018-06-18T13:46:36Z</time>
      </trkpt>
      <trkpt lat="43.889" lon="7.44507">
        <ele>522</ele>
        <time>2018-06-18T13:47:33Z</time>
      </trkpt>
      <trkpt lat="43.88897" lon="7.44503">
        <ele>522</ele>
        <time>2018-06-18T13:48:59Z</time>
      </trkpt>
      <trkpt lat="43.88893" lon="7.445">
        <ele>519</ele>
        <time>2018-06-18T13:49:03Z</time>
      </trkpt>
      <trkpt lat="43.88882" lon="7.4449">
        <ele>519</ele>
        <time>2018-06-18T13:49:14Z</time>
      </trkpt>
      <trkpt lat="43.88878" lon="7.44487">
        <ele>518</ele>
        <time>2018-06-18T13:49:18Z</time>
      </trkpt>
      <trkpt lat="43.88872" lon="7.44485">
        <ele>518</ele>
        <time>2018-06-18T13:49:24Z</time>
      </trkpt>
      <trkpt lat="43.88857" lon="7.44478">
        <ele>517</ele>
        <time>2018-06-18T13:49:39Z</time>
      </trkpt>
      <trkpt lat="43.88843" lon="7.44479">
        <ele>516</ele>
        <time>2018-06-18T13:49:53Z</time>
      </trkpt>
      <trkpt lat="43.88836" lon="7.44476">
        <ele>516</ele>
        <time>2018-06-18T13:50:00Z</time>
      </trkpt>
      <trkpt lat="43.88822" lon="7.44471">
        <ele>512</ele>
        <time>2018-06-18T13:50:14Z</time>
      </trkpt>
      <trkpt lat="43.88806" lon="7.44464">
        <ele>511</ele>
        <time>2018-06-18T13:50:29Z</time>
      </trkpt>
      <trkpt lat="43.88791" lon="7.4446">
        <ele>511</ele>
        <time>2018-06-18T13:50:43Z</time>
      </trkpt>
      <trkpt lat="43.88775" lon="7.44461">
        <ele>511</ele>
        <time>2018-06-18T13:50:57Z</time>
      </trkpt>
      <trkpt lat="43.88766" lon="7.44459">
        <ele>511</ele>
        <time>2018-06-18T13:51:05Z</time>
      </trkpt>
      <trkpt lat="43.88752" lon="7.44447">
        <ele>507</ele>
        <time>2018-06-18T13:51:20Z</time>
      </trkpt>
      <trkpt lat="43.88749" lon="7.44444">
        <ele>505</ele>
        <time>2018-06-18T13:51:23Z</time>
      </trkpt>
      <trkpt lat="43.88737" lon="7.44432">
        <ele>502</ele>
        <time>2018-06-18T13:51:37Z</time>
      </trkpt>
      <trkpt lat="43.88725" lon="7.44422">
        <ele>502</ele>
        <time>2018-06-18T13:51:52Z</time>
      </trkpt>
      <trkpt lat="43.88712" lon="7.44419">
        <ele>502</ele>
        <time>2018-06-18T13:52:07Z</time>
      </trkpt>
      <trkpt lat="43.88701" lon="7.44419">
        <ele>501</ele>
        <time>2018-06-18T13:52:21Z</time>
      </trkpt>
      <trkpt lat="43.887" lon="7.4442">
        <ele>501</ele>
        <time>2018-06-18T13:52:23Z</time>
      </trkpt>
      <trkpt lat="43.88697" lon="7.4442">
        <ele>501</ele>
        <time>2018-06-18T13:52:26Z</time>
      </trkpt>
      <trkpt lat="43.88694" lon="7.44418">
        <ele>500</ele>
        <time>2018-06-18T13:52:29Z</time>
      </trkpt>
      <trkpt lat="43.88694" lon="7.44413">
        <ele>484</ele>
        <time>2018-06-18T13:52:33Z</time>
      </trkpt>
      <trkpt lat="43.88705" lon="7.44408">
        <ele>485</ele>
        <time>2018-06-18T13:52:46Z</time>
      </trkpt>
      <trkpt lat="43.88714" lon="7.44405">
        <ele>485</ele>
        <time>2018-06-18T13:52:58Z</time>
      </trkpt>
      <trkpt lat="43.88724" lon="7.44402">
        <ele>486</ele>
        <time>2018-06-18T13:53:11Z</time>
      </trkpt>
      <trkpt lat="43.88726" lon="7.44401">
        <ele>487</ele>
        <time>2018-06-18T13:53:14Z</time>
      </trkpt>
      <trkpt lat="43.88716" lon="7.44398">
        <ele>485</ele>
        <time>2018-06-18T13:53:29Z</time>
      </trkpt>
      <trkpt lat="43.88706" lon="7.44397">
        <ele>484</ele>
        <time>2018-06-18T13:53:43Z</time>
      </trkpt>
      <trkpt lat="43.88696" lon="7.44397">
        <ele>483</ele>
        <time>2018-06-18T13:53:54Z</time>
      </trkpt>
      <trkpt lat="43.8868" lon="7.44406">
        <ele>483</ele>
        <time>2018-06-18T13:54:12Z</time>
      </trkpt>
      <trkpt lat="43.88671" lon="7.44408">
        <ele>484</ele>
        <time>2018-06-18T13:54:25Z</time>
      </trkpt>
      <trkpt lat="43.88668" lon="7.44408">
        <ele>484</ele>
        <time>2018-06-18T13:54:36Z</time>
      </trkpt>
      <trkpt lat="43.88656" lon="7.44409">
        <ele>477</ele>
        <time>2018-06-18T13:54:49Z</time>
      </trkpt>
      <trkpt lat="43.88644" lon="7.44409">
        <ele>474</ele>
        <time>2018-06-18T13:55:05Z</time>
      </trkpt>
      <trkpt lat="43.88642" lon="7.44409">
        <ele>473</ele>
        <time>2018-06-18T13:55:07Z</time>
      </trkpt>
      <trkpt lat="43.88635" lon="7.44408">
        <ele>472</ele>
        <time>2018-06-18T13:55:16Z</time>
      </trkpt>
      <trkpt lat="43.88631" lon="7.44408">
        <ele>471</ele>
        <time>2018-06-18T13:55:19Z</time>
      </trkpt>
      <trkpt lat="43.8862" lon="7.444">
        <ele>469</ele>
        <time>2018-06-18T13:55:35Z</time>
      </trkpt>
      <trkpt lat="43.88608" lon="7.44395">
        <ele>469</ele>
        <time>2018-06-18T13:55:47Z</time>
      </trkpt>
      <trkpt lat="43.88595" lon="7.44393">
        <ele>468</ele>
        <time>2018-06-18T13:56:01Z</time>
      </trkpt>
      <trkpt lat="43.88581" lon="7.44389">
        <ele>462</ele>
        <time>2018-06-18T13:56:17Z</time>
      </trkpt>
      <trkpt lat="43.88578" lon="7.44388">
        <ele>462</ele>
        <time>2018-06-18T13:56:22Z</time>
      </trkpt>
      <trkpt lat="43.88568" lon="7.44384">
        <ele>460</ele>
        <time>2018-06-18T13:56:33Z</time>
      </trkpt>
      <trkpt lat="43.88556" lon="7.44377">
        <ele>458</ele>
        <time>2018-06-18T13:56:46Z</time>
      </trkpt>
      <trkpt lat="43.88542" lon="7.44376">
        <ele>457</ele>
        <time>2018-06-18T13:57:01Z</time>
      </trkpt>
      <trkpt lat="43.88525" lon="7.44375">
        <ele>456</ele>
        <time>2018-06-18T13:57:18Z</time>
      </trkpt>
      <trkpt lat="43.88512" lon="7.44372">
        <ele>455</ele>
        <time>2018-06-18T13:57:33Z</time>
      </trkpt>
      <trkpt lat="43.8851" lon="7.44373">
        <ele>455</ele>
        <time>2018-06-18T13:57:47Z</time>
      </trkpt>
      <trkpt lat="43.88504" lon="7.44374">
        <ele>455</ele>
        <time>2018-06-18T13:58:14Z</time>
      </trkpt>
      <trkpt lat="43.88496" lon="7.44375">
        <ele>448</ele>
        <time>2018-06-18T13:58:22Z</time>
      </trkpt>
      <trkpt lat="43.88488" lon="7.44377">
        <ele>448</ele>
        <time>2018-06-18T13:58:30Z</time>
      </trkpt>
      <trkpt lat="43.88473" lon="7.4438">
        <ele>447</ele>
        <time>2018-06-18T13:58:46Z</time>
      </trkpt>
      <trkpt lat="43.8846" lon="7.44385">
        <ele>447</ele>
        <time>2018-06-18T13:59:00Z</time>
      </trkpt>
      <trkpt lat="43.88459" lon="7.44386">
        <ele>447</ele>
        <time>2018-06-18T13:59:01Z</time>
      </trkpt>
      <trkpt lat="43.88441" lon="7.44389">
        <ele>446</ele>
        <time>2018-06-18T13:59:17Z</time>
      </trkpt>
      <trkpt lat="43.88425" lon="7.44388">
        <ele>445</ele>
        <time>2018-06-18T13:59:32Z</time>
      </trkpt>
      <trkpt lat="43.88412" lon="7.44391">
        <ele>432</ele>
        <time>2018-06-18T13:59:47Z</time>
      </trkpt>
      <trkpt lat="43.88409" lon="7.44389">
        <ele>431</ele>
        <time>2018-06-18T13:59:50Z</time>
      </trkpt>
      <trkpt lat="43.88405" lon="7.4439">
        <ele>431</ele>
        <time>2018-06-18T13:59:54Z</time>
      </trkpt>
      <trkpt lat="43.88397" lon="7.44395">
        <ele>431</ele>
        <time>2018-06-18T14:00:03Z</time>
      </trkpt>
      <trkpt lat="43.88387" lon="7.44407">
        <ele>430</ele>
        <time>2018-06-18T14:00:16Z</time>
      </trkpt>
      <trkpt lat="43.88386" lon="7.44413">
        <ele>430</ele>
        <time>2018-06-18T14:00:21Z</time>
      </trkpt>
      <trkpt lat="43.8839" lon="7.44426">
        <ele>437</ele>
        <time>2018-06-18T14:00:33Z</time>
      </trkpt>
      <trkpt lat="43.88398" lon="7.44444">
        <ele>438</ele>
        <time>2018-06-18T14:00:48Z</time>
      </trkpt>
      <trkpt lat="43.88401" lon="7.44456">
        <ele>438</ele>
        <time>2018-06-18T14:00:56Z</time>
      </trkpt>
      <trkpt lat="43.88401" lon="7.44467">
        <ele>438</ele>
        <time>2018-06-18T14:01:02Z</time>
      </trkpt>
      <trkpt lat="43.88402" lon="7.44486">
        <ele>441</ele>
        <time>2018-06-18T14:01:14Z</time>
      </trkpt>
      <trkpt lat="43.88403" lon="7.44503">
        <ele>448</ele>
        <time>2018-06-18T14:01:25Z</time>
      </trkpt>
      <trkpt lat="43.88402" lon="7.44517">
        <ele>447</ele>
        <time>2018-06-18T14:01:35Z</time>
      </trkpt>
      <trkpt lat="43.88402" lon="7.44521">
        <ele>447</ele>
        <time>2018-06-18T14:01:38Z</time>
      </trkpt>
      <trkpt lat="43.88401" lon="7.44543">
        <ele>449</ele>
        <time>2018-06-18T14:01:52Z</time>
      </trkpt>
      <trkpt lat="43.88391" lon="7.44554">
        <ele>449</ele>
        <time>2018-06-18T14:02:08Z</time>
      </trkpt>
      <trkpt lat="43.88387" lon="7.44552">
        <ele>448</ele>
        <time>2018-06-18T14:02:13Z</time>
      </trkpt>
      <trkpt lat="43.88371" lon="7.44549">
        <ele>445</ele>
        <time>2018-06-18T14:02:28Z</time>
      </trkpt>
      <trkpt lat="43.88361" lon="7.44545">
        <ele>443</ele>
        <time>2018-06-18T14:02:40Z</time>
      </trkpt>
      <trkpt lat="43.88339" lon="7.44537">
        <ele>439</ele>
        <time>2018-06-18T14:02:58Z</time>
      </trkpt>
      <trkpt lat="43.88322" lon="7.4453">
        <ele>426</ele>
        <time>2018-06-18T14:03:13Z</time>
      </trkpt>
      <trkpt lat="43.88304" lon="7.44523">
        <ele>425</ele>
        <time>2018-06-18T14:03:27Z</time>
      </trkpt>
      <trkpt lat="43.88287" lon="7.44517">
        <ele>423</ele>
        <time>2018-06-18T14:03:43Z</time>
      </trkpt>
      <trkpt lat="43.88281" lon="7.44515">
        <ele>423</ele>
        <time>2018-06-18T14:03:48Z</time>
      </trkpt>
      <trkpt lat="43.88273" lon="7.44514">
        <ele>421</ele>
        <time>2018-06-18T14:03:56Z</time>
      </trkpt>
      <trkpt lat="43.88265" lon="7.44511">
        <ele>419</ele>
        <time>2018-06-18T14:04:03Z</time>
      </trkpt>
      <trkpt lat="43.88256" lon="7.4451">
        <ele>417</ele>
        <time>2018-06-18T14:04:10Z</time>
      </trkpt>
      <trkpt lat="43.8825" lon="7.44507">
        <ele>415</ele>
        <time>2018-06-18T14:04:15Z</time>
      </trkpt>
      <trkpt lat="43.88248" lon="7.44507">
        <ele>412</ele>
        <time>2018-06-18T14:04:17Z</time>
      </trkpt>
      <trkpt lat="43.88234" lon="7.44501">
        <ele>412</ele>
        <time>2018-06-18T14:04:31Z</time>
      </trkpt>
      <trkpt lat="43.88228" lon="7.44502">
        <ele>412</ele>
        <time>2018-06-18T14:04:38Z</time>
      </trkpt>
      <trkpt lat="43.88211" lon="7.4451">
        <ele>411</ele>
        <time>2018-06-18T14:04:55Z</time>
      </trkpt>
      <trkpt lat="43.88196" lon="7.44516">
        <ele>410</ele>
        <time>2018-06-18T14:05:09Z</time>
      </trkpt>
      <trkpt lat="43.8818" lon="7.44521">
        <ele>408</ele>
        <time>2018-06-18T14:05:24Z</time>
      </trkpt>
      <trkpt lat="43.88162" lon="7.44523">
        <ele>396</ele>
        <time>2018-06-18T14:05:41Z</time>
      </trkpt>
      <trkpt lat="43.88156" lon="7.44524">
        <ele>396</ele>
        <time>2018-06-18T14:05:46Z</time>
      </trkpt>
      <trkpt lat="43.88147" lon="7.44527">
        <ele>395</ele>
        <time>2018-06-18T14:05:54Z</time>
      </trkpt>
      <trkpt lat="43.88132" lon="7.44542">
        <ele>394</ele>
        <time>2018-06-18T14:06:10Z</time>
      </trkpt>
      <trkpt lat="43.88127" lon="7.44551">
        <ele>395</ele>
        <time>2018-06-18T14:06:18Z</time>
      </trkpt>
      <trkpt lat="43.88114" lon="7.44567">
        <ele>393</ele>
        <time>2018-06-18T14:06:33Z</time>
      </trkpt>
      <trkpt lat="43.881" lon="7.4458">
        <ele>391</ele>
        <time>2018-06-18T14:06:48Z</time>
      </trkpt>
      <trkpt lat="43.88093" lon="7.44588">
        <ele>394</ele>
        <time>2018-06-18T14:06:56Z</time>
      </trkpt>
      <trkpt lat="43.88084" lon="7.44605">
        <ele>398</ele>
        <time>2018-06-18T14:07:13Z</time>
      </trkpt>
      <trkpt lat="43.88082" lon="7.44612">
        <ele>384</ele>
        <time>2018-06-18T14:07:20Z</time>
      </trkpt>
      <trkpt lat="43.88074" lon="7.44629">
        <ele>385</ele>
        <time>2018-06-18T14:07:34Z</time>
      </trkpt>
      <trkpt lat="43.8806" lon="7.44644">
        <ele>386</ele>
        <time>2018-06-18T14:07:50Z</time>
      </trkpt>
      <trkpt lat="43.88053" lon="7.44654">
        <ele>385</ele>
        <time>2018-06-18T14:07:59Z</time>
      </trkpt>
      <trkpt lat="43.88048" lon="7.44657">
        <ele>385</ele>
        <time>2018-06-18T14:08:03Z</time>
      </trkpt>
      <trkpt lat="43.88035" lon="7.44667">
        <ele>389</ele>
        <time>2018-06-18T14:08:17Z</time>
      </trkpt>
      <trkpt lat="43.88026" lon="7.44674">
        <ele>387</ele>
        <time>2018-06-18T14:08:25Z</time>
      </trkpt>
      <trkpt lat="43.88019" lon="7.44679">
        <ele>386</ele>
        <time>2018-06-18T14:08:32Z</time>
      </trkpt>
      <trkpt lat="43.88012" lon="7.44687">
        <ele>386</ele>
        <time>2018-06-18T14:08:41Z</time>
      </trkpt>
      <trkpt lat="43.88002" lon="7.44701">
        <ele>387</ele>
        <time>2018-06-18T14:08:56Z</time>
      </trkpt>
      <trkpt lat="43.87995" lon="7.44706">
        <ele>372</ele>
        <time>2018-06-18T14:09:09Z</time>
      </trkpt>
      <trkpt lat="43.87989" lon="7.44714">
        <ele>372</ele>
        <time>2018-06-18T14:09:21Z</time>
      </trkpt>
      <trkpt lat="43.87977" lon="7.44726">
        <ele>371</ele>
        <time>2018-06-18T14:09:36Z</time>
      </trkpt>
      <trkpt lat="43.87961" lon="7.44738">
        <ele>369</ele>
        <time>2018-06-18T14:09:52Z</time>
      </trkpt>
      <trkpt lat="43.87959" lon="7.44739">
        <ele>369</ele>
        <time>2018-06-18T14:09:54Z</time>
      </trkpt>
      <trkpt lat="43.87955" lon="7.44743">
        <ele>368</ele>
        <time>2018-06-18T14:09:58Z</time>
      </trkpt>
      <trkpt lat="43.87952" lon="7.44746">
        <ele>368</ele>
        <time>2018-06-18T14:10:02Z</time>
      </trkpt>
      <trkpt lat="43.87948" lon="7.44751">
        <ele>368</ele>
        <time>2018-06-18T14:10:07Z</time>
      </trkpt>
      <trkpt lat="43.87945" lon="7.44754">
        <ele>367</ele>
        <time>2018-06-18T14:10:11Z</time>
      </trkpt>
      <trkpt lat="43.87937" lon="7.44761">
        <ele>366</ele>
        <time>2018-06-18T14:10:19Z</time>
      </trkpt>
      <trkpt lat="43.87932" lon="7.44771">
        <ele>366</ele>
        <time>2018-06-18T14:10:27Z</time>
      </trkpt>
      <trkpt lat="43.87932" lon="7.44781">
        <ele>367</ele>
        <time>2018-06-18T14:10:34Z</time>
      </trkpt>
      <trkpt lat="43.87926" lon="7.44781">
        <ele>366</ele>
        <time>2018-06-18T14:10:47Z</time>
      </trkpt>
      <trkpt lat="43.8792" lon="7.44776">
        <ele>365</ele>
        <time>2018-06-18T14:10:58Z</time>
      </trkpt>
      <trkpt lat="43.87912" lon="7.4477">
        <ele>356</ele>
        <time>2018-06-18T14:11:12Z</time>
      </trkpt>
      <trkpt lat="43.8791" lon="7.44771">
        <ele>356</ele>
        <time>2018-06-18T14:11:16Z</time>
      </trkpt>
      <trkpt lat="43.8791" lon="7.4478">
        <ele>356</ele>
        <time>2018-06-18T14:11:23Z</time>
      </trkpt>
      <trkpt lat="43.87912" lon="7.44802">
        <ele>356</ele>
        <time>2018-06-18T14:11:39Z</time>
      </trkpt>
      <trkpt lat="43.87916" lon="7.4482">
        <ele>357</ele>
        <time>2018-06-18T14:11:55Z</time>
      </trkpt>
      <trkpt lat="43.87915" lon="7.44827">
        <ele>358</ele>
        <time>2018-06-18T14:12:00Z</time>
      </trkpt>
      <trkpt lat="43.87901" lon="7.44836">
        <ele>357</ele>
        <time>2018-06-18T14:12:13Z</time>
      </trkpt>
      <trkpt lat="43.87896" lon="7.44838">
        <ele>356</ele>
        <time>2018-06-18T14:12:18Z</time>
      </trkpt>
      <trkpt lat="43.87891" lon="7.44839">
        <ele>356</ele>
        <time>2018-06-18T14:12:22Z</time>
      </trkpt>
      <trkpt lat="43.87876" lon="7.44837">
        <ele>354</ele>
        <time>2018-06-18T14:12:38Z</time>
      </trkpt>
      <trkpt lat="43.87865" lon="7.44838">
        <ele>352</ele>
        <time>2018-06-18T14:12:49Z</time>
      </trkpt>
      <trkpt lat="43.8786" lon="7.4484">
        <ele>352</ele>
        <time>2018-06-18T14:12:54Z</time>
      </trkpt>
      <trkpt lat="43.87852" lon="7.44838">
        <ele>351</ele>
        <time>2018-06-18T14:13:02Z</time>
      </trkpt>
      <trkpt lat="43.87847" lon="7.44835">
        <ele>350</ele>
        <time>2018-06-18T14:13:08Z</time>
      </trkpt>
      <trkpt lat="43.87842" lon="7.44834">
        <ele>349</ele>
        <time>2018-06-18T14:13:21Z</time>
      </trkpt>
      <trkpt lat="43.8784" lon="7.44832">
        <ele>349</ele>
        <time>2018-06-18T14:13:29Z</time>
      </trkpt>
      <trkpt lat="43.87837" lon="7.44831">
        <ele>348</ele>
        <time>2018-06-18T14:13:32Z</time>
      </trkpt>
      <trkpt lat="43.87835" lon="7.44828">
        <ele>348</ele>
        <time>2018-06-18T14:13:50Z</time>
      </trkpt>
      <trkpt lat="43.8783" lon="7.44818">
        <ele>349</ele>
        <time>2018-06-18T14:14:06Z</time>
      </trkpt>
      <trkpt lat="43.87832" lon="7.44798">
        <ele>349</ele>
        <time>2018-06-18T14:14:22Z</time>
      </trkpt>
      <trkpt lat="43.87833" lon="7.44793">
        <ele>351</ele>
        <time>2018-06-18T14:14:26Z</time>
      </trkpt>
      <trkpt lat="43.87837" lon="7.44772">
        <ele>350</ele>
        <time>2018-06-18T14:14:40Z</time>
      </trkpt>
      <trkpt lat="43.87838" lon="7.44766">
        <ele>350</ele>
        <time>2018-06-18T14:14:44Z</time>
      </trkpt>
      <trkpt lat="43.87841" lon="7.44745">
        <ele>349</ele>
        <time>2018-06-18T14:14:57Z</time>
      </trkpt>
      <trkpt lat="43.87839" lon="7.44741">
        <ele>349</ele>
        <time>2018-06-18T14:15:02Z</time>
      </trkpt>
      <trkpt lat="43.87837" lon="7.44741">
        <ele>349</ele>
        <time>2018-06-18T14:15:04Z</time>
      </trkpt>
      <trkpt lat="43.87825" lon="7.4474">
        <ele>349</ele>
        <time>2018-06-18T14:15:17Z</time>
      </trkpt>
      <trkpt lat="43.87814" lon="7.44736">
        <ele>351</ele>
        <time>2018-06-18T14:15:28Z</time>
      </trkpt>
      <trkpt lat="43.87804" lon="7.44732">
        <ele>352</ele>
        <time>2018-06-18T14:15:43Z</time>
      </trkpt>
      <trkpt lat="43.87804" lon="7.44732">
        <ele>352</ele>
        <time>2018-06-18T14:15:48Z</time>
      </trkpt>
      <trkpt lat="43.87801" lon="7.44721">
        <ele>352</ele>
        <time>2018-06-18T14:16:01Z</time>
      </trkpt>
      <trkpt lat="43.87789" lon="7.44722">
        <ele>353</ele>
        <time>2018-06-18T14:16:16Z</time>
      </trkpt>
      <trkpt lat="43.87788" lon="7.44718">
        <ele>353</ele>
        <time>2018-06-18T14:16:20Z</time>
      </trkpt>
      <trkpt lat="43.87786" lon="7.44709">
        <ele>353</ele>
        <time>2018-06-18T14:16:27Z</time>
      </trkpt>
      <trkpt lat="43.87786" lon="7.44685">
        <ele>353</ele>
        <time>2018-06-18T14:16:44Z</time>
      </trkpt>
      <trkpt lat="43.87786" lon="7.44682">
        <ele>353</ele>
        <time>2018-06-18T14:16:47Z</time>
      </trkpt>
      <trkpt lat="43.87785" lon="7.44675">
        <ele>354</ele>
        <time>2018-06-18T14:16:51Z</time>
      </trkpt>
      <trkpt lat="43.87789" lon="7.44662">
        <ele>354</ele>
        <time>2018-06-18T14:16:59Z</time>
      </trkpt>
      <trkpt lat="43.8779" lon="7.44653">
        <ele>354</ele>
        <time>2018-06-18T14:17:04Z</time>
      </trkpt>
      <trkpt lat="43.87791" lon="7.44643">
        <ele>354</ele>
        <time>2018-06-18T14:17:11Z</time>
      </trkpt>
      <trkpt lat="43.87792" lon="7.44624">
        <ele>355</ele>
        <time>2018-06-18T14:17:24Z</time>
      </trkpt>
      <trkpt lat="43.87792" lon="7.44622">
        <ele>355</ele>
        <time>2018-06-18T14:17:25Z</time>
      </trkpt>
      <trkpt lat="43.87793" lon="7.44611">
        <ele>355</ele>
        <time>2018-06-18T14:17:32Z</time>
      </trkpt>
      <trkpt lat="43.87796" lon="7.44601">
        <ele>354</ele>
        <time>2018-06-18T14:17:39Z</time>
      </trkpt>
      <trkpt lat="43.87798" lon="7.44582">
        <ele>356</ele>
        <time>2018-06-18T14:17:53Z</time>
      </trkpt>
      <trkpt lat="43.87799" lon="7.44565">
        <ele>356</ele>
        <time>2018-06-18T14:18:06Z</time>
      </trkpt>
      <trkpt lat="43.87799" lon="7.44545">
        <ele>356</ele>
        <time>2018-06-18T14:18:19Z</time>
      </trkpt>
      <trkpt lat="43.87801" lon="7.44528">
        <ele>356</ele>
        <time>2018-06-18T14:18:31Z</time>
      </trkpt>
      <trkpt lat="43.87804" lon="7.44524">
        <ele>356</ele>
        <time>2018-06-18T14:18:36Z</time>
      </trkpt>
      <trkpt lat="43.87804" lon="7.44505">
        <ele>355</ele>
        <time>2018-06-18T14:18:48Z</time>
      </trkpt>
      <trkpt lat="43.87806" lon="7.44492">
        <ele>358</ele>
        <time>2018-06-18T14:18:59Z</time>
      </trkpt>
      <trkpt lat="43.87809" lon="7.44469">
        <ele>360</ele>
        <time>2018-06-18T14:19:15Z</time>
      </trkpt>
      <trkpt lat="43.87812" lon="7.44453">
        <ele>361</ele>
        <time>2018-06-18T14:19:27Z</time>
      </trkpt>
      <trkpt lat="43.87811" lon="7.44445">
        <ele>361</ele>
        <time>2018-06-18T14:19:33Z</time>
      </trkpt>
      <trkpt lat="43.87806" lon="7.44442">
        <ele>361</ele>
        <time>2018-06-18T14:19:38Z</time>
      </trkpt>
      <trkpt lat="43.87805" lon="7.4444">
        <ele>362</ele>
        <time>2018-06-18T14:19:40Z</time>
      </trkpt>
      <trkpt lat="43.87806" lon="7.44419">
        <ele>362</ele>
        <time>2018-06-18T14:19:54Z</time>
      </trkpt>
      <trkpt lat="43.87806" lon="7.44415">
        <ele>364</ele>
        <time>2018-06-18T14:19:56Z</time>
      </trkpt>
      <trkpt lat="43.87805" lon="7.44406">
        <ele>365</ele>
        <time>2018-06-18T14:20:02Z</time>
      </trkpt>
      <trkpt lat="43.87804" lon="7.44383">
        <ele>365</ele>
        <time>2018-06-18T14:20:17Z</time>
      </trkpt>
      <trkpt lat="43.87806" lon="7.44373">
        <ele>365</ele>
        <time>2018-06-18T14:20:25Z</time>
      </trkpt>
      <trkpt lat="43.87806" lon="7.44357">
        <ele>365</ele>
        <time>2018-06-18T14:20:37Z</time>
      </trkpt>
      <trkpt lat="43.87803" lon="7.44334">
        <ele>365</ele>
        <time>2018-06-18T14:20:51Z</time>
      </trkpt>
      <trkpt lat="43.878" lon="7.44321">
        <ele>368</ele>
        <time>2018-06-18T14:21:03Z</time>
      </trkpt>
      <trkpt lat="43.87799" lon="7.44321">
        <ele>368</ele>
        <time>2018-06-18T14:21:42Z</time>
      </trkpt>
      <trkpt lat="43.878" lon="7.44312">
        <ele>368</ele>
        <time>2018-06-18T14:22:07Z</time>
      </trkpt>
      <trkpt lat="43.87801" lon="7.44306">
        <ele>368</ele>
        <time>2018-06-18T14:22:11Z</time>
      </trkpt>
      <trkpt lat="43.87811" lon="7.44288">
        <ele>368</ele>
        <time>2018-06-18T14:22:25Z</time>
      </trkpt>
      <trkpt lat="43.87822" lon="7.44277">
        <ele>368</ele>
        <time>2018-06-18T14:22:37Z</time>
      </trkpt>
      <trkpt lat="43.87833" lon="7.44261">
        <ele>369</ele>
        <time>2018-06-18T14:22:52Z</time>
      </trkpt>
      <trkpt lat="43.87837" lon="7.4426">
        <ele>365</ele>
        <time>2018-06-18T14:22:56Z</time>
      </trkpt>
      <trkpt lat="43.87841" lon="7.44256">
        <ele>366</ele>
        <time>2018-06-18T14:23:03Z</time>
      </trkpt>
      <trkpt lat="43.87845" lon="7.44245">
        <ele>366</ele>
        <time>2018-06-18T14:23:11Z</time>
      </trkpt>
      <trkpt lat="43.8785" lon="7.44226">
        <ele>365</ele>
        <time>2018-06-18T14:23:23Z</time>
      </trkpt>
      <trkpt lat="43.87854" lon="7.44201">
        <ele>365</ele>
        <time>2018-06-18T14:23:38Z</time>
      </trkpt>
      <trkpt lat="43.87855" lon="7.442">
        <ele>365</ele>
        <time>2018-06-18T14:23:39Z</time>
      </trkpt>
      <trkpt lat="43.87857" lon="7.44193">
        <ele>365</ele>
        <time>2018-06-18T14:23:53Z</time>
      </trkpt>
      <trkpt lat="43.87861" lon="7.4418">
        <ele>365</ele>
        <time>2018-06-18T14:24:07Z</time>
      </trkpt>
      <trkpt lat="43.87862" lon="7.44176">
        <ele>365</ele>
        <time>2018-06-18T14:24:10Z</time>
      </trkpt>
      <trkpt lat="43.87863" lon="7.44169">
        <ele>365</ele>
        <time>2018-06-18T14:24:17Z</time>
      </trkpt>
      <trkpt lat="43.87866" lon="7.44163">
        <ele>367</ele>
        <time>2018-06-18T14:24:23Z</time>
      </trkpt>
      <trkpt lat="43.8787" lon="7.44157">
        <ele>367</ele>
        <time>2018-06-18T14:24:29Z</time>
      </trkpt>
      <trkpt lat="43.8788" lon="7.44146">
        <ele>365</ele>
        <time>2018-06-18T14:24:40Z</time>
      </trkpt>
      <trkpt lat="43.87886" lon="7.44135">
        <ele>365</ele>
        <time>2018-06-18T14:24:49Z</time>
      </trkpt>
      <trkpt lat="43.8789" lon="7.44126">
        <ele>365</ele>
        <time>2018-06-18T14:24:56Z</time>
      </trkpt>
      <trkpt lat="43.87894" lon="7.44119">
        <ele>365</ele>
        <time>2018-06-18T14:25:11Z</time>
      </trkpt>
      <trkpt lat="43.879" lon="7.4411">
        <ele>365</ele>
        <time>2018-06-18T14:25:19Z</time>
      </trkpt>
      <trkpt lat="43.87903" lon="7.44104">
        <ele>365</ele>
        <time>2018-06-18T14:25:23Z</time>
      </trkpt>
      <trkpt lat="43.87907" lon="7.44099">
        <ele>365</ele>
        <time>2018-06-18T14:25:28Z</time>
      </trkpt>
      <trkpt lat="43.87919" lon="7.44084">
        <ele>362</ele>
        <time>2018-06-18T14:25:42Z</time>
      </trkpt>
      <trkpt lat="43.87927" lon="7.44071">
        <ele>362</ele>
        <time>2018-06-18T14:25:54Z</time>
      </trkpt>
      <trkpt lat="43.8793" lon="7.44067">
        <ele>362</ele>
        <time>2018-06-18T14:25:57Z</time>
      </trkpt>
      <trkpt lat="43.87933" lon="7.44058">
        <ele>362</ele>
        <time>2018-06-18T14:26:03Z</time>
      </trkpt>
      <trkpt lat="43.87935" lon="7.44056">
        <ele>362</ele>
        <time>2018-06-18T14:26:05Z</time>
      </trkpt>
      <trkpt lat="43.87939" lon="7.44051">
        <ele>362</ele>
        <time>2018-06-18T14:26:09Z</time>
      </trkpt>
      <trkpt lat="43.87951" lon="7.44033">
        <ele>362</ele>
        <time>2018-06-18T14:26:24Z</time>
      </trkpt>
      <trkpt lat="43.87956" lon="7.44024">
        <ele>362</ele>
        <time>2018-06-18T14:26:31Z</time>
      </trkpt>
      <trkpt lat="43.87968" lon="7.44005">
        <ele>362</ele>
        <time>2018-06-18T14:26:46Z</time>
      </trkpt>
      <trkpt lat="43.87969" lon="7.44004">
        <ele>361</ele>
        <time>2018-06-18T14:26:47Z</time>
      </trkpt>
      <trkpt lat="43.87979" lon="7.43986">
        <ele>365</ele>
        <time>2018-06-18T14:27:01Z</time>
      </trkpt>
      <trkpt lat="43.87982" lon="7.43983">
        <ele>364</ele>
        <time>2018-06-18T14:27:05Z</time>
      </trkpt>
      <trkpt lat="43.87995" lon="7.43962">
        <ele>366</ele>
        <time>2018-06-18T14:27:22Z</time>
      </trkpt>
      <trkpt lat="43.87998" lon="7.43959">
        <ele>366</ele>
        <time>2018-06-18T14:27:25Z</time>
      </trkpt>
      <trkpt lat="43.8801" lon="7.43941">
        <ele>363</ele>
        <time>2018-06-18T14:27:40Z</time>
      </trkpt>
      <trkpt lat="43.88015" lon="7.43936">
        <ele>363</ele>
        <time>2018-06-18T14:27:45Z</time>
      </trkpt>
      <trkpt lat="43.88025" lon="7.4392">
        <ele>363</ele>
        <time>2018-06-18T14:27:58Z</time>
      </trkpt>
      <trkpt lat="43.88036" lon="7.43904">
        <ele>367</ele>
        <time>2018-06-18T14:28:13Z</time>
      </trkpt>
      <trkpt lat="43.88046" lon="7.4389">
        <ele>367</ele>
        <time>2018-06-18T14:28:26Z</time>
      </trkpt>
      <trkpt lat="43.88049" lon="7.43885">
        <ele>367</ele>
        <time>2018-06-18T14:28:29Z</time>
      </trkpt>
      <trkpt lat="43.88052" lon="7.43879">
        <ele>367</ele>
        <time>2018-06-18T14:28:35Z</time>
      </trkpt>
      <trkpt lat="43.88057" lon="7.43872">
        <ele>367</ele>
        <time>2018-06-18T14:28:41Z</time>
      </trkpt>
      <trkpt lat="43.88059" lon="7.43868">
        <ele>367</ele>
        <time>2018-06-18T14:28:44Z</time>
      </trkpt>
      <trkpt lat="43.88061" lon="7.43864">
        <ele>367</ele>
        <time>2018-06-18T14:28:47Z</time>
      </trkpt>
      <trkpt lat="43.88065" lon="7.43858">
        <ele>367</ele>
        <time>2018-06-18T14:28:52Z</time>
      </trkpt>
      <trkpt lat="43.88067" lon="7.43851">
        <ele>368</ele>
        <time>2018-06-18T14:28:56Z</time>
      </trkpt>
      <trkpt lat="43.8807" lon="7.43846">
        <ele>368</ele>
        <time>2018-06-18T14:29:01Z</time>
      </trkpt>
      <trkpt lat="43.88072" lon="7.43839">
        <ele>367</ele>
        <time>2018-06-18T14:29:06Z</time>
      </trkpt>
      <trkpt lat="43.88078" lon="7.43823">
        <ele>371</ele>
        <time>2018-06-18T14:29:21Z</time>
      </trkpt>
      <trkpt lat="43.88083" lon="7.43817">
        <ele>372</ele>
        <time>2018-06-18T14:29:33Z</time>
      </trkpt>
      <trkpt lat="43.88087" lon="7.43807">
        <ele>368</ele>
        <time>2018-06-18T14:29:49Z</time>
      </trkpt>
      <trkpt lat="43.8809" lon="7.43798">
        <ele>368</ele>
        <time>2018-06-18T14:30:01Z</time>
      </trkpt>
      <trkpt lat="43.88085" lon="7.43804">
        <ele>368</ele>
        <time>2018-06-18T14:30:12Z</time>
      </trkpt>
      <trkpt lat="43.88081" lon="7.43804">
        <ele>374</ele>
        <time>2018-06-18T14:30:23Z</time>
      </trkpt>
      <trkpt lat="43.88083" lon="7.43791">
        <ele>375</ele>
        <time>2018-06-18T14:30:36Z</time>
      </trkpt>
      <trkpt lat="43.88086" lon="7.43777">
        <ele>371</ele>
        <time>2018-06-18T14:30:49Z</time>
      </trkpt>
      <trkpt lat="43.88088" lon="7.43769">
        <ele>372</ele>
        <time>2018-06-18T14:30:56Z</time>
      </trkpt>
      <trkpt lat="43.88091" lon="7.43761">
        <ele>373</ele>
        <time>2018-06-18T14:31:03Z</time>
      </trkpt>
      <trkpt lat="43.88092" lon="7.43749">
        <ele>377</ele>
        <time>2018-06-18T14:31:13Z</time>
      </trkpt>
      <trkpt lat="43.88098" lon="7.43734">
        <ele>376</ele>
        <time>2018-06-18T14:31:25Z</time>
      </trkpt>
      <trkpt lat="43.881" lon="7.43723">
        <ele>375</ele>
        <time>2018-06-18T14:31:32Z</time>
      </trkpt>
      <trkpt lat="43.88101" lon="7.43718">
        <ele>375</ele>
        <time>2018-06-18T14:31:35Z</time>
      </trkpt>
      <trkpt lat="43.88105" lon="7.43697">
        <ele>376</ele>
        <time>2018-06-18T14:31:50Z</time>
      </trkpt>
      <trkpt lat="43.88106" lon="7.4368">
        <ele>377</ele>
        <time>2018-06-18T14:32:01Z</time>
      </trkpt>
      <trkpt lat="43.88108" lon="7.43675">
        <ele>377</ele>
        <time>2018-06-18T14:32:05Z</time>
      </trkpt>
      <trkpt lat="43.88109" lon="7.43665">
        <ele>379</ele>
        <time>2018-06-18T14:32:12Z</time>
      </trkpt>
      <trkpt lat="43.8811" lon="7.43651">
        <ele>379</ele>
        <time>2018-06-18T14:32:21Z</time>
      </trkpt>
      <trkpt lat="43.8811" lon="7.43647">
        <ele>379</ele>
        <time>2018-06-18T14:32:24Z</time>
      </trkpt>
      <trkpt lat="43.88114" lon="7.43628">
        <ele>379</ele>
        <time>2018-06-18T14:32:37Z</time>
      </trkpt>
      <trkpt lat="43.88115" lon="7.43609">
        <ele>379</ele>
        <time>2018-06-18T14:32:51Z</time>
      </trkpt>
      <trkpt lat="43.88111" lon="7.43605">
        <ele>379</ele>
        <time>2018-06-18T14:32:56Z</time>
      </trkpt>
      <trkpt lat="43.88101" lon="7.43603">
        <ele>380</ele>
        <time>2018-06-18T14:33:06Z</time>
      </trkpt>
      <trkpt lat="43.88091" lon="7.43597">
        <ele>381</ele>
        <time>2018-06-18T14:33:16Z</time>
      </trkpt>
      <trkpt lat="43.88083" lon="7.43578">
        <ele>385</ele>
        <time>2018-06-18T14:33:31Z</time>
      </trkpt>
      <trkpt lat="43.8808" lon="7.43571">
        <ele>386</ele>
        <time>2018-06-18T14:33:37Z</time>
      </trkpt>
      <trkpt lat="43.88072" lon="7.43555">
        <ele>387</ele>
        <time>2018-06-18T14:33:51Z</time>
      </trkpt>
      <trkpt lat="43.88071" lon="7.43553">
        <ele>387</ele>
        <time>2018-06-18T14:33:53Z</time>
      </trkpt>
      <trkpt lat="43.88065" lon="7.43538">
        <ele>387</ele>
        <time>2018-06-18T14:34:05Z</time>
      </trkpt>
      <trkpt lat="43.8806" lon="7.43526">
        <ele>387</ele>
        <time>2018-06-18T14:34:15Z</time>
      </trkpt>
      <trkpt lat="43.88055" lon="7.43505">
        <ele>388</ele>
        <time>2018-06-18T14:34:29Z</time>
      </trkpt>
      <trkpt lat="43.88053" lon="7.43499">
        <ele>389</ele>
        <time>2018-06-18T14:34:33Z</time>
      </trkpt>
      <trkpt lat="43.88043" lon="7.43479">
        <ele>390</ele>
        <time>2018-06-18T14:34:48Z</time>
      </trkpt>
      <trkpt lat="43.88042" lon="7.43475">
        <ele>390</ele>
        <time>2018-06-18T14:34:51Z</time>
      </trkpt>
      <trkpt lat="43.88033" lon="7.4346">
        <ele>390</ele>
        <time>2018-06-18T14:35:03Z</time>
      </trkpt>
      <trkpt lat="43.88026" lon="7.43443">
        <ele>391</ele>
        <time>2018-06-18T14:35:16Z</time>
      </trkpt>
      <trkpt lat="43.88016" lon="7.43422">
        <ele>392</ele>
        <time>2018-06-18T14:35:31Z</time>
      </trkpt>
      <trkpt lat="43.88014" lon="7.43417">
        <ele>392</ele>
        <time>2018-06-18T14:35:35Z</time>
      </trkpt>
      <trkpt lat="43.88008" lon="7.43402">
        <ele>393</ele>
        <time>2018-06-18T14:35:47Z</time>
      </trkpt>
      <trkpt lat="43.88006" lon="7.43394">
        <ele>393</ele>
        <time>2018-06-18T14:35:53Z</time>
      </trkpt>
      <trkpt lat="43.88011" lon="7.43378">
        <ele>393</ele>
        <time>2018-06-18T14:36:02Z</time>
      </trkpt>
      <trkpt lat="43.8801" lon="7.43353">
        <ele>394</ele>
        <time>2018-06-18T14:36:17Z</time>
      </trkpt>
      <trkpt lat="43.88003" lon="7.43333">
        <ele>397</ele>
        <time>2018-06-18T14:36:31Z</time>
      </trkpt>
      <trkpt lat="43.88" lon="7.43318">
        <ele>401</ele>
        <time>2018-06-18T14:36:41Z</time>
      </trkpt>
      <trkpt lat="43.87993" lon="7.43297">
        <ele>403</ele>
        <time>2018-06-18T14:36:55Z</time>
      </trkpt>
      <trkpt lat="43.87988" lon="7.43272">
        <ele>402</ele>
        <time>2018-06-18T14:37:11Z</time>
      </trkpt>
      <trkpt lat="43.87986" lon="7.43265">
        <ele>401</ele>
        <time>2018-06-18T14:37:16Z</time>
      </trkpt>
      <trkpt lat="43.87982" lon="7.43254">
        <ele>401</ele>
        <time>2018-06-18T14:37:24Z</time>
      </trkpt>
      <trkpt lat="43.87983" lon="7.43239">
        <ele>400</ele>
        <time>2018-06-18T14:37:32Z</time>
      </trkpt>
      <trkpt lat="43.87983" lon="7.43228">
        <ele>400</ele>
        <time>2018-06-18T14:37:39Z</time>
      </trkpt>
      <trkpt lat="43.87984" lon="7.43222">
        <ele>400</ele>
        <time>2018-06-18T14:37:42Z</time>
      </trkpt>
      <trkpt lat="43.87987" lon="7.43215">
        <ele>400</ele>
        <time>2018-06-18T14:37:47Z</time>
      </trkpt>
      <trkpt lat="43.88001" lon="7.43206">
        <ele>394</ele>
        <time>2018-06-18T14:38:00Z</time>
      </trkpt>
      <trkpt lat="43.88006" lon="7.43202">
        <ele>394</ele>
        <time>2018-06-18T14:38:05Z</time>
      </trkpt>
      <trkpt lat="43.88012" lon="7.43197">
        <ele>394</ele>
        <time>2018-06-18T14:38:11Z</time>
      </trkpt>
      <trkpt lat="43.88016" lon="7.43193">
        <ele>394</ele>
        <time>2018-06-18T14:38:15Z</time>
      </trkpt>
      <trkpt lat="43.88032" lon="7.43186">
        <ele>394</ele>
        <time>2018-06-18T14:38:28Z</time>
      </trkpt>
      <trkpt lat="43.88037" lon="7.43178">
        <ele>394</ele>
        <time>2018-06-18T14:38:34Z</time>
      </trkpt>
      <trkpt lat="43.88039" lon="7.43175">
        <ele>394</ele>
        <time>2018-06-18T14:38:37Z</time>
      </trkpt>
      <trkpt lat="43.88054" lon="7.43168">
        <ele>393</ele>
        <time>2018-06-18T14:38:50Z</time>
      </trkpt>
      <trkpt lat="43.88069" lon="7.43155">
        <ele>397</ele>
        <time>2018-06-18T14:39:04Z</time>
      </trkpt>
      <trkpt lat="43.88081" lon="7.43147">
        <ele>398</ele>
        <time>2018-06-18T14:39:15Z</time>
      </trkpt>
      <trkpt lat="43.8809" lon="7.43143">
        <ele>398</ele>
        <time>2018-06-18T14:39:22Z</time>
      </trkpt>
      <trkpt lat="43.88099" lon="7.43138">
        <ele>399</ele>
        <time>2018-06-18T14:39:29Z</time>
      </trkpt>
      <trkpt lat="43.88109" lon="7.43131">
        <ele>400</ele>
        <time>2018-06-18T14:39:38Z</time>
      </trkpt>
      <trkpt lat="43.88111" lon="7.43129">
        <ele>400</ele>
        <time>2018-06-18T14:39:40Z</time>
      </trkpt>
      <trkpt lat="43.88126" lon="7.43118">
        <ele>400</ele>
        <time>2018-06-18T14:39:53Z</time>
      </trkpt>
      <trkpt lat="43.88134" lon="7.43112">
        <ele>401</ele>
        <time>2018-06-18T14:40:01Z</time>
      </trkpt>
      <trkpt lat="43.88147" lon="7.43102">
        <ele>401</ele>
        <time>2018-06-18T14:40:13Z</time>
      </trkpt>
      <trkpt lat="43.88151" lon="7.43099">
        <ele>402</ele>
        <time>2018-06-18T14:40:17Z</time>
      </trkpt>
      <trkpt lat="43.88171" lon="7.43094">
        <ele>401</ele>
        <time>2018-06-18T14:40:34Z</time>
      </trkpt>
      <trkpt lat="43.88173" lon="7.43094">
        <ele>401</ele>
        <time>2018-06-18T14:40:35Z</time>
      </trkpt>
      <trkpt lat="43.88188" lon="7.43095">
        <ele>399</ele>
        <time>2018-06-18T14:40:48Z</time>
      </trkpt>
      <trkpt lat="43.88193" lon="7.43095">
        <ele>398</ele>
        <time>2018-06-18T14:40:52Z</time>
      </trkpt>
      <trkpt lat="43.88209" lon="7.43094">
        <ele>397</ele>
        <time>2018-06-18T14:41:06Z</time>
      </trkpt>
      <trkpt lat="43.88222" lon="7.43089">
        <ele>397</ele>
        <time>2018-06-18T14:41:18Z</time>
      </trkpt>
      <trkpt lat="43.88226" lon="7.43084">
        <ele>397</ele>
        <time>2018-06-18T14:41:24Z</time>
      </trkpt>
      <trkpt lat="43.88231" lon="7.4308">
        <ele>403</ele>
        <time>2018-06-18T14:41:29Z</time>
      </trkpt>
      <trkpt lat="43.88238" lon="7.43071">
        <ele>402</ele>
        <time>2018-06-18T14:41:37Z</time>
      </trkpt>
      <trkpt lat="43.88246" lon="7.43054">
        <ele>405</ele>
        <time>2018-06-18T14:41:49Z</time>
      </trkpt>
      <trkpt lat="43.88249" lon="7.4305">
        <ele>406</ele>
        <time>2018-06-18T14:41:53Z</time>
      </trkpt>
      <trkpt lat="43.88253" lon="7.43044">
        <ele>402</ele>
        <time>2018-06-18T14:41:58Z</time>
      </trkpt>
      <trkpt lat="43.88263" lon="7.43021">
        <ele>404</ele>
        <time>2018-06-18T14:42:14Z</time>
      </trkpt>
      <trkpt lat="43.88278" lon="7.4301">
        <ele>404</ele>
        <time>2018-06-18T14:42:28Z</time>
      </trkpt>
      <trkpt lat="43.88281" lon="7.43009">
        <ele>403</ele>
        <time>2018-06-18T14:42:30Z</time>
      </trkpt>
      <trkpt lat="43.88283" lon="7.43008">
        <ele>403</ele>
        <time>2018-06-18T14:42:32Z</time>
      </trkpt>
      <trkpt lat="43.8829" lon="7.43005">
        <ele>402</ele>
        <time>2018-06-18T14:42:37Z</time>
      </trkpt>
      <trkpt lat="43.88309" lon="7.43">
        <ele>401</ele>
        <time>2018-06-18T14:42:52Z</time>
      </trkpt>
      <trkpt lat="43.88319" lon="7.42996">
        <ele>405</ele>
        <time>2018-06-18T14:43:01Z</time>
      </trkpt>
      <trkpt lat="43.88336" lon="7.42993">
        <ele>401</ele>
        <time>2018-06-18T14:43:16Z</time>
      </trkpt>
      <trkpt lat="43.8834" lon="7.42988">
        <ele>401</ele>
        <time>2018-06-18T14:43:21Z</time>
      </trkpt>
      <trkpt lat="43.88344" lon="7.42984">
        <ele>402</ele>
        <time>2018-06-18T14:43:27Z</time>
      </trkpt>
      <trkpt lat="43.88346" lon="7.42983">
        <ele>402</ele>
        <time>2018-06-18T14:43:29Z</time>
      </trkpt>
      <trkpt lat="43.8835" lon="7.42974">
        <ele>403</ele>
        <time>2018-06-18T14:43:36Z</time>
      </trkpt>
      <trkpt lat="43.88352" lon="7.42952">
        <ele>404</ele>
        <time>2018-06-18T14:43:51Z</time>
      </trkpt>
      <trkpt lat="43.88352" lon="7.4294">
        <ele>405</ele>
        <time>2018-06-18T14:43:59Z</time>
      </trkpt>
      <trkpt lat="43.88355" lon="7.42918">
        <ele>407</ele>
        <time>2018-06-18T14:44:14Z</time>
      </trkpt>
      <trkpt lat="43.88357" lon="7.429">
        <ele>410</ele>
        <time>2018-06-18T14:44:26Z</time>
      </trkpt>
      <trkpt lat="43.88355" lon="7.42884">
        <ele>410</ele>
        <time>2018-06-18T14:44:36Z</time>
      </trkpt>
      <trkpt lat="43.8835" lon="7.42867">
        <ele>410</ele>
        <time>2018-06-18T14:44:50Z</time>
      </trkpt>
      <trkpt lat="43.8835" lon="7.42864">
        <ele>410</ele>
        <time>2018-06-18T14:44:52Z</time>
      </trkpt>
      <trkpt lat="43.88348" lon="7.42848">
        <ele>411</ele>
        <time>2018-06-18T14:45:05Z</time>
      </trkpt>
      <trkpt lat="43.8834" lon="7.42835">
        <ele>412</ele>
        <time>2018-06-18T14:45:17Z</time>
      </trkpt>
      <trkpt lat="43.88335" lon="7.42825">
        <ele>413</ele>
        <time>2018-06-18T14:45:26Z</time>
      </trkpt>
      <trkpt lat="43.88327" lon="7.42809">
        <ele>417</ele>
        <time>2018-06-18T14:45:39Z</time>
      </trkpt>
      <trkpt lat="43.88322" lon="7.42803">
        <ele>417</ele>
        <time>2018-06-18T14:45:45Z</time>
      </trkpt>
      <trkpt lat="43.88314" lon="7.42798">
        <ele>418</ele>
        <time>2018-06-18T14:45:54Z</time>
      </trkpt>
      <trkpt lat="43.88308" lon="7.42794">
        <ele>418</ele>
        <time>2018-06-18T14:46:00Z</time>
      </trkpt>
      <trkpt lat="43.88306" lon="7.42789">
        <ele>418</ele>
        <time>2018-06-18T14:46:03Z</time>
      </trkpt>
      <trkpt lat="43.88306" lon="7.42786">
        <ele>418</ele>
        <time>2018-06-18T14:46:05Z</time>
      </trkpt>
      <trkpt lat="43.88312" lon="7.42762">
        <ele>419</ele>
        <time>2018-06-18T14:46:19Z</time>
      </trkpt>
      <trkpt lat="43.88313" lon="7.42759">
        <ele>419</ele>
        <time>2018-06-18T14:46:21Z</time>
      </trkpt>
      <trkpt lat="43.88316" lon="7.4275">
        <ele>419</ele>
        <time>2018-06-18T14:46:27Z</time>
      </trkpt>
      <trkpt lat="43.88327" lon="7.42736">
        <ele>421</ele>
        <time>2018-06-18T14:46:42Z</time>
      </trkpt>
      <trkpt lat="43.8833" lon="7.42734">
        <ele>421</ele>
        <time>2018-06-18T14:46:45Z</time>
      </trkpt>
      <trkpt lat="43.88332" lon="7.42734">
        <ele>421</ele>
        <time>2018-06-18T14:46:47Z</time>
      </trkpt>
      <trkpt lat="43.88347" lon="7.42744">
        <ele>421</ele>
        <time>2018-06-18T14:47:02Z</time>
      </trkpt>
      <trkpt lat="43.88358" lon="7.42744">
        <ele>421</ele>
        <time>2018-06-18T14:47:13Z</time>
      </trkpt>
      <trkpt lat="43.8836" lon="7.42742">
        <ele>421</ele>
        <time>2018-06-18T14:47:16Z</time>
      </trkpt>
      <trkpt lat="43.88364" lon="7.42737">
        <ele>421</ele>
        <time>2018-06-18T14:47:21Z</time>
      </trkpt>
      <trkpt lat="43.88372" lon="7.42722">
        <ele>421</ele>
        <time>2018-06-18T14:47:35Z</time>
      </trkpt>
      <trkpt lat="43.88374" lon="7.42717">
        <ele>421</ele>
        <time>2018-06-18T14:47:39Z</time>
      </trkpt>
      <trkpt lat="43.88377" lon="7.42712">
        <ele>422</ele>
        <time>2018-06-18T14:47:44Z</time>
      </trkpt>
      <trkpt lat="43.88381" lon="7.42705">
        <ele>422</ele>
        <time>2018-06-18T14:47:50Z</time>
      </trkpt>
      <trkpt lat="43.88386" lon="7.42691">
        <ele>422</ele>
        <time>2018-06-18T14:48:02Z</time>
      </trkpt>
      <trkpt lat="43.88389" lon="7.42677">
        <ele>423</ele>
        <time>2018-06-18T14:48:14Z</time>
      </trkpt>
      <trkpt lat="43.88391" lon="7.42665">
        <ele>427</ele>
        <time>2018-06-18T14:48:25Z</time>
      </trkpt>
      <trkpt lat="43.88392" lon="7.42658">
        <ele>427</ele>
        <time>2018-06-18T14:48:31Z</time>
      </trkpt>
      <trkpt lat="43.88393" lon="7.42644">
        <ele>428</ele>
        <time>2018-06-18T14:48:41Z</time>
      </trkpt>
      <trkpt lat="43.88391" lon="7.4263">
        <ele>429</ele>
        <time>2018-06-18T14:48:54Z</time>
      </trkpt>
      <trkpt lat="43.8839" lon="7.42621">
        <ele>429</ele>
        <time>2018-06-18T14:49:00Z</time>
      </trkpt>
      <trkpt lat="43.88389" lon="7.42611">
        <ele>429</ele>
        <time>2018-06-18T14:49:07Z</time>
      </trkpt>
      <trkpt lat="43.88389" lon="7.42595">
        <ele>430</ele>
        <time>2018-06-18T14:49:19Z</time>
      </trkpt>
      <trkpt lat="43.8839" lon="7.42589">
        <ele>430</ele>
        <time>2018-06-18T14:49:33Z</time>
      </trkpt>
      <trkpt lat="43.8839" lon="7.42593">
        <ele>430</ele>
        <time>2018-06-18T14:49:50Z</time>
      </trkpt>
      <trkpt lat="43.88391" lon="7.42596">
        <ele>430</ele>
        <time>2018-06-18T14:50:03Z</time>
      </trkpt>
      <trkpt lat="43.8839" lon="7.42592">
        <ele>430</ele>
        <time>2018-06-18T14:50:23Z</time>
      </trkpt>
      <trkpt lat="43.88391" lon="7.42591">
        <ele>430</ele>
        <time>2018-06-18T14:50:37Z</time>
      </trkpt>
      <trkpt lat="43.88393" lon="7.42603">
        <ele>430</ele>
        <time>2018-06-18T14:50:53Z</time>
      </trkpt>
      <trkpt lat="43.88395" lon="7.42626">
        <ele>429</ele>
        <time>2018-06-18T14:51:10Z</time>
      </trkpt>
      <trkpt lat="43.88394" lon="7.42627">
        <ele>429</ele>
        <time>2018-06-18T14:51:19Z</time>
      </trkpt>
      <trkpt lat="43.88391" lon="7.42609">
        <ele>430</ele>
        <time>2018-06-18T14:51:31Z</time>
      </trkpt>
      <trkpt lat="43.8839" lon="7.42591">
        <ele>430</ele>
        <time>2018-06-18T14:51:45Z</time>
      </trkpt>
      <trkpt lat="43.88388" lon="7.42593">
        <ele>430</ele>
        <time>2018-06-18T14:51:56Z</time>
      </trkpt>
      <trkpt lat="43.88389" lon="7.42594">
        <ele>430</ele>
        <time>2018-06-18T14:52:11Z</time>
      </trkpt>
      <trkpt lat="43.88389" lon="7.42595">
        <ele>430</ele>
        <time>2018-06-18T14:54:05Z</time>
      </trkpt>
      <trkpt lat="43.8839" lon="7.42594">
        <ele>430</ele>
        <time>2018-06-18T14:55:12Z</time>
      </trkpt>
    </trkseg>
  </trk>
</gpx>